<?xml version="1.0" encoding="UTF-8" standalone="no" ?>
<gpx xmlns="http://www.topografix.com/GPX/1/1" xmlns:xsi="http://www.w3.org/2001/XMLSchema-instance" xsi:schemaLocation="http://www.topografix.com/GPX/1/1 http://www.topografix.com/GPX/1/1/gpx.xsd" version="1.1" creator="VisuGPX - https://www.visugpx.com">
  <metadata>
    <name>Rando Sur Le Beaucet 2</name>
    <desc><![CDATA[Second tracé, à revoir sur la boucle finale, la varap c\'est pas top !!!]]></desc>
  </metadata>
  <trk>
    <name><![CDATA[gpx(1)]]></name>
    <trkseg>
      <trkpt lat="43.98387" lon="5.1172">
        <ele>271.4</ele>
        <time>2013-03-07T12:28:52Z</time>
      </trkpt>
      <trkpt lat="43.98387" lon="5.11718">
        <ele>274.6</ele>
        <time>2013-03-07T12:29:08Z</time>
      </trkpt>
      <trkpt lat="43.98382" lon="5.11709">
        <ele>275.7</ele>
        <time>2013-03-07T12:29:09Z</time>
      </trkpt>
      <trkpt lat="43.98379" lon="5.11706">
        <ele>275</ele>
        <time>2013-03-07T12:29:10Z</time>
      </trkpt>
      <trkpt lat="43.98378" lon="5.11705">
        <ele>276.5</ele>
        <time>2013-03-07T12:29:11Z</time>
      </trkpt>
      <trkpt lat="43.98375" lon="5.11704">
        <ele>277.7</ele>
        <time>2013-03-07T12:29:13Z</time>
      </trkpt>
      <trkpt lat="43.98372" lon="5.11703">
        <ele>280.2</ele>
        <time>2013-03-07T12:29:14Z</time>
      </trkpt>
      <trkpt lat="43.98369" lon="5.11703">
        <ele>283.4</ele>
        <time>2013-03-07T12:29:15Z</time>
      </trkpt>
      <trkpt lat="43.98366" lon="5.117">
        <ele>282.6</ele>
        <time>2013-03-07T12:29:16Z</time>
      </trkpt>
      <trkpt lat="43.98363" lon="5.11697">
        <ele>282.3</ele>
        <time>2013-03-07T12:29:17Z</time>
      </trkpt>
      <trkpt lat="43.9836" lon="5.11696">
        <ele>280</ele>
        <time>2013-03-07T12:29:18Z</time>
      </trkpt>
      <trkpt lat="43.98357" lon="5.11693">
        <ele>281.4</ele>
        <time>2013-03-07T12:29:19Z</time>
      </trkpt>
      <trkpt lat="43.98354" lon="5.11691">
        <ele>281.3</ele>
        <time>2013-03-07T12:29:20Z</time>
      </trkpt>
      <trkpt lat="43.9835" lon="5.11689">
        <ele>281.6</ele>
        <time>2013-03-07T12:29:21Z</time>
      </trkpt>
      <trkpt lat="43.98347" lon="5.11685">
        <ele>281.6</ele>
        <time>2013-03-07T12:29:22Z</time>
      </trkpt>
      <trkpt lat="43.98344" lon="5.11682">
        <ele>281.1</ele>
        <time>2013-03-07T12:29:23Z</time>
      </trkpt>
      <trkpt lat="43.9834" lon="5.11679">
        <ele>281.5</ele>
        <time>2013-03-07T12:29:24Z</time>
      </trkpt>
      <trkpt lat="43.98338" lon="5.11676">
        <ele>281.8</ele>
        <time>2013-03-07T12:29:25Z</time>
      </trkpt>
      <trkpt lat="43.98335" lon="5.11673">
        <ele>281.8</ele>
        <time>2013-03-07T12:29:26Z</time>
      </trkpt>
      <trkpt lat="43.98332" lon="5.1167">
        <ele>282.1</ele>
        <time>2013-03-07T12:29:27Z</time>
      </trkpt>
      <trkpt lat="43.9833" lon="5.11666">
        <ele>282.6</ele>
        <time>2013-03-07T12:29:28Z</time>
      </trkpt>
      <trkpt lat="43.98327" lon="5.11663">
        <ele>282</ele>
        <time>2013-03-07T12:29:29Z</time>
      </trkpt>
      <trkpt lat="43.98325" lon="5.1166">
        <ele>282.1</ele>
        <time>2013-03-07T12:29:30Z</time>
      </trkpt>
      <trkpt lat="43.98323" lon="5.11655">
        <ele>282.7</ele>
        <time>2013-03-07T12:29:31Z</time>
      </trkpt>
      <trkpt lat="43.98321" lon="5.11651">
        <ele>282.4</ele>
        <time>2013-03-07T12:29:32Z</time>
      </trkpt>
      <trkpt lat="43.98319" lon="5.11647">
        <ele>282.2</ele>
        <time>2013-03-07T12:29:33Z</time>
      </trkpt>
      <trkpt lat="43.98317" lon="5.11642">
        <ele>281.7</ele>
        <time>2013-03-07T12:29:34Z</time>
      </trkpt>
      <trkpt lat="43.98316" lon="5.11637">
        <ele>281.3</ele>
        <time>2013-03-07T12:29:35Z</time>
      </trkpt>
      <trkpt lat="43.98314" lon="5.11634">
        <ele>281</ele>
        <time>2013-03-07T12:29:36Z</time>
      </trkpt>
      <trkpt lat="43.98312" lon="5.11631">
        <ele>280.8</ele>
        <time>2013-03-07T12:29:37Z</time>
      </trkpt>
      <trkpt lat="43.98311" lon="5.11626">
        <ele>282.2</ele>
        <time>2013-03-07T12:29:38Z</time>
      </trkpt>
      <trkpt lat="43.98309" lon="5.11623">
        <ele>282.1</ele>
        <time>2013-03-07T12:29:39Z</time>
      </trkpt>
      <trkpt lat="43.98307" lon="5.11619">
        <ele>284.3</ele>
        <time>2013-03-07T12:29:40Z</time>
      </trkpt>
      <trkpt lat="43.98304" lon="5.11616">
        <ele>284.9</ele>
        <time>2013-03-07T12:29:41Z</time>
      </trkpt>
      <trkpt lat="43.98302" lon="5.11613">
        <ele>285.4</ele>
        <time>2013-03-07T12:29:42Z</time>
      </trkpt>
      <trkpt lat="43.983" lon="5.1161">
        <ele>286.3</ele>
        <time>2013-03-07T12:29:43Z</time>
      </trkpt>
      <trkpt lat="43.98298" lon="5.11608">
        <ele>287.4</ele>
        <time>2013-03-07T12:29:44Z</time>
      </trkpt>
      <trkpt lat="43.98296" lon="5.11605">
        <ele>286.8</ele>
        <time>2013-03-07T12:29:45Z</time>
      </trkpt>
      <trkpt lat="43.98291" lon="5.11604">
        <ele>286.3</ele>
        <time>2013-03-07T12:29:46Z</time>
      </trkpt>
      <trkpt lat="43.98288" lon="5.11601">
        <ele>285.9</ele>
        <time>2013-03-07T12:29:47Z</time>
      </trkpt>
      <trkpt lat="43.98285" lon="5.11599">
        <ele>286.3</ele>
        <time>2013-03-07T12:29:48Z</time>
      </trkpt>
      <trkpt lat="43.98282" lon="5.11596">
        <ele>286.3</ele>
        <time>2013-03-07T12:29:49Z</time>
      </trkpt>
      <trkpt lat="43.98279" lon="5.11593">
        <ele>286.6</ele>
        <time>2013-03-07T12:29:50Z</time>
      </trkpt>
      <trkpt lat="43.98276" lon="5.11588">
        <ele>285.8</ele>
        <time>2013-03-07T12:29:51Z</time>
      </trkpt>
      <trkpt lat="43.98273" lon="5.11585">
        <ele>285.3</ele>
        <time>2013-03-07T12:29:52Z</time>
      </trkpt>
      <trkpt lat="43.98269" lon="5.11581">
        <ele>285.2</ele>
        <time>2013-03-07T12:29:53Z</time>
      </trkpt>
      <trkpt lat="43.98267" lon="5.11577">
        <ele>284.8</ele>
        <time>2013-03-07T12:29:54Z</time>
      </trkpt>
      <trkpt lat="43.98265" lon="5.11569">
        <ele>284.4</ele>
        <time>2013-03-07T12:29:55Z</time>
      </trkpt>
      <trkpt lat="43.98262" lon="5.11563">
        <ele>284.4</ele>
        <time>2013-03-07T12:29:56Z</time>
      </trkpt>
      <trkpt lat="43.9826" lon="5.11557">
        <ele>284.6</ele>
        <time>2013-03-07T12:29:57Z</time>
      </trkpt>
      <trkpt lat="43.98257" lon="5.11551">
        <ele>284</ele>
        <time>2013-03-07T12:29:58Z</time>
      </trkpt>
      <trkpt lat="43.98254" lon="5.11544">
        <ele>283.9</ele>
        <time>2013-03-07T12:29:59Z</time>
      </trkpt>
      <trkpt lat="43.9825" lon="5.11538">
        <ele>283.3</ele>
        <time>2013-03-07T12:30:00Z</time>
      </trkpt>
      <trkpt lat="43.98246" lon="5.11533">
        <ele>283.6</ele>
        <time>2013-03-07T12:30:01Z</time>
      </trkpt>
      <trkpt lat="43.98242" lon="5.11529">
        <ele>284</ele>
        <time>2013-03-07T12:30:02Z</time>
      </trkpt>
      <trkpt lat="43.98237" lon="5.11525">
        <ele>284.2</ele>
        <time>2013-03-07T12:30:03Z</time>
      </trkpt>
      <trkpt lat="43.98233" lon="5.11521">
        <ele>284.2</ele>
        <time>2013-03-07T12:30:04Z</time>
      </trkpt>
      <trkpt lat="43.98228" lon="5.1152">
        <ele>284.4</ele>
        <time>2013-03-07T12:30:05Z</time>
      </trkpt>
      <trkpt lat="43.98224" lon="5.11519">
        <ele>284.6</ele>
        <time>2013-03-07T12:30:06Z</time>
      </trkpt>
      <trkpt lat="43.98219" lon="5.1152">
        <ele>284.3</ele>
        <time>2013-03-07T12:30:07Z</time>
      </trkpt>
      <trkpt lat="43.98213" lon="5.11517">
        <ele>287</ele>
        <time>2013-03-07T12:30:08Z</time>
      </trkpt>
      <trkpt lat="43.98209" lon="5.11516">
        <ele>287.8</ele>
        <time>2013-03-07T12:30:09Z</time>
      </trkpt>
      <trkpt lat="43.98204" lon="5.11515">
        <ele>288.5</ele>
        <time>2013-03-07T12:30:10Z</time>
      </trkpt>
      <trkpt lat="43.982" lon="5.11514">
        <ele>288.9</ele>
        <time>2013-03-07T12:30:11Z</time>
      </trkpt>
      <trkpt lat="43.98195" lon="5.11513">
        <ele>289.2</ele>
        <time>2013-03-07T12:30:12Z</time>
      </trkpt>
      <trkpt lat="43.9819" lon="5.11512">
        <ele>289.4</ele>
        <time>2013-03-07T12:30:13Z</time>
      </trkpt>
      <trkpt lat="43.98185" lon="5.11511">
        <ele>289.5</ele>
        <time>2013-03-07T12:30:14Z</time>
      </trkpt>
      <trkpt lat="43.9818" lon="5.11509">
        <ele>289.5</ele>
        <time>2013-03-07T12:30:15Z</time>
      </trkpt>
      <trkpt lat="43.98174" lon="5.11506">
        <ele>288.7</ele>
        <time>2013-03-07T12:30:16Z</time>
      </trkpt>
      <trkpt lat="43.98169" lon="5.11505">
        <ele>289.2</ele>
        <time>2013-03-07T12:30:17Z</time>
      </trkpt>
      <trkpt lat="43.98164" lon="5.11502">
        <ele>289.4</ele>
        <time>2013-03-07T12:30:18Z</time>
      </trkpt>
      <trkpt lat="43.98159" lon="5.115">
        <ele>289.2</ele>
        <time>2013-03-07T12:30:19Z</time>
      </trkpt>
      <trkpt lat="43.98154" lon="5.11496">
        <ele>289.1</ele>
        <time>2013-03-07T12:30:20Z</time>
      </trkpt>
      <trkpt lat="43.98149" lon="5.11494">
        <ele>289.3</ele>
        <time>2013-03-07T12:30:21Z</time>
      </trkpt>
      <trkpt lat="43.98145" lon="5.1149">
        <ele>288.9</ele>
        <time>2013-03-07T12:30:22Z</time>
      </trkpt>
      <trkpt lat="43.98141" lon="5.11488">
        <ele>288.2</ele>
        <time>2013-03-07T12:30:23Z</time>
      </trkpt>
      <trkpt lat="43.98136" lon="5.11487">
        <ele>288.1</ele>
        <time>2013-03-07T12:30:24Z</time>
      </trkpt>
      <trkpt lat="43.98131" lon="5.11487">
        <ele>288.1</ele>
        <time>2013-03-07T12:30:25Z</time>
      </trkpt>
      <trkpt lat="43.98128" lon="5.11485">
        <ele>288.1</ele>
        <time>2013-03-07T12:30:26Z</time>
      </trkpt>
      <trkpt lat="43.98126" lon="5.11484">
        <ele>288.3</ele>
        <time>2013-03-07T12:30:27Z</time>
      </trkpt>
      <trkpt lat="43.98124" lon="5.11483">
        <ele>288.9</ele>
        <time>2013-03-07T12:30:28Z</time>
      </trkpt>
      <trkpt lat="43.9812" lon="5.11483">
        <ele>288.9</ele>
        <time>2013-03-07T12:30:29Z</time>
      </trkpt>
      <trkpt lat="43.98116" lon="5.11482">
        <ele>289.1</ele>
        <time>2013-03-07T12:30:31Z</time>
      </trkpt>
      <trkpt lat="43.98112" lon="5.11482">
        <ele>288.6</ele>
        <time>2013-03-07T12:30:32Z</time>
      </trkpt>
      <trkpt lat="43.98108" lon="5.11483">
        <ele>288.9</ele>
        <time>2013-03-07T12:30:33Z</time>
      </trkpt>
      <trkpt lat="43.98101" lon="5.11485">
        <ele>289.9</ele>
        <time>2013-03-07T12:30:34Z</time>
      </trkpt>
      <trkpt lat="43.98096" lon="5.11485">
        <ele>291</ele>
        <time>2013-03-07T12:30:35Z</time>
      </trkpt>
      <trkpt lat="43.9809" lon="5.11485">
        <ele>292.1</ele>
        <time>2013-03-07T12:30:36Z</time>
      </trkpt>
      <trkpt lat="43.98085" lon="5.11486">
        <ele>292.3</ele>
        <time>2013-03-07T12:30:37Z</time>
      </trkpt>
      <trkpt lat="43.9808" lon="5.11486">
        <ele>292.6</ele>
        <time>2013-03-07T12:30:38Z</time>
      </trkpt>
      <trkpt lat="43.98075" lon="5.11486">
        <ele>293.1</ele>
        <time>2013-03-07T12:30:39Z</time>
      </trkpt>
      <trkpt lat="43.9807" lon="5.11486">
        <ele>293.9</ele>
        <time>2013-03-07T12:30:40Z</time>
      </trkpt>
      <trkpt lat="43.98066" lon="5.11486">
        <ele>294.3</ele>
        <time>2013-03-07T12:30:41Z</time>
      </trkpt>
      <trkpt lat="43.98062" lon="5.11486">
        <ele>294.6</ele>
        <time>2013-03-07T12:30:42Z</time>
      </trkpt>
      <trkpt lat="43.9806" lon="5.11487">
        <ele>294.7</ele>
        <time>2013-03-07T12:30:43Z</time>
      </trkpt>
      <trkpt lat="43.98056" lon="5.11488">
        <ele>294.8</ele>
        <time>2013-03-07T12:30:44Z</time>
      </trkpt>
      <trkpt lat="43.98054" lon="5.11488">
        <ele>294.9</ele>
        <time>2013-03-07T12:30:45Z</time>
      </trkpt>
      <trkpt lat="43.98051" lon="5.1149">
        <ele>295</ele>
        <time>2013-03-07T12:30:46Z</time>
      </trkpt>
      <trkpt lat="43.98046" lon="5.1149">
        <ele>298.6</ele>
        <time>2013-03-07T12:30:47Z</time>
      </trkpt>
      <trkpt lat="43.98043" lon="5.1149">
        <ele>298.8</ele>
        <time>2013-03-07T12:30:48Z</time>
      </trkpt>
      <trkpt lat="43.9804" lon="5.11489">
        <ele>299</ele>
        <time>2013-03-07T12:30:49Z</time>
      </trkpt>
      <trkpt lat="43.98038" lon="5.11489">
        <ele>298.8</ele>
        <time>2013-03-07T12:30:50Z</time>
      </trkpt>
      <trkpt lat="43.98036" lon="5.11489">
        <ele>299</ele>
        <time>2013-03-07T12:30:51Z</time>
      </trkpt>
      <trkpt lat="43.98034" lon="5.1149">
        <ele>299.2</ele>
        <time>2013-03-07T12:30:52Z</time>
      </trkpt>
      <trkpt lat="43.98031" lon="5.11491">
        <ele>299.5</ele>
        <time>2013-03-07T12:30:53Z</time>
      </trkpt>
      <trkpt lat="43.98028" lon="5.11491">
        <ele>299.6</ele>
        <time>2013-03-07T12:30:54Z</time>
      </trkpt>
      <trkpt lat="43.98026" lon="5.11492">
        <ele>300</ele>
        <time>2013-03-07T12:30:55Z</time>
      </trkpt>
      <trkpt lat="43.98024" lon="5.11494">
        <ele>300.1</ele>
        <time>2013-03-07T12:30:56Z</time>
      </trkpt>
      <trkpt lat="43.98021" lon="5.11495">
        <ele>299.8</ele>
        <time>2013-03-07T12:30:57Z</time>
      </trkpt>
      <trkpt lat="43.98017" lon="5.11497">
        <ele>299.4</ele>
        <time>2013-03-07T12:30:58Z</time>
      </trkpt>
      <trkpt lat="43.98014" lon="5.11497">
        <ele>299.4</ele>
        <time>2013-03-07T12:30:59Z</time>
      </trkpt>
      <trkpt lat="43.98011" lon="5.11497">
        <ele>299.2</ele>
        <time>2013-03-07T12:31:00Z</time>
      </trkpt>
      <trkpt lat="43.98006" lon="5.11498">
        <ele>300.5</ele>
        <time>2013-03-07T12:31:01Z</time>
      </trkpt>
      <trkpt lat="43.98002" lon="5.11499">
        <ele>299.3</ele>
        <time>2013-03-07T12:31:02Z</time>
      </trkpt>
      <trkpt lat="43.97998" lon="5.115">
        <ele>299.7</ele>
        <time>2013-03-07T12:31:03Z</time>
      </trkpt>
      <trkpt lat="43.97995" lon="5.11501">
        <ele>299.9</ele>
        <time>2013-03-07T12:31:04Z</time>
      </trkpt>
      <trkpt lat="43.97991" lon="5.11501">
        <ele>299.3</ele>
        <time>2013-03-07T12:31:05Z</time>
      </trkpt>
      <trkpt lat="43.97988" lon="5.11501">
        <ele>299.2</ele>
        <time>2013-03-07T12:31:06Z</time>
      </trkpt>
      <trkpt lat="43.97984" lon="5.11501">
        <ele>299.3</ele>
        <time>2013-03-07T12:31:07Z</time>
      </trkpt>
      <trkpt lat="43.97981" lon="5.11501">
        <ele>299.6</ele>
        <time>2013-03-07T12:31:08Z</time>
      </trkpt>
      <trkpt lat="43.97978" lon="5.115">
        <ele>300.8</ele>
        <time>2013-03-07T12:31:09Z</time>
      </trkpt>
      <trkpt lat="43.97974" lon="5.11499">
        <ele>301</ele>
        <time>2013-03-07T12:31:10Z</time>
      </trkpt>
      <trkpt lat="43.97971" lon="5.11499">
        <ele>301.2</ele>
        <time>2013-03-07T12:31:11Z</time>
      </trkpt>
      <trkpt lat="43.97967" lon="5.11499">
        <ele>302.7</ele>
        <time>2013-03-07T12:31:12Z</time>
      </trkpt>
      <trkpt lat="43.97964" lon="5.11499">
        <ele>302.6</ele>
        <time>2013-03-07T12:31:13Z</time>
      </trkpt>
      <trkpt lat="43.97961" lon="5.11499">
        <ele>303</ele>
        <time>2013-03-07T12:31:14Z</time>
      </trkpt>
      <trkpt lat="43.97958" lon="5.11499">
        <ele>303.2</ele>
        <time>2013-03-07T12:31:15Z</time>
      </trkpt>
      <trkpt lat="43.97955" lon="5.11498">
        <ele>307.8</ele>
        <time>2013-03-07T12:31:17Z</time>
      </trkpt>
      <trkpt lat="43.97953" lon="5.11498">
        <ele>308.8</ele>
        <time>2013-03-07T12:31:18Z</time>
      </trkpt>
      <trkpt lat="43.97951" lon="5.11498">
        <ele>309.8</ele>
        <time>2013-03-07T12:31:19Z</time>
      </trkpt>
      <trkpt lat="43.97946" lon="5.11499">
        <ele>307.9</ele>
        <time>2013-03-07T12:31:20Z</time>
      </trkpt>
      <trkpt lat="43.97944" lon="5.11499">
        <ele>308.6</ele>
        <time>2013-03-07T12:31:21Z</time>
      </trkpt>
      <trkpt lat="43.9794" lon="5.11499">
        <ele>306.9</ele>
        <time>2013-03-07T12:31:22Z</time>
      </trkpt>
      <trkpt lat="43.97937" lon="5.115">
        <ele>306.3</ele>
        <time>2013-03-07T12:31:23Z</time>
      </trkpt>
      <trkpt lat="43.97934" lon="5.115">
        <ele>308.3</ele>
        <time>2013-03-07T12:31:24Z</time>
      </trkpt>
      <trkpt lat="43.97932" lon="5.11501">
        <ele>309.4</ele>
        <time>2013-03-07T12:31:25Z</time>
      </trkpt>
      <trkpt lat="43.9793" lon="5.115">
        <ele>310.9</ele>
        <time>2013-03-07T12:31:26Z</time>
      </trkpt>
      <trkpt lat="43.97926" lon="5.115">
        <ele>312.9</ele>
        <time>2013-03-07T12:31:28Z</time>
      </trkpt>
      <trkpt lat="43.97923" lon="5.11501">
        <ele>313</ele>
        <time>2013-03-07T12:31:29Z</time>
      </trkpt>
      <trkpt lat="43.9792" lon="5.11502">
        <ele>313.1</ele>
        <time>2013-03-07T12:31:30Z</time>
      </trkpt>
      <trkpt lat="43.97917" lon="5.11503">
        <ele>312.2</ele>
        <time>2013-03-07T12:31:31Z</time>
      </trkpt>
      <trkpt lat="43.97913" lon="5.11504">
        <ele>312</ele>
        <time>2013-03-07T12:31:32Z</time>
      </trkpt>
      <trkpt lat="43.97911" lon="5.11505">
        <ele>312.6</ele>
        <time>2013-03-07T12:31:33Z</time>
      </trkpt>
      <trkpt lat="43.97908" lon="5.11505">
        <ele>312.7</ele>
        <time>2013-03-07T12:31:34Z</time>
      </trkpt>
      <trkpt lat="43.97906" lon="5.11506">
        <ele>313</ele>
        <time>2013-03-07T12:31:35Z</time>
      </trkpt>
      <trkpt lat="43.97901" lon="5.11507">
        <ele>313.2</ele>
        <time>2013-03-07T12:31:37Z</time>
      </trkpt>
      <trkpt lat="43.97899" lon="5.11509">
        <ele>313.4</ele>
        <time>2013-03-07T12:31:38Z</time>
      </trkpt>
      <trkpt lat="43.97897" lon="5.1151">
        <ele>313.5</ele>
        <time>2013-03-07T12:31:39Z</time>
      </trkpt>
      <trkpt lat="43.97893" lon="5.11511">
        <ele>315.3</ele>
        <time>2013-03-07T12:31:40Z</time>
      </trkpt>
      <trkpt lat="43.97889" lon="5.11512">
        <ele>316.1</ele>
        <time>2013-03-07T12:31:41Z</time>
      </trkpt>
      <trkpt lat="43.97886" lon="5.11514">
        <ele>315.4</ele>
        <time>2013-03-07T12:31:42Z</time>
      </trkpt>
      <trkpt lat="43.97883" lon="5.11516">
        <ele>315.5</ele>
        <time>2013-03-07T12:31:43Z</time>
      </trkpt>
      <trkpt lat="43.9788" lon="5.11518">
        <ele>315.7</ele>
        <time>2013-03-07T12:31:44Z</time>
      </trkpt>
      <trkpt lat="43.97877" lon="5.1152">
        <ele>315.5</ele>
        <time>2013-03-07T12:31:45Z</time>
      </trkpt>
      <trkpt lat="43.97874" lon="5.11523">
        <ele>315</ele>
        <time>2013-03-07T12:31:46Z</time>
      </trkpt>
      <trkpt lat="43.97871" lon="5.11524">
        <ele>315.5</ele>
        <time>2013-03-07T12:31:47Z</time>
      </trkpt>
      <trkpt lat="43.97869" lon="5.11525">
        <ele>315.9</ele>
        <time>2013-03-07T12:31:48Z</time>
      </trkpt>
      <trkpt lat="43.97866" lon="5.11526">
        <ele>316.3</ele>
        <time>2013-03-07T12:31:49Z</time>
      </trkpt>
      <trkpt lat="43.97865" lon="5.11529">
        <ele>316.7</ele>
        <time>2013-03-07T12:31:50Z</time>
      </trkpt>
      <trkpt lat="43.97864" lon="5.11528">
        <ele>317</ele>
        <time>2013-03-07T12:31:51Z</time>
      </trkpt>
      <trkpt lat="43.97862" lon="5.11523">
        <ele>318.2</ele>
        <time>2013-03-07T12:31:52Z</time>
      </trkpt>
      <trkpt lat="43.97857" lon="5.11518">
        <ele>321.4</ele>
        <time>2013-03-07T12:31:53Z</time>
      </trkpt>
      <trkpt lat="43.97856" lon="5.11525">
        <ele>324.5</ele>
        <time>2013-03-07T12:31:54Z</time>
      </trkpt>
      <trkpt lat="43.97849" lon="5.11534">
        <ele>319.8</ele>
        <time>2013-03-07T12:31:55Z</time>
      </trkpt>
      <trkpt lat="43.97846" lon="5.11534">
        <ele>320</ele>
        <time>2013-03-07T12:31:56Z</time>
      </trkpt>
      <trkpt lat="43.97843" lon="5.11534">
        <ele>320.1</ele>
        <time>2013-03-07T12:31:57Z</time>
      </trkpt>
      <trkpt lat="43.9784" lon="5.11534">
        <ele>319.2</ele>
        <time>2013-03-07T12:31:58Z</time>
      </trkpt>
      <trkpt lat="43.97838" lon="5.11534">
        <ele>318.5</ele>
        <time>2013-03-07T12:31:59Z</time>
      </trkpt>
      <trkpt lat="43.97833" lon="5.1153">
        <ele>317.7</ele>
        <time>2013-03-07T12:32:00Z</time>
      </trkpt>
      <trkpt lat="43.97831" lon="5.1153">
        <ele>319.5</ele>
        <time>2013-03-07T12:32:02Z</time>
      </trkpt>
      <trkpt lat="43.97828" lon="5.1153">
        <ele>320.2</ele>
        <time>2013-03-07T12:32:03Z</time>
      </trkpt>
      <trkpt lat="43.97825" lon="5.11529">
        <ele>321.2</ele>
        <time>2013-03-07T12:32:04Z</time>
      </trkpt>
      <trkpt lat="43.97822" lon="5.11529">
        <ele>321.3</ele>
        <time>2013-03-07T12:32:05Z</time>
      </trkpt>
      <trkpt lat="43.9782" lon="5.11528">
        <ele>322.1</ele>
        <time>2013-03-07T12:32:07Z</time>
      </trkpt>
      <trkpt lat="43.97818" lon="5.11526">
        <ele>322.5</ele>
        <time>2013-03-07T12:32:08Z</time>
      </trkpt>
      <trkpt lat="43.97814" lon="5.11525">
        <ele>319</ele>
        <time>2013-03-07T12:32:11Z</time>
      </trkpt>
      <trkpt lat="43.97813" lon="5.11524">
        <ele>321.5</ele>
        <time>2013-03-07T12:32:12Z</time>
      </trkpt>
      <trkpt lat="43.9781" lon="5.11522">
        <ele>322.3</ele>
        <time>2013-03-07T12:32:14Z</time>
      </trkpt>
      <trkpt lat="43.97807" lon="5.11522">
        <ele>321.9</ele>
        <time>2013-03-07T12:32:15Z</time>
      </trkpt>
      <trkpt lat="43.97803" lon="5.11522">
        <ele>321.9</ele>
        <time>2013-03-07T12:32:16Z</time>
      </trkpt>
      <trkpt lat="43.97801" lon="5.11523">
        <ele>321.8</ele>
        <time>2013-03-07T12:32:17Z</time>
      </trkpt>
      <trkpt lat="43.97798" lon="5.11522">
        <ele>327</ele>
        <time>2013-03-07T12:32:19Z</time>
      </trkpt>
      <trkpt lat="43.97794" lon="5.11523">
        <ele>325.2</ele>
        <time>2013-03-07T12:32:20Z</time>
      </trkpt>
      <trkpt lat="43.97792" lon="5.11523">
        <ele>325.2</ele>
        <time>2013-03-07T12:32:21Z</time>
      </trkpt>
      <trkpt lat="43.97789" lon="5.11522">
        <ele>324.6</ele>
        <time>2013-03-07T12:32:22Z</time>
      </trkpt>
      <trkpt lat="43.97787" lon="5.11523">
        <ele>326.1</ele>
        <time>2013-03-07T12:32:23Z</time>
      </trkpt>
      <trkpt lat="43.97784" lon="5.11522">
        <ele>326.6</ele>
        <time>2013-03-07T12:32:24Z</time>
      </trkpt>
      <trkpt lat="43.9778" lon="5.11522">
        <ele>326.9</ele>
        <time>2013-03-07T12:32:26Z</time>
      </trkpt>
      <trkpt lat="43.97779" lon="5.11522">
        <ele>326.9</ele>
        <time>2013-03-07T12:32:27Z</time>
      </trkpt>
      <trkpt lat="43.97774" lon="5.11521">
        <ele>326.5</ele>
        <time>2013-03-07T12:32:30Z</time>
      </trkpt>
      <trkpt lat="43.97773" lon="5.11519">
        <ele>329.1</ele>
        <time>2013-03-07T12:32:31Z</time>
      </trkpt>
      <trkpt lat="43.97771" lon="5.11519">
        <ele>328.6</ele>
        <time>2013-03-07T12:32:32Z</time>
      </trkpt>
      <trkpt lat="43.97767" lon="5.1152">
        <ele>328</ele>
        <time>2013-03-07T12:32:33Z</time>
      </trkpt>
      <trkpt lat="43.97763" lon="5.11519">
        <ele>329.1</ele>
        <time>2013-03-07T12:32:36Z</time>
      </trkpt>
      <trkpt lat="43.97762" lon="5.11518">
        <ele>329.1</ele>
        <time>2013-03-07T12:32:37Z</time>
      </trkpt>
      <trkpt lat="43.9776" lon="5.11517">
        <ele>329</ele>
        <time>2013-03-07T12:32:39Z</time>
      </trkpt>
      <trkpt lat="43.97758" lon="5.11516">
        <ele>331.9</ele>
        <time>2013-03-07T12:32:40Z</time>
      </trkpt>
      <trkpt lat="43.97755" lon="5.11517">
        <ele>332.1</ele>
        <time>2013-03-07T12:32:42Z</time>
      </trkpt>
      <trkpt lat="43.97753" lon="5.11518">
        <ele>331.1</ele>
        <time>2013-03-07T12:32:43Z</time>
      </trkpt>
      <trkpt lat="43.97749" lon="5.11518">
        <ele>331.2</ele>
        <time>2013-03-07T12:32:45Z</time>
      </trkpt>
      <trkpt lat="43.97747" lon="5.11519">
        <ele>331.2</ele>
        <time>2013-03-07T12:32:46Z</time>
      </trkpt>
      <trkpt lat="43.97743" lon="5.1152">
        <ele>332.8</ele>
        <time>2013-03-07T12:32:48Z</time>
      </trkpt>
      <trkpt lat="43.97741" lon="5.1152">
        <ele>333.6</ele>
        <time>2013-03-07T12:32:49Z</time>
      </trkpt>
      <trkpt lat="43.97736" lon="5.1152">
        <ele>334.1</ele>
        <time>2013-03-07T12:32:52Z</time>
      </trkpt>
      <trkpt lat="43.97736" lon="5.11519">
        <ele>338.9</ele>
        <time>2013-03-07T12:32:53Z</time>
      </trkpt>
      <trkpt lat="43.97733" lon="5.11519">
        <ele>338</ele>
        <time>2013-03-07T12:32:54Z</time>
      </trkpt>
      <trkpt lat="43.97731" lon="5.1152">
        <ele>337.6</ele>
        <time>2013-03-07T12:32:55Z</time>
      </trkpt>
      <trkpt lat="43.97728" lon="5.1152">
        <ele>337.4</ele>
        <time>2013-03-07T12:32:57Z</time>
      </trkpt>
      <trkpt lat="43.97726" lon="5.11521">
        <ele>337.2</ele>
        <time>2013-03-07T12:32:58Z</time>
      </trkpt>
      <trkpt lat="43.97724" lon="5.11522">
        <ele>337</ele>
        <time>2013-03-07T12:32:59Z</time>
      </trkpt>
      <trkpt lat="43.9772" lon="5.11522">
        <ele>338.9</ele>
        <time>2013-03-07T12:33:00Z</time>
      </trkpt>
      <trkpt lat="43.97718" lon="5.11522">
        <ele>339</ele>
        <time>2013-03-07T12:33:01Z</time>
      </trkpt>
      <trkpt lat="43.97716" lon="5.11522">
        <ele>339.7</ele>
        <time>2013-03-07T12:33:02Z</time>
      </trkpt>
      <trkpt lat="43.97712" lon="5.11522">
        <ele>341.3</ele>
        <time>2013-03-07T12:33:04Z</time>
      </trkpt>
      <trkpt lat="43.97711" lon="5.1152">
        <ele>343.5</ele>
        <time>2013-03-07T12:33:05Z</time>
      </trkpt>
      <trkpt lat="43.97708" lon="5.11515">
        <ele>347.2</ele>
        <time>2013-03-07T12:33:06Z</time>
      </trkpt>
      <trkpt lat="43.97708" lon="5.11512">
        <ele>347.4</ele>
        <time>2013-03-07T12:33:07Z</time>
      </trkpt>
      <trkpt lat="43.97704" lon="5.11515">
        <ele>352.3</ele>
        <time>2013-03-07T12:33:08Z</time>
      </trkpt>
      <trkpt lat="43.97703" lon="5.11515">
        <ele>353.3</ele>
        <time>2013-03-07T12:33:09Z</time>
      </trkpt>
      <trkpt lat="43.97699" lon="5.11519">
        <ele>353.3</ele>
        <time>2013-03-07T12:33:11Z</time>
      </trkpt>
      <trkpt lat="43.97697" lon="5.11521">
        <ele>353.7</ele>
        <time>2013-03-07T12:33:12Z</time>
      </trkpt>
      <trkpt lat="43.97694" lon="5.11522">
        <ele>353.3</ele>
        <time>2013-03-07T12:33:13Z</time>
      </trkpt>
      <trkpt lat="43.97692" lon="5.11523">
        <ele>353.4</ele>
        <time>2013-03-07T12:33:14Z</time>
      </trkpt>
      <trkpt lat="43.9769" lon="5.11524">
        <ele>353.9</ele>
        <time>2013-03-07T12:33:15Z</time>
      </trkpt>
      <trkpt lat="43.97687" lon="5.11524">
        <ele>354.2</ele>
        <time>2013-03-07T12:33:16Z</time>
      </trkpt>
      <trkpt lat="43.97685" lon="5.11527">
        <ele>354.5</ele>
        <time>2013-03-07T12:33:17Z</time>
      </trkpt>
      <trkpt lat="43.97683" lon="5.11528">
        <ele>354.5</ele>
        <time>2013-03-07T12:33:18Z</time>
      </trkpt>
      <trkpt lat="43.9768" lon="5.1153">
        <ele>354.4</ele>
        <time>2013-03-07T12:33:19Z</time>
      </trkpt>
      <trkpt lat="43.97678" lon="5.11533">
        <ele>353.8</ele>
        <time>2013-03-07T12:33:20Z</time>
      </trkpt>
      <trkpt lat="43.97675" lon="5.11536">
        <ele>353.4</ele>
        <time>2013-03-07T12:33:21Z</time>
      </trkpt>
      <trkpt lat="43.97672" lon="5.11538">
        <ele>353.6</ele>
        <time>2013-03-07T12:33:22Z</time>
      </trkpt>
      <trkpt lat="43.97668" lon="5.11541">
        <ele>352.4</ele>
        <time>2013-03-07T12:33:23Z</time>
      </trkpt>
      <trkpt lat="43.97665" lon="5.11543">
        <ele>351.3</ele>
        <time>2013-03-07T12:33:24Z</time>
      </trkpt>
      <trkpt lat="43.97661" lon="5.11545">
        <ele>351</ele>
        <time>2013-03-07T12:33:25Z</time>
      </trkpt>
      <trkpt lat="43.97658" lon="5.11546">
        <ele>349.5</ele>
        <time>2013-03-07T12:33:26Z</time>
      </trkpt>
      <trkpt lat="43.97655" lon="5.11548">
        <ele>348.7</ele>
        <time>2013-03-07T12:33:27Z</time>
      </trkpt>
      <trkpt lat="43.97652" lon="5.11549">
        <ele>348.4</ele>
        <time>2013-03-07T12:33:28Z</time>
      </trkpt>
      <trkpt lat="43.97648" lon="5.11551">
        <ele>347.1</ele>
        <time>2013-03-07T12:33:29Z</time>
      </trkpt>
      <trkpt lat="43.97646" lon="5.11553">
        <ele>346.4</ele>
        <time>2013-03-07T12:33:30Z</time>
      </trkpt>
      <trkpt lat="43.97643" lon="5.11555">
        <ele>345.8</ele>
        <time>2013-03-07T12:33:31Z</time>
      </trkpt>
      <trkpt lat="43.9764" lon="5.11555">
        <ele>344.6</ele>
        <time>2013-03-07T12:33:32Z</time>
      </trkpt>
      <trkpt lat="43.97636" lon="5.11555">
        <ele>343.9</ele>
        <time>2013-03-07T12:33:33Z</time>
      </trkpt>
      <trkpt lat="43.97633" lon="5.11556">
        <ele>344.5</ele>
        <time>2013-03-07T12:33:34Z</time>
      </trkpt>
      <trkpt lat="43.9763" lon="5.11556">
        <ele>344.2</ele>
        <time>2013-03-07T12:33:35Z</time>
      </trkpt>
      <trkpt lat="43.97627" lon="5.11559">
        <ele>342.2</ele>
        <time>2013-03-07T12:33:36Z</time>
      </trkpt>
      <trkpt lat="43.97624" lon="5.1156">
        <ele>341.1</ele>
        <time>2013-03-07T12:33:37Z</time>
      </trkpt>
      <trkpt lat="43.97621" lon="5.1156">
        <ele>342.4</ele>
        <time>2013-03-07T12:33:38Z</time>
      </trkpt>
      <trkpt lat="43.97618" lon="5.11562">
        <ele>340.9</ele>
        <time>2013-03-07T12:33:39Z</time>
      </trkpt>
      <trkpt lat="43.97614" lon="5.11562">
        <ele>340.9</ele>
        <time>2013-03-07T12:33:40Z</time>
      </trkpt>
      <trkpt lat="43.97611" lon="5.11563">
        <ele>340.8</ele>
        <time>2013-03-07T12:33:41Z</time>
      </trkpt>
      <trkpt lat="43.97608" lon="5.11563">
        <ele>341</ele>
        <time>2013-03-07T12:33:42Z</time>
      </trkpt>
      <trkpt lat="43.97605" lon="5.11564">
        <ele>341.1</ele>
        <time>2013-03-07T12:33:43Z</time>
      </trkpt>
      <trkpt lat="43.97602" lon="5.11566">
        <ele>340.9</ele>
        <time>2013-03-07T12:33:44Z</time>
      </trkpt>
      <trkpt lat="43.97598" lon="5.11566">
        <ele>340.3</ele>
        <time>2013-03-07T12:33:46Z</time>
      </trkpt>
      <trkpt lat="43.97595" lon="5.11564">
        <ele>343.6</ele>
        <time>2013-03-07T12:33:47Z</time>
      </trkpt>
      <trkpt lat="43.97591" lon="5.11564">
        <ele>343.7</ele>
        <time>2013-03-07T12:33:48Z</time>
      </trkpt>
      <trkpt lat="43.97586" lon="5.11564">
        <ele>343.8</ele>
        <time>2013-03-07T12:33:49Z</time>
      </trkpt>
      <trkpt lat="43.97583" lon="5.11564">
        <ele>343.4</ele>
        <time>2013-03-07T12:33:50Z</time>
      </trkpt>
      <trkpt lat="43.9758" lon="5.11564">
        <ele>343.5</ele>
        <time>2013-03-07T12:33:51Z</time>
      </trkpt>
      <trkpt lat="43.97577" lon="5.11565">
        <ele>343.3</ele>
        <time>2013-03-07T12:33:52Z</time>
      </trkpt>
      <trkpt lat="43.97574" lon="5.11565">
        <ele>344.3</ele>
        <time>2013-03-07T12:33:53Z</time>
      </trkpt>
      <trkpt lat="43.97572" lon="5.11566">
        <ele>344.5</ele>
        <time>2013-03-07T12:33:54Z</time>
      </trkpt>
      <trkpt lat="43.9757" lon="5.11567">
        <ele>344.6</ele>
        <time>2013-03-07T12:33:55Z</time>
      </trkpt>
      <trkpt lat="43.97566" lon="5.11569">
        <ele>345</ele>
        <time>2013-03-07T12:33:57Z</time>
      </trkpt>
      <trkpt lat="43.97563" lon="5.1157">
        <ele>345.2</ele>
        <time>2013-03-07T12:33:58Z</time>
      </trkpt>
      <trkpt lat="43.97561" lon="5.11571">
        <ele>344.9</ele>
        <time>2013-03-07T12:33:59Z</time>
      </trkpt>
      <trkpt lat="43.97558" lon="5.1157">
        <ele>346.4</ele>
        <time>2013-03-07T12:34:00Z</time>
      </trkpt>
      <trkpt lat="43.97555" lon="5.11571">
        <ele>346.2</ele>
        <time>2013-03-07T12:34:01Z</time>
      </trkpt>
      <trkpt lat="43.97553" lon="5.11572">
        <ele>346.3</ele>
        <time>2013-03-07T12:34:02Z</time>
      </trkpt>
      <trkpt lat="43.97551" lon="5.11573">
        <ele>346.2</ele>
        <time>2013-03-07T12:34:03Z</time>
      </trkpt>
      <trkpt lat="43.97549" lon="5.11573">
        <ele>346.2</ele>
        <time>2013-03-07T12:34:04Z</time>
      </trkpt>
      <trkpt lat="43.97545" lon="5.11573">
        <ele>344.9</ele>
        <time>2013-03-07T12:34:05Z</time>
      </trkpt>
      <trkpt lat="43.97542" lon="5.11573">
        <ele>344.7</ele>
        <time>2013-03-07T12:34:06Z</time>
      </trkpt>
      <trkpt lat="43.9754" lon="5.11574">
        <ele>346.5</ele>
        <time>2013-03-07T12:34:08Z</time>
      </trkpt>
      <trkpt lat="43.97537" lon="5.11574">
        <ele>347.1</ele>
        <time>2013-03-07T12:34:09Z</time>
      </trkpt>
      <trkpt lat="43.97532" lon="5.11574">
        <ele>348.8</ele>
        <time>2013-03-07T12:34:11Z</time>
      </trkpt>
      <trkpt lat="43.9753" lon="5.11574">
        <ele>348.8</ele>
        <time>2013-03-07T12:34:12Z</time>
      </trkpt>
      <trkpt lat="43.97526" lon="5.11573">
        <ele>351.5</ele>
        <time>2013-03-07T12:34:14Z</time>
      </trkpt>
      <trkpt lat="43.97525" lon="5.11572">
        <ele>353.7</ele>
        <time>2013-03-07T12:34:15Z</time>
      </trkpt>
      <trkpt lat="43.97523" lon="5.11572">
        <ele>354.6</ele>
        <time>2013-03-07T12:34:16Z</time>
      </trkpt>
      <trkpt lat="43.9752" lon="5.11572">
        <ele>353.5</ele>
        <time>2013-03-07T12:34:17Z</time>
      </trkpt>
      <trkpt lat="43.97515" lon="5.11571">
        <ele>355.2</ele>
        <time>2013-03-07T12:34:19Z</time>
      </trkpt>
      <trkpt lat="43.97514" lon="5.11571">
        <ele>355.8</ele>
        <time>2013-03-07T12:34:20Z</time>
      </trkpt>
      <trkpt lat="43.9751" lon="5.11569">
        <ele>355.9</ele>
        <time>2013-03-07T12:34:22Z</time>
      </trkpt>
      <trkpt lat="43.97507" lon="5.11569">
        <ele>355.6</ele>
        <time>2013-03-07T12:34:23Z</time>
      </trkpt>
      <trkpt lat="43.97502" lon="5.11568">
        <ele>355.3</ele>
        <time>2013-03-07T12:34:25Z</time>
      </trkpt>
      <trkpt lat="43.97499" lon="5.11569">
        <ele>355.3</ele>
        <time>2013-03-07T12:34:26Z</time>
      </trkpt>
      <trkpt lat="43.97497" lon="5.11568">
        <ele>355</ele>
        <time>2013-03-07T12:34:27Z</time>
      </trkpt>
      <trkpt lat="43.97494" lon="5.11568">
        <ele>355.2</ele>
        <time>2013-03-07T12:34:28Z</time>
      </trkpt>
      <trkpt lat="43.97492" lon="5.11568">
        <ele>355.1</ele>
        <time>2013-03-07T12:34:29Z</time>
      </trkpt>
      <trkpt lat="43.97489" lon="5.11568">
        <ele>355.1</ele>
        <time>2013-03-07T12:34:30Z</time>
      </trkpt>
      <trkpt lat="43.97486" lon="5.11568">
        <ele>354.5</ele>
        <time>2013-03-07T12:34:31Z</time>
      </trkpt>
      <trkpt lat="43.97483" lon="5.11569">
        <ele>354.1</ele>
        <time>2013-03-07T12:34:32Z</time>
      </trkpt>
      <trkpt lat="43.97481" lon="5.11569">
        <ele>353.7</ele>
        <time>2013-03-07T12:34:33Z</time>
      </trkpt>
      <trkpt lat="43.97478" lon="5.1157">
        <ele>353.8</ele>
        <time>2013-03-07T12:34:34Z</time>
      </trkpt>
      <trkpt lat="43.97476" lon="5.1157">
        <ele>353.8</ele>
        <time>2013-03-07T12:34:35Z</time>
      </trkpt>
      <trkpt lat="43.97473" lon="5.1157">
        <ele>353.4</ele>
        <time>2013-03-07T12:34:36Z</time>
      </trkpt>
      <trkpt lat="43.97471" lon="5.11571">
        <ele>352.9</ele>
        <time>2013-03-07T12:34:37Z</time>
      </trkpt>
      <trkpt lat="43.97468" lon="5.11571">
        <ele>352</ele>
        <time>2013-03-07T12:34:38Z</time>
      </trkpt>
      <trkpt lat="43.97466" lon="5.11571">
        <ele>351.4</ele>
        <time>2013-03-07T12:34:39Z</time>
      </trkpt>
      <trkpt lat="43.97464" lon="5.11571">
        <ele>351.2</ele>
        <time>2013-03-07T12:34:40Z</time>
      </trkpt>
      <trkpt lat="43.97459" lon="5.1157">
        <ele>352.5</ele>
        <time>2013-03-07T12:34:42Z</time>
      </trkpt>
      <trkpt lat="43.97457" lon="5.11571">
        <ele>352.7</ele>
        <time>2013-03-07T12:34:43Z</time>
      </trkpt>
      <trkpt lat="43.97455" lon="5.1157">
        <ele>352.6</ele>
        <time>2013-03-07T12:34:44Z</time>
      </trkpt>
      <trkpt lat="43.97452" lon="5.11571">
        <ele>351.8</ele>
        <time>2013-03-07T12:34:45Z</time>
      </trkpt>
      <trkpt lat="43.97448" lon="5.1157">
        <ele>352.9</ele>
        <time>2013-03-07T12:34:47Z</time>
      </trkpt>
      <trkpt lat="43.97446" lon="5.1157">
        <ele>352.7</ele>
        <time>2013-03-07T12:34:48Z</time>
      </trkpt>
      <trkpt lat="43.97443" lon="5.1157">
        <ele>352.6</ele>
        <time>2013-03-07T12:34:49Z</time>
      </trkpt>
      <trkpt lat="43.97441" lon="5.11571">
        <ele>352.4</ele>
        <time>2013-03-07T12:34:50Z</time>
      </trkpt>
      <trkpt lat="43.97438" lon="5.11572">
        <ele>355</ele>
        <time>2013-03-07T12:34:52Z</time>
      </trkpt>
      <trkpt lat="43.97435" lon="5.11572">
        <ele>355.1</ele>
        <time>2013-03-07T12:34:53Z</time>
      </trkpt>
      <trkpt lat="43.97433" lon="5.11573">
        <ele>355</ele>
        <time>2013-03-07T12:34:54Z</time>
      </trkpt>
      <trkpt lat="43.97431" lon="5.11573">
        <ele>354.9</ele>
        <time>2013-03-07T12:34:55Z</time>
      </trkpt>
      <trkpt lat="43.97428" lon="5.11574">
        <ele>355.3</ele>
        <time>2013-03-07T12:34:56Z</time>
      </trkpt>
      <trkpt lat="43.97426" lon="5.11574">
        <ele>355</ele>
        <time>2013-03-07T12:34:57Z</time>
      </trkpt>
      <trkpt lat="43.97421" lon="5.11575">
        <ele>355</ele>
        <time>2013-03-07T12:34:59Z</time>
      </trkpt>
      <trkpt lat="43.9742" lon="5.11575">
        <ele>354.9</ele>
        <time>2013-03-07T12:35:00Z</time>
      </trkpt>
      <trkpt lat="43.97418" lon="5.11578">
        <ele>355.7</ele>
        <time>2013-03-07T12:35:02Z</time>
      </trkpt>
      <trkpt lat="43.97415" lon="5.11578">
        <ele>356.4</ele>
        <time>2013-03-07T12:35:03Z</time>
      </trkpt>
      <trkpt lat="43.97411" lon="5.11578">
        <ele>357.4</ele>
        <time>2013-03-07T12:35:05Z</time>
      </trkpt>
      <trkpt lat="43.97409" lon="5.11579">
        <ele>357.3</ele>
        <time>2013-03-07T12:35:06Z</time>
      </trkpt>
      <trkpt lat="43.97407" lon="5.11579">
        <ele>356.3</ele>
        <time>2013-03-07T12:35:07Z</time>
      </trkpt>
      <trkpt lat="43.97404" lon="5.11579">
        <ele>356.8</ele>
        <time>2013-03-07T12:35:08Z</time>
      </trkpt>
      <trkpt lat="43.97401" lon="5.11579">
        <ele>356.1</ele>
        <time>2013-03-07T12:35:09Z</time>
      </trkpt>
      <trkpt lat="43.97398" lon="5.11581">
        <ele>355.8</ele>
        <time>2013-03-07T12:35:10Z</time>
      </trkpt>
      <trkpt lat="43.97395" lon="5.11582">
        <ele>356</ele>
        <time>2013-03-07T12:35:12Z</time>
      </trkpt>
      <trkpt lat="43.97393" lon="5.11584">
        <ele>356.5</ele>
        <time>2013-03-07T12:35:13Z</time>
      </trkpt>
      <trkpt lat="43.97389" lon="5.11586">
        <ele>356.6</ele>
        <time>2013-03-07T12:35:15Z</time>
      </trkpt>
      <trkpt lat="43.97387" lon="5.11587">
        <ele>356.7</ele>
        <time>2013-03-07T12:35:16Z</time>
      </trkpt>
      <trkpt lat="43.97385" lon="5.11589">
        <ele>356.6</ele>
        <time>2013-03-07T12:35:17Z</time>
      </trkpt>
      <trkpt lat="43.97383" lon="5.1159">
        <ele>356.1</ele>
        <time>2013-03-07T12:35:18Z</time>
      </trkpt>
      <trkpt lat="43.9738" lon="5.11591">
        <ele>356.3</ele>
        <time>2013-03-07T12:35:19Z</time>
      </trkpt>
      <trkpt lat="43.97378" lon="5.11593">
        <ele>355.8</ele>
        <time>2013-03-07T12:35:20Z</time>
      </trkpt>
      <trkpt lat="43.97376" lon="5.11594">
        <ele>356</ele>
        <time>2013-03-07T12:35:21Z</time>
      </trkpt>
      <trkpt lat="43.97372" lon="5.11595">
        <ele>355.7</ele>
        <time>2013-03-07T12:35:22Z</time>
      </trkpt>
      <trkpt lat="43.97368" lon="5.11598">
        <ele>354.9</ele>
        <time>2013-03-07T12:35:24Z</time>
      </trkpt>
      <trkpt lat="43.97366" lon="5.11599">
        <ele>354.9</ele>
        <time>2013-03-07T12:35:25Z</time>
      </trkpt>
      <trkpt lat="43.97363" lon="5.11601">
        <ele>354.9</ele>
        <time>2013-03-07T12:35:26Z</time>
      </trkpt>
      <trkpt lat="43.97361" lon="5.11602">
        <ele>355.2</ele>
        <time>2013-03-07T12:35:27Z</time>
      </trkpt>
      <trkpt lat="43.97358" lon="5.11604">
        <ele>355.1</ele>
        <time>2013-03-07T12:35:28Z</time>
      </trkpt>
      <trkpt lat="43.97356" lon="5.11605">
        <ele>355.1</ele>
        <time>2013-03-07T12:35:29Z</time>
      </trkpt>
      <trkpt lat="43.97353" lon="5.11609">
        <ele>356.8</ele>
        <time>2013-03-07T12:35:31Z</time>
      </trkpt>
      <trkpt lat="43.97352" lon="5.11611">
        <ele>356.8</ele>
        <time>2013-03-07T12:35:32Z</time>
      </trkpt>
      <trkpt lat="43.97349" lon="5.11616">
        <ele>355.6</ele>
        <time>2013-03-07T12:35:34Z</time>
      </trkpt>
      <trkpt lat="43.97347" lon="5.11617">
        <ele>355.4</ele>
        <time>2013-03-07T12:35:35Z</time>
      </trkpt>
      <trkpt lat="43.97344" lon="5.1162">
        <ele>355.5</ele>
        <time>2013-03-07T12:35:37Z</time>
      </trkpt>
      <trkpt lat="43.97342" lon="5.1162">
        <ele>355.1</ele>
        <time>2013-03-07T12:35:38Z</time>
      </trkpt>
      <trkpt lat="43.97338" lon="5.11624">
        <ele>360</ele>
        <time>2013-03-07T12:35:41Z</time>
      </trkpt>
      <trkpt lat="43.97336" lon="5.11625">
        <ele>359.9</ele>
        <time>2013-03-07T12:35:42Z</time>
      </trkpt>
      <trkpt lat="43.97333" lon="5.11628">
        <ele>360.9</ele>
        <time>2013-03-07T12:35:44Z</time>
      </trkpt>
      <trkpt lat="43.97331" lon="5.11629">
        <ele>360.8</ele>
        <time>2013-03-07T12:35:45Z</time>
      </trkpt>
      <trkpt lat="43.97329" lon="5.1163">
        <ele>360.3</ele>
        <time>2013-03-07T12:35:46Z</time>
      </trkpt>
      <trkpt lat="43.97327" lon="5.11631">
        <ele>359.9</ele>
        <time>2013-03-07T12:35:47Z</time>
      </trkpt>
      <trkpt lat="43.97324" lon="5.11635">
        <ele>360.5</ele>
        <time>2013-03-07T12:35:49Z</time>
      </trkpt>
      <trkpt lat="43.9732" lon="5.11636">
        <ele>357.8</ele>
        <time>2013-03-07T12:35:50Z</time>
      </trkpt>
      <trkpt lat="43.97317" lon="5.1164">
        <ele>360.5</ele>
        <time>2013-03-07T12:35:52Z</time>
      </trkpt>
      <trkpt lat="43.97315" lon="5.1164">
        <ele>361.4</ele>
        <time>2013-03-07T12:35:53Z</time>
      </trkpt>
      <trkpt lat="43.97312" lon="5.11641">
        <ele>361.4</ele>
        <time>2013-03-07T12:35:54Z</time>
      </trkpt>
      <trkpt lat="43.9731" lon="5.11642">
        <ele>362.4</ele>
        <time>2013-03-07T12:35:55Z</time>
      </trkpt>
      <trkpt lat="43.97307" lon="5.11646">
        <ele>364.7</ele>
        <time>2013-03-07T12:35:58Z</time>
      </trkpt>
      <trkpt lat="43.97306" lon="5.11648">
        <ele>365.4</ele>
        <time>2013-03-07T12:35:59Z</time>
      </trkpt>
      <trkpt lat="43.97303" lon="5.11649">
        <ele>364.4</ele>
        <time>2013-03-07T12:36:00Z</time>
      </trkpt>
      <trkpt lat="43.97301" lon="5.11652">
        <ele>363.6</ele>
        <time>2013-03-07T12:36:01Z</time>
      </trkpt>
      <trkpt lat="43.97298" lon="5.11653">
        <ele>363</ele>
        <time>2013-03-07T12:36:03Z</time>
      </trkpt>
      <trkpt lat="43.97296" lon="5.11655">
        <ele>362.4</ele>
        <time>2013-03-07T12:36:04Z</time>
      </trkpt>
      <trkpt lat="43.97293" lon="5.11656">
        <ele>362.2</ele>
        <time>2013-03-07T12:36:06Z</time>
      </trkpt>
      <trkpt lat="43.97291" lon="5.11657">
        <ele>362</ele>
        <time>2013-03-07T12:36:07Z</time>
      </trkpt>
      <trkpt lat="43.97287" lon="5.11658">
        <ele>362.5</ele>
        <time>2013-03-07T12:36:09Z</time>
      </trkpt>
      <trkpt lat="43.97285" lon="5.11658">
        <ele>363.1</ele>
        <time>2013-03-07T12:36:10Z</time>
      </trkpt>
      <trkpt lat="43.97283" lon="5.11662">
        <ele>364.1</ele>
        <time>2013-03-07T12:36:11Z</time>
      </trkpt>
      <trkpt lat="43.97282" lon="5.11664">
        <ele>364.8</ele>
        <time>2013-03-07T12:36:12Z</time>
      </trkpt>
      <trkpt lat="43.97279" lon="5.11666">
        <ele>364.7</ele>
        <time>2013-03-07T12:36:13Z</time>
      </trkpt>
      <trkpt lat="43.97278" lon="5.11668">
        <ele>364.6</ele>
        <time>2013-03-07T12:36:14Z</time>
      </trkpt>
      <trkpt lat="43.97275" lon="5.11672">
        <ele>367.1</ele>
        <time>2013-03-07T12:36:16Z</time>
      </trkpt>
      <trkpt lat="43.97273" lon="5.11673">
        <ele>367.5</ele>
        <time>2013-03-07T12:36:17Z</time>
      </trkpt>
      <trkpt lat="43.9727" lon="5.11678">
        <ele>367</ele>
        <time>2013-03-07T12:36:19Z</time>
      </trkpt>
      <trkpt lat="43.9727" lon="5.1168">
        <ele>369.1</ele>
        <time>2013-03-07T12:36:20Z</time>
      </trkpt>
      <trkpt lat="43.97269" lon="5.11682">
        <ele>369.1</ele>
        <time>2013-03-07T12:36:21Z</time>
      </trkpt>
      <trkpt lat="43.97268" lon="5.11686">
        <ele>368.1</ele>
        <time>2013-03-07T12:36:22Z</time>
      </trkpt>
      <trkpt lat="43.97266" lon="5.11688">
        <ele>367.4</ele>
        <time>2013-03-07T12:36:23Z</time>
      </trkpt>
      <trkpt lat="43.97265" lon="5.11692">
        <ele>366.8</ele>
        <time>2013-03-07T12:36:24Z</time>
      </trkpt>
      <trkpt lat="43.97263" lon="5.11696">
        <ele>366.1</ele>
        <time>2013-03-07T12:36:26Z</time>
      </trkpt>
      <trkpt lat="43.97262" lon="5.11698">
        <ele>366.1</ele>
        <time>2013-03-07T12:36:27Z</time>
      </trkpt>
      <trkpt lat="43.97258" lon="5.11702">
        <ele>365.9</ele>
        <time>2013-03-07T12:36:29Z</time>
      </trkpt>
      <trkpt lat="43.97256" lon="5.11704">
        <ele>365.9</ele>
        <time>2013-03-07T12:36:30Z</time>
      </trkpt>
      <trkpt lat="43.97252" lon="5.11704">
        <ele>369.1</ele>
        <time>2013-03-07T12:36:32Z</time>
      </trkpt>
      <trkpt lat="43.97251" lon="5.11706">
        <ele>369.3</ele>
        <time>2013-03-07T12:36:33Z</time>
      </trkpt>
      <trkpt lat="43.97248" lon="5.11709">
        <ele>369</ele>
        <time>2013-03-07T12:36:36Z</time>
      </trkpt>
      <trkpt lat="43.97248" lon="5.11711">
        <ele>369.3</ele>
        <time>2013-03-07T12:36:37Z</time>
      </trkpt>
      <trkpt lat="43.97246" lon="5.11714">
        <ele>363.9</ele>
        <time>2013-03-07T12:37:04Z</time>
      </trkpt>
      <trkpt lat="43.97247" lon="5.11717">
        <ele>363.2</ele>
        <time>2013-03-07T12:37:05Z</time>
      </trkpt>
      <trkpt lat="43.97248" lon="5.11722">
        <ele>363</ele>
        <time>2013-03-07T12:37:06Z</time>
      </trkpt>
      <trkpt lat="43.9725" lon="5.11726">
        <ele>362.9</ele>
        <time>2013-03-07T12:37:07Z</time>
      </trkpt>
      <trkpt lat="43.97251" lon="5.1173">
        <ele>362.9</ele>
        <time>2013-03-07T12:37:08Z</time>
      </trkpt>
      <trkpt lat="43.97253" lon="5.11734">
        <ele>362.6</ele>
        <time>2013-03-07T12:37:09Z</time>
      </trkpt>
      <trkpt lat="43.97255" lon="5.11738">
        <ele>362.7</ele>
        <time>2013-03-07T12:37:10Z</time>
      </trkpt>
      <trkpt lat="43.97255" lon="5.11743">
        <ele>362.6</ele>
        <time>2013-03-07T12:37:11Z</time>
      </trkpt>
      <trkpt lat="43.97256" lon="5.11747">
        <ele>362.5</ele>
        <time>2013-03-07T12:37:12Z</time>
      </trkpt>
      <trkpt lat="43.97258" lon="5.11752">
        <ele>359.7</ele>
        <time>2013-03-07T12:37:13Z</time>
      </trkpt>
      <trkpt lat="43.9726" lon="5.11757">
        <ele>358.4</ele>
        <time>2013-03-07T12:37:14Z</time>
      </trkpt>
      <trkpt lat="43.97261" lon="5.11761">
        <ele>357.9</ele>
        <time>2013-03-07T12:37:15Z</time>
      </trkpt>
      <trkpt lat="43.97263" lon="5.11764">
        <ele>359</ele>
        <time>2013-03-07T12:37:16Z</time>
      </trkpt>
      <trkpt lat="43.97264" lon="5.11768">
        <ele>359</ele>
        <time>2013-03-07T12:37:17Z</time>
      </trkpt>
      <trkpt lat="43.97266" lon="5.11773">
        <ele>360.2</ele>
        <time>2013-03-07T12:37:19Z</time>
      </trkpt>
      <trkpt lat="43.97268" lon="5.11775">
        <ele>361</ele>
        <time>2013-03-07T12:37:20Z</time>
      </trkpt>
      <trkpt lat="43.97272" lon="5.11776">
        <ele>360.7</ele>
        <time>2013-03-07T12:37:22Z</time>
      </trkpt>
      <trkpt lat="43.97274" lon="5.11777">
        <ele>361.4</ele>
        <time>2013-03-07T12:37:23Z</time>
      </trkpt>
      <trkpt lat="43.97279" lon="5.11777">
        <ele>361.7</ele>
        <time>2013-03-07T12:37:25Z</time>
      </trkpt>
      <trkpt lat="43.97281" lon="5.11778">
        <ele>361.6</ele>
        <time>2013-03-07T12:37:26Z</time>
      </trkpt>
      <trkpt lat="43.97284" lon="5.1178">
        <ele>363.4</ele>
        <time>2013-03-07T12:37:28Z</time>
      </trkpt>
      <trkpt lat="43.97286" lon="5.1178">
        <ele>364</ele>
        <time>2013-03-07T12:37:29Z</time>
      </trkpt>
      <trkpt lat="43.97289" lon="5.11784">
        <ele>363</ele>
        <time>2013-03-07T12:37:31Z</time>
      </trkpt>
      <trkpt lat="43.9729" lon="5.11786">
        <ele>363.4</ele>
        <time>2013-03-07T12:37:32Z</time>
      </trkpt>
      <trkpt lat="43.97293" lon="5.11788">
        <ele>363.6</ele>
        <time>2013-03-07T12:37:34Z</time>
      </trkpt>
      <trkpt lat="43.97295" lon="5.1179">
        <ele>363.6</ele>
        <time>2013-03-07T12:37:35Z</time>
      </trkpt>
      <trkpt lat="43.97298" lon="5.11793">
        <ele>364.9</ele>
        <time>2013-03-07T12:37:38Z</time>
      </trkpt>
      <trkpt lat="43.97299" lon="5.11794">
        <ele>365.2</ele>
        <time>2013-03-07T12:37:39Z</time>
      </trkpt>
      <trkpt lat="43.97303" lon="5.11796">
        <ele>367.2</ele>
        <time>2013-03-07T12:37:42Z</time>
      </trkpt>
      <trkpt lat="43.97304" lon="5.11798">
        <ele>368.1</ele>
        <time>2013-03-07T12:37:43Z</time>
      </trkpt>
      <trkpt lat="43.97306" lon="5.11799">
        <ele>368.2</ele>
        <time>2013-03-07T12:37:45Z</time>
      </trkpt>
      <trkpt lat="43.97309" lon="5.118">
        <ele>367.6</ele>
        <time>2013-03-07T12:37:46Z</time>
      </trkpt>
      <trkpt lat="43.97311" lon="5.11803">
        <ele>368.4</ele>
        <time>2013-03-07T12:37:48Z</time>
      </trkpt>
      <trkpt lat="43.97312" lon="5.11804">
        <ele>369.5</ele>
        <time>2013-03-07T12:37:49Z</time>
      </trkpt>
      <trkpt lat="43.97316" lon="5.11808">
        <ele>371.3</ele>
        <time>2013-03-07T12:37:52Z</time>
      </trkpt>
      <trkpt lat="43.97316" lon="5.11809">
        <ele>371.9</ele>
        <time>2013-03-07T12:37:53Z</time>
      </trkpt>
      <trkpt lat="43.97316" lon="5.11809">
        <ele>374</ele>
        <time>2013-03-07T12:37:55Z</time>
      </trkpt>
      <trkpt lat="43.9732" lon="5.11801">
        <ele>380.7</ele>
        <time>2013-03-07T12:37:56Z</time>
      </trkpt>
      <trkpt lat="43.97324" lon="5.11802">
        <ele>381.4</ele>
        <time>2013-03-07T12:37:57Z</time>
      </trkpt>
      <trkpt lat="43.97326" lon="5.11803">
        <ele>380.8</ele>
        <time>2013-03-07T12:37:58Z</time>
      </trkpt>
      <trkpt lat="43.97324" lon="5.11807">
        <ele>377.7</ele>
        <time>2013-03-07T12:38:15Z</time>
      </trkpt>
      <trkpt lat="43.9732" lon="5.11802">
        <ele>374.6</ele>
        <time>2013-03-07T12:38:16Z</time>
      </trkpt>
      <trkpt lat="43.97316" lon="5.11799">
        <ele>374</ele>
        <time>2013-03-07T12:38:17Z</time>
      </trkpt>
      <trkpt lat="43.97313" lon="5.11799">
        <ele>370.7</ele>
        <time>2013-03-07T12:38:18Z</time>
      </trkpt>
      <trkpt lat="43.97311" lon="5.11799">
        <ele>367.6</ele>
        <time>2013-03-07T12:38:19Z</time>
      </trkpt>
      <trkpt lat="43.97308" lon="5.11798">
        <ele>365.9</ele>
        <time>2013-03-07T12:38:20Z</time>
      </trkpt>
      <trkpt lat="43.97305" lon="5.11797">
        <ele>365.8</ele>
        <time>2013-03-07T12:38:21Z</time>
      </trkpt>
      <trkpt lat="43.97303" lon="5.11796">
        <ele>364.6</ele>
        <time>2013-03-07T12:38:22Z</time>
      </trkpt>
      <trkpt lat="43.973" lon="5.11794">
        <ele>364.3</ele>
        <time>2013-03-07T12:38:23Z</time>
      </trkpt>
      <trkpt lat="43.97296" lon="5.11789">
        <ele>362.5</ele>
        <time>2013-03-07T12:38:24Z</time>
      </trkpt>
      <trkpt lat="43.97292" lon="5.11785">
        <ele>361.2</ele>
        <time>2013-03-07T12:38:25Z</time>
      </trkpt>
      <trkpt lat="43.97287" lon="5.11784">
        <ele>360.4</ele>
        <time>2013-03-07T12:38:26Z</time>
      </trkpt>
      <trkpt lat="43.97283" lon="5.11781">
        <ele>360.1</ele>
        <time>2013-03-07T12:38:27Z</time>
      </trkpt>
      <trkpt lat="43.97278" lon="5.11781">
        <ele>358.5</ele>
        <time>2013-03-07T12:38:28Z</time>
      </trkpt>
      <trkpt lat="43.97274" lon="5.11779">
        <ele>358.1</ele>
        <time>2013-03-07T12:38:29Z</time>
      </trkpt>
      <trkpt lat="43.97269" lon="5.11777">
        <ele>358.2</ele>
        <time>2013-03-07T12:38:30Z</time>
      </trkpt>
      <trkpt lat="43.97265" lon="5.11774">
        <ele>357.6</ele>
        <time>2013-03-07T12:38:31Z</time>
      </trkpt>
      <trkpt lat="43.97266" lon="5.11769">
        <ele>357.5</ele>
        <time>2013-03-07T12:38:32Z</time>
      </trkpt>
      <trkpt lat="43.97264" lon="5.11765">
        <ele>357.3</ele>
        <time>2013-03-07T12:38:33Z</time>
      </trkpt>
      <trkpt lat="43.97263" lon="5.11763">
        <ele>357</ele>
        <time>2013-03-07T12:38:34Z</time>
      </trkpt>
      <trkpt lat="43.97261" lon="5.11759">
        <ele>356.1</ele>
        <time>2013-03-07T12:38:36Z</time>
      </trkpt>
      <trkpt lat="43.97259" lon="5.11759">
        <ele>355.8</ele>
        <time>2013-03-07T12:38:37Z</time>
      </trkpt>
      <trkpt lat="43.97256" lon="5.11754">
        <ele>355.1</ele>
        <time>2013-03-07T12:38:39Z</time>
      </trkpt>
      <trkpt lat="43.97254" lon="5.11753">
        <ele>355.3</ele>
        <time>2013-03-07T12:38:40Z</time>
      </trkpt>
      <trkpt lat="43.97253" lon="5.11751">
        <ele>355.2</ele>
        <time>2013-03-07T12:38:41Z</time>
      </trkpt>
      <trkpt lat="43.9725" lon="5.1175">
        <ele>356.4</ele>
        <time>2013-03-07T12:38:42Z</time>
      </trkpt>
      <trkpt lat="43.97248" lon="5.11748">
        <ele>356</ele>
        <time>2013-03-07T12:38:43Z</time>
      </trkpt>
      <trkpt lat="43.97246" lon="5.11745">
        <ele>355.7</ele>
        <time>2013-03-07T12:38:44Z</time>
      </trkpt>
      <trkpt lat="43.97243" lon="5.11743">
        <ele>355.3</ele>
        <time>2013-03-07T12:38:45Z</time>
      </trkpt>
      <trkpt lat="43.97242" lon="5.11741">
        <ele>355.3</ele>
        <time>2013-03-07T12:38:46Z</time>
      </trkpt>
      <trkpt lat="43.97239" lon="5.11741">
        <ele>357.5</ele>
        <time>2013-03-07T12:38:47Z</time>
      </trkpt>
      <trkpt lat="43.97236" lon="5.11742">
        <ele>358</ele>
        <time>2013-03-07T12:38:48Z</time>
      </trkpt>
      <trkpt lat="43.97236" lon="5.1174">
        <ele>359</ele>
        <time>2013-03-07T12:38:49Z</time>
      </trkpt>
      <trkpt lat="43.9724" lon="5.11731">
        <ele>358.7</ele>
        <time>2013-03-07T12:38:50Z</time>
      </trkpt>
      <trkpt lat="43.97236" lon="5.11731">
        <ele>359.6</ele>
        <time>2013-03-07T12:38:53Z</time>
      </trkpt>
      <trkpt lat="43.97235" lon="5.11731">
        <ele>359.9</ele>
        <time>2013-03-07T12:38:54Z</time>
      </trkpt>
      <trkpt lat="43.97231" lon="5.11731">
        <ele>360.6</ele>
        <time>2013-03-07T12:38:58Z</time>
      </trkpt>
      <trkpt lat="43.97229" lon="5.11734">
        <ele>360.4</ele>
        <time>2013-03-07T12:38:59Z</time>
      </trkpt>
      <trkpt lat="43.97227" lon="5.11736">
        <ele>361.6</ele>
        <time>2013-03-07T12:39:01Z</time>
      </trkpt>
      <trkpt lat="43.97225" lon="5.11737">
        <ele>362.1</ele>
        <time>2013-03-07T12:39:02Z</time>
      </trkpt>
      <trkpt lat="43.97223" lon="5.11741">
        <ele>361.8</ele>
        <time>2013-03-07T12:39:05Z</time>
      </trkpt>
      <trkpt lat="43.9722" lon="5.11741">
        <ele>363.6</ele>
        <time>2013-03-07T12:39:06Z</time>
      </trkpt>
      <trkpt lat="43.97216" lon="5.11743">
        <ele>365.4</ele>
        <time>2013-03-07T12:39:09Z</time>
      </trkpt>
      <trkpt lat="43.97214" lon="5.11744">
        <ele>365.3</ele>
        <time>2013-03-07T12:39:10Z</time>
      </trkpt>
      <trkpt lat="43.9721" lon="5.11747">
        <ele>367.1</ele>
        <time>2013-03-07T12:39:13Z</time>
      </trkpt>
      <trkpt lat="43.97208" lon="5.11747">
        <ele>367.1</ele>
        <time>2013-03-07T12:39:14Z</time>
      </trkpt>
      <trkpt lat="43.97206" lon="5.11745">
        <ele>371.4</ele>
        <time>2013-03-07T12:39:16Z</time>
      </trkpt>
      <trkpt lat="43.97204" lon="5.11745">
        <ele>372.8</ele>
        <time>2013-03-07T12:39:17Z</time>
      </trkpt>
      <trkpt lat="43.97201" lon="5.11747">
        <ele>372.5</ele>
        <time>2013-03-07T12:39:19Z</time>
      </trkpt>
      <trkpt lat="43.97199" lon="5.11747">
        <ele>372.9</ele>
        <time>2013-03-07T12:39:20Z</time>
      </trkpt>
      <trkpt lat="43.97196" lon="5.11749">
        <ele>375.8</ele>
        <time>2013-03-07T12:39:23Z</time>
      </trkpt>
      <trkpt lat="43.97195" lon="5.11749">
        <ele>376.3</ele>
        <time>2013-03-07T12:39:24Z</time>
      </trkpt>
      <trkpt lat="43.97191" lon="5.11751">
        <ele>376.3</ele>
        <time>2013-03-07T12:39:26Z</time>
      </trkpt>
      <trkpt lat="43.9719" lon="5.11752">
        <ele>376.3</ele>
        <time>2013-03-07T12:39:27Z</time>
      </trkpt>
      <trkpt lat="43.97186" lon="5.11752">
        <ele>376.3</ele>
        <time>2013-03-07T12:39:30Z</time>
      </trkpt>
      <trkpt lat="43.97184" lon="5.11753">
        <ele>376.4</ele>
        <time>2013-03-07T12:39:31Z</time>
      </trkpt>
      <trkpt lat="43.9718" lon="5.11754">
        <ele>375.7</ele>
        <time>2013-03-07T12:39:33Z</time>
      </trkpt>
      <trkpt lat="43.97178" lon="5.11753">
        <ele>377.2</ele>
        <time>2013-03-07T12:39:34Z</time>
      </trkpt>
      <trkpt lat="43.97175" lon="5.11755">
        <ele>378.5</ele>
        <time>2013-03-07T12:39:36Z</time>
      </trkpt>
      <trkpt lat="43.97173" lon="5.11755">
        <ele>378.7</ele>
        <time>2013-03-07T12:39:37Z</time>
      </trkpt>
      <trkpt lat="43.9717" lon="5.11756">
        <ele>378.1</ele>
        <time>2013-03-07T12:39:39Z</time>
      </trkpt>
      <trkpt lat="43.97169" lon="5.11757">
        <ele>377.9</ele>
        <time>2013-03-07T12:39:40Z</time>
      </trkpt>
      <trkpt lat="43.97165" lon="5.11758">
        <ele>378.2</ele>
        <time>2013-03-07T12:39:42Z</time>
      </trkpt>
      <trkpt lat="43.97164" lon="5.11758">
        <ele>377.7</ele>
        <time>2013-03-07T12:39:43Z</time>
      </trkpt>
      <trkpt lat="43.97161" lon="5.11759">
        <ele>377.5</ele>
        <time>2013-03-07T12:39:45Z</time>
      </trkpt>
      <trkpt lat="43.97159" lon="5.1176">
        <ele>377.5</ele>
        <time>2013-03-07T12:39:46Z</time>
      </trkpt>
      <trkpt lat="43.97157" lon="5.11764">
        <ele>376.1</ele>
        <time>2013-03-07T12:39:49Z</time>
      </trkpt>
      <trkpt lat="43.97156" lon="5.11766">
        <ele>375.7</ele>
        <time>2013-03-07T12:39:50Z</time>
      </trkpt>
      <trkpt lat="43.97155" lon="5.1177">
        <ele>375.2</ele>
        <time>2013-03-07T12:39:52Z</time>
      </trkpt>
      <trkpt lat="43.97152" lon="5.11773">
        <ele>374.4</ele>
        <time>2013-03-07T12:39:53Z</time>
      </trkpt>
      <trkpt lat="43.9715" lon="5.11776">
        <ele>372.3</ele>
        <time>2013-03-07T12:39:55Z</time>
      </trkpt>
      <trkpt lat="43.97148" lon="5.1178">
        <ele>371.8</ele>
        <time>2013-03-07T12:39:56Z</time>
      </trkpt>
      <trkpt lat="43.97145" lon="5.11782">
        <ele>368.9</ele>
        <time>2013-03-07T12:39:57Z</time>
      </trkpt>
      <trkpt lat="43.97144" lon="5.11785">
        <ele>369</ele>
        <time>2013-03-07T12:39:58Z</time>
      </trkpt>
      <trkpt lat="43.97142" lon="5.1179">
        <ele>368.5</ele>
        <time>2013-03-07T12:40:00Z</time>
      </trkpt>
      <trkpt lat="43.9714" lon="5.11792">
        <ele>368.2</ele>
        <time>2013-03-07T12:40:01Z</time>
      </trkpt>
      <trkpt lat="43.97138" lon="5.11794">
        <ele>370.4</ele>
        <time>2013-03-07T12:40:03Z</time>
      </trkpt>
      <trkpt lat="43.97135" lon="5.11795">
        <ele>371.3</ele>
        <time>2013-03-07T12:40:04Z</time>
      </trkpt>
      <trkpt lat="43.97133" lon="5.11797">
        <ele>372.1</ele>
        <time>2013-03-07T12:40:05Z</time>
      </trkpt>
      <trkpt lat="43.97131" lon="5.118">
        <ele>373</ele>
        <time>2013-03-07T12:40:06Z</time>
      </trkpt>
      <trkpt lat="43.9713" lon="5.11804">
        <ele>373.1</ele>
        <time>2013-03-07T12:40:07Z</time>
      </trkpt>
      <trkpt lat="43.97126" lon="5.11807">
        <ele>373.7</ele>
        <time>2013-03-07T12:40:08Z</time>
      </trkpt>
      <trkpt lat="43.97124" lon="5.11811">
        <ele>374.3</ele>
        <time>2013-03-07T12:40:09Z</time>
      </trkpt>
      <trkpt lat="43.97122" lon="5.11813">
        <ele>374.9</ele>
        <time>2013-03-07T12:40:10Z</time>
      </trkpt>
      <trkpt lat="43.97118" lon="5.11813">
        <ele>376.5</ele>
        <time>2013-03-07T12:40:11Z</time>
      </trkpt>
      <trkpt lat="43.97116" lon="5.11813">
        <ele>377.1</ele>
        <time>2013-03-07T12:40:12Z</time>
      </trkpt>
      <trkpt lat="43.97112" lon="5.11815">
        <ele>378.6</ele>
        <time>2013-03-07T12:40:14Z</time>
      </trkpt>
      <trkpt lat="43.97109" lon="5.11817">
        <ele>376.5</ele>
        <time>2013-03-07T12:40:15Z</time>
      </trkpt>
      <trkpt lat="43.97106" lon="5.11818">
        <ele>375.4</ele>
        <time>2013-03-07T12:40:16Z</time>
      </trkpt>
      <trkpt lat="43.97104" lon="5.11819">
        <ele>374.8</ele>
        <time>2013-03-07T12:40:17Z</time>
      </trkpt>
      <trkpt lat="43.97102" lon="5.1182">
        <ele>374.6</ele>
        <time>2013-03-07T12:40:18Z</time>
      </trkpt>
      <trkpt lat="43.97099" lon="5.11822">
        <ele>376</ele>
        <time>2013-03-07T12:40:19Z</time>
      </trkpt>
      <trkpt lat="43.97097" lon="5.11823">
        <ele>376.1</ele>
        <time>2013-03-07T12:40:20Z</time>
      </trkpt>
      <trkpt lat="43.97095" lon="5.11823">
        <ele>376.1</ele>
        <time>2013-03-07T12:40:21Z</time>
      </trkpt>
      <trkpt lat="43.97092" lon="5.11824">
        <ele>375.6</ele>
        <time>2013-03-07T12:40:22Z</time>
      </trkpt>
      <trkpt lat="43.9709" lon="5.11825">
        <ele>375.3</ele>
        <time>2013-03-07T12:40:23Z</time>
      </trkpt>
      <trkpt lat="43.97087" lon="5.11828">
        <ele>374.4</ele>
        <time>2013-03-07T12:40:25Z</time>
      </trkpt>
      <trkpt lat="43.97084" lon="5.11829">
        <ele>374.4</ele>
        <time>2013-03-07T12:40:26Z</time>
      </trkpt>
      <trkpt lat="43.9708" lon="5.11832">
        <ele>376.9</ele>
        <time>2013-03-07T12:40:29Z</time>
      </trkpt>
      <trkpt lat="43.97077" lon="5.11833">
        <ele>376.4</ele>
        <time>2013-03-07T12:40:30Z</time>
      </trkpt>
      <trkpt lat="43.97073" lon="5.11834">
        <ele>375.8</ele>
        <time>2013-03-07T12:40:31Z</time>
      </trkpt>
      <trkpt lat="43.97072" lon="5.11838">
        <ele>375.6</ele>
        <time>2013-03-07T12:40:32Z</time>
      </trkpt>
      <trkpt lat="43.9707" lon="5.1184">
        <ele>375.4</ele>
        <time>2013-03-07T12:40:33Z</time>
      </trkpt>
      <trkpt lat="43.97069" lon="5.11842">
        <ele>375.3</ele>
        <time>2013-03-07T12:40:34Z</time>
      </trkpt>
      <trkpt lat="43.97068" lon="5.11845">
        <ele>375.1</ele>
        <time>2013-03-07T12:40:35Z</time>
      </trkpt>
      <trkpt lat="43.97067" lon="5.11848">
        <ele>374.6</ele>
        <time>2013-03-07T12:40:36Z</time>
      </trkpt>
      <trkpt lat="43.97066" lon="5.11851">
        <ele>374.7</ele>
        <time>2013-03-07T12:40:37Z</time>
      </trkpt>
      <trkpt lat="43.97067" lon="5.11855">
        <ele>374.2</ele>
        <time>2013-03-07T12:40:38Z</time>
      </trkpt>
      <trkpt lat="43.97066" lon="5.11861">
        <ele>373.5</ele>
        <time>2013-03-07T12:40:40Z</time>
      </trkpt>
      <trkpt lat="43.97066" lon="5.11864">
        <ele>373.3</ele>
        <time>2013-03-07T12:40:41Z</time>
      </trkpt>
      <trkpt lat="43.97066" lon="5.1187">
        <ele>373.6</ele>
        <time>2013-03-07T12:40:43Z</time>
      </trkpt>
      <trkpt lat="43.97065" lon="5.11872">
        <ele>373.7</ele>
        <time>2013-03-07T12:40:44Z</time>
      </trkpt>
      <trkpt lat="43.97064" lon="5.11876">
        <ele>373.4</ele>
        <time>2013-03-07T12:40:46Z</time>
      </trkpt>
      <trkpt lat="43.97063" lon="5.1188">
        <ele>373.4</ele>
        <time>2013-03-07T12:40:47Z</time>
      </trkpt>
      <trkpt lat="43.97062" lon="5.11885">
        <ele>373.2</ele>
        <time>2013-03-07T12:40:49Z</time>
      </trkpt>
      <trkpt lat="43.97063" lon="5.11888">
        <ele>373.4</ele>
        <time>2013-03-07T12:40:50Z</time>
      </trkpt>
      <trkpt lat="43.97059" lon="5.11892">
        <ele>367.1</ele>
        <time>2013-03-07T12:40:51Z</time>
      </trkpt>
      <trkpt lat="43.97059" lon="5.11897">
        <ele>368.7</ele>
        <time>2013-03-07T12:40:52Z</time>
      </trkpt>
      <trkpt lat="43.97059" lon="5.119">
        <ele>368.7</ele>
        <time>2013-03-07T12:40:53Z</time>
      </trkpt>
      <trkpt lat="43.97059" lon="5.11903">
        <ele>368.3</ele>
        <time>2013-03-07T12:40:54Z</time>
      </trkpt>
      <trkpt lat="43.97059" lon="5.11907">
        <ele>368.1</ele>
        <time>2013-03-07T12:40:55Z</time>
      </trkpt>
      <trkpt lat="43.97058" lon="5.11913">
        <ele>370.5</ele>
        <time>2013-03-07T12:40:58Z</time>
      </trkpt>
      <trkpt lat="43.97058" lon="5.11915">
        <ele>371.2</ele>
        <time>2013-03-07T12:40:59Z</time>
      </trkpt>
      <trkpt lat="43.97057" lon="5.11921">
        <ele>372.1</ele>
        <time>2013-03-07T12:41:01Z</time>
      </trkpt>
      <trkpt lat="43.97057" lon="5.11924">
        <ele>371.9</ele>
        <time>2013-03-07T12:41:02Z</time>
      </trkpt>
      <trkpt lat="43.97057" lon="5.11927">
        <ele>372</ele>
        <time>2013-03-07T12:41:03Z</time>
      </trkpt>
      <trkpt lat="43.97058" lon="5.11932">
        <ele>371.7</ele>
        <time>2013-03-07T12:41:04Z</time>
      </trkpt>
      <trkpt lat="43.97057" lon="5.11938">
        <ele>375.1</ele>
        <time>2013-03-07T12:41:06Z</time>
      </trkpt>
      <trkpt lat="43.97056" lon="5.11941">
        <ele>374.5</ele>
        <time>2013-03-07T12:41:07Z</time>
      </trkpt>
      <trkpt lat="43.97056" lon="5.11945">
        <ele>374.7</ele>
        <time>2013-03-07T12:41:08Z</time>
      </trkpt>
      <trkpt lat="43.97055" lon="5.11947">
        <ele>375.5</ele>
        <time>2013-03-07T12:41:09Z</time>
      </trkpt>
      <trkpt lat="43.97053" lon="5.11951">
        <ele>375.9</ele>
        <time>2013-03-07T12:41:12Z</time>
      </trkpt>
      <trkpt lat="43.97052" lon="5.11951">
        <ele>376.6</ele>
        <time>2013-03-07T12:41:13Z</time>
      </trkpt>
      <trkpt lat="43.97048" lon="5.11954">
        <ele>380.1</ele>
        <time>2013-03-07T12:41:16Z</time>
      </trkpt>
      <trkpt lat="43.97047" lon="5.11953">
        <ele>382.8</ele>
        <time>2013-03-07T12:41:17Z</time>
      </trkpt>
      <trkpt lat="43.97044" lon="5.11957">
        <ele>384.6</ele>
        <time>2013-03-07T12:41:21Z</time>
      </trkpt>
      <trkpt lat="43.97044" lon="5.11959">
        <ele>384.6</ele>
        <time>2013-03-07T12:41:22Z</time>
      </trkpt>
      <trkpt lat="43.97042" lon="5.11964">
        <ele>383.8</ele>
        <time>2013-03-07T12:41:25Z</time>
      </trkpt>
      <trkpt lat="43.97042" lon="5.11966">
        <ele>383.1</ele>
        <time>2013-03-07T12:41:26Z</time>
      </trkpt>
      <trkpt lat="43.97039" lon="5.11971">
        <ele>384.6</ele>
        <time>2013-03-07T12:41:29Z</time>
      </trkpt>
      <trkpt lat="43.97039" lon="5.11972">
        <ele>385.2</ele>
        <time>2013-03-07T12:41:30Z</time>
      </trkpt>
      <trkpt lat="43.97039" lon="5.11978">
        <ele>388.4</ele>
        <time>2013-03-07T12:41:39Z</time>
      </trkpt>
      <trkpt lat="43.97038" lon="5.11979">
        <ele>388.6</ele>
        <time>2013-03-07T12:41:40Z</time>
      </trkpt>
      <trkpt lat="43.97037" lon="5.11984">
        <ele>389.9</ele>
        <time>2013-03-07T12:41:47Z</time>
      </trkpt>
      <trkpt lat="43.97037" lon="5.11985">
        <ele>389.9</ele>
        <time>2013-03-07T12:41:48Z</time>
      </trkpt>
      <trkpt lat="43.97035" lon="5.1199">
        <ele>389</ele>
        <time>2013-03-07T12:41:56Z</time>
      </trkpt>
      <trkpt lat="43.97035" lon="5.11991">
        <ele>388.8</ele>
        <time>2013-03-07T12:41:57Z</time>
      </trkpt>
      <trkpt lat="43.97033" lon="5.11996">
        <ele>387</ele>
        <time>2013-03-07T12:42:12Z</time>
      </trkpt>
      <trkpt lat="43.97033" lon="5.11997">
        <ele>386.7</ele>
        <time>2013-03-07T12:42:13Z</time>
      </trkpt>
      <trkpt lat="43.97031" lon="5.12002">
        <ele>386.9</ele>
        <time>2013-03-07T12:42:17Z</time>
      </trkpt>
      <trkpt lat="43.97031" lon="5.12003">
        <ele>387.8</ele>
        <time>2013-03-07T12:42:18Z</time>
      </trkpt>
      <trkpt lat="43.97029" lon="5.12008">
        <ele>387.1</ele>
        <time>2013-03-07T12:42:22Z</time>
      </trkpt>
      <trkpt lat="43.97029" lon="5.12009">
        <ele>388</ele>
        <time>2013-03-07T12:42:23Z</time>
      </trkpt>
      <trkpt lat="43.97026" lon="5.12014">
        <ele>384.6</ele>
        <time>2013-03-07T12:42:27Z</time>
      </trkpt>
      <trkpt lat="43.97027" lon="5.12015">
        <ele>387.2</ele>
        <time>2013-03-07T12:42:28Z</time>
      </trkpt>
      <trkpt lat="43.97024" lon="5.12019">
        <ele>388</ele>
        <time>2013-03-07T12:42:32Z</time>
      </trkpt>
      <trkpt lat="43.97024" lon="5.12021">
        <ele>388.2</ele>
        <time>2013-03-07T12:42:33Z</time>
      </trkpt>
      <trkpt lat="43.97023" lon="5.12026">
        <ele>387.4</ele>
        <time>2013-03-07T12:42:37Z</time>
      </trkpt>
      <trkpt lat="43.97023" lon="5.12028">
        <ele>387.5</ele>
        <time>2013-03-07T12:42:38Z</time>
      </trkpt>
      <trkpt lat="43.97021" lon="5.12033">
        <ele>388</ele>
        <time>2013-03-07T12:43:44Z</time>
      </trkpt>
      <trkpt lat="43.97021" lon="5.12034">
        <ele>388</ele>
        <time>2013-03-07T12:43:45Z</time>
      </trkpt>
      <trkpt lat="43.97018" lon="5.12037">
        <ele>385.9</ele>
        <time>2013-03-07T12:43:49Z</time>
      </trkpt>
      <trkpt lat="43.97018" lon="5.12039">
        <ele>385.8</ele>
        <time>2013-03-07T12:43:50Z</time>
      </trkpt>
      <trkpt lat="43.97015" lon="5.12041">
        <ele>390.4</ele>
        <time>2013-03-07T12:43:52Z</time>
      </trkpt>
      <trkpt lat="43.97014" lon="5.12042">
        <ele>390.4</ele>
        <time>2013-03-07T12:43:53Z</time>
      </trkpt>
      <trkpt lat="43.97013" lon="5.12044">
        <ele>390.2</ele>
        <time>2013-03-07T12:43:54Z</time>
      </trkpt>
      <trkpt lat="43.97012" lon="5.12048">
        <ele>389.8</ele>
        <time>2013-03-07T12:43:55Z</time>
      </trkpt>
      <trkpt lat="43.97011" lon="5.12053">
        <ele>392</ele>
        <time>2013-03-07T12:43:57Z</time>
      </trkpt>
      <trkpt lat="43.97011" lon="5.12057">
        <ele>392</ele>
        <time>2013-03-07T12:43:58Z</time>
      </trkpt>
      <trkpt lat="43.97009" lon="5.12058">
        <ele>392.4</ele>
        <time>2013-03-07T12:43:59Z</time>
      </trkpt>
      <trkpt lat="43.97007" lon="5.12061">
        <ele>390.7</ele>
        <time>2013-03-07T12:44:00Z</time>
      </trkpt>
      <trkpt lat="43.97004" lon="5.12064">
        <ele>392.4</ele>
        <time>2013-03-07T12:44:02Z</time>
      </trkpt>
      <trkpt lat="43.97003" lon="5.12067">
        <ele>393.3</ele>
        <time>2013-03-07T12:44:03Z</time>
      </trkpt>
      <trkpt lat="43.97001" lon="5.12069">
        <ele>393.9</ele>
        <time>2013-03-07T12:44:04Z</time>
      </trkpt>
      <trkpt lat="43.96999" lon="5.12071">
        <ele>393.9</ele>
        <time>2013-03-07T12:44:05Z</time>
      </trkpt>
      <trkpt lat="43.96996" lon="5.12073">
        <ele>391.7</ele>
        <time>2013-03-07T12:44:06Z</time>
      </trkpt>
      <trkpt lat="43.96995" lon="5.12075">
        <ele>392.2</ele>
        <time>2013-03-07T12:44:07Z</time>
      </trkpt>
      <trkpt lat="43.96992" lon="5.12079">
        <ele>392.6</ele>
        <time>2013-03-07T12:44:09Z</time>
      </trkpt>
      <trkpt lat="43.96991" lon="5.12083">
        <ele>390.9</ele>
        <time>2013-03-07T12:44:10Z</time>
      </trkpt>
      <trkpt lat="43.96989" lon="5.12085">
        <ele>389.4</ele>
        <time>2013-03-07T12:44:11Z</time>
      </trkpt>
      <trkpt lat="43.96988" lon="5.12088">
        <ele>387.4</ele>
        <time>2013-03-07T12:44:12Z</time>
      </trkpt>
      <trkpt lat="43.96986" lon="5.12091">
        <ele>386.7</ele>
        <time>2013-03-07T12:44:13Z</time>
      </trkpt>
      <trkpt lat="43.96985" lon="5.12093">
        <ele>386.5</ele>
        <time>2013-03-07T12:44:14Z</time>
      </trkpt>
      <trkpt lat="43.96984" lon="5.12097">
        <ele>389.4</ele>
        <time>2013-03-07T12:44:17Z</time>
      </trkpt>
      <trkpt lat="43.96983" lon="5.12099">
        <ele>389.9</ele>
        <time>2013-03-07T12:44:18Z</time>
      </trkpt>
      <trkpt lat="43.9698" lon="5.12103">
        <ele>390.4</ele>
        <time>2013-03-07T12:44:20Z</time>
      </trkpt>
      <trkpt lat="43.96978" lon="5.12105">
        <ele>390.4</ele>
        <time>2013-03-07T12:44:21Z</time>
      </trkpt>
      <trkpt lat="43.96977" lon="5.12107">
        <ele>392.8</ele>
        <time>2013-03-07T12:44:22Z</time>
      </trkpt>
      <trkpt lat="43.96976" lon="5.12111">
        <ele>393</ele>
        <time>2013-03-07T12:44:23Z</time>
      </trkpt>
      <trkpt lat="43.96975" lon="5.12116">
        <ele>392.2</ele>
        <time>2013-03-07T12:44:24Z</time>
      </trkpt>
      <trkpt lat="43.96975" lon="5.12119">
        <ele>391.7</ele>
        <time>2013-03-07T12:44:25Z</time>
      </trkpt>
      <trkpt lat="43.96973" lon="5.12125">
        <ele>393.4</ele>
        <time>2013-03-07T12:44:28Z</time>
      </trkpt>
      <trkpt lat="43.96972" lon="5.12126">
        <ele>393.8</ele>
        <time>2013-03-07T12:44:29Z</time>
      </trkpt>
      <trkpt lat="43.9697" lon="5.12131">
        <ele>393.9</ele>
        <time>2013-03-07T12:44:32Z</time>
      </trkpt>
      <trkpt lat="43.96968" lon="5.12133">
        <ele>394.3</ele>
        <time>2013-03-07T12:44:33Z</time>
      </trkpt>
      <trkpt lat="43.96967" lon="5.12137">
        <ele>396</ele>
        <time>2013-03-07T12:44:34Z</time>
      </trkpt>
      <trkpt lat="43.96966" lon="5.12141">
        <ele>395.4</ele>
        <time>2013-03-07T12:44:35Z</time>
      </trkpt>
      <trkpt lat="43.96965" lon="5.12144">
        <ele>395.9</ele>
        <time>2013-03-07T12:44:36Z</time>
      </trkpt>
      <trkpt lat="43.96962" lon="5.12147">
        <ele>392.1</ele>
        <time>2013-03-07T12:44:37Z</time>
      </trkpt>
      <trkpt lat="43.9696" lon="5.12149">
        <ele>390.6</ele>
        <time>2013-03-07T12:44:38Z</time>
      </trkpt>
      <trkpt lat="43.96958" lon="5.12152">
        <ele>391.2</ele>
        <time>2013-03-07T12:44:39Z</time>
      </trkpt>
      <trkpt lat="43.96955" lon="5.12155">
        <ele>391.2</ele>
        <time>2013-03-07T12:44:40Z</time>
      </trkpt>
      <trkpt lat="43.96954" lon="5.12157">
        <ele>391.2</ele>
        <time>2013-03-07T12:44:41Z</time>
      </trkpt>
      <trkpt lat="43.96952" lon="5.12162">
        <ele>389.4</ele>
        <time>2013-03-07T12:44:45Z</time>
      </trkpt>
      <trkpt lat="43.96951" lon="5.12165">
        <ele>389.7</ele>
        <time>2013-03-07T12:44:46Z</time>
      </trkpt>
      <trkpt lat="43.96951" lon="5.12171">
        <ele>389.1</ele>
        <time>2013-03-07T12:44:48Z</time>
      </trkpt>
      <trkpt lat="43.9695" lon="5.12175">
        <ele>388.6</ele>
        <time>2013-03-07T12:44:49Z</time>
      </trkpt>
      <trkpt lat="43.96949" lon="5.12181">
        <ele>389.1</ele>
        <time>2013-03-07T12:44:52Z</time>
      </trkpt>
      <trkpt lat="43.96949" lon="5.12183">
        <ele>389.9</ele>
        <time>2013-03-07T12:44:53Z</time>
      </trkpt>
      <trkpt lat="43.96948" lon="5.12188">
        <ele>389.2</ele>
        <time>2013-03-07T12:44:55Z</time>
      </trkpt>
      <trkpt lat="43.96947" lon="5.12191">
        <ele>389.1</ele>
        <time>2013-03-07T12:44:56Z</time>
      </trkpt>
      <trkpt lat="43.96945" lon="5.12195">
        <ele>389.9</ele>
        <time>2013-03-07T12:45:25Z</time>
      </trkpt>
      <trkpt lat="43.96946" lon="5.12197">
        <ele>390.6</ele>
        <time>2013-03-07T12:45:26Z</time>
      </trkpt>
      <trkpt lat="43.96946" lon="5.12198">
        <ele>390.6</ele>
        <time>2013-03-07T12:45:27Z</time>
      </trkpt>
      <trkpt lat="43.96946" lon="5.12204">
        <ele>388.3</ele>
        <time>2013-03-07T12:45:28Z</time>
      </trkpt>
      <trkpt lat="43.96945" lon="5.12209">
        <ele>390.3</ele>
        <time>2013-03-07T12:45:30Z</time>
      </trkpt>
      <trkpt lat="43.96945" lon="5.1221">
        <ele>393.1</ele>
        <time>2013-03-07T12:45:31Z</time>
      </trkpt>
      <trkpt lat="43.96944" lon="5.12215">
        <ele>395.6</ele>
        <time>2013-03-07T12:45:33Z</time>
      </trkpt>
      <trkpt lat="43.96943" lon="5.12217">
        <ele>396.5</ele>
        <time>2013-03-07T12:45:34Z</time>
      </trkpt>
      <trkpt lat="43.96944" lon="5.12221">
        <ele>397.7</ele>
        <time>2013-03-07T12:45:36Z</time>
      </trkpt>
      <trkpt lat="43.96944" lon="5.12223">
        <ele>397.4</ele>
        <time>2013-03-07T12:45:37Z</time>
      </trkpt>
      <trkpt lat="43.96945" lon="5.12228">
        <ele>396.7</ele>
        <time>2013-03-07T12:45:39Z</time>
      </trkpt>
      <trkpt lat="43.96944" lon="5.12231">
        <ele>396.8</ele>
        <time>2013-03-07T12:45:40Z</time>
      </trkpt>
      <trkpt lat="43.96945" lon="5.12233">
        <ele>397.3</ele>
        <time>2013-03-07T12:45:41Z</time>
      </trkpt>
      <trkpt lat="43.96945" lon="5.12237">
        <ele>397</ele>
        <time>2013-03-07T12:45:42Z</time>
      </trkpt>
      <trkpt lat="43.96945" lon="5.12242">
        <ele>398.3</ele>
        <time>2013-03-07T12:45:44Z</time>
      </trkpt>
      <trkpt lat="43.96948" lon="5.12246">
        <ele>399.3</ele>
        <time>2013-03-07T12:45:45Z</time>
      </trkpt>
      <trkpt lat="43.96955" lon="5.12248">
        <ele>397.2</ele>
        <time>2013-03-07T12:45:46Z</time>
      </trkpt>
      <trkpt lat="43.96957" lon="5.12251">
        <ele>397.4</ele>
        <time>2013-03-07T12:45:47Z</time>
      </trkpt>
      <trkpt lat="43.96959" lon="5.12253">
        <ele>396.1</ele>
        <time>2013-03-07T12:45:48Z</time>
      </trkpt>
      <trkpt lat="43.96962" lon="5.12256">
        <ele>397.5</ele>
        <time>2013-03-07T12:45:53Z</time>
      </trkpt>
      <trkpt lat="43.96963" lon="5.12256">
        <ele>397.6</ele>
        <time>2013-03-07T12:45:54Z</time>
      </trkpt>
      <trkpt lat="43.96965" lon="5.12253">
        <ele>398.1</ele>
        <time>2013-03-07T12:45:57Z</time>
      </trkpt>
      <trkpt lat="43.96966" lon="5.12251">
        <ele>398.4</ele>
        <time>2013-03-07T12:45:58Z</time>
      </trkpt>
      <trkpt lat="43.9697" lon="5.12251">
        <ele>397.6</ele>
        <time>2013-03-07T12:46:02Z</time>
      </trkpt>
      <trkpt lat="43.96971" lon="5.12251">
        <ele>397</ele>
        <time>2013-03-07T12:46:03Z</time>
      </trkpt>
      <trkpt lat="43.96971" lon="5.1225">
        <ele>397.1</ele>
        <time>2013-03-07T12:46:20Z</time>
      </trkpt>
      <trkpt lat="43.96972" lon="5.12244">
        <ele>397.3</ele>
        <time>2013-03-07T12:46:21Z</time>
      </trkpt>
      <trkpt lat="43.96973" lon="5.12237">
        <ele>397.4</ele>
        <time>2013-03-07T12:46:22Z</time>
      </trkpt>
      <trkpt lat="43.96975" lon="5.12232">
        <ele>397.1</ele>
        <time>2013-03-07T12:46:23Z</time>
      </trkpt>
      <trkpt lat="43.96976" lon="5.12225">
        <ele>396.5</ele>
        <time>2013-03-07T12:46:24Z</time>
      </trkpt>
      <trkpt lat="43.96978" lon="5.1222">
        <ele>396.3</ele>
        <time>2013-03-07T12:46:25Z</time>
      </trkpt>
      <trkpt lat="43.96979" lon="5.12215">
        <ele>399.1</ele>
        <time>2013-03-07T12:46:26Z</time>
      </trkpt>
      <trkpt lat="43.96981" lon="5.12212">
        <ele>399.6</ele>
        <time>2013-03-07T12:46:27Z</time>
      </trkpt>
      <trkpt lat="43.96982" lon="5.12209">
        <ele>400</ele>
        <time>2013-03-07T12:46:28Z</time>
      </trkpt>
      <trkpt lat="43.96983" lon="5.12205">
        <ele>396.7</ele>
        <time>2013-03-07T12:46:32Z</time>
      </trkpt>
      <trkpt lat="43.96984" lon="5.12204">
        <ele>395</ele>
        <time>2013-03-07T12:46:33Z</time>
      </trkpt>
      <trkpt lat="43.96986" lon="5.12199">
        <ele>395.5</ele>
        <time>2013-03-07T12:46:35Z</time>
      </trkpt>
      <trkpt lat="43.96987" lon="5.12197">
        <ele>395.7</ele>
        <time>2013-03-07T12:46:36Z</time>
      </trkpt>
      <trkpt lat="43.96987" lon="5.12194">
        <ele>394.3</ele>
        <time>2013-03-07T12:46:38Z</time>
      </trkpt>
      <trkpt lat="43.96987" lon="5.12191">
        <ele>393.8</ele>
        <time>2013-03-07T12:46:39Z</time>
      </trkpt>
      <trkpt lat="43.96988" lon="5.12187">
        <ele>392.3</ele>
        <time>2013-03-07T12:46:42Z</time>
      </trkpt>
      <trkpt lat="43.96988" lon="5.12185">
        <ele>391.8</ele>
        <time>2013-03-07T12:46:43Z</time>
      </trkpt>
      <trkpt lat="43.96989" lon="5.1218">
        <ele>391.7</ele>
        <time>2013-03-07T12:46:45Z</time>
      </trkpt>
      <trkpt lat="43.9699" lon="5.12177">
        <ele>392.2</ele>
        <time>2013-03-07T12:46:46Z</time>
      </trkpt>
      <trkpt lat="43.96991" lon="5.12172">
        <ele>392</ele>
        <time>2013-03-07T12:46:47Z</time>
      </trkpt>
      <trkpt lat="43.96996" lon="5.12164">
        <ele>391.4</ele>
        <time>2013-03-07T12:46:48Z</time>
      </trkpt>
      <trkpt lat="43.96998" lon="5.12159">
        <ele>390.8</ele>
        <time>2013-03-07T12:46:49Z</time>
      </trkpt>
      <trkpt lat="43.97001" lon="5.12156">
        <ele>389.6</ele>
        <time>2013-03-07T12:46:50Z</time>
      </trkpt>
      <trkpt lat="43.97003" lon="5.12152">
        <ele>389.1</ele>
        <time>2013-03-07T12:46:51Z</time>
      </trkpt>
      <trkpt lat="43.97005" lon="5.12149">
        <ele>389.3</ele>
        <time>2013-03-07T12:46:52Z</time>
      </trkpt>
      <trkpt lat="43.97008" lon="5.12146">
        <ele>389.2</ele>
        <time>2013-03-07T12:46:53Z</time>
      </trkpt>
      <trkpt lat="43.9701" lon="5.12141">
        <ele>388.7</ele>
        <time>2013-03-07T12:46:54Z</time>
      </trkpt>
      <trkpt lat="43.97014" lon="5.1214">
        <ele>385</ele>
        <time>2013-03-07T12:46:55Z</time>
      </trkpt>
      <trkpt lat="43.97017" lon="5.12138">
        <ele>383.3</ele>
        <time>2013-03-07T12:46:56Z</time>
      </trkpt>
      <trkpt lat="43.97018" lon="5.12134">
        <ele>385.6</ele>
        <time>2013-03-07T12:46:57Z</time>
      </trkpt>
      <trkpt lat="43.9702" lon="5.1213">
        <ele>385.5</ele>
        <time>2013-03-07T12:46:58Z</time>
      </trkpt>
      <trkpt lat="43.97022" lon="5.12128">
        <ele>383.8</ele>
        <time>2013-03-07T12:46:59Z</time>
      </trkpt>
      <trkpt lat="43.97025" lon="5.12126">
        <ele>382.3</ele>
        <time>2013-03-07T12:47:00Z</time>
      </trkpt>
      <trkpt lat="43.97029" lon="5.12124">
        <ele>382.2</ele>
        <time>2013-03-07T12:47:01Z</time>
      </trkpt>
      <trkpt lat="43.97032" lon="5.12122">
        <ele>382.2</ele>
        <time>2013-03-07T12:47:02Z</time>
      </trkpt>
      <trkpt lat="43.97036" lon="5.12119">
        <ele>382</ele>
        <time>2013-03-07T12:47:03Z</time>
      </trkpt>
      <trkpt lat="43.97038" lon="5.12116">
        <ele>381.8</ele>
        <time>2013-03-07T12:47:04Z</time>
      </trkpt>
      <trkpt lat="43.97041" lon="5.12114">
        <ele>382.5</ele>
        <time>2013-03-07T12:47:05Z</time>
      </trkpt>
      <trkpt lat="43.97044" lon="5.12111">
        <ele>382.9</ele>
        <time>2013-03-07T12:47:06Z</time>
      </trkpt>
      <trkpt lat="43.97047" lon="5.12108">
        <ele>383.5</ele>
        <time>2013-03-07T12:47:07Z</time>
      </trkpt>
      <trkpt lat="43.97049" lon="5.12104">
        <ele>383.5</ele>
        <time>2013-03-07T12:47:08Z</time>
      </trkpt>
      <trkpt lat="43.97052" lon="5.12102">
        <ele>383.3</ele>
        <time>2013-03-07T12:47:09Z</time>
      </trkpt>
      <trkpt lat="43.97055" lon="5.12101">
        <ele>385.7</ele>
        <time>2013-03-07T12:47:10Z</time>
      </trkpt>
      <trkpt lat="43.97057" lon="5.12099">
        <ele>385.3</ele>
        <time>2013-03-07T12:47:11Z</time>
      </trkpt>
      <trkpt lat="43.97058" lon="5.12096">
        <ele>385.2</ele>
        <time>2013-03-07T12:47:12Z</time>
      </trkpt>
      <trkpt lat="43.97059" lon="5.1209">
        <ele>385</ele>
        <time>2013-03-07T12:47:14Z</time>
      </trkpt>
      <trkpt lat="43.9706" lon="5.12088">
        <ele>385.3</ele>
        <time>2013-03-07T12:47:15Z</time>
      </trkpt>
      <trkpt lat="43.97063" lon="5.12086">
        <ele>387.8</ele>
        <time>2013-03-07T12:47:17Z</time>
      </trkpt>
      <trkpt lat="43.97065" lon="5.12083">
        <ele>388.7</ele>
        <time>2013-03-07T12:47:18Z</time>
      </trkpt>
      <trkpt lat="43.97067" lon="5.12081">
        <ele>388.2</ele>
        <time>2013-03-07T12:47:19Z</time>
      </trkpt>
      <trkpt lat="43.97068" lon="5.12079">
        <ele>388.7</ele>
        <time>2013-03-07T12:47:20Z</time>
      </trkpt>
      <trkpt lat="43.97071" lon="5.12074">
        <ele>387.4</ele>
        <time>2013-03-07T12:47:22Z</time>
      </trkpt>
      <trkpt lat="43.97073" lon="5.12071">
        <ele>387.2</ele>
        <time>2013-03-07T12:47:23Z</time>
      </trkpt>
      <trkpt lat="43.97074" lon="5.12068">
        <ele>386.4</ele>
        <time>2013-03-07T12:47:24Z</time>
      </trkpt>
      <trkpt lat="43.97078" lon="5.12065">
        <ele>385.6</ele>
        <time>2013-03-07T12:47:25Z</time>
      </trkpt>
      <trkpt lat="43.97081" lon="5.12063">
        <ele>384.2</ele>
        <time>2013-03-07T12:47:26Z</time>
      </trkpt>
      <trkpt lat="43.97083" lon="5.1206">
        <ele>383.1</ele>
        <time>2013-03-07T12:47:27Z</time>
      </trkpt>
      <trkpt lat="43.97086" lon="5.12051">
        <ele>383</ele>
        <time>2013-03-07T12:47:28Z</time>
      </trkpt>
      <trkpt lat="43.97089" lon="5.12046">
        <ele>382.4</ele>
        <time>2013-03-07T12:47:29Z</time>
      </trkpt>
      <trkpt lat="43.97091" lon="5.12043">
        <ele>382.4</ele>
        <time>2013-03-07T12:47:30Z</time>
      </trkpt>
      <trkpt lat="43.97094" lon="5.12039">
        <ele>382</ele>
        <time>2013-03-07T12:47:31Z</time>
      </trkpt>
      <trkpt lat="43.97096" lon="5.12036">
        <ele>382.3</ele>
        <time>2013-03-07T12:47:32Z</time>
      </trkpt>
      <trkpt lat="43.97099" lon="5.12033">
        <ele>382.8</ele>
        <time>2013-03-07T12:47:33Z</time>
      </trkpt>
      <trkpt lat="43.971" lon="5.12029">
        <ele>380.6</ele>
        <time>2013-03-07T12:47:34Z</time>
      </trkpt>
      <trkpt lat="43.97102" lon="5.12026">
        <ele>380.8</ele>
        <time>2013-03-07T12:47:35Z</time>
      </trkpt>
      <trkpt lat="43.97104" lon="5.12023">
        <ele>380.4</ele>
        <time>2013-03-07T12:47:36Z</time>
      </trkpt>
      <trkpt lat="43.97106" lon="5.1202">
        <ele>379.9</ele>
        <time>2013-03-07T12:47:37Z</time>
      </trkpt>
      <trkpt lat="43.9711" lon="5.12018">
        <ele>384.2</ele>
        <time>2013-03-07T12:47:39Z</time>
      </trkpt>
      <trkpt lat="43.97112" lon="5.12016">
        <ele>384.8</ele>
        <time>2013-03-07T12:47:40Z</time>
      </trkpt>
      <trkpt lat="43.97114" lon="5.12014">
        <ele>384.9</ele>
        <time>2013-03-07T12:47:41Z</time>
      </trkpt>
      <trkpt lat="43.97116" lon="5.12013">
        <ele>385.7</ele>
        <time>2013-03-07T12:47:42Z</time>
      </trkpt>
      <trkpt lat="43.9712" lon="5.12012">
        <ele>385.7</ele>
        <time>2013-03-07T12:47:44Z</time>
      </trkpt>
      <trkpt lat="43.97122" lon="5.1201">
        <ele>386.8</ele>
        <time>2013-03-07T12:47:45Z</time>
      </trkpt>
      <trkpt lat="43.97123" lon="5.12007">
        <ele>388.4</ele>
        <time>2013-03-07T12:47:46Z</time>
      </trkpt>
      <trkpt lat="43.97126" lon="5.12005">
        <ele>388.2</ele>
        <time>2013-03-07T12:47:47Z</time>
      </trkpt>
      <trkpt lat="43.97128" lon="5.12002">
        <ele>387.8</ele>
        <time>2013-03-07T12:47:48Z</time>
      </trkpt>
      <trkpt lat="43.9713" lon="5.12">
        <ele>388.7</ele>
        <time>2013-03-07T12:47:49Z</time>
      </trkpt>
      <trkpt lat="43.97133" lon="5.11997">
        <ele>389.5</ele>
        <time>2013-03-07T12:47:51Z</time>
      </trkpt>
      <trkpt lat="43.97134" lon="5.11994">
        <ele>389.9</ele>
        <time>2013-03-07T12:47:52Z</time>
      </trkpt>
      <trkpt lat="43.97137" lon="5.1199">
        <ele>392</ele>
        <time>2013-03-07T12:47:54Z</time>
      </trkpt>
      <trkpt lat="43.97142" lon="5.1199">
        <ele>386.3</ele>
        <time>2013-03-07T12:47:55Z</time>
      </trkpt>
      <trkpt lat="43.97144" lon="5.11988">
        <ele>387.4</ele>
        <time>2013-03-07T12:47:56Z</time>
      </trkpt>
      <trkpt lat="43.97146" lon="5.11986">
        <ele>387.7</ele>
        <time>2013-03-07T12:47:57Z</time>
      </trkpt>
      <trkpt lat="43.97149" lon="5.11983">
        <ele>387.4</ele>
        <time>2013-03-07T12:47:59Z</time>
      </trkpt>
      <trkpt lat="43.97151" lon="5.11982">
        <ele>387</ele>
        <time>2013-03-07T12:48:00Z</time>
      </trkpt>
      <trkpt lat="43.97153" lon="5.1198">
        <ele>386.6</ele>
        <time>2013-03-07T12:48:01Z</time>
      </trkpt>
      <trkpt lat="43.97156" lon="5.11979">
        <ele>386.3</ele>
        <time>2013-03-07T12:48:02Z</time>
      </trkpt>
      <trkpt lat="43.97159" lon="5.11979">
        <ele>385.9</ele>
        <time>2013-03-07T12:48:04Z</time>
      </trkpt>
      <trkpt lat="43.97162" lon="5.1198">
        <ele>385.7</ele>
        <time>2013-03-07T12:48:05Z</time>
      </trkpt>
      <trkpt lat="43.97164" lon="5.12028">
        <ele>384.6</ele>
        <time>2013-03-07T12:48:06Z</time>
      </trkpt>
      <trkpt lat="43.97166" lon="5.12026">
        <ele>383.6</ele>
        <time>2013-03-07T12:48:07Z</time>
      </trkpt>
      <trkpt lat="43.97163" lon="5.11998">
        <ele>383.7</ele>
        <time>2013-03-07T12:48:08Z</time>
      </trkpt>
      <trkpt lat="43.97166" lon="5.11998">
        <ele>380.6</ele>
        <time>2013-03-07T12:48:12Z</time>
      </trkpt>
      <trkpt lat="43.97168" lon="5.11998">
        <ele>379.8</ele>
        <time>2013-03-07T12:48:13Z</time>
      </trkpt>
      <trkpt lat="43.97167" lon="5.12003">
        <ele>378.6</ele>
        <time>2013-03-07T12:48:18Z</time>
      </trkpt>
      <trkpt lat="43.97167" lon="5.12004">
        <ele>378.1</ele>
        <time>2013-03-07T12:48:19Z</time>
      </trkpt>
      <trkpt lat="43.97167" lon="5.12002">
        <ele>375.7</ele>
        <time>2013-03-07T12:48:50Z</time>
      </trkpt>
      <trkpt lat="43.97165" lon="5.11993">
        <ele>376.1</ele>
        <time>2013-03-07T12:48:51Z</time>
      </trkpt>
      <trkpt lat="43.97167" lon="5.11985">
        <ele>377.2</ele>
        <time>2013-03-07T12:48:52Z</time>
      </trkpt>
      <trkpt lat="43.97167" lon="5.11978">
        <ele>377.5</ele>
        <time>2013-03-07T12:48:53Z</time>
      </trkpt>
      <trkpt lat="43.97166" lon="5.11972">
        <ele>372.5</ele>
        <time>2013-03-07T12:48:59Z</time>
      </trkpt>
      <trkpt lat="43.97166" lon="5.11971">
        <ele>372.6</ele>
        <time>2013-03-07T12:49:00Z</time>
      </trkpt>
      <trkpt lat="43.97169" lon="5.11966">
        <ele>376.5</ele>
        <time>2013-03-07T12:49:03Z</time>
      </trkpt>
      <trkpt lat="43.9717" lon="5.11963">
        <ele>377.9</ele>
        <time>2013-03-07T12:49:04Z</time>
      </trkpt>
      <trkpt lat="43.97173" lon="5.11961">
        <ele>379.1</ele>
        <time>2013-03-07T12:49:06Z</time>
      </trkpt>
      <trkpt lat="43.97175" lon="5.11959">
        <ele>379.2</ele>
        <time>2013-03-07T12:49:07Z</time>
      </trkpt>
      <trkpt lat="43.97177" lon="5.11955">
        <ele>380.9</ele>
        <time>2013-03-07T12:49:09Z</time>
      </trkpt>
      <trkpt lat="43.9718" lon="5.11953">
        <ele>381.8</ele>
        <time>2013-03-07T12:49:10Z</time>
      </trkpt>
      <trkpt lat="43.97184" lon="5.11954">
        <ele>387.1</ele>
        <time>2013-03-07T12:49:22Z</time>
      </trkpt>
      <trkpt lat="43.97185" lon="5.11954">
        <ele>387.8</ele>
        <time>2013-03-07T12:49:23Z</time>
      </trkpt>
      <trkpt lat="43.97189" lon="5.11952">
        <ele>388.2</ele>
        <time>2013-03-07T12:49:28Z</time>
      </trkpt>
      <trkpt lat="43.97192" lon="5.11952">
        <ele>388.3</ele>
        <time>2013-03-07T12:49:29Z</time>
      </trkpt>
      <trkpt lat="43.97196" lon="5.11951">
        <ele>386.2</ele>
        <time>2013-03-07T12:49:31Z</time>
      </trkpt>
      <trkpt lat="43.97198" lon="5.11951">
        <ele>385.5</ele>
        <time>2013-03-07T12:49:32Z</time>
      </trkpt>
      <trkpt lat="43.97202" lon="5.11949">
        <ele>385.3</ele>
        <time>2013-03-07T12:49:35Z</time>
      </trkpt>
      <trkpt lat="43.97204" lon="5.11947">
        <ele>384.9</ele>
        <time>2013-03-07T12:49:36Z</time>
      </trkpt>
      <trkpt lat="43.97206" lon="5.11945">
        <ele>385.1</ele>
        <time>2013-03-07T12:49:37Z</time>
      </trkpt>
      <trkpt lat="43.97209" lon="5.11942">
        <ele>385.1</ele>
        <time>2013-03-07T12:49:38Z</time>
      </trkpt>
      <trkpt lat="43.97211" lon="5.11941">
        <ele>384.2</ele>
        <time>2013-03-07T12:49:39Z</time>
      </trkpt>
      <trkpt lat="43.97213" lon="5.1194">
        <ele>380.3</ele>
        <time>2013-03-07T12:49:40Z</time>
      </trkpt>
      <trkpt lat="43.97216" lon="5.11938">
        <ele>378.3</ele>
        <time>2013-03-07T12:49:41Z</time>
      </trkpt>
      <trkpt lat="43.97219" lon="5.11934">
        <ele>381.4</ele>
        <time>2013-03-07T12:49:42Z</time>
      </trkpt>
      <trkpt lat="43.97222" lon="5.1193">
        <ele>381.4</ele>
        <time>2013-03-07T12:49:43Z</time>
      </trkpt>
      <trkpt lat="43.97225" lon="5.11928">
        <ele>380.4</ele>
        <time>2013-03-07T12:49:44Z</time>
      </trkpt>
      <trkpt lat="43.97227" lon="5.11927">
        <ele>381.9</ele>
        <time>2013-03-07T12:49:45Z</time>
      </trkpt>
      <trkpt lat="43.97229" lon="5.11926">
        <ele>380.2</ele>
        <time>2013-03-07T12:49:46Z</time>
      </trkpt>
      <trkpt lat="43.97233" lon="5.11923">
        <ele>378.3</ele>
        <time>2013-03-07T12:49:48Z</time>
      </trkpt>
      <trkpt lat="43.97235" lon="5.11922">
        <ele>378</ele>
        <time>2013-03-07T12:49:49Z</time>
      </trkpt>
      <trkpt lat="43.97237" lon="5.1192">
        <ele>379.4</ele>
        <time>2013-03-07T12:49:50Z</time>
      </trkpt>
      <trkpt lat="43.97239" lon="5.11919">
        <ele>380.8</ele>
        <time>2013-03-07T12:49:51Z</time>
      </trkpt>
      <trkpt lat="43.97243" lon="5.11917">
        <ele>381.6</ele>
        <time>2013-03-07T12:49:53Z</time>
      </trkpt>
      <trkpt lat="43.97246" lon="5.11918">
        <ele>378.2</ele>
        <time>2013-03-07T12:49:54Z</time>
      </trkpt>
      <trkpt lat="43.97249" lon="5.11915">
        <ele>378.3</ele>
        <time>2013-03-07T12:49:56Z</time>
      </trkpt>
      <trkpt lat="43.97251" lon="5.11915">
        <ele>377.1</ele>
        <time>2013-03-07T12:49:57Z</time>
      </trkpt>
      <trkpt lat="43.97254" lon="5.11913">
        <ele>381.2</ele>
        <time>2013-03-07T12:50:00Z</time>
      </trkpt>
      <trkpt lat="43.97256" lon="5.11912">
        <ele>382.8</ele>
        <time>2013-03-07T12:50:01Z</time>
      </trkpt>
      <trkpt lat="43.9726" lon="5.11913">
        <ele>383.8</ele>
        <time>2013-03-07T12:50:04Z</time>
      </trkpt>
      <trkpt lat="43.97262" lon="5.11915">
        <ele>384.3</ele>
        <time>2013-03-07T12:50:05Z</time>
      </trkpt>
      <trkpt lat="43.97258" lon="5.11915">
        <ele>397.5</ele>
        <time>2013-03-07T12:50:14Z</time>
      </trkpt>
      <trkpt lat="43.97256" lon="5.11918">
        <ele>393</ele>
        <time>2013-03-07T12:50:15Z</time>
      </trkpt>
      <trkpt lat="43.97252" lon="5.11919">
        <ele>393.7</ele>
        <time>2013-03-07T12:50:17Z</time>
      </trkpt>
      <trkpt lat="43.9725" lon="5.11919">
        <ele>394.2</ele>
        <time>2013-03-07T12:50:18Z</time>
      </trkpt>
      <trkpt lat="43.9725" lon="5.11924">
        <ele>393</ele>
        <time>2013-03-07T12:50:54Z</time>
      </trkpt>
      <trkpt lat="43.9725" lon="5.11925">
        <ele>393.5</ele>
        <time>2013-03-07T12:50:55Z</time>
      </trkpt>
      <trkpt lat="43.97247" lon="5.11929">
        <ele>395.1</ele>
        <time>2013-03-07T12:50:56Z</time>
      </trkpt>
      <trkpt lat="43.97245" lon="5.11931">
        <ele>396.6</ele>
        <time>2013-03-07T12:50:57Z</time>
      </trkpt>
      <trkpt lat="43.97244" lon="5.11936">
        <ele>398.4</ele>
        <time>2013-03-07T12:50:59Z</time>
      </trkpt>
      <trkpt lat="43.97242" lon="5.11939">
        <ele>400.5</ele>
        <time>2013-03-07T12:51:00Z</time>
      </trkpt>
      <trkpt lat="43.97241" lon="5.11937">
        <ele>401.4</ele>
        <time>2013-03-07T12:51:01Z</time>
      </trkpt>
      <trkpt lat="43.97239" lon="5.11931">
        <ele>404.3</ele>
        <time>2013-03-07T12:51:02Z</time>
      </trkpt>
      <trkpt lat="43.97237" lon="5.11932">
        <ele>406.9</ele>
        <time>2013-03-07T12:51:03Z</time>
      </trkpt>
      <trkpt lat="43.97236" lon="5.11939">
        <ele>406.5</ele>
        <time>2013-03-07T12:51:04Z</time>
      </trkpt>
      <trkpt lat="43.97232" lon="5.1194">
        <ele>406.8</ele>
        <time>2013-03-07T12:51:06Z</time>
      </trkpt>
      <trkpt lat="43.9723" lon="5.11941">
        <ele>408</ele>
        <time>2013-03-07T12:51:07Z</time>
      </trkpt>
      <trkpt lat="43.97229" lon="5.11943">
        <ele>408.3</ele>
        <time>2013-03-07T12:51:08Z</time>
      </trkpt>
      <trkpt lat="43.97227" lon="5.11945">
        <ele>408.7</ele>
        <time>2013-03-07T12:51:09Z</time>
      </trkpt>
      <trkpt lat="43.97222" lon="5.11947">
        <ele>408</ele>
        <time>2013-03-07T12:51:11Z</time>
      </trkpt>
      <trkpt lat="43.97221" lon="5.11947">
        <ele>406.5</ele>
        <time>2013-03-07T12:51:12Z</time>
      </trkpt>
      <trkpt lat="43.97217" lon="5.1195">
        <ele>403.9</ele>
        <time>2013-03-07T12:51:14Z</time>
      </trkpt>
      <trkpt lat="43.97216" lon="5.1195">
        <ele>403.1</ele>
        <time>2013-03-07T12:51:15Z</time>
      </trkpt>
      <trkpt lat="43.97214" lon="5.11953">
        <ele>402.2</ele>
        <time>2013-03-07T12:51:16Z</time>
      </trkpt>
      <trkpt lat="43.97211" lon="5.11957">
        <ele>401.3</ele>
        <time>2013-03-07T12:51:17Z</time>
      </trkpt>
      <trkpt lat="43.97208" lon="5.11963">
        <ele>400.4</ele>
        <time>2013-03-07T12:51:18Z</time>
      </trkpt>
      <trkpt lat="43.97204" lon="5.11977">
        <ele>398.8</ele>
        <time>2013-03-07T12:51:19Z</time>
      </trkpt>
      <trkpt lat="43.97212" lon="5.11991">
        <ele>398.4</ele>
        <time>2013-03-07T12:51:20Z</time>
      </trkpt>
      <trkpt lat="43.97217" lon="5.12002">
        <ele>398.4</ele>
        <time>2013-03-07T12:51:21Z</time>
      </trkpt>
      <trkpt lat="43.97222" lon="5.12007">
        <ele>397.6</ele>
        <time>2013-03-07T12:51:22Z</time>
      </trkpt>
      <trkpt lat="43.97218" lon="5.12009">
        <ele>397</ele>
        <time>2013-03-07T12:51:23Z</time>
      </trkpt>
      <trkpt lat="43.97216" lon="5.12002">
        <ele>397</ele>
        <time>2013-03-07T12:51:24Z</time>
      </trkpt>
      <trkpt lat="43.97214" lon="5.1199">
        <ele>399.6</ele>
        <time>2013-03-07T12:51:25Z</time>
      </trkpt>
      <trkpt lat="43.97212" lon="5.11987">
        <ele>400</ele>
        <time>2013-03-07T12:51:26Z</time>
      </trkpt>
      <trkpt lat="43.97209" lon="5.11983">
        <ele>405</ele>
        <time>2013-03-07T12:51:27Z</time>
      </trkpt>
      <trkpt lat="43.97206" lon="5.1198">
        <ele>402.9</ele>
        <time>2013-03-07T12:51:29Z</time>
      </trkpt>
      <trkpt lat="43.97204" lon="5.11978">
        <ele>402.9</ele>
        <time>2013-03-07T12:51:30Z</time>
      </trkpt>
      <trkpt lat="43.97201" lon="5.1198">
        <ele>403.5</ele>
        <time>2013-03-07T12:51:34Z</time>
      </trkpt>
      <trkpt lat="43.97199" lon="5.11979">
        <ele>403.6</ele>
        <time>2013-03-07T12:51:35Z</time>
      </trkpt>
      <trkpt lat="43.972" lon="5.11978">
        <ele>403.4</ele>
        <time>2013-03-07T12:51:36Z</time>
      </trkpt>
      <trkpt lat="43.97205" lon="5.11981">
        <ele>405.8</ele>
        <time>2013-03-07T12:51:37Z</time>
      </trkpt>
      <trkpt lat="43.97207" lon="5.11986">
        <ele>397.9</ele>
        <time>2013-03-07T12:53:12Z</time>
      </trkpt>
      <trkpt lat="43.97209" lon="5.11987">
        <ele>398.1</ele>
        <time>2013-03-07T12:53:13Z</time>
      </trkpt>
      <trkpt lat="43.97212" lon="5.1199">
        <ele>397.7</ele>
        <time>2013-03-07T12:53:16Z</time>
      </trkpt>
      <trkpt lat="43.97214" lon="5.11989">
        <ele>397.9</ele>
        <time>2013-03-07T12:53:17Z</time>
      </trkpt>
      <trkpt lat="43.97216" lon="5.11994">
        <ele>397.8</ele>
        <time>2013-03-07T12:53:19Z</time>
      </trkpt>
      <trkpt lat="43.97217" lon="5.11994">
        <ele>397.6</ele>
        <time>2013-03-07T12:53:20Z</time>
      </trkpt>
      <trkpt lat="43.97218" lon="5.11996">
        <ele>397.7</ele>
        <time>2013-03-07T12:53:21Z</time>
      </trkpt>
      <trkpt lat="43.9722" lon="5.11999">
        <ele>398.3</ele>
        <time>2013-03-07T12:53:22Z</time>
      </trkpt>
      <trkpt lat="43.97221" lon="5.12001">
        <ele>398.2</ele>
        <time>2013-03-07T12:53:23Z</time>
      </trkpt>
      <trkpt lat="43.97223" lon="5.12006">
        <ele>398.5</ele>
        <time>2013-03-07T12:53:24Z</time>
      </trkpt>
      <trkpt lat="43.97224" lon="5.1201">
        <ele>401.3</ele>
        <time>2013-03-07T12:53:27Z</time>
      </trkpt>
      <trkpt lat="43.97225" lon="5.12012">
        <ele>401.5</ele>
        <time>2013-03-07T12:53:28Z</time>
      </trkpt>
      <trkpt lat="43.97226" lon="5.12015">
        <ele>402.6</ele>
        <time>2013-03-07T12:53:30Z</time>
      </trkpt>
      <trkpt lat="43.97228" lon="5.12017">
        <ele>402.3</ele>
        <time>2013-03-07T12:53:31Z</time>
      </trkpt>
      <trkpt lat="43.9723" lon="5.12021">
        <ele>402.8</ele>
        <time>2013-03-07T12:53:33Z</time>
      </trkpt>
      <trkpt lat="43.97231" lon="5.12024">
        <ele>402.9</ele>
        <time>2013-03-07T12:53:34Z</time>
      </trkpt>
      <trkpt lat="43.97233" lon="5.12029">
        <ele>403</ele>
        <time>2013-03-07T12:53:37Z</time>
      </trkpt>
      <trkpt lat="43.97234" lon="5.1203">
        <ele>403.7</ele>
        <time>2013-03-07T12:53:38Z</time>
      </trkpt>
      <trkpt lat="43.97237" lon="5.12034">
        <ele>403.6</ele>
        <time>2013-03-07T12:53:40Z</time>
      </trkpt>
      <trkpt lat="43.97238" lon="5.12036">
        <ele>403.6</ele>
        <time>2013-03-07T12:53:41Z</time>
      </trkpt>
      <trkpt lat="43.9724" lon="5.12038">
        <ele>404</ele>
        <time>2013-03-07T12:53:42Z</time>
      </trkpt>
      <trkpt lat="43.97242" lon="5.1204">
        <ele>404</ele>
        <time>2013-03-07T12:53:43Z</time>
      </trkpt>
      <trkpt lat="43.97244" lon="5.12043">
        <ele>404.2</ele>
        <time>2013-03-07T12:53:44Z</time>
      </trkpt>
      <trkpt lat="43.97245" lon="5.12046">
        <ele>403.8</ele>
        <time>2013-03-07T12:53:45Z</time>
      </trkpt>
      <trkpt lat="43.97248" lon="5.12049">
        <ele>403.8</ele>
        <time>2013-03-07T12:53:51Z</time>
      </trkpt>
      <trkpt lat="43.97249" lon="5.12051">
        <ele>403.7</ele>
        <time>2013-03-07T12:53:52Z</time>
      </trkpt>
      <trkpt lat="43.97246" lon="5.12048">
        <ele>397.5</ele>
        <time>2013-03-07T12:54:08Z</time>
      </trkpt>
      <trkpt lat="43.97244" lon="5.12046">
        <ele>397.1</ele>
        <time>2013-03-07T12:54:09Z</time>
      </trkpt>
      <trkpt lat="43.97243" lon="5.12043">
        <ele>397.2</ele>
        <time>2013-03-07T12:54:10Z</time>
      </trkpt>
      <trkpt lat="43.97241" lon="5.12041">
        <ele>397.3</ele>
        <time>2013-03-07T12:54:11Z</time>
      </trkpt>
      <trkpt lat="43.97239" lon="5.12038">
        <ele>397.4</ele>
        <time>2013-03-07T12:54:12Z</time>
      </trkpt>
      <trkpt lat="43.97237" lon="5.12035">
        <ele>397.4</ele>
        <time>2013-03-07T12:54:13Z</time>
      </trkpt>
      <trkpt lat="43.97235" lon="5.1203">
        <ele>396.3</ele>
        <time>2013-03-07T12:54:14Z</time>
      </trkpt>
      <trkpt lat="43.97233" lon="5.12027">
        <ele>396.1</ele>
        <time>2013-03-07T12:54:15Z</time>
      </trkpt>
      <trkpt lat="43.97232" lon="5.12023">
        <ele>395.6</ele>
        <time>2013-03-07T12:54:16Z</time>
      </trkpt>
      <trkpt lat="43.9723" lon="5.12018">
        <ele>395.3</ele>
        <time>2013-03-07T12:54:17Z</time>
      </trkpt>
      <trkpt lat="43.97228" lon="5.12014">
        <ele>395.3</ele>
        <time>2013-03-07T12:54:18Z</time>
      </trkpt>
      <trkpt lat="43.97226" lon="5.12011">
        <ele>395.6</ele>
        <time>2013-03-07T12:54:19Z</time>
      </trkpt>
      <trkpt lat="43.97224" lon="5.12007">
        <ele>395.8</ele>
        <time>2013-03-07T12:54:20Z</time>
      </trkpt>
      <trkpt lat="43.97222" lon="5.12004">
        <ele>396</ele>
        <time>2013-03-07T12:54:21Z</time>
      </trkpt>
      <trkpt lat="43.9722" lon="5.12">
        <ele>396</ele>
        <time>2013-03-07T12:54:22Z</time>
      </trkpt>
      <trkpt lat="43.97218" lon="5.11997">
        <ele>395.5</ele>
        <time>2013-03-07T12:54:23Z</time>
      </trkpt>
      <trkpt lat="43.97217" lon="5.11995">
        <ele>394.8</ele>
        <time>2013-03-07T12:54:24Z</time>
      </trkpt>
      <trkpt lat="43.97215" lon="5.11991">
        <ele>394.2</ele>
        <time>2013-03-07T12:54:25Z</time>
      </trkpt>
      <trkpt lat="43.97212" lon="5.11989">
        <ele>394.3</ele>
        <time>2013-03-07T12:54:26Z</time>
      </trkpt>
      <trkpt lat="43.9721" lon="5.11986">
        <ele>394.3</ele>
        <time>2013-03-07T12:54:27Z</time>
      </trkpt>
      <trkpt lat="43.97207" lon="5.11982">
        <ele>393.4</ele>
        <time>2013-03-07T12:54:29Z</time>
      </trkpt>
      <trkpt lat="43.97207" lon="5.11981">
        <ele>393.2</ele>
        <time>2013-03-07T12:54:30Z</time>
      </trkpt>
      <trkpt lat="43.97215" lon="5.11979">
        <ele>394.6</ele>
        <time>2013-03-07T12:54:31Z</time>
      </trkpt>
      <trkpt lat="43.97218" lon="5.11975">
        <ele>393.9</ele>
        <time>2013-03-07T12:54:33Z</time>
      </trkpt>
      <trkpt lat="43.97219" lon="5.11973">
        <ele>393.8</ele>
        <time>2013-03-07T12:54:34Z</time>
      </trkpt>
      <trkpt lat="43.97221" lon="5.11971">
        <ele>393.9</ele>
        <time>2013-03-07T12:54:35Z</time>
      </trkpt>
      <trkpt lat="43.97223" lon="5.11969">
        <ele>394</ele>
        <time>2013-03-07T12:54:36Z</time>
      </trkpt>
      <trkpt lat="43.97225" lon="5.11968">
        <ele>393.9</ele>
        <time>2013-03-07T12:54:37Z</time>
      </trkpt>
      <trkpt lat="43.97227" lon="5.11966">
        <ele>393.8</ele>
        <time>2013-03-07T12:54:38Z</time>
      </trkpt>
      <trkpt lat="43.97229" lon="5.11964">
        <ele>393</ele>
        <time>2013-03-07T12:54:39Z</time>
      </trkpt>
      <trkpt lat="43.97232" lon="5.11962">
        <ele>393.6</ele>
        <time>2013-03-07T12:54:40Z</time>
      </trkpt>
      <trkpt lat="43.97234" lon="5.1196">
        <ele>393.9</ele>
        <time>2013-03-07T12:54:41Z</time>
      </trkpt>
      <trkpt lat="43.97237" lon="5.11958">
        <ele>393.7</ele>
        <time>2013-03-07T12:54:42Z</time>
      </trkpt>
      <trkpt lat="43.9724" lon="5.11957">
        <ele>393.5</ele>
        <time>2013-03-07T12:54:43Z</time>
      </trkpt>
      <trkpt lat="43.97243" lon="5.11954">
        <ele>393.5</ele>
        <time>2013-03-07T12:54:44Z</time>
      </trkpt>
      <trkpt lat="43.97245" lon="5.11952">
        <ele>392.8</ele>
        <time>2013-03-07T12:54:45Z</time>
      </trkpt>
      <trkpt lat="43.97249" lon="5.1195">
        <ele>393.5</ele>
        <time>2013-03-07T12:54:46Z</time>
      </trkpt>
      <trkpt lat="43.97252" lon="5.11947">
        <ele>394.2</ele>
        <time>2013-03-07T12:54:47Z</time>
      </trkpt>
      <trkpt lat="43.97255" lon="5.11944">
        <ele>394.1</ele>
        <time>2013-03-07T12:54:48Z</time>
      </trkpt>
      <trkpt lat="43.97258" lon="5.11941">
        <ele>394.2</ele>
        <time>2013-03-07T12:54:49Z</time>
      </trkpt>
      <trkpt lat="43.97261" lon="5.11938">
        <ele>394.3</ele>
        <time>2013-03-07T12:54:50Z</time>
      </trkpt>
      <trkpt lat="43.97264" lon="5.11935">
        <ele>394.2</ele>
        <time>2013-03-07T12:54:51Z</time>
      </trkpt>
      <trkpt lat="43.97267" lon="5.11931">
        <ele>393.7</ele>
        <time>2013-03-07T12:54:52Z</time>
      </trkpt>
      <trkpt lat="43.9727" lon="5.11929">
        <ele>393.7</ele>
        <time>2013-03-07T12:54:53Z</time>
      </trkpt>
      <trkpt lat="43.97273" lon="5.11926">
        <ele>393.7</ele>
        <time>2013-03-07T12:54:54Z</time>
      </trkpt>
      <trkpt lat="43.97276" lon="5.11924">
        <ele>394.1</ele>
        <time>2013-03-07T12:54:55Z</time>
      </trkpt>
      <trkpt lat="43.97279" lon="5.11921">
        <ele>394.2</ele>
        <time>2013-03-07T12:54:56Z</time>
      </trkpt>
      <trkpt lat="43.97282" lon="5.11919">
        <ele>393.9</ele>
        <time>2013-03-07T12:54:57Z</time>
      </trkpt>
      <trkpt lat="43.97285" lon="5.11916">
        <ele>393.7</ele>
        <time>2013-03-07T12:54:58Z</time>
      </trkpt>
      <trkpt lat="43.97289" lon="5.11914">
        <ele>393.9</ele>
        <time>2013-03-07T12:54:59Z</time>
      </trkpt>
      <trkpt lat="43.97292" lon="5.11912">
        <ele>394.3</ele>
        <time>2013-03-07T12:55:00Z</time>
      </trkpt>
      <trkpt lat="43.97295" lon="5.11909">
        <ele>394</ele>
        <time>2013-03-07T12:55:01Z</time>
      </trkpt>
      <trkpt lat="43.97297" lon="5.11906">
        <ele>394.2</ele>
        <time>2013-03-07T12:55:02Z</time>
      </trkpt>
      <trkpt lat="43.973" lon="5.11903">
        <ele>393.9</ele>
        <time>2013-03-07T12:55:03Z</time>
      </trkpt>
      <trkpt lat="43.97303" lon="5.11902">
        <ele>394.1</ele>
        <time>2013-03-07T12:55:04Z</time>
      </trkpt>
      <trkpt lat="43.97305" lon="5.11899">
        <ele>393.8</ele>
        <time>2013-03-07T12:55:05Z</time>
      </trkpt>
      <trkpt lat="43.97308" lon="5.11897">
        <ele>394.2</ele>
        <time>2013-03-07T12:55:06Z</time>
      </trkpt>
      <trkpt lat="43.9731" lon="5.11894">
        <ele>394.1</ele>
        <time>2013-03-07T12:55:07Z</time>
      </trkpt>
      <trkpt lat="43.97313" lon="5.11892">
        <ele>394.1</ele>
        <time>2013-03-07T12:55:08Z</time>
      </trkpt>
      <trkpt lat="43.97316" lon="5.1189">
        <ele>394</ele>
        <time>2013-03-07T12:55:09Z</time>
      </trkpt>
      <trkpt lat="43.97319" lon="5.11888">
        <ele>394</ele>
        <time>2013-03-07T12:55:10Z</time>
      </trkpt>
      <trkpt lat="43.97322" lon="5.11885">
        <ele>394.2</ele>
        <time>2013-03-07T12:55:11Z</time>
      </trkpt>
      <trkpt lat="43.97324" lon="5.11883">
        <ele>393.9</ele>
        <time>2013-03-07T12:55:12Z</time>
      </trkpt>
      <trkpt lat="43.97327" lon="5.11881">
        <ele>393.9</ele>
        <time>2013-03-07T12:55:13Z</time>
      </trkpt>
      <trkpt lat="43.97329" lon="5.11879">
        <ele>393.1</ele>
        <time>2013-03-07T12:55:14Z</time>
      </trkpt>
      <trkpt lat="43.97331" lon="5.11878">
        <ele>392.6</ele>
        <time>2013-03-07T12:55:15Z</time>
      </trkpt>
      <trkpt lat="43.97333" lon="5.11875">
        <ele>392.5</ele>
        <time>2013-03-07T12:55:16Z</time>
      </trkpt>
      <trkpt lat="43.97336" lon="5.11873">
        <ele>392.4</ele>
        <time>2013-03-07T12:55:17Z</time>
      </trkpt>
      <trkpt lat="43.97338" lon="5.11872">
        <ele>392.3</ele>
        <time>2013-03-07T12:55:18Z</time>
      </trkpt>
      <trkpt lat="43.97341" lon="5.11871">
        <ele>392.3</ele>
        <time>2013-03-07T12:55:19Z</time>
      </trkpt>
      <trkpt lat="43.97343" lon="5.1187">
        <ele>392.3</ele>
        <time>2013-03-07T12:55:20Z</time>
      </trkpt>
      <trkpt lat="43.97346" lon="5.11869">
        <ele>392.6</ele>
        <time>2013-03-07T12:55:21Z</time>
      </trkpt>
      <trkpt lat="43.97348" lon="5.1187">
        <ele>392.8</ele>
        <time>2013-03-07T12:55:22Z</time>
      </trkpt>
      <trkpt lat="43.97351" lon="5.1187">
        <ele>392.9</ele>
        <time>2013-03-07T12:55:23Z</time>
      </trkpt>
      <trkpt lat="43.97354" lon="5.11871">
        <ele>392.9</ele>
        <time>2013-03-07T12:55:24Z</time>
      </trkpt>
      <trkpt lat="43.97356" lon="5.11872">
        <ele>393</ele>
        <time>2013-03-07T12:55:25Z</time>
      </trkpt>
      <trkpt lat="43.97359" lon="5.11873">
        <ele>392.9</ele>
        <time>2013-03-07T12:55:26Z</time>
      </trkpt>
      <trkpt lat="43.97361" lon="5.11874">
        <ele>393.3</ele>
        <time>2013-03-07T12:55:27Z</time>
      </trkpt>
      <trkpt lat="43.97363" lon="5.11874">
        <ele>393.4</ele>
        <time>2013-03-07T12:55:28Z</time>
      </trkpt>
      <trkpt lat="43.97367" lon="5.11875">
        <ele>393.6</ele>
        <time>2013-03-07T12:55:30Z</time>
      </trkpt>
      <trkpt lat="43.97369" lon="5.11882">
        <ele>393.2</ele>
        <time>2013-03-07T12:55:31Z</time>
      </trkpt>
      <trkpt lat="43.97371" lon="5.11883">
        <ele>393.4</ele>
        <time>2013-03-07T12:55:32Z</time>
      </trkpt>
      <trkpt lat="43.97373" lon="5.11885">
        <ele>393.8</ele>
        <time>2013-03-07T12:55:33Z</time>
      </trkpt>
      <trkpt lat="43.97375" lon="5.11888">
        <ele>394.2</ele>
        <time>2013-03-07T12:55:34Z</time>
      </trkpt>
      <trkpt lat="43.97376" lon="5.11891">
        <ele>394.1</ele>
        <time>2013-03-07T12:55:35Z</time>
      </trkpt>
      <trkpt lat="43.97378" lon="5.11893">
        <ele>394.2</ele>
        <time>2013-03-07T12:55:36Z</time>
      </trkpt>
      <trkpt lat="43.97379" lon="5.11896">
        <ele>394.3</ele>
        <time>2013-03-07T12:55:37Z</time>
      </trkpt>
      <trkpt lat="43.97383" lon="5.11899">
        <ele>394.5</ele>
        <time>2013-03-07T12:55:39Z</time>
      </trkpt>
      <trkpt lat="43.97384" lon="5.11901">
        <ele>394.4</ele>
        <time>2013-03-07T12:55:40Z</time>
      </trkpt>
      <trkpt lat="43.97388" lon="5.11904">
        <ele>394.3</ele>
        <time>2013-03-07T12:55:42Z</time>
      </trkpt>
      <trkpt lat="43.97389" lon="5.11908">
        <ele>394.3</ele>
        <time>2013-03-07T12:55:43Z</time>
      </trkpt>
      <trkpt lat="43.97391" lon="5.1191">
        <ele>394</ele>
        <time>2013-03-07T12:55:45Z</time>
      </trkpt>
      <trkpt lat="43.97393" lon="5.11912">
        <ele>394</ele>
        <time>2013-03-07T12:55:46Z</time>
      </trkpt>
      <trkpt lat="43.97394" lon="5.11915">
        <ele>393.9</ele>
        <time>2013-03-07T12:55:47Z</time>
      </trkpt>
      <trkpt lat="43.97396" lon="5.11916">
        <ele>394.1</ele>
        <time>2013-03-07T12:55:48Z</time>
      </trkpt>
      <trkpt lat="43.97397" lon="5.11922">
        <ele>396.9</ele>
        <time>2013-03-07T12:55:59Z</time>
      </trkpt>
      <trkpt lat="43.97397" lon="5.11924">
        <ele>397.5</ele>
        <time>2013-03-07T12:56:00Z</time>
      </trkpt>
      <trkpt lat="43.974" lon="5.11926">
        <ele>396.9</ele>
        <time>2013-03-07T12:56:01Z</time>
      </trkpt>
      <trkpt lat="43.97401" lon="5.11927">
        <ele>395.9</ele>
        <time>2013-03-07T12:56:02Z</time>
      </trkpt>
      <trkpt lat="43.97404" lon="5.11928">
        <ele>399.6</ele>
        <time>2013-03-07T12:56:35Z</time>
      </trkpt>
      <trkpt lat="43.97406" lon="5.11927">
        <ele>399.6</ele>
        <time>2013-03-07T12:56:36Z</time>
      </trkpt>
      <trkpt lat="43.97409" lon="5.11923">
        <ele>402.1</ele>
        <time>2013-03-07T12:56:39Z</time>
      </trkpt>
      <trkpt lat="43.97411" lon="5.11922">
        <ele>402.5</ele>
        <time>2013-03-07T12:56:40Z</time>
      </trkpt>
      <trkpt lat="43.97414" lon="5.1192">
        <ele>402.5</ele>
        <time>2013-03-07T12:56:43Z</time>
      </trkpt>
      <trkpt lat="43.97415" lon="5.11919">
        <ele>402.7</ele>
        <time>2013-03-07T12:56:44Z</time>
      </trkpt>
      <trkpt lat="43.97416" lon="5.11919">
        <ele>403</ele>
        <time>2013-03-07T12:56:45Z</time>
      </trkpt>
      <trkpt lat="43.97419" lon="5.11916">
        <ele>403.3</ele>
        <time>2013-03-07T12:56:46Z</time>
      </trkpt>
      <trkpt lat="43.97421" lon="5.11914">
        <ele>404.4</ele>
        <time>2013-03-07T12:56:47Z</time>
      </trkpt>
      <trkpt lat="43.97424" lon="5.11913">
        <ele>405.6</ele>
        <time>2013-03-07T12:56:48Z</time>
      </trkpt>
      <trkpt lat="43.97427" lon="5.11911">
        <ele>406.5</ele>
        <time>2013-03-07T12:56:50Z</time>
      </trkpt>
      <trkpt lat="43.9743" lon="5.1191">
        <ele>406</ele>
        <time>2013-03-07T12:56:51Z</time>
      </trkpt>
      <trkpt lat="43.97433" lon="5.11909">
        <ele>405.5</ele>
        <time>2013-03-07T12:56:53Z</time>
      </trkpt>
      <trkpt lat="43.97434" lon="5.11908">
        <ele>405.7</ele>
        <time>2013-03-07T12:56:54Z</time>
      </trkpt>
      <trkpt lat="43.97437" lon="5.11907">
        <ele>405.6</ele>
        <time>2013-03-07T12:56:55Z</time>
      </trkpt>
      <trkpt lat="43.97439" lon="5.11906">
        <ele>405.2</ele>
        <time>2013-03-07T12:56:56Z</time>
      </trkpt>
      <trkpt lat="43.97443" lon="5.11905">
        <ele>405.6</ele>
        <time>2013-03-07T12:56:58Z</time>
      </trkpt>
      <trkpt lat="43.97445" lon="5.11905">
        <ele>405.6</ele>
        <time>2013-03-07T12:56:59Z</time>
      </trkpt>
      <trkpt lat="43.97448" lon="5.11906">
        <ele>405.9</ele>
        <time>2013-03-07T12:57:01Z</time>
      </trkpt>
      <trkpt lat="43.9745" lon="5.11906">
        <ele>405.7</ele>
        <time>2013-03-07T12:57:02Z</time>
      </trkpt>
      <trkpt lat="43.97454" lon="5.11906">
        <ele>405.6</ele>
        <time>2013-03-07T12:57:13Z</time>
      </trkpt>
      <trkpt lat="43.97455" lon="5.11906">
        <ele>405.6</ele>
        <time>2013-03-07T12:57:14Z</time>
      </trkpt>
      <trkpt lat="43.97459" lon="5.11907">
        <ele>405.5</ele>
        <time>2013-03-07T12:57:16Z</time>
      </trkpt>
      <trkpt lat="43.97462" lon="5.11907">
        <ele>405.3</ele>
        <time>2013-03-07T12:57:17Z</time>
      </trkpt>
      <trkpt lat="43.97464" lon="5.11907">
        <ele>405.3</ele>
        <time>2013-03-07T12:57:18Z</time>
      </trkpt>
      <trkpt lat="43.97469" lon="5.11907">
        <ele>404.4</ele>
        <time>2013-03-07T12:57:19Z</time>
      </trkpt>
      <trkpt lat="43.97472" lon="5.11907">
        <ele>404.2</ele>
        <time>2013-03-07T12:57:20Z</time>
      </trkpt>
      <trkpt lat="43.97476" lon="5.11907">
        <ele>404.5</ele>
        <time>2013-03-07T12:57:21Z</time>
      </trkpt>
      <trkpt lat="43.97479" lon="5.11908">
        <ele>404.4</ele>
        <time>2013-03-07T12:57:22Z</time>
      </trkpt>
      <trkpt lat="43.97482" lon="5.11908">
        <ele>404.4</ele>
        <time>2013-03-07T12:57:23Z</time>
      </trkpt>
      <trkpt lat="43.97487" lon="5.11908">
        <ele>403.4</ele>
        <time>2013-03-07T12:57:24Z</time>
      </trkpt>
      <trkpt lat="43.97491" lon="5.11908">
        <ele>403.5</ele>
        <time>2013-03-07T12:57:25Z</time>
      </trkpt>
      <trkpt lat="43.97494" lon="5.11909">
        <ele>403.6</ele>
        <time>2013-03-07T12:57:26Z</time>
      </trkpt>
      <trkpt lat="43.97498" lon="5.11909">
        <ele>403.3</ele>
        <time>2013-03-07T12:57:27Z</time>
      </trkpt>
      <trkpt lat="43.97501" lon="5.1191">
        <ele>403</ele>
        <time>2013-03-07T12:57:28Z</time>
      </trkpt>
      <trkpt lat="43.97505" lon="5.1191">
        <ele>402.8</ele>
        <time>2013-03-07T12:57:29Z</time>
      </trkpt>
      <trkpt lat="43.97509" lon="5.11911">
        <ele>402.7</ele>
        <time>2013-03-07T12:57:30Z</time>
      </trkpt>
      <trkpt lat="43.97513" lon="5.11911">
        <ele>402.4</ele>
        <time>2013-03-07T12:57:31Z</time>
      </trkpt>
      <trkpt lat="43.97517" lon="5.11912">
        <ele>402</ele>
        <time>2013-03-07T12:57:32Z</time>
      </trkpt>
      <trkpt lat="43.97521" lon="5.11912">
        <ele>401.8</ele>
        <time>2013-03-07T12:57:33Z</time>
      </trkpt>
      <trkpt lat="43.97524" lon="5.11912">
        <ele>401.6</ele>
        <time>2013-03-07T12:57:34Z</time>
      </trkpt>
      <trkpt lat="43.97527" lon="5.11914">
        <ele>401.5</ele>
        <time>2013-03-07T12:57:35Z</time>
      </trkpt>
      <trkpt lat="43.97532" lon="5.11915">
        <ele>401.1</ele>
        <time>2013-03-07T12:57:36Z</time>
      </trkpt>
      <trkpt lat="43.97535" lon="5.11915">
        <ele>401.2</ele>
        <time>2013-03-07T12:57:37Z</time>
      </trkpt>
      <trkpt lat="43.9754" lon="5.11914">
        <ele>401.1</ele>
        <time>2013-03-07T12:57:38Z</time>
      </trkpt>
      <trkpt lat="43.97544" lon="5.11915">
        <ele>400.9</ele>
        <time>2013-03-07T12:57:39Z</time>
      </trkpt>
      <trkpt lat="43.97548" lon="5.11915">
        <ele>400.8</ele>
        <time>2013-03-07T12:57:40Z</time>
      </trkpt>
      <trkpt lat="43.97552" lon="5.11914">
        <ele>401</ele>
        <time>2013-03-07T12:57:41Z</time>
      </trkpt>
      <trkpt lat="43.97556" lon="5.11915">
        <ele>400.4</ele>
        <time>2013-03-07T12:57:42Z</time>
      </trkpt>
      <trkpt lat="43.9756" lon="5.11915">
        <ele>400.5</ele>
        <time>2013-03-07T12:57:43Z</time>
      </trkpt>
      <trkpt lat="43.97563" lon="5.11916">
        <ele>401.1</ele>
        <time>2013-03-07T12:57:44Z</time>
      </trkpt>
      <trkpt lat="43.97566" lon="5.11916">
        <ele>401.4</ele>
        <time>2013-03-07T12:57:45Z</time>
      </trkpt>
      <trkpt lat="43.9757" lon="5.11918">
        <ele>401.6</ele>
        <time>2013-03-07T12:57:46Z</time>
      </trkpt>
      <trkpt lat="43.97574" lon="5.11917">
        <ele>401.4</ele>
        <time>2013-03-07T12:57:47Z</time>
      </trkpt>
      <trkpt lat="43.97577" lon="5.11918">
        <ele>401.4</ele>
        <time>2013-03-07T12:57:48Z</time>
      </trkpt>
      <trkpt lat="43.9758" lon="5.11922">
        <ele>401.5</ele>
        <time>2013-03-07T12:58:30Z</time>
      </trkpt>
      <trkpt lat="43.97582" lon="5.11924">
        <ele>401.6</ele>
        <time>2013-03-07T12:58:31Z</time>
      </trkpt>
      <trkpt lat="43.97583" lon="5.11927">
        <ele>401.2</ele>
        <time>2013-03-07T12:58:32Z</time>
      </trkpt>
      <trkpt lat="43.97583" lon="5.11932">
        <ele>400.8</ele>
        <time>2013-03-07T12:58:33Z</time>
      </trkpt>
      <trkpt lat="43.97583" lon="5.11936">
        <ele>400.7</ele>
        <time>2013-03-07T12:58:34Z</time>
      </trkpt>
      <trkpt lat="43.97583" lon="5.11941">
        <ele>400.2</ele>
        <time>2013-03-07T12:58:35Z</time>
      </trkpt>
      <trkpt lat="43.97583" lon="5.11946">
        <ele>400.1</ele>
        <time>2013-03-07T12:58:36Z</time>
      </trkpt>
      <trkpt lat="43.97582" lon="5.11952">
        <ele>399.6</ele>
        <time>2013-03-07T12:58:37Z</time>
      </trkpt>
      <trkpt lat="43.97582" lon="5.11957">
        <ele>399.2</ele>
        <time>2013-03-07T12:58:38Z</time>
      </trkpt>
      <trkpt lat="43.97582" lon="5.11962">
        <ele>398.8</ele>
        <time>2013-03-07T12:58:39Z</time>
      </trkpt>
      <trkpt lat="43.97582" lon="5.11967">
        <ele>398.4</ele>
        <time>2013-03-07T12:58:40Z</time>
      </trkpt>
      <trkpt lat="43.97582" lon="5.11972">
        <ele>398</ele>
        <time>2013-03-07T12:58:41Z</time>
      </trkpt>
      <trkpt lat="43.97581" lon="5.11977">
        <ele>398.5</ele>
        <time>2013-03-07T12:58:42Z</time>
      </trkpt>
      <trkpt lat="43.97581" lon="5.11982">
        <ele>398.5</ele>
        <time>2013-03-07T12:58:43Z</time>
      </trkpt>
      <trkpt lat="43.9758" lon="5.11986">
        <ele>398.9</ele>
        <time>2013-03-07T12:58:44Z</time>
      </trkpt>
      <trkpt lat="43.9758" lon="5.11991">
        <ele>399.3</ele>
        <time>2013-03-07T12:58:45Z</time>
      </trkpt>
      <trkpt lat="43.97577" lon="5.11995">
        <ele>398.8</ele>
        <time>2013-03-07T12:58:47Z</time>
      </trkpt>
      <trkpt lat="43.97576" lon="5.11998">
        <ele>399</ele>
        <time>2013-03-07T12:58:48Z</time>
      </trkpt>
      <trkpt lat="43.97575" lon="5.12001">
        <ele>398.7</ele>
        <time>2013-03-07T12:58:49Z</time>
      </trkpt>
      <trkpt lat="43.97573" lon="5.12004">
        <ele>398.5</ele>
        <time>2013-03-07T12:58:50Z</time>
      </trkpt>
      <trkpt lat="43.97574" lon="5.12008">
        <ele>399.2</ele>
        <time>2013-03-07T12:58:54Z</time>
      </trkpt>
      <trkpt lat="43.97576" lon="5.12009">
        <ele>399.4</ele>
        <time>2013-03-07T12:58:55Z</time>
      </trkpt>
      <trkpt lat="43.97579" lon="5.12009">
        <ele>399.5</ele>
        <time>2013-03-07T12:58:56Z</time>
      </trkpt>
      <trkpt lat="43.97582" lon="5.1201">
        <ele>399.8</ele>
        <time>2013-03-07T12:58:57Z</time>
      </trkpt>
      <trkpt lat="43.97585" lon="5.12009">
        <ele>400</ele>
        <time>2013-03-07T12:58:58Z</time>
      </trkpt>
      <trkpt lat="43.97588" lon="5.12009">
        <ele>400.1</ele>
        <time>2013-03-07T12:58:59Z</time>
      </trkpt>
      <trkpt lat="43.97591" lon="5.12009">
        <ele>400.1</ele>
        <time>2013-03-07T12:59:00Z</time>
      </trkpt>
      <trkpt lat="43.97595" lon="5.1201">
        <ele>399.7</ele>
        <time>2013-03-07T12:59:01Z</time>
      </trkpt>
      <trkpt lat="43.97598" lon="5.1201">
        <ele>399</ele>
        <time>2013-03-07T12:59:02Z</time>
      </trkpt>
      <trkpt lat="43.97601" lon="5.12011">
        <ele>398.9</ele>
        <time>2013-03-07T12:59:03Z</time>
      </trkpt>
      <trkpt lat="43.97603" lon="5.12011">
        <ele>398.9</ele>
        <time>2013-03-07T12:59:04Z</time>
      </trkpt>
      <trkpt lat="43.97606" lon="5.12009">
        <ele>398.7</ele>
        <time>2013-03-07T12:59:05Z</time>
      </trkpt>
      <trkpt lat="43.97609" lon="5.12007">
        <ele>398.8</ele>
        <time>2013-03-07T12:59:06Z</time>
      </trkpt>
      <trkpt lat="43.97612" lon="5.12007">
        <ele>398.4</ele>
        <time>2013-03-07T12:59:07Z</time>
      </trkpt>
      <trkpt lat="43.97616" lon="5.12006">
        <ele>398.2</ele>
        <time>2013-03-07T12:59:08Z</time>
      </trkpt>
      <trkpt lat="43.97619" lon="5.12006">
        <ele>397.9</ele>
        <time>2013-03-07T12:59:09Z</time>
      </trkpt>
      <trkpt lat="43.97623" lon="5.12007">
        <ele>397.7</ele>
        <time>2013-03-07T12:59:10Z</time>
      </trkpt>
      <trkpt lat="43.97627" lon="5.12007">
        <ele>397.4</ele>
        <time>2013-03-07T12:59:11Z</time>
      </trkpt>
      <trkpt lat="43.97632" lon="5.12008">
        <ele>397.3</ele>
        <time>2013-03-07T12:59:12Z</time>
      </trkpt>
      <trkpt lat="43.97635" lon="5.12008">
        <ele>397.1</ele>
        <time>2013-03-07T12:59:13Z</time>
      </trkpt>
      <trkpt lat="43.97638" lon="5.12007">
        <ele>397.1</ele>
        <time>2013-03-07T12:59:14Z</time>
      </trkpt>
      <trkpt lat="43.97641" lon="5.12004">
        <ele>396.9</ele>
        <time>2013-03-07T12:59:15Z</time>
      </trkpt>
      <trkpt lat="43.97644" lon="5.12002">
        <ele>396.7</ele>
        <time>2013-03-07T12:59:16Z</time>
      </trkpt>
      <trkpt lat="43.97647" lon="5.12">
        <ele>396.7</ele>
        <time>2013-03-07T12:59:17Z</time>
      </trkpt>
      <trkpt lat="43.9765" lon="5.11998">
        <ele>396.4</ele>
        <time>2013-03-07T12:59:18Z</time>
      </trkpt>
      <trkpt lat="43.97653" lon="5.11997">
        <ele>396.3</ele>
        <time>2013-03-07T12:59:19Z</time>
      </trkpt>
      <trkpt lat="43.97657" lon="5.11996">
        <ele>396.4</ele>
        <time>2013-03-07T12:59:21Z</time>
      </trkpt>
      <trkpt lat="43.97658" lon="5.11994">
        <ele>396.6</ele>
        <time>2013-03-07T12:59:22Z</time>
      </trkpt>
      <trkpt lat="43.9766" lon="5.1199">
        <ele>396.4</ele>
        <time>2013-03-07T12:59:24Z</time>
      </trkpt>
      <trkpt lat="43.9766" lon="5.11988">
        <ele>396.4</ele>
        <time>2013-03-07T12:59:25Z</time>
      </trkpt>
      <trkpt lat="43.97661" lon="5.11984">
        <ele>396.5</ele>
        <time>2013-03-07T12:59:27Z</time>
      </trkpt>
      <trkpt lat="43.97663" lon="5.11981">
        <ele>396</ele>
        <time>2013-03-07T12:59:28Z</time>
      </trkpt>
      <trkpt lat="43.97666" lon="5.1198">
        <ele>395.9</ele>
        <time>2013-03-07T12:59:29Z</time>
      </trkpt>
      <trkpt lat="43.97669" lon="5.11978">
        <ele>395.7</ele>
        <time>2013-03-07T12:59:30Z</time>
      </trkpt>
      <trkpt lat="43.97671" lon="5.11976">
        <ele>395.5</ele>
        <time>2013-03-07T12:59:31Z</time>
      </trkpt>
      <trkpt lat="43.97674" lon="5.11973">
        <ele>395.4</ele>
        <time>2013-03-07T12:59:32Z</time>
      </trkpt>
      <trkpt lat="43.97676" lon="5.11971">
        <ele>395.3</ele>
        <time>2013-03-07T12:59:33Z</time>
      </trkpt>
      <trkpt lat="43.97678" lon="5.11969">
        <ele>395.1</ele>
        <time>2013-03-07T12:59:34Z</time>
      </trkpt>
      <trkpt lat="43.9768" lon="5.11967">
        <ele>395</ele>
        <time>2013-03-07T12:59:35Z</time>
      </trkpt>
      <trkpt lat="43.97682" lon="5.11965">
        <ele>394.8</ele>
        <time>2013-03-07T12:59:36Z</time>
      </trkpt>
      <trkpt lat="43.97686" lon="5.11965">
        <ele>394.6</ele>
        <time>2013-03-07T12:59:38Z</time>
      </trkpt>
      <trkpt lat="43.97689" lon="5.11964">
        <ele>394.1</ele>
        <time>2013-03-07T12:59:39Z</time>
      </trkpt>
      <trkpt lat="43.97692" lon="5.11963">
        <ele>393.9</ele>
        <time>2013-03-07T12:59:40Z</time>
      </trkpt>
      <trkpt lat="43.97695" lon="5.11961">
        <ele>394</ele>
        <time>2013-03-07T12:59:41Z</time>
      </trkpt>
      <trkpt lat="43.97698" lon="5.11959">
        <ele>393.7</ele>
        <time>2013-03-07T12:59:42Z</time>
      </trkpt>
      <trkpt lat="43.977" lon="5.11958">
        <ele>393.5</ele>
        <time>2013-03-07T12:59:43Z</time>
      </trkpt>
      <trkpt lat="43.97703" lon="5.11956">
        <ele>394.1</ele>
        <time>2013-03-07T12:59:44Z</time>
      </trkpt>
      <trkpt lat="43.97705" lon="5.11955">
        <ele>393.5</ele>
        <time>2013-03-07T12:59:45Z</time>
      </trkpt>
      <trkpt lat="43.97709" lon="5.11956">
        <ele>393.1</ele>
        <time>2013-03-07T12:59:47Z</time>
      </trkpt>
      <trkpt lat="43.97711" lon="5.11959">
        <ele>392.7</ele>
        <time>2013-03-07T12:59:48Z</time>
      </trkpt>
      <trkpt lat="43.97713" lon="5.11962">
        <ele>392.3</ele>
        <time>2013-03-07T12:59:49Z</time>
      </trkpt>
      <trkpt lat="43.97715" lon="5.11965">
        <ele>392.1</ele>
        <time>2013-03-07T12:59:50Z</time>
      </trkpt>
      <trkpt lat="43.97718" lon="5.11967">
        <ele>391.9</ele>
        <time>2013-03-07T12:59:51Z</time>
      </trkpt>
      <trkpt lat="43.9772" lon="5.11967">
        <ele>392</ele>
        <time>2013-03-07T12:59:52Z</time>
      </trkpt>
      <trkpt lat="43.97722" lon="5.11968">
        <ele>391.3</ele>
        <time>2013-03-07T12:59:53Z</time>
      </trkpt>
      <trkpt lat="43.97724" lon="5.11969">
        <ele>391.2</ele>
        <time>2013-03-07T12:59:54Z</time>
      </trkpt>
      <trkpt lat="43.97726" lon="5.1197">
        <ele>390.7</ele>
        <time>2013-03-07T12:59:55Z</time>
      </trkpt>
      <trkpt lat="43.97729" lon="5.1197">
        <ele>390.4</ele>
        <time>2013-03-07T12:59:56Z</time>
      </trkpt>
      <trkpt lat="43.97731" lon="5.1197">
        <ele>390</ele>
        <time>2013-03-07T12:59:57Z</time>
      </trkpt>
      <trkpt lat="43.97734" lon="5.11971">
        <ele>389.9</ele>
        <time>2013-03-07T12:59:58Z</time>
      </trkpt>
      <trkpt lat="43.97741" lon="5.1197">
        <ele>388.3</ele>
        <time>2013-03-07T12:59:59Z</time>
      </trkpt>
      <trkpt lat="43.97746" lon="5.11969">
        <ele>387.7</ele>
        <time>2013-03-07T13:00:00Z</time>
      </trkpt>
      <trkpt lat="43.97751" lon="5.11968">
        <ele>387.1</ele>
        <time>2013-03-07T13:00:01Z</time>
      </trkpt>
      <trkpt lat="43.97756" lon="5.11968">
        <ele>386.9</ele>
        <time>2013-03-07T13:00:02Z</time>
      </trkpt>
      <trkpt lat="43.97762" lon="5.11966">
        <ele>386.5</ele>
        <time>2013-03-07T13:00:03Z</time>
      </trkpt>
      <trkpt lat="43.97767" lon="5.11966">
        <ele>385.9</ele>
        <time>2013-03-07T13:00:04Z</time>
      </trkpt>
      <trkpt lat="43.97772" lon="5.11965">
        <ele>385.3</ele>
        <time>2013-03-07T13:00:05Z</time>
      </trkpt>
      <trkpt lat="43.97776" lon="5.11965">
        <ele>384.7</ele>
        <time>2013-03-07T13:00:06Z</time>
      </trkpt>
      <trkpt lat="43.9778" lon="5.11967">
        <ele>384.1</ele>
        <time>2013-03-07T13:00:07Z</time>
      </trkpt>
      <trkpt lat="43.97783" lon="5.11968">
        <ele>383.6</ele>
        <time>2013-03-07T13:00:08Z</time>
      </trkpt>
      <trkpt lat="43.97786" lon="5.11972">
        <ele>383.7</ele>
        <time>2013-03-07T13:00:09Z</time>
      </trkpt>
      <trkpt lat="43.97786" lon="5.11981">
        <ele>382.7</ele>
        <time>2013-03-07T13:00:10Z</time>
      </trkpt>
      <trkpt lat="43.97788" lon="5.11987">
        <ele>382.3</ele>
        <time>2013-03-07T13:00:11Z</time>
      </trkpt>
      <trkpt lat="43.9779" lon="5.11994">
        <ele>381.5</ele>
        <time>2013-03-07T13:00:12Z</time>
      </trkpt>
      <trkpt lat="43.97793" lon="5.12002">
        <ele>380.2</ele>
        <time>2013-03-07T13:00:13Z</time>
      </trkpt>
      <trkpt lat="43.97796" lon="5.12009">
        <ele>379</ele>
        <time>2013-03-07T13:00:14Z</time>
      </trkpt>
      <trkpt lat="43.978" lon="5.12017">
        <ele>378.1</ele>
        <time>2013-03-07T13:00:15Z</time>
      </trkpt>
      <trkpt lat="43.97803" lon="5.12025">
        <ele>377.7</ele>
        <time>2013-03-07T13:00:16Z</time>
      </trkpt>
      <trkpt lat="43.97806" lon="5.12033">
        <ele>377.2</ele>
        <time>2013-03-07T13:00:17Z</time>
      </trkpt>
      <trkpt lat="43.97808" lon="5.1204">
        <ele>376.4</ele>
        <time>2013-03-07T13:00:18Z</time>
      </trkpt>
      <trkpt lat="43.9781" lon="5.12046">
        <ele>375.7</ele>
        <time>2013-03-07T13:00:19Z</time>
      </trkpt>
      <trkpt lat="43.97812" lon="5.12053">
        <ele>375.1</ele>
        <time>2013-03-07T13:00:20Z</time>
      </trkpt>
      <trkpt lat="43.97815" lon="5.1206">
        <ele>374.5</ele>
        <time>2013-03-07T13:00:21Z</time>
      </trkpt>
      <trkpt lat="43.97817" lon="5.12066">
        <ele>373.6</ele>
        <time>2013-03-07T13:00:22Z</time>
      </trkpt>
      <trkpt lat="43.97819" lon="5.12071">
        <ele>373</ele>
        <time>2013-03-07T13:00:23Z</time>
      </trkpt>
      <trkpt lat="43.97821" lon="5.12077">
        <ele>372.9</ele>
        <time>2013-03-07T13:00:24Z</time>
      </trkpt>
      <trkpt lat="43.97824" lon="5.12083">
        <ele>372.3</ele>
        <time>2013-03-07T13:00:25Z</time>
      </trkpt>
      <trkpt lat="43.97826" lon="5.1209">
        <ele>371.6</ele>
        <time>2013-03-07T13:00:26Z</time>
      </trkpt>
      <trkpt lat="43.97828" lon="5.12096">
        <ele>370.7</ele>
        <time>2013-03-07T13:00:27Z</time>
      </trkpt>
      <trkpt lat="43.97829" lon="5.121">
        <ele>370.1</ele>
        <time>2013-03-07T13:00:28Z</time>
      </trkpt>
      <trkpt lat="43.97832" lon="5.12104">
        <ele>369.4</ele>
        <time>2013-03-07T13:00:29Z</time>
      </trkpt>
      <trkpt lat="43.97835" lon="5.12104">
        <ele>369.5</ele>
        <time>2013-03-07T13:00:30Z</time>
      </trkpt>
      <trkpt lat="43.97837" lon="5.12104">
        <ele>369.1</ele>
        <time>2013-03-07T13:00:31Z</time>
      </trkpt>
      <trkpt lat="43.9784" lon="5.12105">
        <ele>368.8</ele>
        <time>2013-03-07T13:00:32Z</time>
      </trkpt>
      <trkpt lat="43.97843" lon="5.12101">
        <ele>368.4</ele>
        <time>2013-03-07T13:00:33Z</time>
      </trkpt>
      <trkpt lat="43.97846" lon="5.12099">
        <ele>368.5</ele>
        <time>2013-03-07T13:00:34Z</time>
      </trkpt>
      <trkpt lat="43.97848" lon="5.12098">
        <ele>368.5</ele>
        <time>2013-03-07T13:00:35Z</time>
      </trkpt>
      <trkpt lat="43.97851" lon="5.12096">
        <ele>368.5</ele>
        <time>2013-03-07T13:00:36Z</time>
      </trkpt>
      <trkpt lat="43.97855" lon="5.12096">
        <ele>368.2</ele>
        <time>2013-03-07T13:00:38Z</time>
      </trkpt>
      <trkpt lat="43.97855" lon="5.12098">
        <ele>368.2</ele>
        <time>2013-03-07T13:00:39Z</time>
      </trkpt>
      <trkpt lat="43.97858" lon="5.121">
        <ele>367.3</ele>
        <time>2013-03-07T13:01:02Z</time>
      </trkpt>
      <trkpt lat="43.97861" lon="5.12101">
        <ele>366.3</ele>
        <time>2013-03-07T13:01:03Z</time>
      </trkpt>
      <trkpt lat="43.97865" lon="5.121">
        <ele>366.2</ele>
        <time>2013-03-07T13:01:05Z</time>
      </trkpt>
      <trkpt lat="43.97866" lon="5.12099">
        <ele>366.3</ele>
        <time>2013-03-07T13:01:06Z</time>
      </trkpt>
      <trkpt lat="43.97869" lon="5.12095">
        <ele>366.4</ele>
        <time>2013-03-07T13:01:08Z</time>
      </trkpt>
      <trkpt lat="43.9787" lon="5.12093">
        <ele>366.6</ele>
        <time>2013-03-07T13:01:09Z</time>
      </trkpt>
      <trkpt lat="43.97873" lon="5.1209">
        <ele>366.3</ele>
        <time>2013-03-07T13:01:11Z</time>
      </trkpt>
      <trkpt lat="43.97875" lon="5.12089">
        <ele>366.4</ele>
        <time>2013-03-07T13:01:12Z</time>
      </trkpt>
      <trkpt lat="43.97878" lon="5.12087">
        <ele>366.1</ele>
        <time>2013-03-07T13:01:13Z</time>
      </trkpt>
      <trkpt lat="43.9788" lon="5.12085">
        <ele>366.5</ele>
        <time>2013-03-07T13:01:14Z</time>
      </trkpt>
      <trkpt lat="43.97882" lon="5.12082">
        <ele>366.8</ele>
        <time>2013-03-07T13:01:15Z</time>
      </trkpt>
      <trkpt lat="43.97884" lon="5.1208">
        <ele>367</ele>
        <time>2013-03-07T13:01:16Z</time>
      </trkpt>
      <trkpt lat="43.97886" lon="5.12079">
        <ele>367.5</ele>
        <time>2013-03-07T13:01:17Z</time>
      </trkpt>
      <trkpt lat="43.97888" lon="5.12077">
        <ele>367.7</ele>
        <time>2013-03-07T13:01:18Z</time>
      </trkpt>
      <trkpt lat="43.97889" lon="5.12075">
        <ele>367.8</ele>
        <time>2013-03-07T13:01:19Z</time>
      </trkpt>
      <trkpt lat="43.97892" lon="5.12073">
        <ele>368</ele>
        <time>2013-03-07T13:01:20Z</time>
      </trkpt>
      <trkpt lat="43.97895" lon="5.12071">
        <ele>368.2</ele>
        <time>2013-03-07T13:01:21Z</time>
      </trkpt>
      <trkpt lat="43.97899" lon="5.12068">
        <ele>367.8</ele>
        <time>2013-03-07T13:01:22Z</time>
      </trkpt>
      <trkpt lat="43.97903" lon="5.12066">
        <ele>367.7</ele>
        <time>2013-03-07T13:01:23Z</time>
      </trkpt>
      <trkpt lat="43.97905" lon="5.12064">
        <ele>368</ele>
        <time>2013-03-07T13:01:24Z</time>
      </trkpt>
      <trkpt lat="43.97909" lon="5.12062">
        <ele>367.4</ele>
        <time>2013-03-07T13:01:25Z</time>
      </trkpt>
      <trkpt lat="43.97912" lon="5.12059">
        <ele>367.2</ele>
        <time>2013-03-07T13:01:26Z</time>
      </trkpt>
      <trkpt lat="43.97915" lon="5.12057">
        <ele>367</ele>
        <time>2013-03-07T13:01:27Z</time>
      </trkpt>
      <trkpt lat="43.97919" lon="5.12054">
        <ele>365.6</ele>
        <time>2013-03-07T13:01:28Z</time>
      </trkpt>
      <trkpt lat="43.97921" lon="5.12051">
        <ele>365.1</ele>
        <time>2013-03-07T13:01:29Z</time>
      </trkpt>
      <trkpt lat="43.97923" lon="5.1205">
        <ele>364.7</ele>
        <time>2013-03-07T13:01:30Z</time>
      </trkpt>
      <trkpt lat="43.97926" lon="5.12047">
        <ele>364.1</ele>
        <time>2013-03-07T13:01:31Z</time>
      </trkpt>
      <trkpt lat="43.97928" lon="5.12046">
        <ele>363.9</ele>
        <time>2013-03-07T13:01:32Z</time>
      </trkpt>
      <trkpt lat="43.9793" lon="5.12044">
        <ele>363.7</ele>
        <time>2013-03-07T13:01:33Z</time>
      </trkpt>
      <trkpt lat="43.97933" lon="5.12042">
        <ele>363.8</ele>
        <time>2013-03-07T13:01:34Z</time>
      </trkpt>
      <trkpt lat="43.97935" lon="5.1204">
        <ele>363.8</ele>
        <time>2013-03-07T13:01:35Z</time>
      </trkpt>
      <trkpt lat="43.97937" lon="5.12038">
        <ele>363.5</ele>
        <time>2013-03-07T13:01:36Z</time>
      </trkpt>
      <trkpt lat="43.9794" lon="5.12036">
        <ele>363.1</ele>
        <time>2013-03-07T13:01:37Z</time>
      </trkpt>
      <trkpt lat="43.97942" lon="5.12035">
        <ele>363</ele>
        <time>2013-03-07T13:01:38Z</time>
      </trkpt>
      <trkpt lat="43.97944" lon="5.12033">
        <ele>363.1</ele>
        <time>2013-03-07T13:01:39Z</time>
      </trkpt>
      <trkpt lat="43.97947" lon="5.12029">
        <ele>365.3</ele>
        <time>2013-03-07T13:01:40Z</time>
      </trkpt>
      <trkpt lat="43.97948" lon="5.12023">
        <ele>372.4</ele>
        <time>2013-03-07T13:01:41Z</time>
      </trkpt>
      <trkpt lat="43.97956" lon="5.1203">
        <ele>365.4</ele>
        <time>2013-03-07T13:01:42Z</time>
      </trkpt>
      <trkpt lat="43.97959" lon="5.12028">
        <ele>365.1</ele>
        <time>2013-03-07T13:01:43Z</time>
      </trkpt>
      <trkpt lat="43.97961" lon="5.12026">
        <ele>364.3</ele>
        <time>2013-03-07T13:01:44Z</time>
      </trkpt>
      <trkpt lat="43.97965" lon="5.12025">
        <ele>363.7</ele>
        <time>2013-03-07T13:01:45Z</time>
      </trkpt>
      <trkpt lat="43.97968" lon="5.12024">
        <ele>362.9</ele>
        <time>2013-03-07T13:01:46Z</time>
      </trkpt>
      <trkpt lat="43.97973" lon="5.12019">
        <ele>368.2</ele>
        <time>2013-03-07T13:01:47Z</time>
      </trkpt>
      <trkpt lat="43.97977" lon="5.12016">
        <ele>367.9</ele>
        <time>2013-03-07T13:01:48Z</time>
      </trkpt>
      <trkpt lat="43.97981" lon="5.12014">
        <ele>367.7</ele>
        <time>2013-03-07T13:01:49Z</time>
      </trkpt>
      <trkpt lat="43.97984" lon="5.12012">
        <ele>367.8</ele>
        <time>2013-03-07T13:01:50Z</time>
      </trkpt>
      <trkpt lat="43.97988" lon="5.12009">
        <ele>368.1</ele>
        <time>2013-03-07T13:01:51Z</time>
      </trkpt>
      <trkpt lat="43.97991" lon="5.12006">
        <ele>368.8</ele>
        <time>2013-03-07T13:01:52Z</time>
      </trkpt>
      <trkpt lat="43.97993" lon="5.12003">
        <ele>367.4</ele>
        <time>2013-03-07T13:01:53Z</time>
      </trkpt>
      <trkpt lat="43.97996" lon="5.12001">
        <ele>367.4</ele>
        <time>2013-03-07T13:01:54Z</time>
      </trkpt>
      <trkpt lat="43.97998" lon="5.11999">
        <ele>368.3</ele>
        <time>2013-03-07T13:01:55Z</time>
      </trkpt>
      <trkpt lat="43.98001" lon="5.11997">
        <ele>369.9</ele>
        <time>2013-03-07T13:01:56Z</time>
      </trkpt>
      <trkpt lat="43.98002" lon="5.11992">
        <ele>373.5</ele>
        <time>2013-03-07T13:01:57Z</time>
      </trkpt>
      <trkpt lat="43.98005" lon="5.11995">
        <ele>363.9</ele>
        <time>2013-03-07T13:01:58Z</time>
      </trkpt>
      <trkpt lat="43.98007" lon="5.11994">
        <ele>365.2</ele>
        <time>2013-03-07T13:01:59Z</time>
      </trkpt>
      <trkpt lat="43.98009" lon="5.11991">
        <ele>365.7</ele>
        <time>2013-03-07T13:02:00Z</time>
      </trkpt>
      <trkpt lat="43.98012" lon="5.11989">
        <ele>365.8</ele>
        <time>2013-03-07T13:02:01Z</time>
      </trkpt>
      <trkpt lat="43.98014" lon="5.11988">
        <ele>365.2</ele>
        <time>2013-03-07T13:02:02Z</time>
      </trkpt>
      <trkpt lat="43.98016" lon="5.11988">
        <ele>364.7</ele>
        <time>2013-03-07T13:02:03Z</time>
      </trkpt>
      <trkpt lat="43.98018" lon="5.11982">
        <ele>367.2</ele>
        <time>2013-03-07T13:02:05Z</time>
      </trkpt>
      <trkpt lat="43.9802" lon="5.1198">
        <ele>366.7</ele>
        <time>2013-03-07T13:02:06Z</time>
      </trkpt>
      <trkpt lat="43.98022" lon="5.11978">
        <ele>365.6</ele>
        <time>2013-03-07T13:02:07Z</time>
      </trkpt>
      <trkpt lat="43.98025" lon="5.11976">
        <ele>364.3</ele>
        <time>2013-03-07T13:02:08Z</time>
      </trkpt>
      <trkpt lat="43.98028" lon="5.11974">
        <ele>363.8</ele>
        <time>2013-03-07T13:02:09Z</time>
      </trkpt>
      <trkpt lat="43.9803" lon="5.11973">
        <ele>363.7</ele>
        <time>2013-03-07T13:02:10Z</time>
      </trkpt>
      <trkpt lat="43.98033" lon="5.11972">
        <ele>363.8</ele>
        <time>2013-03-07T13:02:11Z</time>
      </trkpt>
      <trkpt lat="43.98036" lon="5.1197">
        <ele>363.7</ele>
        <time>2013-03-07T13:02:12Z</time>
      </trkpt>
      <trkpt lat="43.9804" lon="5.11968">
        <ele>362.9</ele>
        <time>2013-03-07T13:02:13Z</time>
      </trkpt>
      <trkpt lat="43.98043" lon="5.11967">
        <ele>361.8</ele>
        <time>2013-03-07T13:02:14Z</time>
      </trkpt>
      <trkpt lat="43.98046" lon="5.11967">
        <ele>361.1</ele>
        <time>2013-03-07T13:02:15Z</time>
      </trkpt>
      <trkpt lat="43.98049" lon="5.11963">
        <ele>361.7</ele>
        <time>2013-03-07T13:02:16Z</time>
      </trkpt>
      <trkpt lat="43.98051" lon="5.11961">
        <ele>361.2</ele>
        <time>2013-03-07T13:02:17Z</time>
      </trkpt>
      <trkpt lat="43.98054" lon="5.11958">
        <ele>360.6</ele>
        <time>2013-03-07T13:02:18Z</time>
      </trkpt>
      <trkpt lat="43.98057" lon="5.11957">
        <ele>360.7</ele>
        <time>2013-03-07T13:02:19Z</time>
      </trkpt>
      <trkpt lat="43.9806" lon="5.11955">
        <ele>360.4</ele>
        <time>2013-03-07T13:02:20Z</time>
      </trkpt>
      <trkpt lat="43.98062" lon="5.11953">
        <ele>360.3</ele>
        <time>2013-03-07T13:02:21Z</time>
      </trkpt>
      <trkpt lat="43.98065" lon="5.11952">
        <ele>361.1</ele>
        <time>2013-03-07T13:02:22Z</time>
      </trkpt>
      <trkpt lat="43.98069" lon="5.1195">
        <ele>360.6</ele>
        <time>2013-03-07T13:02:23Z</time>
      </trkpt>
      <trkpt lat="43.98072" lon="5.11948">
        <ele>360.5</ele>
        <time>2013-03-07T13:02:24Z</time>
      </trkpt>
      <trkpt lat="43.98075" lon="5.11947">
        <ele>360.5</ele>
        <time>2013-03-07T13:02:25Z</time>
      </trkpt>
      <trkpt lat="43.98078" lon="5.11945">
        <ele>360.5</ele>
        <time>2013-03-07T13:02:26Z</time>
      </trkpt>
      <trkpt lat="43.98082" lon="5.11943">
        <ele>360.8</ele>
        <time>2013-03-07T13:02:33Z</time>
      </trkpt>
      <trkpt lat="43.98082" lon="5.11943">
        <ele>360.7</ele>
        <time>2013-03-07T13:02:34Z</time>
      </trkpt>
      <trkpt lat="43.98084" lon="5.11939">
        <ele>361.5</ele>
        <time>2013-03-07T13:02:52Z</time>
      </trkpt>
      <trkpt lat="43.98086" lon="5.11937">
        <ele>362.2</ele>
        <time>2013-03-07T13:02:53Z</time>
      </trkpt>
      <trkpt lat="43.98089" lon="5.11935">
        <ele>362.3</ele>
        <time>2013-03-07T13:02:54Z</time>
      </trkpt>
      <trkpt lat="43.98093" lon="5.11932">
        <ele>362.3</ele>
        <time>2013-03-07T13:02:55Z</time>
      </trkpt>
      <trkpt lat="43.98096" lon="5.11931">
        <ele>361.9</ele>
        <time>2013-03-07T13:02:56Z</time>
      </trkpt>
      <trkpt lat="43.98099" lon="5.11929">
        <ele>362.1</ele>
        <time>2013-03-07T13:02:57Z</time>
      </trkpt>
      <trkpt lat="43.98102" lon="5.11927">
        <ele>363</ele>
        <time>2013-03-07T13:02:58Z</time>
      </trkpt>
      <trkpt lat="43.98104" lon="5.11924">
        <ele>362.5</ele>
        <time>2013-03-07T13:02:59Z</time>
      </trkpt>
      <trkpt lat="43.98106" lon="5.11922">
        <ele>362.1</ele>
        <time>2013-03-07T13:03:00Z</time>
      </trkpt>
      <trkpt lat="43.98108" lon="5.11919">
        <ele>361.6</ele>
        <time>2013-03-07T13:03:01Z</time>
      </trkpt>
      <trkpt lat="43.98109" lon="5.11915">
        <ele>361.6</ele>
        <time>2013-03-07T13:03:02Z</time>
      </trkpt>
      <trkpt lat="43.98111" lon="5.11912">
        <ele>361.2</ele>
        <time>2013-03-07T13:03:03Z</time>
      </trkpt>
      <trkpt lat="43.98112" lon="5.11909">
        <ele>361.2</ele>
        <time>2013-03-07T13:03:04Z</time>
      </trkpt>
      <trkpt lat="43.98114" lon="5.11906">
        <ele>361</ele>
        <time>2013-03-07T13:03:05Z</time>
      </trkpt>
      <trkpt lat="43.98116" lon="5.11903">
        <ele>360.5</ele>
        <time>2013-03-07T13:03:06Z</time>
      </trkpt>
      <trkpt lat="43.98117" lon="5.119">
        <ele>360.5</ele>
        <time>2013-03-07T13:03:07Z</time>
      </trkpt>
      <trkpt lat="43.98119" lon="5.11897">
        <ele>360.5</ele>
        <time>2013-03-07T13:03:08Z</time>
      </trkpt>
      <trkpt lat="43.98121" lon="5.11893">
        <ele>360.4</ele>
        <time>2013-03-07T13:03:09Z</time>
      </trkpt>
      <trkpt lat="43.98122" lon="5.11889">
        <ele>359.8</ele>
        <time>2013-03-07T13:03:10Z</time>
      </trkpt>
      <trkpt lat="43.98124" lon="5.11885">
        <ele>359.4</ele>
        <time>2013-03-07T13:03:11Z</time>
      </trkpt>
      <trkpt lat="43.98127" lon="5.11881">
        <ele>359.9</ele>
        <time>2013-03-07T13:03:12Z</time>
      </trkpt>
      <trkpt lat="43.98129" lon="5.11877">
        <ele>359.8</ele>
        <time>2013-03-07T13:03:13Z</time>
      </trkpt>
      <trkpt lat="43.98131" lon="5.11873">
        <ele>359.7</ele>
        <time>2013-03-07T13:03:14Z</time>
      </trkpt>
      <trkpt lat="43.98132" lon="5.1187">
        <ele>359.7</ele>
        <time>2013-03-07T13:03:15Z</time>
      </trkpt>
      <trkpt lat="43.98134" lon="5.11867">
        <ele>359.6</ele>
        <time>2013-03-07T13:03:16Z</time>
      </trkpt>
      <trkpt lat="43.98135" lon="5.11863">
        <ele>359.8</ele>
        <time>2013-03-07T13:03:17Z</time>
      </trkpt>
      <trkpt lat="43.98136" lon="5.1186">
        <ele>359.6</ele>
        <time>2013-03-07T13:03:18Z</time>
      </trkpt>
      <trkpt lat="43.98138" lon="5.11854">
        <ele>359.2</ele>
        <time>2013-03-07T13:03:20Z</time>
      </trkpt>
      <trkpt lat="43.98138" lon="5.11851">
        <ele>359.5</ele>
        <time>2013-03-07T13:03:21Z</time>
      </trkpt>
      <trkpt lat="43.98141" lon="5.11848">
        <ele>359</ele>
        <time>2013-03-07T13:03:23Z</time>
      </trkpt>
      <trkpt lat="43.98143" lon="5.11846">
        <ele>359</ele>
        <time>2013-03-07T13:03:24Z</time>
      </trkpt>
      <trkpt lat="43.98145" lon="5.11843">
        <ele>358.4</ele>
        <time>2013-03-07T13:03:25Z</time>
      </trkpt>
      <trkpt lat="43.98147" lon="5.11841">
        <ele>357.9</ele>
        <time>2013-03-07T13:03:26Z</time>
      </trkpt>
      <trkpt lat="43.9815" lon="5.11836">
        <ele>357.6</ele>
        <time>2013-03-07T13:03:28Z</time>
      </trkpt>
      <trkpt lat="43.9815" lon="5.11833">
        <ele>357.5</ele>
        <time>2013-03-07T13:03:29Z</time>
      </trkpt>
      <trkpt lat="43.98151" lon="5.1183">
        <ele>357.1</ele>
        <time>2013-03-07T13:03:30Z</time>
      </trkpt>
      <trkpt lat="43.98148" lon="5.11827">
        <ele>357.1</ele>
        <time>2013-03-07T13:03:31Z</time>
      </trkpt>
      <trkpt lat="43.98147" lon="5.11825">
        <ele>357.2</ele>
        <time>2013-03-07T13:03:32Z</time>
      </trkpt>
      <trkpt lat="43.98145" lon="5.11822">
        <ele>357.3</ele>
        <time>2013-03-07T13:03:33Z</time>
      </trkpt>
      <trkpt lat="43.98144" lon="5.11819">
        <ele>356.9</ele>
        <time>2013-03-07T13:03:34Z</time>
      </trkpt>
      <trkpt lat="43.9814" lon="5.11816">
        <ele>356.8</ele>
        <time>2013-03-07T13:03:35Z</time>
      </trkpt>
      <trkpt lat="43.98138" lon="5.11813">
        <ele>356.9</ele>
        <time>2013-03-07T13:03:36Z</time>
      </trkpt>
      <trkpt lat="43.98139" lon="5.11808">
        <ele>356.8</ele>
        <time>2013-03-07T13:03:37Z</time>
      </trkpt>
      <trkpt lat="43.98138" lon="5.11804">
        <ele>356.6</ele>
        <time>2013-03-07T13:03:38Z</time>
      </trkpt>
      <trkpt lat="43.98137" lon="5.118">
        <ele>356.3</ele>
        <time>2013-03-07T13:03:39Z</time>
      </trkpt>
      <trkpt lat="43.98136" lon="5.11795">
        <ele>356</ele>
        <time>2013-03-07T13:03:40Z</time>
      </trkpt>
      <trkpt lat="43.98136" lon="5.11791">
        <ele>356.1</ele>
        <time>2013-03-07T13:03:41Z</time>
      </trkpt>
      <trkpt lat="43.98135" lon="5.11787">
        <ele>356.3</ele>
        <time>2013-03-07T13:03:42Z</time>
      </trkpt>
      <trkpt lat="43.98137" lon="5.11784">
        <ele>355.7</ele>
        <time>2013-03-07T13:03:43Z</time>
      </trkpt>
      <trkpt lat="43.98138" lon="5.11783">
        <ele>355.8</ele>
        <time>2013-03-07T13:03:44Z</time>
      </trkpt>
      <trkpt lat="43.98141" lon="5.11781">
        <ele>355.4</ele>
        <time>2013-03-07T13:03:45Z</time>
      </trkpt>
      <trkpt lat="43.98145" lon="5.11781">
        <ele>354.7</ele>
        <time>2013-03-07T13:03:47Z</time>
      </trkpt>
      <trkpt lat="43.98146" lon="5.1178">
        <ele>354.4</ele>
        <time>2013-03-07T13:03:48Z</time>
      </trkpt>
      <trkpt lat="43.9815" lon="5.11778">
        <ele>353.7</ele>
        <time>2013-03-07T13:03:50Z</time>
      </trkpt>
      <trkpt lat="43.9815" lon="5.11772">
        <ele>352.7</ele>
        <time>2013-03-07T13:03:51Z</time>
      </trkpt>
      <trkpt lat="43.98151" lon="5.11768">
        <ele>352.1</ele>
        <time>2013-03-07T13:03:52Z</time>
      </trkpt>
      <trkpt lat="43.98152" lon="5.11765">
        <ele>351.7</ele>
        <time>2013-03-07T13:03:53Z</time>
      </trkpt>
      <trkpt lat="43.98153" lon="5.11762">
        <ele>351.7</ele>
        <time>2013-03-07T13:03:54Z</time>
      </trkpt>
      <trkpt lat="43.98155" lon="5.1176">
        <ele>351.5</ele>
        <time>2013-03-07T13:03:55Z</time>
      </trkpt>
      <trkpt lat="43.98155" lon="5.11756">
        <ele>351.1</ele>
        <time>2013-03-07T13:03:56Z</time>
      </trkpt>
      <trkpt lat="43.98156" lon="5.11752">
        <ele>350.8</ele>
        <time>2013-03-07T13:03:57Z</time>
      </trkpt>
      <trkpt lat="43.98159" lon="5.11751">
        <ele>350.6</ele>
        <time>2013-03-07T13:03:58Z</time>
      </trkpt>
      <trkpt lat="43.98162" lon="5.11751">
        <ele>350.7</ele>
        <time>2013-03-07T13:03:59Z</time>
      </trkpt>
      <trkpt lat="43.98165" lon="5.1175">
        <ele>350.3</ele>
        <time>2013-03-07T13:04:01Z</time>
      </trkpt>
      <trkpt lat="43.98167" lon="5.11749">
        <ele>350.3</ele>
        <time>2013-03-07T13:04:02Z</time>
      </trkpt>
      <trkpt lat="43.98169" lon="5.11749">
        <ele>349.1</ele>
        <time>2013-03-07T13:04:03Z</time>
      </trkpt>
      <trkpt lat="43.98171" lon="5.1175">
        <ele>348.5</ele>
        <time>2013-03-07T13:04:04Z</time>
      </trkpt>
      <trkpt lat="43.98173" lon="5.11751">
        <ele>348</ele>
        <time>2013-03-07T13:04:05Z</time>
      </trkpt>
      <trkpt lat="43.98176" lon="5.11752">
        <ele>347.5</ele>
        <time>2013-03-07T13:04:06Z</time>
      </trkpt>
      <trkpt lat="43.9818" lon="5.11752">
        <ele>347.3</ele>
        <time>2013-03-07T13:04:08Z</time>
      </trkpt>
      <trkpt lat="43.98181" lon="5.11751">
        <ele>347.4</ele>
        <time>2013-03-07T13:04:09Z</time>
      </trkpt>
      <trkpt lat="43.98183" lon="5.11751">
        <ele>348.3</ele>
        <time>2013-03-07T13:04:10Z</time>
      </trkpt>
      <trkpt lat="43.98186" lon="5.11753">
        <ele>346.6</ele>
        <time>2013-03-07T13:04:11Z</time>
      </trkpt>
      <trkpt lat="43.98188" lon="5.11755">
        <ele>346.5</ele>
        <time>2013-03-07T13:04:12Z</time>
      </trkpt>
      <trkpt lat="43.9819" lon="5.11756">
        <ele>346.2</ele>
        <time>2013-03-07T13:04:13Z</time>
      </trkpt>
      <trkpt lat="43.98193" lon="5.11759">
        <ele>344.4</ele>
        <time>2013-03-07T13:04:15Z</time>
      </trkpt>
      <trkpt lat="43.98195" lon="5.1176">
        <ele>343.6</ele>
        <time>2013-03-07T13:04:16Z</time>
      </trkpt>
      <trkpt lat="43.98198" lon="5.11763">
        <ele>342.8</ele>
        <time>2013-03-07T13:04:18Z</time>
      </trkpt>
      <trkpt lat="43.982" lon="5.11767">
        <ele>341</ele>
        <time>2013-03-07T13:04:19Z</time>
      </trkpt>
      <trkpt lat="43.98202" lon="5.11772">
        <ele>339.9</ele>
        <time>2013-03-07T13:04:21Z</time>
      </trkpt>
      <trkpt lat="43.98203" lon="5.11774">
        <ele>339.6</ele>
        <time>2013-03-07T13:04:22Z</time>
      </trkpt>
      <trkpt lat="43.98205" lon="5.11774">
        <ele>339.3</ele>
        <time>2013-03-07T13:04:24Z</time>
      </trkpt>
      <trkpt lat="43.98208" lon="5.11778">
        <ele>330.6</ele>
        <time>2013-03-07T13:04:25Z</time>
      </trkpt>
      <trkpt lat="43.9821" lon="5.11776">
        <ele>331.6</ele>
        <time>2013-03-07T13:04:26Z</time>
      </trkpt>
      <trkpt lat="43.98212" lon="5.11777">
        <ele>330.9</ele>
        <time>2013-03-07T13:04:27Z</time>
      </trkpt>
      <trkpt lat="43.98215" lon="5.11777">
        <ele>332.2</ele>
        <time>2013-03-07T13:04:28Z</time>
      </trkpt>
      <trkpt lat="43.98218" lon="5.11776">
        <ele>332.2</ele>
        <time>2013-03-07T13:04:29Z</time>
      </trkpt>
      <trkpt lat="43.9822" lon="5.11776">
        <ele>332.5</ele>
        <time>2013-03-07T13:04:30Z</time>
      </trkpt>
      <trkpt lat="43.98223" lon="5.11777">
        <ele>332.5</ele>
        <time>2013-03-07T13:04:31Z</time>
      </trkpt>
      <trkpt lat="43.98225" lon="5.1178">
        <ele>333.5</ele>
        <time>2013-03-07T13:04:32Z</time>
      </trkpt>
      <trkpt lat="43.98228" lon="5.11782">
        <ele>333.7</ele>
        <time>2013-03-07T13:04:33Z</time>
      </trkpt>
      <trkpt lat="43.98229" lon="5.11787">
        <ele>333.4</ele>
        <time>2013-03-07T13:04:34Z</time>
      </trkpt>
      <trkpt lat="43.9823" lon="5.1179">
        <ele>332.9</ele>
        <time>2013-03-07T13:04:35Z</time>
      </trkpt>
      <trkpt lat="43.98232" lon="5.11795">
        <ele>330.7</ele>
        <time>2013-03-07T13:04:37Z</time>
      </trkpt>
      <trkpt lat="43.98234" lon="5.11797">
        <ele>331.6</ele>
        <time>2013-03-07T13:04:38Z</time>
      </trkpt>
      <trkpt lat="43.98235" lon="5.11801">
        <ele>331.3</ele>
        <time>2013-03-07T13:04:39Z</time>
      </trkpt>
      <trkpt lat="43.98236" lon="5.11804">
        <ele>331.4</ele>
        <time>2013-03-07T13:04:40Z</time>
      </trkpt>
      <trkpt lat="43.98237" lon="5.11809">
        <ele>331.8</ele>
        <time>2013-03-07T13:04:42Z</time>
      </trkpt>
      <trkpt lat="43.98238" lon="5.11812">
        <ele>331.9</ele>
        <time>2013-03-07T13:04:43Z</time>
      </trkpt>
      <trkpt lat="43.98239" lon="5.11815">
        <ele>331.9</ele>
        <time>2013-03-07T13:04:44Z</time>
      </trkpt>
      <trkpt lat="43.98241" lon="5.11817">
        <ele>332</ele>
        <time>2013-03-07T13:04:45Z</time>
      </trkpt>
      <trkpt lat="43.98243" lon="5.1182">
        <ele>332.2</ele>
        <time>2013-03-07T13:04:46Z</time>
      </trkpt>
      <trkpt lat="43.98245" lon="5.11824">
        <ele>332.2</ele>
        <time>2013-03-07T13:04:47Z</time>
      </trkpt>
      <trkpt lat="43.98246" lon="5.11826">
        <ele>332</ele>
        <time>2013-03-07T13:04:48Z</time>
      </trkpt>
      <trkpt lat="43.98248" lon="5.1183">
        <ele>330.9</ele>
        <time>2013-03-07T13:04:49Z</time>
      </trkpt>
      <trkpt lat="43.9825" lon="5.11834">
        <ele>330.5</ele>
        <time>2013-03-07T13:04:50Z</time>
      </trkpt>
      <trkpt lat="43.98251" lon="5.11837">
        <ele>330.8</ele>
        <time>2013-03-07T13:04:51Z</time>
      </trkpt>
      <trkpt lat="43.98252" lon="5.11843">
        <ele>330.7</ele>
        <time>2013-03-07T13:04:53Z</time>
      </trkpt>
      <trkpt lat="43.98252" lon="5.11846">
        <ele>330.4</ele>
        <time>2013-03-07T13:04:54Z</time>
      </trkpt>
      <trkpt lat="43.9825" lon="5.11849">
        <ele>329.5</ele>
        <time>2013-03-07T13:04:55Z</time>
      </trkpt>
      <trkpt lat="43.98249" lon="5.11852">
        <ele>329.1</ele>
        <time>2013-03-07T13:04:56Z</time>
      </trkpt>
      <trkpt lat="43.98247" lon="5.11856">
        <ele>328.6</ele>
        <time>2013-03-07T13:04:57Z</time>
      </trkpt>
      <trkpt lat="43.98246" lon="5.1186">
        <ele>328.6</ele>
        <time>2013-03-07T13:04:58Z</time>
      </trkpt>
      <trkpt lat="43.98244" lon="5.11863">
        <ele>328.8</ele>
        <time>2013-03-07T13:04:59Z</time>
      </trkpt>
      <trkpt lat="43.98242" lon="5.11865">
        <ele>328.4</ele>
        <time>2013-03-07T13:05:00Z</time>
      </trkpt>
      <trkpt lat="43.98241" lon="5.11869">
        <ele>328.5</ele>
        <time>2013-03-07T13:05:01Z</time>
      </trkpt>
      <trkpt lat="43.98238" lon="5.11873">
        <ele>328.3</ele>
        <time>2013-03-07T13:05:02Z</time>
      </trkpt>
      <trkpt lat="43.98237" lon="5.11877">
        <ele>328.7</ele>
        <time>2013-03-07T13:05:03Z</time>
      </trkpt>
      <trkpt lat="43.98235" lon="5.11881">
        <ele>328.8</ele>
        <time>2013-03-07T13:05:04Z</time>
      </trkpt>
      <trkpt lat="43.98232" lon="5.11884">
        <ele>328.7</ele>
        <time>2013-03-07T13:05:05Z</time>
      </trkpt>
      <trkpt lat="43.98231" lon="5.11886">
        <ele>328.4</ele>
        <time>2013-03-07T13:05:06Z</time>
      </trkpt>
      <trkpt lat="43.98229" lon="5.1189">
        <ele>328.2</ele>
        <time>2013-03-07T13:05:07Z</time>
      </trkpt>
      <trkpt lat="43.98227" lon="5.11893">
        <ele>327.8</ele>
        <time>2013-03-07T13:05:08Z</time>
      </trkpt>
      <trkpt lat="43.98225" lon="5.11897">
        <ele>327.2</ele>
        <time>2013-03-07T13:05:09Z</time>
      </trkpt>
      <trkpt lat="43.98224" lon="5.11902">
        <ele>327.2</ele>
        <time>2013-03-07T13:05:10Z</time>
      </trkpt>
      <trkpt lat="43.98222" lon="5.11905">
        <ele>326.9</ele>
        <time>2013-03-07T13:05:11Z</time>
      </trkpt>
      <trkpt lat="43.98221" lon="5.11908">
        <ele>326.3</ele>
        <time>2013-03-07T13:05:12Z</time>
      </trkpt>
      <trkpt lat="43.98218" lon="5.11914">
        <ele>326</ele>
        <time>2013-03-07T13:05:17Z</time>
      </trkpt>
      <trkpt lat="43.98218" lon="5.11914">
        <ele>326</ele>
        <time>2013-03-07T13:05:18Z</time>
      </trkpt>
      <trkpt lat="43.98216" lon="5.11918">
        <ele>325.9</ele>
        <time>2013-03-07T13:05:21Z</time>
      </trkpt>
      <trkpt lat="43.98215" lon="5.11921">
        <ele>325.7</ele>
        <time>2013-03-07T13:05:22Z</time>
      </trkpt>
      <trkpt lat="43.98212" lon="5.11925">
        <ele>325.2</ele>
        <time>2013-03-07T13:05:24Z</time>
      </trkpt>
      <trkpt lat="43.98211" lon="5.11927">
        <ele>325.4</ele>
        <time>2013-03-07T13:05:25Z</time>
      </trkpt>
      <trkpt lat="43.98209" lon="5.11932">
        <ele>325.8</ele>
        <time>2013-03-07T13:05:27Z</time>
      </trkpt>
      <trkpt lat="43.98208" lon="5.11935">
        <ele>325.6</ele>
        <time>2013-03-07T13:05:28Z</time>
      </trkpt>
      <trkpt lat="43.98207" lon="5.11938">
        <ele>325.6</ele>
        <time>2013-03-07T13:05:29Z</time>
      </trkpt>
      <trkpt lat="43.98205" lon="5.11941">
        <ele>324.7</ele>
        <time>2013-03-07T13:05:30Z</time>
      </trkpt>
      <trkpt lat="43.98204" lon="5.11944">
        <ele>323.8</ele>
        <time>2013-03-07T13:05:31Z</time>
      </trkpt>
      <trkpt lat="43.98202" lon="5.11947">
        <ele>323.8</ele>
        <time>2013-03-07T13:05:32Z</time>
      </trkpt>
      <trkpt lat="43.982" lon="5.1195">
        <ele>323.7</ele>
        <time>2013-03-07T13:05:33Z</time>
      </trkpt>
      <trkpt lat="43.98199" lon="5.11954">
        <ele>323.3</ele>
        <time>2013-03-07T13:05:34Z</time>
      </trkpt>
      <trkpt lat="43.98197" lon="5.11958">
        <ele>322.9</ele>
        <time>2013-03-07T13:05:35Z</time>
      </trkpt>
      <trkpt lat="43.98195" lon="5.11962">
        <ele>322.8</ele>
        <time>2013-03-07T13:05:36Z</time>
      </trkpt>
      <trkpt lat="43.98192" lon="5.11965">
        <ele>322.8</ele>
        <time>2013-03-07T13:05:37Z</time>
      </trkpt>
      <trkpt lat="43.98189" lon="5.11968">
        <ele>322.5</ele>
        <time>2013-03-07T13:05:38Z</time>
      </trkpt>
      <trkpt lat="43.98186" lon="5.11971">
        <ele>322.3</ele>
        <time>2013-03-07T13:05:39Z</time>
      </trkpt>
      <trkpt lat="43.98182" lon="5.11974">
        <ele>322</ele>
        <time>2013-03-07T13:05:40Z</time>
      </trkpt>
      <trkpt lat="43.98179" lon="5.11977">
        <ele>321.7</ele>
        <time>2013-03-07T13:05:41Z</time>
      </trkpt>
      <trkpt lat="43.98176" lon="5.1198">
        <ele>321.3</ele>
        <time>2013-03-07T13:05:42Z</time>
      </trkpt>
      <trkpt lat="43.98173" lon="5.11983">
        <ele>320.9</ele>
        <time>2013-03-07T13:05:43Z</time>
      </trkpt>
      <trkpt lat="43.9817" lon="5.11987">
        <ele>320.8</ele>
        <time>2013-03-07T13:05:44Z</time>
      </trkpt>
      <trkpt lat="43.98165" lon="5.1199">
        <ele>320.5</ele>
        <time>2013-03-07T13:05:45Z</time>
      </trkpt>
      <trkpt lat="43.98162" lon="5.11992">
        <ele>319.6</ele>
        <time>2013-03-07T13:05:46Z</time>
      </trkpt>
      <trkpt lat="43.98159" lon="5.11994">
        <ele>319.1</ele>
        <time>2013-03-07T13:05:47Z</time>
      </trkpt>
      <trkpt lat="43.98156" lon="5.11996">
        <ele>318.5</ele>
        <time>2013-03-07T13:05:48Z</time>
      </trkpt>
      <trkpt lat="43.98153" lon="5.11998">
        <ele>318.2</ele>
        <time>2013-03-07T13:05:49Z</time>
      </trkpt>
      <trkpt lat="43.98149" lon="5.12">
        <ele>318.4</ele>
        <time>2013-03-07T13:05:50Z</time>
      </trkpt>
      <trkpt lat="43.98146" lon="5.12002">
        <ele>318.4</ele>
        <time>2013-03-07T13:05:51Z</time>
      </trkpt>
      <trkpt lat="43.98142" lon="5.12003">
        <ele>318.2</ele>
        <time>2013-03-07T13:05:52Z</time>
      </trkpt>
      <trkpt lat="43.9814" lon="5.12004">
        <ele>318.3</ele>
        <time>2013-03-07T13:05:53Z</time>
      </trkpt>
      <trkpt lat="43.98137" lon="5.12006">
        <ele>318.4</ele>
        <time>2013-03-07T13:05:54Z</time>
      </trkpt>
      <trkpt lat="43.98136" lon="5.1201">
        <ele>318.5</ele>
        <time>2013-03-07T13:05:55Z</time>
      </trkpt>
      <trkpt lat="43.98134" lon="5.12011">
        <ele>318.7</ele>
        <time>2013-03-07T13:05:56Z</time>
      </trkpt>
      <trkpt lat="43.98133" lon="5.12015">
        <ele>319.2</ele>
        <time>2013-03-07T13:05:57Z</time>
      </trkpt>
      <trkpt lat="43.9814" lon="5.1202">
        <ele>320.2</ele>
        <time>2013-03-07T13:05:58Z</time>
      </trkpt>
      <trkpt lat="43.98142" lon="5.12024">
        <ele>321.8</ele>
        <time>2013-03-07T13:06:00Z</time>
      </trkpt>
      <trkpt lat="43.98143" lon="5.12026">
        <ele>323.2</ele>
        <time>2013-03-07T13:06:01Z</time>
      </trkpt>
      <trkpt lat="43.98147" lon="5.12024">
        <ele>325.6</ele>
        <time>2013-03-07T13:06:03Z</time>
      </trkpt>
      <trkpt lat="43.98148" lon="5.12022">
        <ele>326.8</ele>
        <time>2013-03-07T13:06:04Z</time>
      </trkpt>
      <trkpt lat="43.98151" lon="5.12021">
        <ele>333.1</ele>
        <time>2013-03-07T13:06:07Z</time>
      </trkpt>
      <trkpt lat="43.98153" lon="5.12021">
        <ele>333.9</ele>
        <time>2013-03-07T13:06:08Z</time>
      </trkpt>
      <trkpt lat="43.98156" lon="5.1202">
        <ele>335.7</ele>
        <time>2013-03-07T13:06:10Z</time>
      </trkpt>
      <trkpt lat="43.98162" lon="5.12019">
        <ele>339.9</ele>
        <time>2013-03-07T13:06:11Z</time>
      </trkpt>
      <trkpt lat="43.98159" lon="5.12025">
        <ele>342</ele>
        <time>2013-03-07T13:06:12Z</time>
      </trkpt>
      <trkpt lat="43.98161" lon="5.12027">
        <ele>343.5</ele>
        <time>2013-03-07T13:06:13Z</time>
      </trkpt>
      <trkpt lat="43.98162" lon="5.1203">
        <ele>343.7</ele>
        <time>2013-03-07T13:06:14Z</time>
      </trkpt>
      <trkpt lat="43.98159" lon="5.1203">
        <ele>345.9</ele>
        <time>2013-03-07T13:06:16Z</time>
      </trkpt>
      <trkpt lat="43.98158" lon="5.12031">
        <ele>346.1</ele>
        <time>2013-03-07T13:06:17Z</time>
      </trkpt>
      <trkpt lat="43.98154" lon="5.12029">
        <ele>350</ele>
        <time>2013-03-07T13:06:20Z</time>
      </trkpt>
      <trkpt lat="43.98152" lon="5.12027">
        <ele>351</ele>
        <time>2013-03-07T13:06:21Z</time>
      </trkpt>
      <trkpt lat="43.98149" lon="5.12029">
        <ele>350.5</ele>
        <time>2013-03-07T13:06:23Z</time>
      </trkpt>
      <trkpt lat="43.98147" lon="5.1203">
        <ele>350.5</ele>
        <time>2013-03-07T13:06:24Z</time>
      </trkpt>
      <trkpt lat="43.98143" lon="5.12032">
        <ele>353.2</ele>
        <time>2013-03-07T13:06:27Z</time>
      </trkpt>
      <trkpt lat="43.98142" lon="5.12032">
        <ele>353.5</ele>
        <time>2013-03-07T13:06:28Z</time>
      </trkpt>
      <trkpt lat="43.98137" lon="5.12033">
        <ele>352.6</ele>
        <time>2013-03-07T13:06:31Z</time>
      </trkpt>
      <trkpt lat="43.98136" lon="5.12033">
        <ele>353.2</ele>
        <time>2013-03-07T13:06:32Z</time>
      </trkpt>
      <trkpt lat="43.98133" lon="5.12034">
        <ele>353.2</ele>
        <time>2013-03-07T13:06:35Z</time>
      </trkpt>
      <trkpt lat="43.98132" lon="5.12034">
        <ele>353.9</ele>
        <time>2013-03-07T13:06:36Z</time>
      </trkpt>
      <trkpt lat="43.98128" lon="5.12033">
        <ele>355.2</ele>
        <time>2013-03-07T13:06:39Z</time>
      </trkpt>
      <trkpt lat="43.98127" lon="5.12033">
        <ele>355.6</ele>
        <time>2013-03-07T13:06:40Z</time>
      </trkpt>
      <trkpt lat="43.98126" lon="5.12036">
        <ele>363.2</ele>
        <time>2013-03-07T13:06:44Z</time>
      </trkpt>
      <trkpt lat="43.98124" lon="5.12038">
        <ele>364.4</ele>
        <time>2013-03-07T13:06:45Z</time>
      </trkpt>
      <trkpt lat="43.9812" lon="5.1204">
        <ele>364.7</ele>
        <time>2013-03-07T13:06:48Z</time>
      </trkpt>
      <trkpt lat="43.9812" lon="5.12041">
        <ele>364.1</ele>
        <time>2013-03-07T13:06:49Z</time>
      </trkpt>
      <trkpt lat="43.98116" lon="5.12037">
        <ele>370</ele>
        <time>2013-03-07T13:06:50Z</time>
      </trkpt>
      <trkpt lat="43.98113" lon="5.12041">
        <ele>369.3</ele>
        <time>2013-03-07T13:06:54Z</time>
      </trkpt>
      <trkpt lat="43.98111" lon="5.12041">
        <ele>369.5</ele>
        <time>2013-03-07T13:06:55Z</time>
      </trkpt>
      <trkpt lat="43.98107" lon="5.12043">
        <ele>368.5</ele>
        <time>2013-03-07T13:06:58Z</time>
      </trkpt>
      <trkpt lat="43.98105" lon="5.12043">
        <ele>368.3</ele>
        <time>2013-03-07T13:06:59Z</time>
      </trkpt>
      <trkpt lat="43.98103" lon="5.12045">
        <ele>368.6</ele>
        <time>2013-03-07T13:07:01Z</time>
      </trkpt>
      <trkpt lat="43.98101" lon="5.12047">
        <ele>367</ele>
        <time>2013-03-07T13:07:02Z</time>
      </trkpt>
      <trkpt lat="43.98097" lon="5.12046">
        <ele>367.2</ele>
        <time>2013-03-07T13:07:04Z</time>
      </trkpt>
      <trkpt lat="43.98096" lon="5.12047">
        <ele>367.3</ele>
        <time>2013-03-07T13:07:05Z</time>
      </trkpt>
      <trkpt lat="43.98093" lon="5.12051">
        <ele>364.9</ele>
        <time>2013-03-07T13:07:08Z</time>
      </trkpt>
      <trkpt lat="43.98092" lon="5.12052">
        <ele>364.9</ele>
        <time>2013-03-07T13:07:09Z</time>
      </trkpt>
      <trkpt lat="43.98088" lon="5.12055">
        <ele>361.6</ele>
        <time>2013-03-07T13:07:11Z</time>
      </trkpt>
      <trkpt lat="43.98087" lon="5.12055">
        <ele>362</ele>
        <time>2013-03-07T13:07:12Z</time>
      </trkpt>
      <trkpt lat="43.98084" lon="5.12057">
        <ele>361.7</ele>
        <time>2013-03-07T13:07:15Z</time>
      </trkpt>
      <trkpt lat="43.98082" lon="5.12057">
        <ele>362.5</ele>
        <time>2013-03-07T13:07:16Z</time>
      </trkpt>
      <trkpt lat="43.98079" lon="5.12057">
        <ele>363.4</ele>
        <time>2013-03-07T13:07:18Z</time>
      </trkpt>
      <trkpt lat="43.98077" lon="5.12058">
        <ele>362</ele>
        <time>2013-03-07T13:07:19Z</time>
      </trkpt>
      <trkpt lat="43.98073" lon="5.12058">
        <ele>363.4</ele>
        <time>2013-03-07T13:07:22Z</time>
      </trkpt>
      <trkpt lat="43.98071" lon="5.12058">
        <ele>363.7</ele>
        <time>2013-03-07T13:07:23Z</time>
      </trkpt>
      <trkpt lat="43.98068" lon="5.12059">
        <ele>366.2</ele>
        <time>2013-03-07T13:07:26Z</time>
      </trkpt>
      <trkpt lat="43.98067" lon="5.12058">
        <ele>367.3</ele>
        <time>2013-03-07T13:07:27Z</time>
      </trkpt>
      <trkpt lat="43.98062" lon="5.12057">
        <ele>368.2</ele>
        <time>2013-03-07T13:07:30Z</time>
      </trkpt>
      <trkpt lat="43.98061" lon="5.12057">
        <ele>366.6</ele>
        <time>2013-03-07T13:07:31Z</time>
      </trkpt>
      <trkpt lat="43.98059" lon="5.12058">
        <ele>363.9</ele>
        <time>2013-03-07T13:07:32Z</time>
      </trkpt>
      <trkpt lat="43.98056" lon="5.12057">
        <ele>360.4</ele>
        <time>2013-03-07T13:07:33Z</time>
      </trkpt>
      <trkpt lat="43.98053" lon="5.12054">
        <ele>358</ele>
        <time>2013-03-07T13:07:36Z</time>
      </trkpt>
      <trkpt lat="43.98052" lon="5.12052">
        <ele>357.7</ele>
        <time>2013-03-07T13:07:37Z</time>
      </trkpt>
      <trkpt lat="43.98049" lon="5.12056">
        <ele>354.6</ele>
        <time>2013-03-07T13:07:42Z</time>
      </trkpt>
      <trkpt lat="43.98049" lon="5.12057">
        <ele>353.9</ele>
        <time>2013-03-07T13:07:43Z</time>
      </trkpt>
      <trkpt lat="43.98053" lon="5.12061">
        <ele>352.5</ele>
        <time>2013-03-07T13:07:47Z</time>
      </trkpt>
      <trkpt lat="43.98054" lon="5.12061">
        <ele>352.1</ele>
        <time>2013-03-07T13:07:48Z</time>
      </trkpt>
      <trkpt lat="43.98057" lon="5.12058">
        <ele>351.1</ele>
        <time>2013-03-07T13:07:51Z</time>
      </trkpt>
      <trkpt lat="43.98058" lon="5.12057">
        <ele>350.9</ele>
        <time>2013-03-07T13:07:52Z</time>
      </trkpt>
      <trkpt lat="43.98061" lon="5.12054">
        <ele>349.8</ele>
        <time>2013-03-07T13:07:54Z</time>
      </trkpt>
      <trkpt lat="43.98063" lon="5.12052">
        <ele>349.2</ele>
        <time>2013-03-07T13:07:55Z</time>
      </trkpt>
      <trkpt lat="43.98064" lon="5.12049">
        <ele>347.4</ele>
        <time>2013-03-07T13:07:58Z</time>
      </trkpt>
      <trkpt lat="43.98056" lon="5.12061">
        <ele>347.9</ele>
        <time>2013-03-07T13:07:59Z</time>
      </trkpt>
      <trkpt lat="43.98058" lon="5.12057">
        <ele>345.2</ele>
        <time>2013-03-07T13:08:06Z</time>
      </trkpt>
      <trkpt lat="43.98058" lon="5.12056">
        <ele>344.8</ele>
        <time>2013-03-07T13:08:07Z</time>
      </trkpt>
      <trkpt lat="43.98054" lon="5.12055">
        <ele>341.7</ele>
        <time>2013-03-07T13:08:57Z</time>
      </trkpt>
      <trkpt lat="43.98054" lon="5.12057">
        <ele>341.7</ele>
        <time>2013-03-07T13:08:58Z</time>
      </trkpt>
      <trkpt lat="43.98056" lon="5.12061">
        <ele>341.3</ele>
        <time>2013-03-07T13:09:04Z</time>
      </trkpt>
      <trkpt lat="43.98057" lon="5.12065">
        <ele>340.1</ele>
        <time>2013-03-07T13:09:05Z</time>
      </trkpt>
      <trkpt lat="43.98057" lon="5.12068">
        <ele>339</ele>
        <time>2013-03-07T13:09:06Z</time>
      </trkpt>
      <trkpt lat="43.98058" lon="5.12072">
        <ele>338.4</ele>
        <time>2013-03-07T13:09:07Z</time>
      </trkpt>
      <trkpt lat="43.98054" lon="5.12069">
        <ele>341.7</ele>
        <time>2013-03-07T13:09:09Z</time>
      </trkpt>
      <trkpt lat="43.98053" lon="5.1207">
        <ele>341.4</ele>
        <time>2013-03-07T13:09:10Z</time>
      </trkpt>
      <trkpt lat="43.98049" lon="5.12071">
        <ele>339.8</ele>
        <time>2013-03-07T13:09:14Z</time>
      </trkpt>
      <trkpt lat="43.98047" lon="5.12071">
        <ele>339.9</ele>
        <time>2013-03-07T13:09:15Z</time>
      </trkpt>
      <trkpt lat="43.98043" lon="5.12071">
        <ele>346.2</ele>
        <time>2013-03-07T13:09:19Z</time>
      </trkpt>
      <trkpt lat="43.98042" lon="5.12071">
        <ele>346.8</ele>
        <time>2013-03-07T13:09:20Z</time>
      </trkpt>
      <trkpt lat="43.98039" lon="5.12072">
        <ele>348.1</ele>
        <time>2013-03-07T13:09:23Z</time>
      </trkpt>
      <trkpt lat="43.98038" lon="5.12076">
        <ele>345.4</ele>
        <time>2013-03-07T13:09:24Z</time>
      </trkpt>
      <trkpt lat="43.98034" lon="5.12078">
        <ele>346.9</ele>
        <time>2013-03-07T13:09:27Z</time>
      </trkpt>
      <trkpt lat="43.98032" lon="5.12079">
        <ele>347.6</ele>
        <time>2013-03-07T13:09:28Z</time>
      </trkpt>
      <trkpt lat="43.98029" lon="5.12083">
        <ele>345.9</ele>
        <time>2013-03-07T13:09:31Z</time>
      </trkpt>
      <trkpt lat="43.98028" lon="5.12084">
        <ele>345.6</ele>
        <time>2013-03-07T13:09:32Z</time>
      </trkpt>
      <trkpt lat="43.98025" lon="5.12087">
        <ele>344.2</ele>
        <time>2013-03-07T13:09:34Z</time>
      </trkpt>
      <trkpt lat="43.98023" lon="5.12087">
        <ele>345.7</ele>
        <time>2013-03-07T13:09:35Z</time>
      </trkpt>
      <trkpt lat="43.98018" lon="5.12088">
        <ele>346.7</ele>
        <time>2013-03-07T13:09:38Z</time>
      </trkpt>
      <trkpt lat="43.98017" lon="5.12089">
        <ele>346.9</ele>
        <time>2013-03-07T13:09:39Z</time>
      </trkpt>
      <trkpt lat="43.98014" lon="5.12091">
        <ele>347.8</ele>
        <time>2013-03-07T13:09:41Z</time>
      </trkpt>
      <trkpt lat="43.98013" lon="5.12093">
        <ele>347.7</ele>
        <time>2013-03-07T13:09:42Z</time>
      </trkpt>
      <trkpt lat="43.98009" lon="5.12096">
        <ele>347.3</ele>
        <time>2013-03-07T13:09:44Z</time>
      </trkpt>
      <trkpt lat="43.98008" lon="5.12098">
        <ele>347.3</ele>
        <time>2013-03-07T13:09:45Z</time>
      </trkpt>
      <trkpt lat="43.98006" lon="5.12102">
        <ele>346.8</ele>
        <time>2013-03-07T13:09:47Z</time>
      </trkpt>
      <trkpt lat="43.98004" lon="5.12106">
        <ele>345.6</ele>
        <time>2013-03-07T13:09:48Z</time>
      </trkpt>
      <trkpt lat="43.98" lon="5.12107">
        <ele>347.3</ele>
        <time>2013-03-07T13:09:51Z</time>
      </trkpt>
      <trkpt lat="43.97999" lon="5.12108">
        <ele>347.6</ele>
        <time>2013-03-07T13:09:52Z</time>
      </trkpt>
      <trkpt lat="43.97997" lon="5.12111">
        <ele>347.9</ele>
        <time>2013-03-07T13:09:54Z</time>
      </trkpt>
      <trkpt lat="43.97995" lon="5.12112">
        <ele>348.2</ele>
        <time>2013-03-07T13:09:55Z</time>
      </trkpt>
      <trkpt lat="43.97992" lon="5.12114">
        <ele>348.4</ele>
        <time>2013-03-07T13:09:57Z</time>
      </trkpt>
      <trkpt lat="43.97991" lon="5.12115">
        <ele>348.6</ele>
        <time>2013-03-07T13:09:58Z</time>
      </trkpt>
      <trkpt lat="43.97989" lon="5.12117">
        <ele>350.1</ele>
        <time>2013-03-07T13:10:00Z</time>
      </trkpt>
      <trkpt lat="43.97987" lon="5.12119">
        <ele>350.1</ele>
        <time>2013-03-07T13:10:01Z</time>
      </trkpt>
      <trkpt lat="43.97984" lon="5.12121">
        <ele>350.4</ele>
        <time>2013-03-07T13:10:03Z</time>
      </trkpt>
      <trkpt lat="43.97983" lon="5.12122">
        <ele>350.6</ele>
        <time>2013-03-07T13:10:04Z</time>
      </trkpt>
      <trkpt lat="43.9798" lon="5.12125">
        <ele>350.8</ele>
        <time>2013-03-07T13:10:06Z</time>
      </trkpt>
      <trkpt lat="43.97978" lon="5.12126">
        <ele>351.1</ele>
        <time>2013-03-07T13:10:07Z</time>
      </trkpt>
      <trkpt lat="43.97975" lon="5.12128">
        <ele>351.7</ele>
        <time>2013-03-07T13:10:09Z</time>
      </trkpt>
      <trkpt lat="43.97973" lon="5.12129">
        <ele>351.8</ele>
        <time>2013-03-07T13:10:10Z</time>
      </trkpt>
      <trkpt lat="43.9797" lon="5.12131">
        <ele>351.5</ele>
        <time>2013-03-07T13:10:12Z</time>
      </trkpt>
      <trkpt lat="43.97968" lon="5.12132">
        <ele>351.3</ele>
        <time>2013-03-07T13:10:13Z</time>
      </trkpt>
      <trkpt lat="43.97965" lon="5.12135">
        <ele>351.5</ele>
        <time>2013-03-07T13:10:15Z</time>
      </trkpt>
      <trkpt lat="43.97964" lon="5.12137">
        <ele>351.5</ele>
        <time>2013-03-07T13:10:16Z</time>
      </trkpt>
      <trkpt lat="43.97961" lon="5.12141">
        <ele>351.7</ele>
        <time>2013-03-07T13:10:19Z</time>
      </trkpt>
      <trkpt lat="43.97959" lon="5.12143">
        <ele>351.7</ele>
        <time>2013-03-07T13:10:20Z</time>
      </trkpt>
      <trkpt lat="43.97957" lon="5.12147">
        <ele>352.6</ele>
        <time>2013-03-07T13:10:22Z</time>
      </trkpt>
      <trkpt lat="43.97956" lon="5.1215">
        <ele>352.5</ele>
        <time>2013-03-07T13:10:23Z</time>
      </trkpt>
      <trkpt lat="43.97953" lon="5.12154">
        <ele>352.7</ele>
        <time>2013-03-07T13:10:25Z</time>
      </trkpt>
      <trkpt lat="43.97952" lon="5.12157">
        <ele>352.8</ele>
        <time>2013-03-07T13:10:26Z</time>
      </trkpt>
      <trkpt lat="43.97949" lon="5.12161">
        <ele>358.6</ele>
        <time>2013-03-07T13:10:30Z</time>
      </trkpt>
      <trkpt lat="43.97949" lon="5.12164">
        <ele>358.9</ele>
        <time>2013-03-07T13:10:31Z</time>
      </trkpt>
      <trkpt lat="43.9795" lon="5.12168">
        <ele>359.6</ele>
        <time>2013-03-07T13:10:33Z</time>
      </trkpt>
      <trkpt lat="43.9795" lon="5.1217">
        <ele>359.9</ele>
        <time>2013-03-07T13:10:34Z</time>
      </trkpt>
      <trkpt lat="43.97949" lon="5.12175">
        <ele>359.8</ele>
        <time>2013-03-07T13:10:37Z</time>
      </trkpt>
      <trkpt lat="43.97948" lon="5.12177">
        <ele>359.8</ele>
        <time>2013-03-07T13:10:38Z</time>
      </trkpt>
      <trkpt lat="43.97947" lon="5.12182">
        <ele>360.9</ele>
        <time>2013-03-07T13:10:41Z</time>
      </trkpt>
      <trkpt lat="43.97946" lon="5.12183">
        <ele>361</ele>
        <time>2013-03-07T13:10:42Z</time>
      </trkpt>
      <trkpt lat="43.97944" lon="5.12186">
        <ele>361.1</ele>
        <time>2013-03-07T13:10:44Z</time>
      </trkpt>
      <trkpt lat="43.97943" lon="5.12188">
        <ele>361.2</ele>
        <time>2013-03-07T13:10:45Z</time>
      </trkpt>
      <trkpt lat="43.9794" lon="5.12191">
        <ele>360.8</ele>
        <time>2013-03-07T13:10:47Z</time>
      </trkpt>
      <trkpt lat="43.97939" lon="5.12193">
        <ele>360.9</ele>
        <time>2013-03-07T13:10:48Z</time>
      </trkpt>
      <trkpt lat="43.97936" lon="5.12196">
        <ele>360.6</ele>
        <time>2013-03-07T13:10:50Z</time>
      </trkpt>
      <trkpt lat="43.97935" lon="5.12197">
        <ele>360.5</ele>
        <time>2013-03-07T13:10:51Z</time>
      </trkpt>
      <trkpt lat="43.97932" lon="5.12202">
        <ele>361.2</ele>
        <time>2013-03-07T13:10:53Z</time>
      </trkpt>
      <trkpt lat="43.97931" lon="5.12204">
        <ele>361</ele>
        <time>2013-03-07T13:10:54Z</time>
      </trkpt>
      <trkpt lat="43.97928" lon="5.12204">
        <ele>362.1</ele>
        <time>2013-03-07T13:10:56Z</time>
      </trkpt>
      <trkpt lat="43.97926" lon="5.12205">
        <ele>361.7</ele>
        <time>2013-03-07T13:10:57Z</time>
      </trkpt>
      <trkpt lat="43.97924" lon="5.12205">
        <ele>362.6</ele>
        <time>2013-03-07T13:10:59Z</time>
      </trkpt>
      <trkpt lat="43.97922" lon="5.12206">
        <ele>362.7</ele>
        <time>2013-03-07T13:11:00Z</time>
      </trkpt>
      <trkpt lat="43.97918" lon="5.12207">
        <ele>362.6</ele>
        <time>2013-03-07T13:11:02Z</time>
      </trkpt>
      <trkpt lat="43.97916" lon="5.12208">
        <ele>362.4</ele>
        <time>2013-03-07T13:11:03Z</time>
      </trkpt>
      <trkpt lat="43.97913" lon="5.12211">
        <ele>362.9</ele>
        <time>2013-03-07T13:11:05Z</time>
      </trkpt>
      <trkpt lat="43.97911" lon="5.12211">
        <ele>363.9</ele>
        <time>2013-03-07T13:11:06Z</time>
      </trkpt>
      <trkpt lat="43.97906" lon="5.12212">
        <ele>365</ele>
        <time>2013-03-07T13:11:08Z</time>
      </trkpt>
      <trkpt lat="43.97905" lon="5.12215">
        <ele>364.6</ele>
        <time>2013-03-07T13:11:09Z</time>
      </trkpt>
      <trkpt lat="43.97901" lon="5.12217">
        <ele>365.2</ele>
        <time>2013-03-07T13:11:11Z</time>
      </trkpt>
      <trkpt lat="43.979" lon="5.12219">
        <ele>365.4</ele>
        <time>2013-03-07T13:11:12Z</time>
      </trkpt>
      <trkpt lat="43.97897" lon="5.12222">
        <ele>365.9</ele>
        <time>2013-03-07T13:11:14Z</time>
      </trkpt>
      <trkpt lat="43.97896" lon="5.12223">
        <ele>366</ele>
        <time>2013-03-07T13:11:15Z</time>
      </trkpt>
      <trkpt lat="43.97893" lon="5.12226">
        <ele>366</ele>
        <time>2013-03-07T13:11:17Z</time>
      </trkpt>
      <trkpt lat="43.97891" lon="5.12227">
        <ele>365.9</ele>
        <time>2013-03-07T13:11:18Z</time>
      </trkpt>
      <trkpt lat="43.97889" lon="5.1223">
        <ele>366.1</ele>
        <time>2013-03-07T13:11:20Z</time>
      </trkpt>
      <trkpt lat="43.97887" lon="5.12231">
        <ele>366.1</ele>
        <time>2013-03-07T13:11:21Z</time>
      </trkpt>
      <trkpt lat="43.97884" lon="5.12234">
        <ele>367.5</ele>
        <time>2013-03-07T13:11:24Z</time>
      </trkpt>
      <trkpt lat="43.97882" lon="5.12234">
        <ele>367.6</ele>
        <time>2013-03-07T13:11:25Z</time>
      </trkpt>
      <trkpt lat="43.97879" lon="5.12236">
        <ele>367.7</ele>
        <time>2013-03-07T13:11:27Z</time>
      </trkpt>
      <trkpt lat="43.97877" lon="5.12236">
        <ele>367.1</ele>
        <time>2013-03-07T13:11:28Z</time>
      </trkpt>
      <trkpt lat="43.97874" lon="5.12238">
        <ele>367</ele>
        <time>2013-03-07T13:11:30Z</time>
      </trkpt>
      <trkpt lat="43.97873" lon="5.12238">
        <ele>367.6</ele>
        <time>2013-03-07T13:11:31Z</time>
      </trkpt>
      <trkpt lat="43.97868" lon="5.1224">
        <ele>366.9</ele>
        <time>2013-03-07T13:11:34Z</time>
      </trkpt>
      <trkpt lat="43.97867" lon="5.12241">
        <ele>366.8</ele>
        <time>2013-03-07T13:11:35Z</time>
      </trkpt>
      <trkpt lat="43.97864" lon="5.12243">
        <ele>366.5</ele>
        <time>2013-03-07T13:11:37Z</time>
      </trkpt>
      <trkpt lat="43.97863" lon="5.12244">
        <ele>366</ele>
        <time>2013-03-07T13:11:38Z</time>
      </trkpt>
      <trkpt lat="43.97859" lon="5.12247">
        <ele>365.6</ele>
        <time>2013-03-07T13:11:40Z</time>
      </trkpt>
      <trkpt lat="43.97857" lon="5.12248">
        <ele>365.6</ele>
        <time>2013-03-07T13:11:41Z</time>
      </trkpt>
      <trkpt lat="43.97854" lon="5.12252">
        <ele>365.4</ele>
        <time>2013-03-07T13:11:43Z</time>
      </trkpt>
      <trkpt lat="43.97853" lon="5.12253">
        <ele>365.2</ele>
        <time>2013-03-07T13:11:44Z</time>
      </trkpt>
      <trkpt lat="43.9785" lon="5.12256">
        <ele>365.1</ele>
        <time>2013-03-07T13:11:46Z</time>
      </trkpt>
      <trkpt lat="43.97849" lon="5.12257">
        <ele>365</ele>
        <time>2013-03-07T13:11:47Z</time>
      </trkpt>
      <trkpt lat="43.97846" lon="5.12262">
        <ele>364.9</ele>
        <time>2013-03-07T13:11:51Z</time>
      </trkpt>
      <trkpt lat="43.97844" lon="5.12262">
        <ele>364.9</ele>
        <time>2013-03-07T13:11:52Z</time>
      </trkpt>
      <trkpt lat="43.97841" lon="5.12266">
        <ele>365.7</ele>
        <time>2013-03-07T13:11:55Z</time>
      </trkpt>
      <trkpt lat="43.97841" lon="5.12268">
        <ele>365.4</ele>
        <time>2013-03-07T13:11:56Z</time>
      </trkpt>
      <trkpt lat="43.97845" lon="5.12271">
        <ele>364.9</ele>
        <time>2013-03-07T13:11:59Z</time>
      </trkpt>
      <trkpt lat="43.97847" lon="5.12272">
        <ele>365.2</ele>
        <time>2013-03-07T13:12:00Z</time>
      </trkpt>
      <trkpt lat="43.97851" lon="5.12272">
        <ele>366.4</ele>
        <time>2013-03-07T13:12:03Z</time>
      </trkpt>
      <trkpt lat="43.97853" lon="5.12273">
        <ele>366.5</ele>
        <time>2013-03-07T13:12:04Z</time>
      </trkpt>
      <trkpt lat="43.97856" lon="5.12272">
        <ele>366.4</ele>
        <time>2013-03-07T13:12:06Z</time>
      </trkpt>
      <trkpt lat="43.97857" lon="5.12271">
        <ele>366.5</ele>
        <time>2013-03-07T13:12:07Z</time>
      </trkpt>
      <trkpt lat="43.9786" lon="5.12274">
        <ele>367.4</ele>
        <time>2013-03-07T13:12:10Z</time>
      </trkpt>
      <trkpt lat="43.97861" lon="5.12275">
        <ele>368.2</ele>
        <time>2013-03-07T13:12:11Z</time>
      </trkpt>
      <trkpt lat="43.97864" lon="5.12279">
        <ele>371.8</ele>
        <time>2013-03-07T13:12:20Z</time>
      </trkpt>
      <trkpt lat="43.97865" lon="5.12279">
        <ele>371.8</ele>
        <time>2013-03-07T13:12:21Z</time>
      </trkpt>
      <trkpt lat="43.97868" lon="5.12282">
        <ele>375.6</ele>
        <time>2013-03-07T13:12:30Z</time>
      </trkpt>
      <trkpt lat="43.97869" lon="5.12283">
        <ele>375.4</ele>
        <time>2013-03-07T13:12:31Z</time>
      </trkpt>
      <trkpt lat="43.97872" lon="5.12287">
        <ele>375.5</ele>
        <time>2013-03-07T13:12:48Z</time>
      </trkpt>
      <trkpt lat="43.97873" lon="5.12287">
        <ele>376.4</ele>
        <time>2013-03-07T13:12:49Z</time>
      </trkpt>
      <trkpt lat="43.97877" lon="5.1229">
        <ele>377.2</ele>
        <time>2013-03-07T13:12:54Z</time>
      </trkpt>
      <trkpt lat="43.97878" lon="5.1229">
        <ele>377.5</ele>
        <time>2013-03-07T13:12:55Z</time>
      </trkpt>
      <trkpt lat="43.97881" lon="5.12293">
        <ele>378.1</ele>
        <time>2013-03-07T13:13:55Z</time>
      </trkpt>
      <trkpt lat="43.97883" lon="5.12292">
        <ele>381.9</ele>
        <time>2013-03-07T13:13:56Z</time>
      </trkpt>
      <trkpt lat="43.97886" lon="5.12296">
        <ele>380</ele>
        <time>2013-03-07T13:14:00Z</time>
      </trkpt>
      <trkpt lat="43.97887" lon="5.12297">
        <ele>380.1</ele>
        <time>2013-03-07T13:14:01Z</time>
      </trkpt>
      <trkpt lat="43.9789" lon="5.12299">
        <ele>379.5</ele>
        <time>2013-03-07T13:14:03Z</time>
      </trkpt>
      <trkpt lat="43.97892" lon="5.12301">
        <ele>379.4</ele>
        <time>2013-03-07T13:14:04Z</time>
      </trkpt>
      <trkpt lat="43.97895" lon="5.12303">
        <ele>379.8</ele>
        <time>2013-03-07T13:14:06Z</time>
      </trkpt>
      <trkpt lat="43.97897" lon="5.12304">
        <ele>379.8</ele>
        <time>2013-03-07T13:14:07Z</time>
      </trkpt>
      <trkpt lat="43.979" lon="5.12306">
        <ele>381.3</ele>
        <time>2013-03-07T13:14:09Z</time>
      </trkpt>
      <trkpt lat="43.97901" lon="5.12309">
        <ele>380.7</ele>
        <time>2013-03-07T13:14:10Z</time>
      </trkpt>
      <trkpt lat="43.97904" lon="5.12312">
        <ele>380.8</ele>
        <time>2013-03-07T13:14:12Z</time>
      </trkpt>
      <trkpt lat="43.97905" lon="5.12314">
        <ele>381.2</ele>
        <time>2013-03-07T13:14:13Z</time>
      </trkpt>
      <trkpt lat="43.97908" lon="5.12318">
        <ele>380.7</ele>
        <time>2013-03-07T13:14:15Z</time>
      </trkpt>
      <trkpt lat="43.97909" lon="5.1232">
        <ele>380.2</ele>
        <time>2013-03-07T13:14:16Z</time>
      </trkpt>
      <trkpt lat="43.97912" lon="5.12324">
        <ele>380</ele>
        <time>2013-03-07T13:14:18Z</time>
      </trkpt>
      <trkpt lat="43.97913" lon="5.12326">
        <ele>380</ele>
        <time>2013-03-07T13:14:19Z</time>
      </trkpt>
      <trkpt lat="43.97915" lon="5.1233">
        <ele>380.2</ele>
        <time>2013-03-07T13:14:21Z</time>
      </trkpt>
      <trkpt lat="43.97916" lon="5.12332">
        <ele>380.3</ele>
        <time>2013-03-07T13:14:22Z</time>
      </trkpt>
      <trkpt lat="43.97916" lon="5.12338">
        <ele>380.5</ele>
        <time>2013-03-07T13:14:24Z</time>
      </trkpt>
      <trkpt lat="43.97915" lon="5.1234">
        <ele>381.1</ele>
        <time>2013-03-07T13:14:25Z</time>
      </trkpt>
      <trkpt lat="43.97914" lon="5.12345">
        <ele>380.1</ele>
        <time>2013-03-07T13:14:27Z</time>
      </trkpt>
      <trkpt lat="43.97914" lon="5.12348">
        <ele>379.5</ele>
        <time>2013-03-07T13:14:28Z</time>
      </trkpt>
      <trkpt lat="43.97914" lon="5.12353">
        <ele>378.9</ele>
        <time>2013-03-07T13:14:30Z</time>
      </trkpt>
      <trkpt lat="43.97914" lon="5.12356">
        <ele>378.2</ele>
        <time>2013-03-07T13:14:31Z</time>
      </trkpt>
      <trkpt lat="43.97915" lon="5.1236">
        <ele>378.3</ele>
        <time>2013-03-07T13:14:32Z</time>
      </trkpt>
      <trkpt lat="43.97915" lon="5.12363">
        <ele>377.7</ele>
        <time>2013-03-07T13:14:33Z</time>
      </trkpt>
      <trkpt lat="43.97916" lon="5.12367">
        <ele>377.4</ele>
        <time>2013-03-07T13:14:34Z</time>
      </trkpt>
      <trkpt lat="43.97917" lon="5.12371">
        <ele>376.9</ele>
        <time>2013-03-07T13:14:35Z</time>
      </trkpt>
      <trkpt lat="43.97918" lon="5.12374">
        <ele>376.5</ele>
        <time>2013-03-07T13:14:36Z</time>
      </trkpt>
      <trkpt lat="43.9792" lon="5.12378">
        <ele>376</ele>
        <time>2013-03-07T13:14:37Z</time>
      </trkpt>
      <trkpt lat="43.97921" lon="5.12383">
        <ele>375.5</ele>
        <time>2013-03-07T13:14:38Z</time>
      </trkpt>
      <trkpt lat="43.97922" lon="5.12387">
        <ele>375.1</ele>
        <time>2013-03-07T13:14:39Z</time>
      </trkpt>
      <trkpt lat="43.97924" lon="5.12391">
        <ele>374.7</ele>
        <time>2013-03-07T13:14:40Z</time>
      </trkpt>
      <trkpt lat="43.97925" lon="5.12395">
        <ele>374.2</ele>
        <time>2013-03-07T13:14:41Z</time>
      </trkpt>
      <trkpt lat="43.97926" lon="5.12399">
        <ele>373.7</ele>
        <time>2013-03-07T13:14:42Z</time>
      </trkpt>
      <trkpt lat="43.97927" lon="5.12403">
        <ele>373.2</ele>
        <time>2013-03-07T13:14:43Z</time>
      </trkpt>
      <trkpt lat="43.97929" lon="5.12407">
        <ele>373.2</ele>
        <time>2013-03-07T13:14:44Z</time>
      </trkpt>
      <trkpt lat="43.9793" lon="5.12411">
        <ele>374.2</ele>
        <time>2013-03-07T13:14:45Z</time>
      </trkpt>
      <trkpt lat="43.97931" lon="5.12413">
        <ele>376.4</ele>
        <time>2013-03-07T13:14:46Z</time>
      </trkpt>
      <trkpt lat="43.97933" lon="5.12421">
        <ele>375.9</ele>
        <time>2013-03-07T13:14:47Z</time>
      </trkpt>
      <trkpt lat="43.97935" lon="5.12426">
        <ele>375.4</ele>
        <time>2013-03-07T13:14:48Z</time>
      </trkpt>
      <trkpt lat="43.97936" lon="5.12432">
        <ele>375.4</ele>
        <time>2013-03-07T13:14:49Z</time>
      </trkpt>
      <trkpt lat="43.97937" lon="5.12438">
        <ele>374.9</ele>
        <time>2013-03-07T13:14:50Z</time>
      </trkpt>
      <trkpt lat="43.97939" lon="5.12444">
        <ele>374.6</ele>
        <time>2013-03-07T13:14:51Z</time>
      </trkpt>
      <trkpt lat="43.97941" lon="5.12449">
        <ele>374.5</ele>
        <time>2013-03-07T13:14:52Z</time>
      </trkpt>
      <trkpt lat="43.97943" lon="5.12454">
        <ele>374.5</ele>
        <time>2013-03-07T13:14:53Z</time>
      </trkpt>
      <trkpt lat="43.97945" lon="5.12459">
        <ele>375.8</ele>
        <time>2013-03-07T13:14:54Z</time>
      </trkpt>
      <trkpt lat="43.97948" lon="5.12459">
        <ele>379.9</ele>
        <time>2013-03-07T13:14:55Z</time>
      </trkpt>
      <trkpt lat="43.97948" lon="5.12463">
        <ele>380.8</ele>
        <time>2013-03-07T13:14:56Z</time>
      </trkpt>
      <trkpt lat="43.97949" lon="5.12466">
        <ele>382.4</ele>
        <time>2013-03-07T13:14:57Z</time>
      </trkpt>
      <trkpt lat="43.9795" lon="5.1247">
        <ele>382.7</ele>
        <time>2013-03-07T13:14:58Z</time>
      </trkpt>
      <trkpt lat="43.97952" lon="5.12473">
        <ele>383.2</ele>
        <time>2013-03-07T13:14:59Z</time>
      </trkpt>
      <trkpt lat="43.97954" lon="5.12475">
        <ele>383</ele>
        <time>2013-03-07T13:15:00Z</time>
      </trkpt>
      <trkpt lat="43.97956" lon="5.12478">
        <ele>382.8</ele>
        <time>2013-03-07T13:15:01Z</time>
      </trkpt>
      <trkpt lat="43.97957" lon="5.1248">
        <ele>382.8</ele>
        <time>2013-03-07T13:15:02Z</time>
      </trkpt>
      <trkpt lat="43.97962" lon="5.12477">
        <ele>382.3</ele>
        <time>2013-03-07T13:15:03Z</time>
      </trkpt>
      <trkpt lat="43.97966" lon="5.12475">
        <ele>382.8</ele>
        <time>2013-03-07T13:15:04Z</time>
      </trkpt>
      <trkpt lat="43.9797" lon="5.12474">
        <ele>382.3</ele>
        <time>2013-03-07T13:15:05Z</time>
      </trkpt>
      <trkpt lat="43.97974" lon="5.12473">
        <ele>381.1</ele>
        <time>2013-03-07T13:15:06Z</time>
      </trkpt>
      <trkpt lat="43.97979" lon="5.12472">
        <ele>381.1</ele>
        <time>2013-03-07T13:15:07Z</time>
      </trkpt>
      <trkpt lat="43.97983" lon="5.12471">
        <ele>381.3</ele>
        <time>2013-03-07T13:15:08Z</time>
      </trkpt>
      <trkpt lat="43.97987" lon="5.1247">
        <ele>379.7</ele>
        <time>2013-03-07T13:15:09Z</time>
      </trkpt>
      <trkpt lat="43.97991" lon="5.12469">
        <ele>379.1</ele>
        <time>2013-03-07T13:15:10Z</time>
      </trkpt>
      <trkpt lat="43.97995" lon="5.12468">
        <ele>378.8</ele>
        <time>2013-03-07T13:15:11Z</time>
      </trkpt>
      <trkpt lat="43.97999" lon="5.12467">
        <ele>378.7</ele>
        <time>2013-03-07T13:15:12Z</time>
      </trkpt>
      <trkpt lat="43.98003" lon="5.12464">
        <ele>378.6</ele>
        <time>2013-03-07T13:15:13Z</time>
      </trkpt>
      <trkpt lat="43.98007" lon="5.12462">
        <ele>378.8</ele>
        <time>2013-03-07T13:15:14Z</time>
      </trkpt>
      <trkpt lat="43.98011" lon="5.12461">
        <ele>378.4</ele>
        <time>2013-03-07T13:15:15Z</time>
      </trkpt>
      <trkpt lat="43.98015" lon="5.1246">
        <ele>377</ele>
        <time>2013-03-07T13:15:16Z</time>
      </trkpt>
      <trkpt lat="43.98019" lon="5.12459">
        <ele>376</ele>
        <time>2013-03-07T13:15:17Z</time>
      </trkpt>
      <trkpt lat="43.98023" lon="5.12457">
        <ele>375.2</ele>
        <time>2013-03-07T13:15:18Z</time>
      </trkpt>
      <trkpt lat="43.98027" lon="5.12456">
        <ele>374.5</ele>
        <time>2013-03-07T13:15:19Z</time>
      </trkpt>
      <trkpt lat="43.98031" lon="5.12455">
        <ele>374.4</ele>
        <time>2013-03-07T13:15:20Z</time>
      </trkpt>
      <trkpt lat="43.98035" lon="5.12454">
        <ele>373.9</ele>
        <time>2013-03-07T13:15:21Z</time>
      </trkpt>
      <trkpt lat="43.98039" lon="5.12451">
        <ele>374.5</ele>
        <time>2013-03-07T13:15:22Z</time>
      </trkpt>
      <trkpt lat="43.98042" lon="5.1245">
        <ele>374.1</ele>
        <time>2013-03-07T13:15:23Z</time>
      </trkpt>
      <trkpt lat="43.98046" lon="5.12448">
        <ele>374.4</ele>
        <time>2013-03-07T13:15:24Z</time>
      </trkpt>
      <trkpt lat="43.9805" lon="5.12447">
        <ele>374.2</ele>
        <time>2013-03-07T13:15:25Z</time>
      </trkpt>
      <trkpt lat="43.98054" lon="5.12446">
        <ele>373.9</ele>
        <time>2013-03-07T13:15:26Z</time>
      </trkpt>
      <trkpt lat="43.98058" lon="5.12445">
        <ele>373.7</ele>
        <time>2013-03-07T13:15:27Z</time>
      </trkpt>
      <trkpt lat="43.98061" lon="5.12444">
        <ele>374</ele>
        <time>2013-03-07T13:15:28Z</time>
      </trkpt>
      <trkpt lat="43.98065" lon="5.12442">
        <ele>374</ele>
        <time>2013-03-07T13:15:29Z</time>
      </trkpt>
      <trkpt lat="43.9807" lon="5.12441">
        <ele>373.3</ele>
        <time>2013-03-07T13:15:30Z</time>
      </trkpt>
      <trkpt lat="43.98073" lon="5.12439">
        <ele>373.3</ele>
        <time>2013-03-07T13:15:31Z</time>
      </trkpt>
      <trkpt lat="43.98078" lon="5.12438">
        <ele>372.5</ele>
        <time>2013-03-07T13:15:32Z</time>
      </trkpt>
      <trkpt lat="43.98082" lon="5.12437">
        <ele>371.7</ele>
        <time>2013-03-07T13:15:33Z</time>
      </trkpt>
      <trkpt lat="43.98086" lon="5.12435">
        <ele>370.4</ele>
        <time>2013-03-07T13:15:34Z</time>
      </trkpt>
      <trkpt lat="43.98089" lon="5.12433">
        <ele>370.8</ele>
        <time>2013-03-07T13:15:35Z</time>
      </trkpt>
      <trkpt lat="43.98092" lon="5.1243">
        <ele>371.3</ele>
        <time>2013-03-07T13:15:36Z</time>
      </trkpt>
      <trkpt lat="43.98095" lon="5.12427">
        <ele>371</ele>
        <time>2013-03-07T13:15:37Z</time>
      </trkpt>
      <trkpt lat="43.98097" lon="5.12425">
        <ele>371.1</ele>
        <time>2013-03-07T13:15:38Z</time>
      </trkpt>
      <trkpt lat="43.98099" lon="5.12424">
        <ele>372.2</ele>
        <time>2013-03-07T13:15:39Z</time>
      </trkpt>
      <trkpt lat="43.98102" lon="5.12423">
        <ele>372.4</ele>
        <time>2013-03-07T13:15:40Z</time>
      </trkpt>
      <trkpt lat="43.98104" lon="5.12425">
        <ele>370.8</ele>
        <time>2013-03-07T13:15:41Z</time>
      </trkpt>
      <trkpt lat="43.98106" lon="5.12426">
        <ele>370</ele>
        <time>2013-03-07T13:15:42Z</time>
      </trkpt>
      <trkpt lat="43.98106" lon="5.12431">
        <ele>368.6</ele>
        <time>2013-03-07T13:15:43Z</time>
      </trkpt>
      <trkpt lat="43.98105" lon="5.12437">
        <ele>366.3</ele>
        <time>2013-03-07T13:15:44Z</time>
      </trkpt>
      <trkpt lat="43.98104" lon="5.12441">
        <ele>365.3</ele>
        <time>2013-03-07T13:15:45Z</time>
      </trkpt>
      <trkpt lat="43.98101" lon="5.12445">
        <ele>363.9</ele>
        <time>2013-03-07T13:15:46Z</time>
      </trkpt>
      <trkpt lat="43.98099" lon="5.12449">
        <ele>362.7</ele>
        <time>2013-03-07T13:15:47Z</time>
      </trkpt>
      <trkpt lat="43.98096" lon="5.12452">
        <ele>362.1</ele>
        <time>2013-03-07T13:15:48Z</time>
      </trkpt>
      <trkpt lat="43.98094" lon="5.12456">
        <ele>361.4</ele>
        <time>2013-03-07T13:15:49Z</time>
      </trkpt>
      <trkpt lat="43.98091" lon="5.12459">
        <ele>360.9</ele>
        <time>2013-03-07T13:15:50Z</time>
      </trkpt>
      <trkpt lat="43.98088" lon="5.12461">
        <ele>360.7</ele>
        <time>2013-03-07T13:15:51Z</time>
      </trkpt>
      <trkpt lat="43.98085" lon="5.12463">
        <ele>360.8</ele>
        <time>2013-03-07T13:15:52Z</time>
      </trkpt>
      <trkpt lat="43.98082" lon="5.12464">
        <ele>360.3</ele>
        <time>2013-03-07T13:15:53Z</time>
      </trkpt>
      <trkpt lat="43.98078" lon="5.12465">
        <ele>359.9</ele>
        <time>2013-03-07T13:15:54Z</time>
      </trkpt>
      <trkpt lat="43.98076" lon="5.12466">
        <ele>359.5</ele>
        <time>2013-03-07T13:15:55Z</time>
      </trkpt>
      <trkpt lat="43.98073" lon="5.12467">
        <ele>359.2</ele>
        <time>2013-03-07T13:15:56Z</time>
      </trkpt>
      <trkpt lat="43.98071" lon="5.12468">
        <ele>358.7</ele>
        <time>2013-03-07T13:15:57Z</time>
      </trkpt>
      <trkpt lat="43.98068" lon="5.12469">
        <ele>358.3</ele>
        <time>2013-03-07T13:15:58Z</time>
      </trkpt>
      <trkpt lat="43.98066" lon="5.12471">
        <ele>357.7</ele>
        <time>2013-03-07T13:15:59Z</time>
      </trkpt>
      <trkpt lat="43.98063" lon="5.12473">
        <ele>356.8</ele>
        <time>2013-03-07T13:16:00Z</time>
      </trkpt>
      <trkpt lat="43.98059" lon="5.12476">
        <ele>355.6</ele>
        <time>2013-03-07T13:16:01Z</time>
      </trkpt>
      <trkpt lat="43.98055" lon="5.1248">
        <ele>355.2</ele>
        <time>2013-03-07T13:16:02Z</time>
      </trkpt>
      <trkpt lat="43.98051" lon="5.12483">
        <ele>355.2</ele>
        <time>2013-03-07T13:16:03Z</time>
      </trkpt>
      <trkpt lat="43.98048" lon="5.12485">
        <ele>355.1</ele>
        <time>2013-03-07T13:16:04Z</time>
      </trkpt>
      <trkpt lat="43.98044" lon="5.12486">
        <ele>355.1</ele>
        <time>2013-03-07T13:16:05Z</time>
      </trkpt>
      <trkpt lat="43.98041" lon="5.12488">
        <ele>355.1</ele>
        <time>2013-03-07T13:16:06Z</time>
      </trkpt>
      <trkpt lat="43.98038" lon="5.12489">
        <ele>355</ele>
        <time>2013-03-07T13:16:07Z</time>
      </trkpt>
      <trkpt lat="43.98035" lon="5.1249">
        <ele>355.1</ele>
        <time>2013-03-07T13:16:08Z</time>
      </trkpt>
      <trkpt lat="43.98032" lon="5.12492">
        <ele>355.1</ele>
        <time>2013-03-07T13:16:09Z</time>
      </trkpt>
      <trkpt lat="43.9803" lon="5.12493">
        <ele>355.1</ele>
        <time>2013-03-07T13:16:10Z</time>
      </trkpt>
      <trkpt lat="43.98027" lon="5.12494">
        <ele>355</ele>
        <time>2013-03-07T13:16:11Z</time>
      </trkpt>
      <trkpt lat="43.98024" lon="5.12495">
        <ele>354.9</ele>
        <time>2013-03-07T13:16:12Z</time>
      </trkpt>
      <trkpt lat="43.98021" lon="5.12496">
        <ele>355.1</ele>
        <time>2013-03-07T13:16:13Z</time>
      </trkpt>
      <trkpt lat="43.98018" lon="5.12497">
        <ele>355.3</ele>
        <time>2013-03-07T13:16:14Z</time>
      </trkpt>
      <trkpt lat="43.98015" lon="5.12499">
        <ele>355.7</ele>
        <time>2013-03-07T13:16:15Z</time>
      </trkpt>
      <trkpt lat="43.98012" lon="5.125">
        <ele>355.8</ele>
        <time>2013-03-07T13:16:16Z</time>
      </trkpt>
      <trkpt lat="43.9801" lon="5.12501">
        <ele>356.2</ele>
        <time>2013-03-07T13:16:17Z</time>
      </trkpt>
      <trkpt lat="43.98007" lon="5.12503">
        <ele>355.9</ele>
        <time>2013-03-07T13:16:18Z</time>
      </trkpt>
      <trkpt lat="43.98005" lon="5.12504">
        <ele>356.2</ele>
        <time>2013-03-07T13:16:19Z</time>
      </trkpt>
      <trkpt lat="43.98002" lon="5.12505">
        <ele>356.4</ele>
        <time>2013-03-07T13:16:20Z</time>
      </trkpt>
      <trkpt lat="43.98" lon="5.12506">
        <ele>356.5</ele>
        <time>2013-03-07T13:16:21Z</time>
      </trkpt>
      <trkpt lat="43.97997" lon="5.12507">
        <ele>356.7</ele>
        <time>2013-03-07T13:16:22Z</time>
      </trkpt>
      <trkpt lat="43.97995" lon="5.12508">
        <ele>356.9</ele>
        <time>2013-03-07T13:16:23Z</time>
      </trkpt>
      <trkpt lat="43.97993" lon="5.12509">
        <ele>356.9</ele>
        <time>2013-03-07T13:16:24Z</time>
      </trkpt>
      <trkpt lat="43.9799" lon="5.1251">
        <ele>357</ele>
        <time>2013-03-07T13:16:25Z</time>
      </trkpt>
      <trkpt lat="43.97988" lon="5.1251">
        <ele>357</ele>
        <time>2013-03-07T13:16:26Z</time>
      </trkpt>
      <trkpt lat="43.97985" lon="5.12511">
        <ele>357.1</ele>
        <time>2013-03-07T13:16:27Z</time>
      </trkpt>
      <trkpt lat="43.97983" lon="5.12512">
        <ele>357</ele>
        <time>2013-03-07T13:16:28Z</time>
      </trkpt>
      <trkpt lat="43.9798" lon="5.12513">
        <ele>357.2</ele>
        <time>2013-03-07T13:16:29Z</time>
      </trkpt>
      <trkpt lat="43.97978" lon="5.12516">
        <ele>357.7</ele>
        <time>2013-03-07T13:16:31Z</time>
      </trkpt>
      <trkpt lat="43.97977" lon="5.12518">
        <ele>357.5</ele>
        <time>2013-03-07T13:16:32Z</time>
      </trkpt>
      <trkpt lat="43.97976" lon="5.12521">
        <ele>357.3</ele>
        <time>2013-03-07T13:16:33Z</time>
      </trkpt>
      <trkpt lat="43.97974" lon="5.12523">
        <ele>357</ele>
        <time>2013-03-07T13:16:34Z</time>
      </trkpt>
      <trkpt lat="43.97973" lon="5.12526">
        <ele>356.5</ele>
        <time>2013-03-07T13:16:35Z</time>
      </trkpt>
      <trkpt lat="43.97972" lon="5.12529">
        <ele>355.7</ele>
        <time>2013-03-07T13:16:36Z</time>
      </trkpt>
      <trkpt lat="43.97972" lon="5.12532">
        <ele>355.4</ele>
        <time>2013-03-07T13:16:37Z</time>
      </trkpt>
      <trkpt lat="43.97971" lon="5.12536">
        <ele>354.5</ele>
        <time>2013-03-07T13:16:38Z</time>
      </trkpt>
      <trkpt lat="43.97971" lon="5.1254">
        <ele>353.9</ele>
        <time>2013-03-07T13:16:39Z</time>
      </trkpt>
      <trkpt lat="43.97971" lon="5.12543">
        <ele>353.8</ele>
        <time>2013-03-07T13:16:40Z</time>
      </trkpt>
      <trkpt lat="43.9797" lon="5.12547">
        <ele>353.2</ele>
        <time>2013-03-07T13:16:41Z</time>
      </trkpt>
      <trkpt lat="43.9797" lon="5.12552">
        <ele>352.4</ele>
        <time>2013-03-07T13:16:42Z</time>
      </trkpt>
      <trkpt lat="43.9797" lon="5.12556">
        <ele>352</ele>
        <time>2013-03-07T13:16:43Z</time>
      </trkpt>
      <trkpt lat="43.9797" lon="5.1256">
        <ele>351.3</ele>
        <time>2013-03-07T13:16:44Z</time>
      </trkpt>
      <trkpt lat="43.97969" lon="5.12563">
        <ele>351</ele>
        <time>2013-03-07T13:16:45Z</time>
      </trkpt>
      <trkpt lat="43.97969" lon="5.12566">
        <ele>350.9</ele>
        <time>2013-03-07T13:16:46Z</time>
      </trkpt>
      <trkpt lat="43.97965" lon="5.1257">
        <ele>351</ele>
        <time>2013-03-07T13:16:48Z</time>
      </trkpt>
      <trkpt lat="43.97963" lon="5.12571">
        <ele>351</ele>
        <time>2013-03-07T13:16:49Z</time>
      </trkpt>
      <trkpt lat="43.9796" lon="5.12571">
        <ele>351</ele>
        <time>2013-03-07T13:16:50Z</time>
      </trkpt>
      <trkpt lat="43.97957" lon="5.12571">
        <ele>351.3</ele>
        <time>2013-03-07T13:16:51Z</time>
      </trkpt>
      <trkpt lat="43.97955" lon="5.12571">
        <ele>351.7</ele>
        <time>2013-03-07T13:16:52Z</time>
      </trkpt>
      <trkpt lat="43.97952" lon="5.1257">
        <ele>351.8</ele>
        <time>2013-03-07T13:16:53Z</time>
      </trkpt>
      <trkpt lat="43.9795" lon="5.1257">
        <ele>352.1</ele>
        <time>2013-03-07T13:16:54Z</time>
      </trkpt>
      <trkpt lat="43.97948" lon="5.1257">
        <ele>352.3</ele>
        <time>2013-03-07T13:16:55Z</time>
      </trkpt>
      <trkpt lat="43.97944" lon="5.12571">
        <ele>351.9</ele>
        <time>2013-03-07T13:16:56Z</time>
      </trkpt>
      <trkpt lat="43.97942" lon="5.12571">
        <ele>352.2</ele>
        <time>2013-03-07T13:16:57Z</time>
      </trkpt>
      <trkpt lat="43.97937" lon="5.12572">
        <ele>351.8</ele>
        <time>2013-03-07T13:16:59Z</time>
      </trkpt>
      <trkpt lat="43.97935" lon="5.12574">
        <ele>351.8</ele>
        <time>2013-03-07T13:17:00Z</time>
      </trkpt>
      <trkpt lat="43.97933" lon="5.12576">
        <ele>351.7</ele>
        <time>2013-03-07T13:17:01Z</time>
      </trkpt>
      <trkpt lat="43.9793" lon="5.12578">
        <ele>351.6</ele>
        <time>2013-03-07T13:17:02Z</time>
      </trkpt>
      <trkpt lat="43.97928" lon="5.1258">
        <ele>351.4</ele>
        <time>2013-03-07T13:17:03Z</time>
      </trkpt>
      <trkpt lat="43.97925" lon="5.12581">
        <ele>351.2</ele>
        <time>2013-03-07T13:17:04Z</time>
      </trkpt>
      <trkpt lat="43.97922" lon="5.12582">
        <ele>351.5</ele>
        <time>2013-03-07T13:17:05Z</time>
      </trkpt>
      <trkpt lat="43.97919" lon="5.12583">
        <ele>351.6</ele>
        <time>2013-03-07T13:17:06Z</time>
      </trkpt>
      <trkpt lat="43.97916" lon="5.12583">
        <ele>351.6</ele>
        <time>2013-03-07T13:17:07Z</time>
      </trkpt>
      <trkpt lat="43.97913" lon="5.12583">
        <ele>351.8</ele>
        <time>2013-03-07T13:17:08Z</time>
      </trkpt>
      <trkpt lat="43.9791" lon="5.12583">
        <ele>352</ele>
        <time>2013-03-07T13:17:09Z</time>
      </trkpt>
      <trkpt lat="43.97907" lon="5.12583">
        <ele>352.1</ele>
        <time>2013-03-07T13:17:10Z</time>
      </trkpt>
      <trkpt lat="43.97904" lon="5.12583">
        <ele>352.4</ele>
        <time>2013-03-07T13:17:11Z</time>
      </trkpt>
      <trkpt lat="43.97901" lon="5.12584">
        <ele>352.4</ele>
        <time>2013-03-07T13:17:12Z</time>
      </trkpt>
      <trkpt lat="43.97899" lon="5.12585">
        <ele>352.7</ele>
        <time>2013-03-07T13:17:13Z</time>
      </trkpt>
      <trkpt lat="43.97896" lon="5.12586">
        <ele>352.6</ele>
        <time>2013-03-07T13:17:14Z</time>
      </trkpt>
      <trkpt lat="43.97894" lon="5.12588">
        <ele>352.8</ele>
        <time>2013-03-07T13:17:15Z</time>
      </trkpt>
      <trkpt lat="43.97891" lon="5.12589">
        <ele>352.9</ele>
        <time>2013-03-07T13:17:16Z</time>
      </trkpt>
      <trkpt lat="43.97888" lon="5.12591">
        <ele>352.8</ele>
        <time>2013-03-07T13:17:17Z</time>
      </trkpt>
      <trkpt lat="43.97886" lon="5.12594">
        <ele>352.6</ele>
        <time>2013-03-07T13:17:18Z</time>
      </trkpt>
      <trkpt lat="43.97884" lon="5.12597">
        <ele>352.1</ele>
        <time>2013-03-07T13:17:19Z</time>
      </trkpt>
      <trkpt lat="43.97881" lon="5.126">
        <ele>352.1</ele>
        <time>2013-03-07T13:17:20Z</time>
      </trkpt>
      <trkpt lat="43.97878" lon="5.12602">
        <ele>352</ele>
        <time>2013-03-07T13:17:21Z</time>
      </trkpt>
      <trkpt lat="43.97876" lon="5.12605">
        <ele>352.3</ele>
        <time>2013-03-07T13:17:22Z</time>
      </trkpt>
      <trkpt lat="43.97873" lon="5.12608">
        <ele>352.3</ele>
        <time>2013-03-07T13:17:23Z</time>
      </trkpt>
      <trkpt lat="43.97871" lon="5.1261">
        <ele>352.5</ele>
        <time>2013-03-07T13:17:24Z</time>
      </trkpt>
      <trkpt lat="43.97868" lon="5.12612">
        <ele>352.3</ele>
        <time>2013-03-07T13:17:25Z</time>
      </trkpt>
      <trkpt lat="43.97866" lon="5.12614">
        <ele>352.3</ele>
        <time>2013-03-07T13:17:26Z</time>
      </trkpt>
      <trkpt lat="43.97864" lon="5.12617">
        <ele>352.2</ele>
        <time>2013-03-07T13:17:27Z</time>
      </trkpt>
      <trkpt lat="43.97861" lon="5.1262">
        <ele>351.7</ele>
        <time>2013-03-07T13:17:28Z</time>
      </trkpt>
      <trkpt lat="43.97858" lon="5.12623">
        <ele>351.5</ele>
        <time>2013-03-07T13:17:29Z</time>
      </trkpt>
      <trkpt lat="43.97854" lon="5.12626">
        <ele>351.5</ele>
        <time>2013-03-07T13:17:30Z</time>
      </trkpt>
      <trkpt lat="43.9785" lon="5.12629">
        <ele>351.1</ele>
        <time>2013-03-07T13:17:31Z</time>
      </trkpt>
      <trkpt lat="43.97847" lon="5.12632">
        <ele>351.2</ele>
        <time>2013-03-07T13:17:32Z</time>
      </trkpt>
      <trkpt lat="43.97843" lon="5.12635">
        <ele>351.2</ele>
        <time>2013-03-07T13:17:33Z</time>
      </trkpt>
      <trkpt lat="43.9784" lon="5.12637">
        <ele>350.6</ele>
        <time>2013-03-07T13:17:34Z</time>
      </trkpt>
      <trkpt lat="43.97837" lon="5.12639">
        <ele>350.6</ele>
        <time>2013-03-07T13:17:35Z</time>
      </trkpt>
      <trkpt lat="43.97834" lon="5.12641">
        <ele>350.5</ele>
        <time>2013-03-07T13:17:36Z</time>
      </trkpt>
      <trkpt lat="43.9783" lon="5.12642">
        <ele>350.7</ele>
        <time>2013-03-07T13:17:37Z</time>
      </trkpt>
      <trkpt lat="43.97827" lon="5.12644">
        <ele>350.8</ele>
        <time>2013-03-07T13:17:38Z</time>
      </trkpt>
      <trkpt lat="43.97824" lon="5.12645">
        <ele>350.8</ele>
        <time>2013-03-07T13:17:39Z</time>
      </trkpt>
      <trkpt lat="43.97821" lon="5.12646">
        <ele>350.9</ele>
        <time>2013-03-07T13:17:40Z</time>
      </trkpt>
      <trkpt lat="43.97818" lon="5.12646">
        <ele>351.1</ele>
        <time>2013-03-07T13:17:41Z</time>
      </trkpt>
      <trkpt lat="43.97814" lon="5.12647">
        <ele>350</ele>
        <time>2013-03-07T13:17:42Z</time>
      </trkpt>
      <trkpt lat="43.97811" lon="5.12649">
        <ele>350.3</ele>
        <time>2013-03-07T13:17:43Z</time>
      </trkpt>
      <trkpt lat="43.97808" lon="5.12651">
        <ele>350.3</ele>
        <time>2013-03-07T13:17:44Z</time>
      </trkpt>
      <trkpt lat="43.97805" lon="5.12653">
        <ele>350.3</ele>
        <time>2013-03-07T13:17:45Z</time>
      </trkpt>
      <trkpt lat="43.97801" lon="5.12655">
        <ele>350.5</ele>
        <time>2013-03-07T13:17:46Z</time>
      </trkpt>
      <trkpt lat="43.97798" lon="5.12658">
        <ele>350.4</ele>
        <time>2013-03-07T13:17:47Z</time>
      </trkpt>
      <trkpt lat="43.97794" lon="5.1266">
        <ele>350.3</ele>
        <time>2013-03-07T13:17:48Z</time>
      </trkpt>
      <trkpt lat="43.97791" lon="5.12663">
        <ele>350.1</ele>
        <time>2013-03-07T13:17:49Z</time>
      </trkpt>
      <trkpt lat="43.97787" lon="5.12665">
        <ele>349.9</ele>
        <time>2013-03-07T13:17:50Z</time>
      </trkpt>
      <trkpt lat="43.97784" lon="5.12668">
        <ele>350</ele>
        <time>2013-03-07T13:17:51Z</time>
      </trkpt>
      <trkpt lat="43.97781" lon="5.12669">
        <ele>350</ele>
        <time>2013-03-07T13:17:52Z</time>
      </trkpt>
      <trkpt lat="43.97778" lon="5.12671">
        <ele>350</ele>
        <time>2013-03-07T13:17:53Z</time>
      </trkpt>
      <trkpt lat="43.97775" lon="5.12672">
        <ele>350.4</ele>
        <time>2013-03-07T13:17:54Z</time>
      </trkpt>
      <trkpt lat="43.97773" lon="5.12673">
        <ele>350.4</ele>
        <time>2013-03-07T13:17:55Z</time>
      </trkpt>
      <trkpt lat="43.9777" lon="5.12675">
        <ele>350.8</ele>
        <time>2013-03-07T13:17:56Z</time>
      </trkpt>
      <trkpt lat="43.97768" lon="5.12676">
        <ele>351.4</ele>
        <time>2013-03-07T13:17:57Z</time>
      </trkpt>
      <trkpt lat="43.97765" lon="5.12678">
        <ele>351.6</ele>
        <time>2013-03-07T13:17:58Z</time>
      </trkpt>
      <trkpt lat="43.97763" lon="5.12679">
        <ele>351.8</ele>
        <time>2013-03-07T13:17:59Z</time>
      </trkpt>
      <trkpt lat="43.97761" lon="5.12681">
        <ele>352.5</ele>
        <time>2013-03-07T13:18:00Z</time>
      </trkpt>
      <trkpt lat="43.97759" lon="5.12683">
        <ele>352.3</ele>
        <time>2013-03-07T13:18:01Z</time>
      </trkpt>
      <trkpt lat="43.97756" lon="5.12685">
        <ele>352.3</ele>
        <time>2013-03-07T13:18:02Z</time>
      </trkpt>
      <trkpt lat="43.97754" lon="5.12687">
        <ele>352.2</ele>
        <time>2013-03-07T13:18:03Z</time>
      </trkpt>
      <trkpt lat="43.97752" lon="5.12689">
        <ele>352.4</ele>
        <time>2013-03-07T13:18:04Z</time>
      </trkpt>
      <trkpt lat="43.97749" lon="5.12691">
        <ele>352.5</ele>
        <time>2013-03-07T13:18:05Z</time>
      </trkpt>
      <trkpt lat="43.97747" lon="5.12693">
        <ele>352.5</ele>
        <time>2013-03-07T13:18:06Z</time>
      </trkpt>
      <trkpt lat="43.97745" lon="5.12695">
        <ele>352.3</ele>
        <time>2013-03-07T13:18:07Z</time>
      </trkpt>
      <trkpt lat="43.97743" lon="5.12697">
        <ele>351.8</ele>
        <time>2013-03-07T13:18:08Z</time>
      </trkpt>
      <trkpt lat="43.9774" lon="5.12698">
        <ele>351.3</ele>
        <time>2013-03-07T13:18:09Z</time>
      </trkpt>
      <trkpt lat="43.97737" lon="5.12697">
        <ele>351.6</ele>
        <time>2013-03-07T13:18:10Z</time>
      </trkpt>
      <trkpt lat="43.97733" lon="5.12699">
        <ele>352.7</ele>
        <time>2013-03-07T13:18:12Z</time>
      </trkpt>
      <trkpt lat="43.97732" lon="5.12701">
        <ele>353</ele>
        <time>2013-03-07T13:18:13Z</time>
      </trkpt>
      <trkpt lat="43.97729" lon="5.12703">
        <ele>352.9</ele>
        <time>2013-03-07T13:18:15Z</time>
      </trkpt>
      <trkpt lat="43.97728" lon="5.12704">
        <ele>352.8</ele>
        <time>2013-03-07T13:18:16Z</time>
      </trkpt>
      <trkpt lat="43.97724" lon="5.12706">
        <ele>352.4</ele>
        <time>2013-03-07T13:18:28Z</time>
      </trkpt>
      <trkpt lat="43.97723" lon="5.12705">
        <ele>352.9</ele>
        <time>2013-03-07T13:18:29Z</time>
      </trkpt>
      <trkpt lat="43.97719" lon="5.12709">
        <ele>354.3</ele>
        <time>2013-03-07T13:18:45Z</time>
      </trkpt>
      <trkpt lat="43.97718" lon="5.1271">
        <ele>354.1</ele>
        <time>2013-03-07T13:18:46Z</time>
      </trkpt>
      <trkpt lat="43.97722" lon="5.12707">
        <ele>354.8</ele>
        <time>2013-03-07T13:18:51Z</time>
      </trkpt>
      <trkpt lat="43.97723" lon="5.12706">
        <ele>355.2</ele>
        <time>2013-03-07T13:18:52Z</time>
      </trkpt>
      <trkpt lat="43.97727" lon="5.12705">
        <ele>356.5</ele>
        <time>2013-03-07T13:19:16Z</time>
      </trkpt>
      <trkpt lat="43.97729" lon="5.12704">
        <ele>356.1</ele>
        <time>2013-03-07T13:19:17Z</time>
      </trkpt>
      <trkpt lat="43.97731" lon="5.12706">
        <ele>355.9</ele>
        <time>2013-03-07T13:19:18Z</time>
      </trkpt>
      <trkpt lat="43.97734" lon="5.12705">
        <ele>354.3</ele>
        <time>2013-03-07T13:19:19Z</time>
      </trkpt>
      <trkpt lat="43.97737" lon="5.12705">
        <ele>354.5</ele>
        <time>2013-03-07T13:19:20Z</time>
      </trkpt>
      <trkpt lat="43.9774" lon="5.12704">
        <ele>354.7</ele>
        <time>2013-03-07T13:19:21Z</time>
      </trkpt>
      <trkpt lat="43.97743" lon="5.12703">
        <ele>354.1</ele>
        <time>2013-03-07T13:19:22Z</time>
      </trkpt>
      <trkpt lat="43.97745" lon="5.12703">
        <ele>353.3</ele>
        <time>2013-03-07T13:19:23Z</time>
      </trkpt>
      <trkpt lat="43.9775" lon="5.12701">
        <ele>352.9</ele>
        <time>2013-03-07T13:19:26Z</time>
      </trkpt>
      <trkpt lat="43.97751" lon="5.12701">
        <ele>352.5</ele>
        <time>2013-03-07T13:19:27Z</time>
      </trkpt>
      <trkpt lat="43.97754" lon="5.12704">
        <ele>352.6</ele>
        <time>2013-03-07T13:19:29Z</time>
      </trkpt>
      <trkpt lat="43.97753" lon="5.12706">
        <ele>352.4</ele>
        <time>2013-03-07T13:19:30Z</time>
      </trkpt>
      <trkpt lat="43.97753" lon="5.12708">
        <ele>352</ele>
        <time>2013-03-07T13:19:31Z</time>
      </trkpt>
      <trkpt lat="43.97753" lon="5.12712">
        <ele>351.3</ele>
        <time>2013-03-07T13:19:32Z</time>
      </trkpt>
      <trkpt lat="43.97754" lon="5.12716">
        <ele>351.1</ele>
        <time>2013-03-07T13:19:33Z</time>
      </trkpt>
      <trkpt lat="43.97755" lon="5.12718">
        <ele>350.9</ele>
        <time>2013-03-07T13:19:34Z</time>
      </trkpt>
      <trkpt lat="43.97755" lon="5.12723">
        <ele>350.2</ele>
        <time>2013-03-07T13:19:35Z</time>
      </trkpt>
      <trkpt lat="43.97756" lon="5.12727">
        <ele>350</ele>
        <time>2013-03-07T13:19:36Z</time>
      </trkpt>
      <trkpt lat="43.97757" lon="5.1273">
        <ele>350.1</ele>
        <time>2013-03-07T13:19:37Z</time>
      </trkpt>
      <trkpt lat="43.97762" lon="5.12724">
        <ele>350.2</ele>
        <time>2013-03-07T13:19:38Z</time>
      </trkpt>
      <trkpt lat="43.97766" lon="5.12724">
        <ele>350.8</ele>
        <time>2013-03-07T13:19:40Z</time>
      </trkpt>
      <trkpt lat="43.97768" lon="5.12724">
        <ele>351.2</ele>
        <time>2013-03-07T13:19:41Z</time>
      </trkpt>
      <trkpt lat="43.97772" lon="5.12725">
        <ele>349.8</ele>
        <time>2013-03-07T13:19:43Z</time>
      </trkpt>
      <trkpt lat="43.97775" lon="5.12725">
        <ele>350.3</ele>
        <time>2013-03-07T13:19:44Z</time>
      </trkpt>
      <trkpt lat="43.97779" lon="5.12725">
        <ele>350.5</ele>
        <time>2013-03-07T13:19:46Z</time>
      </trkpt>
      <trkpt lat="43.9778" lon="5.12725">
        <ele>352.4</ele>
        <time>2013-03-07T13:19:47Z</time>
      </trkpt>
      <trkpt lat="43.97782" lon="5.12725">
        <ele>351.9</ele>
        <time>2013-03-07T13:19:48Z</time>
      </trkpt>
      <trkpt lat="43.97785" lon="5.12725">
        <ele>351.4</ele>
        <time>2013-03-07T13:19:49Z</time>
      </trkpt>
      <trkpt lat="43.97787" lon="5.12725">
        <ele>351.8</ele>
        <time>2013-03-07T13:19:50Z</time>
      </trkpt>
      <trkpt lat="43.97789" lon="5.12726">
        <ele>351.9</ele>
        <time>2013-03-07T13:19:51Z</time>
      </trkpt>
      <trkpt lat="43.97792" lon="5.12726">
        <ele>351.9</ele>
        <time>2013-03-07T13:19:52Z</time>
      </trkpt>
      <trkpt lat="43.97795" lon="5.12726">
        <ele>352.1</ele>
        <time>2013-03-07T13:19:53Z</time>
      </trkpt>
      <trkpt lat="43.97798" lon="5.12727">
        <ele>352.3</ele>
        <time>2013-03-07T13:19:54Z</time>
      </trkpt>
      <trkpt lat="43.97801" lon="5.12727">
        <ele>352.1</ele>
        <time>2013-03-07T13:19:55Z</time>
      </trkpt>
      <trkpt lat="43.97804" lon="5.12726">
        <ele>352.1</ele>
        <time>2013-03-07T13:19:56Z</time>
      </trkpt>
      <trkpt lat="43.97807" lon="5.12726">
        <ele>352</ele>
        <time>2013-03-07T13:19:57Z</time>
      </trkpt>
      <trkpt lat="43.9781" lon="5.12726">
        <ele>352.4</ele>
        <time>2013-03-07T13:19:58Z</time>
      </trkpt>
      <trkpt lat="43.97813" lon="5.12726">
        <ele>353.3</ele>
        <time>2013-03-07T13:19:59Z</time>
      </trkpt>
      <trkpt lat="43.97816" lon="5.12725">
        <ele>353.4</ele>
        <time>2013-03-07T13:20:00Z</time>
      </trkpt>
      <trkpt lat="43.97819" lon="5.12725">
        <ele>353.3</ele>
        <time>2013-03-07T13:20:01Z</time>
      </trkpt>
      <trkpt lat="43.97823" lon="5.12726">
        <ele>353.1</ele>
        <time>2013-03-07T13:20:02Z</time>
      </trkpt>
      <trkpt lat="43.97826" lon="5.12726">
        <ele>352.8</ele>
        <time>2013-03-07T13:20:03Z</time>
      </trkpt>
      <trkpt lat="43.97829" lon="5.12727">
        <ele>353.1</ele>
        <time>2013-03-07T13:20:04Z</time>
      </trkpt>
      <trkpt lat="43.97831" lon="5.12727">
        <ele>353.1</ele>
        <time>2013-03-07T13:20:05Z</time>
      </trkpt>
      <trkpt lat="43.97834" lon="5.12727">
        <ele>353.7</ele>
        <time>2013-03-07T13:20:06Z</time>
      </trkpt>
      <trkpt lat="43.97837" lon="5.12726">
        <ele>353.7</ele>
        <time>2013-03-07T13:20:07Z</time>
      </trkpt>
      <trkpt lat="43.97841" lon="5.12727">
        <ele>353.3</ele>
        <time>2013-03-07T13:20:08Z</time>
      </trkpt>
      <trkpt lat="43.97845" lon="5.12726">
        <ele>353.6</ele>
        <time>2013-03-07T13:20:09Z</time>
      </trkpt>
      <trkpt lat="43.97849" lon="5.12727">
        <ele>353.1</ele>
        <time>2013-03-07T13:20:10Z</time>
      </trkpt>
      <trkpt lat="43.97853" lon="5.12726">
        <ele>352.8</ele>
        <time>2013-03-07T13:20:11Z</time>
      </trkpt>
      <trkpt lat="43.97857" lon="5.12726">
        <ele>352.3</ele>
        <time>2013-03-07T13:20:12Z</time>
      </trkpt>
      <trkpt lat="43.97861" lon="5.12727">
        <ele>352</ele>
        <time>2013-03-07T13:20:13Z</time>
      </trkpt>
      <trkpt lat="43.97864" lon="5.12726">
        <ele>352.2</ele>
        <time>2013-03-07T13:20:14Z</time>
      </trkpt>
      <trkpt lat="43.97867" lon="5.12726">
        <ele>352.4</ele>
        <time>2013-03-07T13:20:15Z</time>
      </trkpt>
      <trkpt lat="43.9787" lon="5.12726">
        <ele>352.6</ele>
        <time>2013-03-07T13:20:16Z</time>
      </trkpt>
      <trkpt lat="43.97874" lon="5.12726">
        <ele>352.7</ele>
        <time>2013-03-07T13:20:17Z</time>
      </trkpt>
      <trkpt lat="43.97877" lon="5.12726">
        <ele>353</ele>
        <time>2013-03-07T13:20:18Z</time>
      </trkpt>
      <trkpt lat="43.9788" lon="5.12726">
        <ele>352.9</ele>
        <time>2013-03-07T13:20:19Z</time>
      </trkpt>
      <trkpt lat="43.97883" lon="5.12726">
        <ele>352.8</ele>
        <time>2013-03-07T13:20:20Z</time>
      </trkpt>
      <trkpt lat="43.97887" lon="5.12726">
        <ele>352.4</ele>
        <time>2013-03-07T13:20:21Z</time>
      </trkpt>
      <trkpt lat="43.9789" lon="5.12725">
        <ele>352</ele>
        <time>2013-03-07T13:20:22Z</time>
      </trkpt>
      <trkpt lat="43.97894" lon="5.12726">
        <ele>352.2</ele>
        <time>2013-03-07T13:20:23Z</time>
      </trkpt>
      <trkpt lat="43.97897" lon="5.12726">
        <ele>352.2</ele>
        <time>2013-03-07T13:20:24Z</time>
      </trkpt>
      <trkpt lat="43.97899" lon="5.12727">
        <ele>352.5</ele>
        <time>2013-03-07T13:20:25Z</time>
      </trkpt>
      <trkpt lat="43.97902" lon="5.12726">
        <ele>352.5</ele>
        <time>2013-03-07T13:20:26Z</time>
      </trkpt>
      <trkpt lat="43.97905" lon="5.12727">
        <ele>352.1</ele>
        <time>2013-03-07T13:20:27Z</time>
      </trkpt>
      <trkpt lat="43.97909" lon="5.12727">
        <ele>351.7</ele>
        <time>2013-03-07T13:20:28Z</time>
      </trkpt>
      <trkpt lat="43.97912" lon="5.12728">
        <ele>351</ele>
        <time>2013-03-07T13:20:29Z</time>
      </trkpt>
      <trkpt lat="43.97914" lon="5.12729">
        <ele>352.3</ele>
        <time>2013-03-07T13:20:30Z</time>
      </trkpt>
      <trkpt lat="43.97918" lon="5.1273">
        <ele>351.7</ele>
        <time>2013-03-07T13:20:31Z</time>
      </trkpt>
      <trkpt lat="43.97921" lon="5.12729">
        <ele>351.4</ele>
        <time>2013-03-07T13:20:32Z</time>
      </trkpt>
      <trkpt lat="43.97925" lon="5.1273">
        <ele>351</ele>
        <time>2013-03-07T13:20:33Z</time>
      </trkpt>
      <trkpt lat="43.97927" lon="5.1273">
        <ele>351.1</ele>
        <time>2013-03-07T13:20:34Z</time>
      </trkpt>
      <trkpt lat="43.9793" lon="5.1273">
        <ele>351</ele>
        <time>2013-03-07T13:20:35Z</time>
      </trkpt>
      <trkpt lat="43.97932" lon="5.12731">
        <ele>350.5</ele>
        <time>2013-03-07T13:20:36Z</time>
      </trkpt>
      <trkpt lat="43.97934" lon="5.12733">
        <ele>350.3</ele>
        <time>2013-03-07T13:20:37Z</time>
      </trkpt>
      <trkpt lat="43.97937" lon="5.12735">
        <ele>349.3</ele>
        <time>2013-03-07T13:20:39Z</time>
      </trkpt>
      <trkpt lat="43.97938" lon="5.12736">
        <ele>349.4</ele>
        <time>2013-03-07T13:20:40Z</time>
      </trkpt>
      <trkpt lat="43.9794" lon="5.1274">
        <ele>349.2</ele>
        <time>2013-03-07T13:20:42Z</time>
      </trkpt>
      <trkpt lat="43.97941" lon="5.12742">
        <ele>348.8</ele>
        <time>2013-03-07T13:20:43Z</time>
      </trkpt>
      <trkpt lat="43.97941" lon="5.12746">
        <ele>348.6</ele>
        <time>2013-03-07T13:20:45Z</time>
      </trkpt>
      <trkpt lat="43.97939" lon="5.12753">
        <ele>347.5</ele>
        <time>2013-03-07T13:20:46Z</time>
      </trkpt>
      <trkpt lat="43.97939" lon="5.12757">
        <ele>347.4</ele>
        <time>2013-03-07T13:20:47Z</time>
      </trkpt>
      <trkpt lat="43.97938" lon="5.12761">
        <ele>347.4</ele>
        <time>2013-03-07T13:20:48Z</time>
      </trkpt>
      <trkpt lat="43.97937" lon="5.12764">
        <ele>347.2</ele>
        <time>2013-03-07T13:20:49Z</time>
      </trkpt>
      <trkpt lat="43.97937" lon="5.12767">
        <ele>346.8</ele>
        <time>2013-03-07T13:20:50Z</time>
      </trkpt>
      <trkpt lat="43.97936" lon="5.1277">
        <ele>347.4</ele>
        <time>2013-03-07T13:20:51Z</time>
      </trkpt>
      <trkpt lat="43.97934" lon="5.12774">
        <ele>347.6</ele>
        <time>2013-03-07T13:20:52Z</time>
      </trkpt>
      <trkpt lat="43.97934" lon="5.12777">
        <ele>347.5</ele>
        <time>2013-03-07T13:20:53Z</time>
      </trkpt>
      <trkpt lat="43.97932" lon="5.12781">
        <ele>347.5</ele>
        <time>2013-03-07T13:20:54Z</time>
      </trkpt>
      <trkpt lat="43.97932" lon="5.12785">
        <ele>347.2</ele>
        <time>2013-03-07T13:20:55Z</time>
      </trkpt>
      <trkpt lat="43.97931" lon="5.12788">
        <ele>347.1</ele>
        <time>2013-03-07T13:20:56Z</time>
      </trkpt>
      <trkpt lat="43.9793" lon="5.12792">
        <ele>346.9</ele>
        <time>2013-03-07T13:20:57Z</time>
      </trkpt>
      <trkpt lat="43.97929" lon="5.12795">
        <ele>347</ele>
        <time>2013-03-07T13:20:58Z</time>
      </trkpt>
      <trkpt lat="43.97928" lon="5.12799">
        <ele>346.4</ele>
        <time>2013-03-07T13:20:59Z</time>
      </trkpt>
      <trkpt lat="43.97927" lon="5.12803">
        <ele>346.1</ele>
        <time>2013-03-07T13:21:00Z</time>
      </trkpt>
      <trkpt lat="43.97926" lon="5.12807">
        <ele>346</ele>
        <time>2013-03-07T13:21:01Z</time>
      </trkpt>
      <trkpt lat="43.97925" lon="5.12811">
        <ele>346.1</ele>
        <time>2013-03-07T13:21:02Z</time>
      </trkpt>
      <trkpt lat="43.97924" lon="5.12814">
        <ele>345.7</ele>
        <time>2013-03-07T13:21:03Z</time>
      </trkpt>
      <trkpt lat="43.97923" lon="5.12818">
        <ele>345.7</ele>
        <time>2013-03-07T13:21:04Z</time>
      </trkpt>
      <trkpt lat="43.97923" lon="5.12822">
        <ele>345.7</ele>
        <time>2013-03-07T13:21:05Z</time>
      </trkpt>
      <trkpt lat="43.97921" lon="5.12825">
        <ele>345.7</ele>
        <time>2013-03-07T13:21:06Z</time>
      </trkpt>
      <trkpt lat="43.9792" lon="5.12829">
        <ele>345.7</ele>
        <time>2013-03-07T13:21:07Z</time>
      </trkpt>
      <trkpt lat="43.97919" lon="5.12833">
        <ele>345.1</ele>
        <time>2013-03-07T13:21:08Z</time>
      </trkpt>
      <trkpt lat="43.97918" lon="5.12837">
        <ele>344.9</ele>
        <time>2013-03-07T13:21:09Z</time>
      </trkpt>
      <trkpt lat="43.97917" lon="5.12841">
        <ele>344.8</ele>
        <time>2013-03-07T13:21:10Z</time>
      </trkpt>
      <trkpt lat="43.97916" lon="5.12846">
        <ele>344.4</ele>
        <time>2013-03-07T13:21:11Z</time>
      </trkpt>
      <trkpt lat="43.97915" lon="5.12851">
        <ele>344.1</ele>
        <time>2013-03-07T13:21:12Z</time>
      </trkpt>
      <trkpt lat="43.97914" lon="5.12856">
        <ele>343.4</ele>
        <time>2013-03-07T13:21:13Z</time>
      </trkpt>
      <trkpt lat="43.97913" lon="5.12861">
        <ele>343.1</ele>
        <time>2013-03-07T13:21:14Z</time>
      </trkpt>
      <trkpt lat="43.97912" lon="5.12867">
        <ele>342.6</ele>
        <time>2013-03-07T13:21:15Z</time>
      </trkpt>
      <trkpt lat="43.9791" lon="5.12872">
        <ele>342.1</ele>
        <time>2013-03-07T13:21:16Z</time>
      </trkpt>
      <trkpt lat="43.97909" lon="5.12877">
        <ele>341.8</ele>
        <time>2013-03-07T13:21:17Z</time>
      </trkpt>
      <trkpt lat="43.97907" lon="5.12882">
        <ele>340.5</ele>
        <time>2013-03-07T13:21:18Z</time>
      </trkpt>
      <trkpt lat="43.97906" lon="5.12887">
        <ele>340.8</ele>
        <time>2013-03-07T13:21:19Z</time>
      </trkpt>
      <trkpt lat="43.97905" lon="5.12893">
        <ele>340</ele>
        <time>2013-03-07T13:21:20Z</time>
      </trkpt>
      <trkpt lat="43.97904" lon="5.12897">
        <ele>340.4</ele>
        <time>2013-03-07T13:21:21Z</time>
      </trkpt>
      <trkpt lat="43.97903" lon="5.12901">
        <ele>340.9</ele>
        <time>2013-03-07T13:21:22Z</time>
      </trkpt>
      <trkpt lat="43.979" lon="5.12898">
        <ele>343.5</ele>
        <time>2013-03-07T13:21:24Z</time>
      </trkpt>
      <trkpt lat="43.97903" lon="5.12914">
        <ele>343.4</ele>
        <time>2013-03-07T13:21:25Z</time>
      </trkpt>
      <trkpt lat="43.97904" lon="5.12919">
        <ele>344.9</ele>
        <time>2013-03-07T13:21:26Z</time>
      </trkpt>
      <trkpt lat="43.97905" lon="5.12925">
        <ele>345</ele>
        <time>2013-03-07T13:21:27Z</time>
      </trkpt>
      <trkpt lat="43.97905" lon="5.12932">
        <ele>344.3</ele>
        <time>2013-03-07T13:21:28Z</time>
      </trkpt>
      <trkpt lat="43.97904" lon="5.12935">
        <ele>347.8</ele>
        <time>2013-03-07T13:21:29Z</time>
      </trkpt>
      <trkpt lat="43.97905" lon="5.12941">
        <ele>347.7</ele>
        <time>2013-03-07T13:21:30Z</time>
      </trkpt>
      <trkpt lat="43.97905" lon="5.12946">
        <ele>348.1</ele>
        <time>2013-03-07T13:21:31Z</time>
      </trkpt>
      <trkpt lat="43.97904" lon="5.12951">
        <ele>348.3</ele>
        <time>2013-03-07T13:21:32Z</time>
      </trkpt>
      <trkpt lat="43.97904" lon="5.12962">
        <ele>345</ele>
        <time>2013-03-07T13:21:33Z</time>
      </trkpt>
      <trkpt lat="43.97904" lon="5.12969">
        <ele>344.3</ele>
        <time>2013-03-07T13:21:34Z</time>
      </trkpt>
      <trkpt lat="43.97904" lon="5.12973">
        <ele>346.2</ele>
        <time>2013-03-07T13:21:35Z</time>
      </trkpt>
      <trkpt lat="43.97903" lon="5.12977">
        <ele>349.1</ele>
        <time>2013-03-07T13:21:36Z</time>
      </trkpt>
      <trkpt lat="43.97902" lon="5.12982">
        <ele>350.4</ele>
        <time>2013-03-07T13:21:37Z</time>
      </trkpt>
      <trkpt lat="43.97903" lon="5.12984">
        <ele>350.2</ele>
        <time>2013-03-07T13:21:38Z</time>
      </trkpt>
      <trkpt lat="43.97903" lon="5.12991">
        <ele>349.3</ele>
        <time>2013-03-07T13:21:39Z</time>
      </trkpt>
      <trkpt lat="43.97901" lon="5.12997">
        <ele>348.8</ele>
        <time>2013-03-07T13:21:40Z</time>
      </trkpt>
      <trkpt lat="43.97901" lon="5.13001">
        <ele>347.6</ele>
        <time>2013-03-07T13:21:41Z</time>
      </trkpt>
      <trkpt lat="43.97901" lon="5.13011">
        <ele>346.9</ele>
        <time>2013-03-07T13:21:42Z</time>
      </trkpt>
      <trkpt lat="43.979" lon="5.13017">
        <ele>344.9</ele>
        <time>2013-03-07T13:21:43Z</time>
      </trkpt>
      <trkpt lat="43.97897" lon="5.1302">
        <ele>344.2</ele>
        <time>2013-03-07T13:21:44Z</time>
      </trkpt>
      <trkpt lat="43.97893" lon="5.13031">
        <ele>343.8</ele>
        <time>2013-03-07T13:21:45Z</time>
      </trkpt>
      <trkpt lat="43.9789" lon="5.13036">
        <ele>343.7</ele>
        <time>2013-03-07T13:21:46Z</time>
      </trkpt>
      <trkpt lat="43.97894" lon="5.13035">
        <ele>343.9</ele>
        <time>2013-03-07T13:21:47Z</time>
      </trkpt>
      <trkpt lat="43.97883" lon="5.13027">
        <ele>344.1</ele>
        <time>2013-03-07T13:21:48Z</time>
      </trkpt>
      <trkpt lat="43.97879" lon="5.13028">
        <ele>344.9</ele>
        <time>2013-03-07T13:21:49Z</time>
      </trkpt>
      <trkpt lat="43.97877" lon="5.1303">
        <ele>345.4</ele>
        <time>2013-03-07T13:21:50Z</time>
      </trkpt>
      <trkpt lat="43.97878" lon="5.13033">
        <ele>349.8</ele>
        <time>2013-03-07T13:21:51Z</time>
      </trkpt>
      <trkpt lat="43.97875" lon="5.13041">
        <ele>349.6</ele>
        <time>2013-03-07T13:21:52Z</time>
      </trkpt>
      <trkpt lat="43.97873" lon="5.13044">
        <ele>349.6</ele>
        <time>2013-03-07T13:21:53Z</time>
      </trkpt>
      <trkpt lat="43.97872" lon="5.13046">
        <ele>350.1</ele>
        <time>2013-03-07T13:21:54Z</time>
      </trkpt>
      <trkpt lat="43.97871" lon="5.13049">
        <ele>351.3</ele>
        <time>2013-03-07T13:21:55Z</time>
      </trkpt>
      <trkpt lat="43.97871" lon="5.13053">
        <ele>349.7</ele>
        <time>2013-03-07T13:21:56Z</time>
      </trkpt>
      <trkpt lat="43.97868" lon="5.13046">
        <ele>351.4</ele>
        <time>2013-03-07T13:21:57Z</time>
      </trkpt>
      <trkpt lat="43.97864" lon="5.13043">
        <ele>355.7</ele>
        <time>2013-03-07T13:21:58Z</time>
      </trkpt>
      <trkpt lat="43.97865" lon="5.13032">
        <ele>359.1</ele>
        <time>2013-03-07T13:21:59Z</time>
      </trkpt>
      <trkpt lat="43.97867" lon="5.13037">
        <ele>360.2</ele>
        <time>2013-03-07T13:22:00Z</time>
      </trkpt>
      <trkpt lat="43.97863" lon="5.13074">
        <ele>354.2</ele>
        <time>2013-03-07T13:22:01Z</time>
      </trkpt>
      <trkpt lat="43.97862" lon="5.13079">
        <ele>355.1</ele>
        <time>2013-03-07T13:22:02Z</time>
      </trkpt>
      <trkpt lat="43.9786" lon="5.13085">
        <ele>354.7</ele>
        <time>2013-03-07T13:22:03Z</time>
      </trkpt>
      <trkpt lat="43.97859" lon="5.13092">
        <ele>354.1</ele>
        <time>2013-03-07T13:22:04Z</time>
      </trkpt>
      <trkpt lat="43.97858" lon="5.13099">
        <ele>353.6</ele>
        <time>2013-03-07T13:22:05Z</time>
      </trkpt>
      <trkpt lat="43.97857" lon="5.13108">
        <ele>353.2</ele>
        <time>2013-03-07T13:22:06Z</time>
      </trkpt>
      <trkpt lat="43.97856" lon="5.13119">
        <ele>352.7</ele>
        <time>2013-03-07T13:22:07Z</time>
      </trkpt>
      <trkpt lat="43.97854" lon="5.13133">
        <ele>352.3</ele>
        <time>2013-03-07T13:22:08Z</time>
      </trkpt>
      <trkpt lat="43.97845" lon="5.13107">
        <ele>354.7</ele>
        <time>2013-03-07T13:22:09Z</time>
      </trkpt>
      <trkpt lat="43.97844" lon="5.13109">
        <ele>353.4</ele>
        <time>2013-03-07T13:22:10Z</time>
      </trkpt>
      <trkpt lat="43.97842" lon="5.13111">
        <ele>352.1</ele>
        <time>2013-03-07T13:22:11Z</time>
      </trkpt>
      <trkpt lat="43.9784" lon="5.13116">
        <ele>349.8</ele>
        <time>2013-03-07T13:22:12Z</time>
      </trkpt>
      <trkpt lat="43.9784" lon="5.13121">
        <ele>348.8</ele>
        <time>2013-03-07T13:22:13Z</time>
      </trkpt>
      <trkpt lat="43.97839" lon="5.13126">
        <ele>347.9</ele>
        <time>2013-03-07T13:22:14Z</time>
      </trkpt>
      <trkpt lat="43.97837" lon="5.13129">
        <ele>347</ele>
        <time>2013-03-07T13:22:15Z</time>
      </trkpt>
      <trkpt lat="43.97835" lon="5.13131">
        <ele>345.7</ele>
        <time>2013-03-07T13:22:16Z</time>
      </trkpt>
      <trkpt lat="43.97831" lon="5.13134">
        <ele>345.3</ele>
        <time>2013-03-07T13:22:17Z</time>
      </trkpt>
      <trkpt lat="43.97824" lon="5.13136">
        <ele>343.3</ele>
        <time>2013-03-07T13:22:18Z</time>
      </trkpt>
      <trkpt lat="43.9782" lon="5.13138">
        <ele>342.6</ele>
        <time>2013-03-07T13:22:19Z</time>
      </trkpt>
      <trkpt lat="43.97818" lon="5.13139">
        <ele>344.1</ele>
        <time>2013-03-07T13:22:20Z</time>
      </trkpt>
      <trkpt lat="43.97815" lon="5.13141">
        <ele>344.4</ele>
        <time>2013-03-07T13:22:21Z</time>
      </trkpt>
      <trkpt lat="43.97813" lon="5.13143">
        <ele>344</ele>
        <time>2013-03-07T13:22:22Z</time>
      </trkpt>
      <trkpt lat="43.97811" lon="5.13144">
        <ele>344.8</ele>
        <time>2013-03-07T13:22:23Z</time>
      </trkpt>
      <trkpt lat="43.97808" lon="5.13145">
        <ele>345.1</ele>
        <time>2013-03-07T13:22:24Z</time>
      </trkpt>
      <trkpt lat="43.97804" lon="5.13148">
        <ele>345.6</ele>
        <time>2013-03-07T13:22:26Z</time>
      </trkpt>
      <trkpt lat="43.97802" lon="5.13152">
        <ele>343.9</ele>
        <time>2013-03-07T13:22:27Z</time>
      </trkpt>
      <trkpt lat="43.978" lon="5.13154">
        <ele>343.5</ele>
        <time>2013-03-07T13:22:28Z</time>
      </trkpt>
      <trkpt lat="43.97797" lon="5.13157">
        <ele>343.3</ele>
        <time>2013-03-07T13:22:29Z</time>
      </trkpt>
      <trkpt lat="43.97795" lon="5.1316">
        <ele>343</ele>
        <time>2013-03-07T13:22:30Z</time>
      </trkpt>
      <trkpt lat="43.97792" lon="5.13164">
        <ele>342.6</ele>
        <time>2013-03-07T13:22:31Z</time>
      </trkpt>
      <trkpt lat="43.9779" lon="5.13168">
        <ele>340.8</ele>
        <time>2013-03-07T13:22:32Z</time>
      </trkpt>
      <trkpt lat="43.9779" lon="5.13171">
        <ele>341</ele>
        <time>2013-03-07T13:22:33Z</time>
      </trkpt>
      <trkpt lat="43.97787" lon="5.13174">
        <ele>343.4</ele>
        <time>2013-03-07T13:22:35Z</time>
      </trkpt>
      <trkpt lat="43.97785" lon="5.13175">
        <ele>343.2</ele>
        <time>2013-03-07T13:22:36Z</time>
      </trkpt>
      <trkpt lat="43.97782" lon="5.13177">
        <ele>343.4</ele>
        <time>2013-03-07T13:22:38Z</time>
      </trkpt>
      <trkpt lat="43.97781" lon="5.13178">
        <ele>343.2</ele>
        <time>2013-03-07T13:22:39Z</time>
      </trkpt>
      <trkpt lat="43.97779" lon="5.13178">
        <ele>343.5</ele>
        <time>2013-03-07T13:22:40Z</time>
      </trkpt>
      <trkpt lat="43.97776" lon="5.1318">
        <ele>344.2</ele>
        <time>2013-03-07T13:22:41Z</time>
      </trkpt>
      <trkpt lat="43.97774" lon="5.13181">
        <ele>343.6</ele>
        <time>2013-03-07T13:22:42Z</time>
      </trkpt>
      <trkpt lat="43.97772" lon="5.13182">
        <ele>343.6</ele>
        <time>2013-03-07T13:22:43Z</time>
      </trkpt>
      <trkpt lat="43.97768" lon="5.13183">
        <ele>344.5</ele>
        <time>2013-03-07T13:22:45Z</time>
      </trkpt>
      <trkpt lat="43.97767" lon="5.13184">
        <ele>344.9</ele>
        <time>2013-03-07T13:22:46Z</time>
      </trkpt>
      <trkpt lat="43.97763" lon="5.13185">
        <ele>343.8</ele>
        <time>2013-03-07T13:22:47Z</time>
      </trkpt>
      <trkpt lat="43.97757" lon="5.13187">
        <ele>342.1</ele>
        <time>2013-03-07T13:22:48Z</time>
      </trkpt>
      <trkpt lat="43.97752" lon="5.13187">
        <ele>341.1</ele>
        <time>2013-03-07T13:22:49Z</time>
      </trkpt>
      <trkpt lat="43.97748" lon="5.13188">
        <ele>340.6</ele>
        <time>2013-03-07T13:22:50Z</time>
      </trkpt>
      <trkpt lat="43.97745" lon="5.13188">
        <ele>340.7</ele>
        <time>2013-03-07T13:22:51Z</time>
      </trkpt>
      <trkpt lat="43.97742" lon="5.13188">
        <ele>341.5</ele>
        <time>2013-03-07T13:22:52Z</time>
      </trkpt>
      <trkpt lat="43.97739" lon="5.1319">
        <ele>340.5</ele>
        <time>2013-03-07T13:22:53Z</time>
      </trkpt>
      <trkpt lat="43.97735" lon="5.1319">
        <ele>340.3</ele>
        <time>2013-03-07T13:22:54Z</time>
      </trkpt>
      <trkpt lat="43.97732" lon="5.13191">
        <ele>339.5</ele>
        <time>2013-03-07T13:22:55Z</time>
      </trkpt>
      <trkpt lat="43.97728" lon="5.13192">
        <ele>339.3</ele>
        <time>2013-03-07T13:22:56Z</time>
      </trkpt>
      <trkpt lat="43.97724" lon="5.13193">
        <ele>337.6</ele>
        <time>2013-03-07T13:22:57Z</time>
      </trkpt>
      <trkpt lat="43.97721" lon="5.13194">
        <ele>337.5</ele>
        <time>2013-03-07T13:22:58Z</time>
      </trkpt>
      <trkpt lat="43.97717" lon="5.13194">
        <ele>337.6</ele>
        <time>2013-03-07T13:22:59Z</time>
      </trkpt>
      <trkpt lat="43.97714" lon="5.13195">
        <ele>337.8</ele>
        <time>2013-03-07T13:23:00Z</time>
      </trkpt>
      <trkpt lat="43.97711" lon="5.13196">
        <ele>337.2</ele>
        <time>2013-03-07T13:23:01Z</time>
      </trkpt>
      <trkpt lat="43.97707" lon="5.13196">
        <ele>336.6</ele>
        <time>2013-03-07T13:23:02Z</time>
      </trkpt>
      <trkpt lat="43.97704" lon="5.13196">
        <ele>336.2</ele>
        <time>2013-03-07T13:23:03Z</time>
      </trkpt>
      <trkpt lat="43.977" lon="5.13196">
        <ele>336.3</ele>
        <time>2013-03-07T13:23:04Z</time>
      </trkpt>
      <trkpt lat="43.97697" lon="5.13197">
        <ele>335.9</ele>
        <time>2013-03-07T13:23:05Z</time>
      </trkpt>
      <trkpt lat="43.97693" lon="5.13197">
        <ele>335.6</ele>
        <time>2013-03-07T13:23:06Z</time>
      </trkpt>
      <trkpt lat="43.9769" lon="5.13198">
        <ele>335.3</ele>
        <time>2013-03-07T13:23:07Z</time>
      </trkpt>
      <trkpt lat="43.97686" lon="5.13198">
        <ele>335.3</ele>
        <time>2013-03-07T13:23:08Z</time>
      </trkpt>
      <trkpt lat="43.97684" lon="5.13199">
        <ele>335.2</ele>
        <time>2013-03-07T13:23:09Z</time>
      </trkpt>
      <trkpt lat="43.9768" lon="5.132">
        <ele>335.2</ele>
        <time>2013-03-07T13:23:10Z</time>
      </trkpt>
      <trkpt lat="43.97677" lon="5.132">
        <ele>335.3</ele>
        <time>2013-03-07T13:23:11Z</time>
      </trkpt>
      <trkpt lat="43.97675" lon="5.13201">
        <ele>335.3</ele>
        <time>2013-03-07T13:23:12Z</time>
      </trkpt>
      <trkpt lat="43.97672" lon="5.13201">
        <ele>334.8</ele>
        <time>2013-03-07T13:23:13Z</time>
      </trkpt>
      <trkpt lat="43.97668" lon="5.13202">
        <ele>336.4</ele>
        <time>2013-03-07T13:23:14Z</time>
      </trkpt>
      <trkpt lat="43.97666" lon="5.13203">
        <ele>337.2</ele>
        <time>2013-03-07T13:23:15Z</time>
      </trkpt>
      <trkpt lat="43.97663" lon="5.13203">
        <ele>337.7</ele>
        <time>2013-03-07T13:23:16Z</time>
      </trkpt>
      <trkpt lat="43.9766" lon="5.13204">
        <ele>338</ele>
        <time>2013-03-07T13:23:17Z</time>
      </trkpt>
      <trkpt lat="43.97656" lon="5.13205">
        <ele>337.1</ele>
        <time>2013-03-07T13:23:19Z</time>
      </trkpt>
      <trkpt lat="43.97655" lon="5.13204">
        <ele>337.1</ele>
        <time>2013-03-07T13:23:20Z</time>
      </trkpt>
      <trkpt lat="43.97653" lon="5.13205">
        <ele>337.6</ele>
        <time>2013-03-07T13:23:21Z</time>
      </trkpt>
      <trkpt lat="43.97651" lon="5.13209">
        <ele>336.8</ele>
        <time>2013-03-07T13:23:22Z</time>
      </trkpt>
      <trkpt lat="43.97648" lon="5.13212">
        <ele>336.3</ele>
        <time>2013-03-07T13:23:24Z</time>
      </trkpt>
      <trkpt lat="43.97646" lon="5.13214">
        <ele>336.2</ele>
        <time>2013-03-07T13:23:25Z</time>
      </trkpt>
      <trkpt lat="43.97645" lon="5.13217">
        <ele>336.1</ele>
        <time>2013-03-07T13:23:26Z</time>
      </trkpt>
      <trkpt lat="43.97642" lon="5.13223">
        <ele>336.3</ele>
        <time>2013-03-07T13:23:27Z</time>
      </trkpt>
      <trkpt lat="43.9764" lon="5.13227">
        <ele>336</ele>
        <time>2013-03-07T13:23:28Z</time>
      </trkpt>
      <trkpt lat="43.97639" lon="5.13231">
        <ele>336.9</ele>
        <time>2013-03-07T13:23:29Z</time>
      </trkpt>
      <trkpt lat="43.97639" lon="5.13236">
        <ele>336.7</ele>
        <time>2013-03-07T13:23:30Z</time>
      </trkpt>
      <trkpt lat="43.97639" lon="5.13241">
        <ele>336.4</ele>
        <time>2013-03-07T13:23:31Z</time>
      </trkpt>
      <trkpt lat="43.9764" lon="5.13245">
        <ele>336.7</ele>
        <time>2013-03-07T13:23:32Z</time>
      </trkpt>
      <trkpt lat="43.97641" lon="5.13249">
        <ele>337</ele>
        <time>2013-03-07T13:23:33Z</time>
      </trkpt>
      <trkpt lat="43.97642" lon="5.13254">
        <ele>337.2</ele>
        <time>2013-03-07T13:23:34Z</time>
      </trkpt>
      <trkpt lat="43.97644" lon="5.13257">
        <ele>337.6</ele>
        <time>2013-03-07T13:23:35Z</time>
      </trkpt>
      <trkpt lat="43.97645" lon="5.13261">
        <ele>338.3</ele>
        <time>2013-03-07T13:23:36Z</time>
      </trkpt>
      <trkpt lat="43.97647" lon="5.13264">
        <ele>338.5</ele>
        <time>2013-03-07T13:23:37Z</time>
      </trkpt>
      <trkpt lat="43.9765" lon="5.13265">
        <ele>338.4</ele>
        <time>2013-03-07T13:23:38Z</time>
      </trkpt>
      <trkpt lat="43.97653" lon="5.13268">
        <ele>339.1</ele>
        <time>2013-03-07T13:23:39Z</time>
      </trkpt>
      <trkpt lat="43.97656" lon="5.13269">
        <ele>339.6</ele>
        <time>2013-03-07T13:23:40Z</time>
      </trkpt>
      <trkpt lat="43.9766" lon="5.13269">
        <ele>339.8</ele>
        <time>2013-03-07T13:23:41Z</time>
      </trkpt>
      <trkpt lat="43.97663" lon="5.13267">
        <ele>341.7</ele>
        <time>2013-03-07T13:23:42Z</time>
      </trkpt>
      <trkpt lat="43.97666" lon="5.13269">
        <ele>341.7</ele>
        <time>2013-03-07T13:23:43Z</time>
      </trkpt>
      <trkpt lat="43.97669" lon="5.1327">
        <ele>341.5</ele>
        <time>2013-03-07T13:23:44Z</time>
      </trkpt>
      <trkpt lat="43.97674" lon="5.13271">
        <ele>341.4</ele>
        <time>2013-03-07T13:23:45Z</time>
      </trkpt>
      <trkpt lat="43.97677" lon="5.13273">
        <ele>341.2</ele>
        <time>2013-03-07T13:23:46Z</time>
      </trkpt>
      <trkpt lat="43.97679" lon="5.13276">
        <ele>342.4</ele>
        <time>2013-03-07T13:23:47Z</time>
      </trkpt>
      <trkpt lat="43.97683" lon="5.13278">
        <ele>342.2</ele>
        <time>2013-03-07T13:23:48Z</time>
      </trkpt>
      <trkpt lat="43.97685" lon="5.13282">
        <ele>342.2</ele>
        <time>2013-03-07T13:23:49Z</time>
      </trkpt>
      <trkpt lat="43.97688" lon="5.13285">
        <ele>341.9</ele>
        <time>2013-03-07T13:23:50Z</time>
      </trkpt>
      <trkpt lat="43.97689" lon="5.1329">
        <ele>341.7</ele>
        <time>2013-03-07T13:23:51Z</time>
      </trkpt>
      <trkpt lat="43.97689" lon="5.13294">
        <ele>341.1</ele>
        <time>2013-03-07T13:23:52Z</time>
      </trkpt>
      <trkpt lat="43.97689" lon="5.13298">
        <ele>341.1</ele>
        <time>2013-03-07T13:23:53Z</time>
      </trkpt>
      <trkpt lat="43.97687" lon="5.13304">
        <ele>340.5</ele>
        <time>2013-03-07T13:23:55Z</time>
      </trkpt>
      <trkpt lat="43.97686" lon="5.13307">
        <ele>340</ele>
        <time>2013-03-07T13:23:56Z</time>
      </trkpt>
      <trkpt lat="43.97685" lon="5.13311">
        <ele>340</ele>
        <time>2013-03-07T13:23:57Z</time>
      </trkpt>
      <trkpt lat="43.97683" lon="5.13314">
        <ele>340.1</ele>
        <time>2013-03-07T13:23:58Z</time>
      </trkpt>
      <trkpt lat="43.97682" lon="5.13317">
        <ele>340.3</ele>
        <time>2013-03-07T13:23:59Z</time>
      </trkpt>
      <trkpt lat="43.97681" lon="5.1332">
        <ele>340.4</ele>
        <time>2013-03-07T13:24:00Z</time>
      </trkpt>
      <trkpt lat="43.9768" lon="5.13323">
        <ele>340.5</ele>
        <time>2013-03-07T13:24:01Z</time>
      </trkpt>
      <trkpt lat="43.97679" lon="5.13326">
        <ele>340.5</ele>
        <time>2013-03-07T13:24:02Z</time>
      </trkpt>
      <trkpt lat="43.97678" lon="5.13329">
        <ele>340.3</ele>
        <time>2013-03-07T13:24:03Z</time>
      </trkpt>
      <trkpt lat="43.97676" lon="5.13333">
        <ele>340.2</ele>
        <time>2013-03-07T13:24:04Z</time>
      </trkpt>
      <trkpt lat="43.97674" lon="5.13338">
        <ele>341</ele>
        <time>2013-03-07T13:24:05Z</time>
      </trkpt>
      <trkpt lat="43.97677" lon="5.13335">
        <ele>342.1</ele>
        <time>2013-03-07T13:24:07Z</time>
      </trkpt>
      <trkpt lat="43.9768" lon="5.13333">
        <ele>343.8</ele>
        <time>2013-03-07T13:24:08Z</time>
      </trkpt>
      <trkpt lat="43.97678" lon="5.13336">
        <ele>344.7</ele>
        <time>2013-03-07T13:24:10Z</time>
      </trkpt>
      <trkpt lat="43.97679" lon="5.1334">
        <ele>344.5</ele>
        <time>2013-03-07T13:24:11Z</time>
      </trkpt>
      <trkpt lat="43.97673" lon="5.13339">
        <ele>352.4</ele>
        <time>2013-03-07T13:24:12Z</time>
      </trkpt>
      <trkpt lat="43.97671" lon="5.13345">
        <ele>352.4</ele>
        <time>2013-03-07T13:24:13Z</time>
      </trkpt>
      <trkpt lat="43.97669" lon="5.13348">
        <ele>352.8</ele>
        <time>2013-03-07T13:24:14Z</time>
      </trkpt>
      <trkpt lat="43.97667" lon="5.13353">
        <ele>353.7</ele>
        <time>2013-03-07T13:24:15Z</time>
      </trkpt>
      <trkpt lat="43.97665" lon="5.13357">
        <ele>354.3</ele>
        <time>2013-03-07T13:24:16Z</time>
      </trkpt>
      <trkpt lat="43.97663" lon="5.13361">
        <ele>354.8</ele>
        <time>2013-03-07T13:24:17Z</time>
      </trkpt>
      <trkpt lat="43.97662" lon="5.13365">
        <ele>355.3</ele>
        <time>2013-03-07T13:24:18Z</time>
      </trkpt>
      <trkpt lat="43.97659" lon="5.13369">
        <ele>355.5</ele>
        <time>2013-03-07T13:24:19Z</time>
      </trkpt>
      <trkpt lat="43.97657" lon="5.13373">
        <ele>356</ele>
        <time>2013-03-07T13:24:20Z</time>
      </trkpt>
      <trkpt lat="43.97656" lon="5.13377">
        <ele>356</ele>
        <time>2013-03-07T13:24:21Z</time>
      </trkpt>
      <trkpt lat="43.97655" lon="5.13383">
        <ele>354.3</ele>
        <time>2013-03-07T13:24:22Z</time>
      </trkpt>
      <trkpt lat="43.97654" lon="5.13388">
        <ele>352.4</ele>
        <time>2013-03-07T13:24:23Z</time>
      </trkpt>
      <trkpt lat="43.97653" lon="5.13392">
        <ele>351.4</ele>
        <time>2013-03-07T13:24:24Z</time>
      </trkpt>
      <trkpt lat="43.97653" lon="5.13397">
        <ele>350.5</ele>
        <time>2013-03-07T13:24:25Z</time>
      </trkpt>
      <trkpt lat="43.97652" lon="5.134">
        <ele>349.9</ele>
        <time>2013-03-07T13:24:26Z</time>
      </trkpt>
      <trkpt lat="43.97651" lon="5.13404">
        <ele>350.4</ele>
        <time>2013-03-07T13:24:27Z</time>
      </trkpt>
      <trkpt lat="43.97651" lon="5.13408">
        <ele>350.4</ele>
        <time>2013-03-07T13:24:28Z</time>
      </trkpt>
      <trkpt lat="43.97652" lon="5.13411">
        <ele>350.8</ele>
        <time>2013-03-07T13:24:29Z</time>
      </trkpt>
      <trkpt lat="43.97652" lon="5.13414">
        <ele>350.9</ele>
        <time>2013-03-07T13:24:30Z</time>
      </trkpt>
      <trkpt lat="43.97653" lon="5.13417">
        <ele>350.3</ele>
        <time>2013-03-07T13:24:31Z</time>
      </trkpt>
      <trkpt lat="43.97653" lon="5.13421">
        <ele>350.7</ele>
        <time>2013-03-07T13:24:32Z</time>
      </trkpt>
      <trkpt lat="43.97654" lon="5.13425">
        <ele>350.8</ele>
        <time>2013-03-07T13:24:33Z</time>
      </trkpt>
      <trkpt lat="43.97654" lon="5.13428">
        <ele>351.2</ele>
        <time>2013-03-07T13:24:34Z</time>
      </trkpt>
      <trkpt lat="43.97654" lon="5.13432">
        <ele>350.7</ele>
        <time>2013-03-07T13:24:35Z</time>
      </trkpt>
      <trkpt lat="43.97654" lon="5.13436">
        <ele>350.6</ele>
        <time>2013-03-07T13:24:36Z</time>
      </trkpt>
      <trkpt lat="43.97654" lon="5.1344">
        <ele>350.5</ele>
        <time>2013-03-07T13:24:37Z</time>
      </trkpt>
      <trkpt lat="43.97654" lon="5.13445">
        <ele>352.3</ele>
        <time>2013-03-07T13:24:39Z</time>
      </trkpt>
      <trkpt lat="43.97654" lon="5.13448">
        <ele>352.6</ele>
        <time>2013-03-07T13:24:40Z</time>
      </trkpt>
      <trkpt lat="43.97655" lon="5.13451">
        <ele>352.9</ele>
        <time>2013-03-07T13:24:41Z</time>
      </trkpt>
      <trkpt lat="43.97655" lon="5.13454">
        <ele>352.9</ele>
        <time>2013-03-07T13:24:42Z</time>
      </trkpt>
      <trkpt lat="43.97658" lon="5.13456">
        <ele>353.2</ele>
        <time>2013-03-07T13:24:43Z</time>
      </trkpt>
      <trkpt lat="43.97659" lon="5.13459">
        <ele>353.4</ele>
        <time>2013-03-07T13:24:44Z</time>
      </trkpt>
      <trkpt lat="43.97665" lon="5.13458">
        <ele>353.4</ele>
        <time>2013-03-07T13:24:45Z</time>
      </trkpt>
      <trkpt lat="43.97668" lon="5.1346">
        <ele>353.3</ele>
        <time>2013-03-07T13:24:46Z</time>
      </trkpt>
      <trkpt lat="43.9767" lon="5.13461">
        <ele>353.1</ele>
        <time>2013-03-07T13:24:47Z</time>
      </trkpt>
      <trkpt lat="43.97673" lon="5.13459">
        <ele>349.9</ele>
        <time>2013-03-07T13:24:49Z</time>
      </trkpt>
      <trkpt lat="43.97676" lon="5.13458">
        <ele>349.7</ele>
        <time>2013-03-07T13:24:50Z</time>
      </trkpt>
      <trkpt lat="43.97678" lon="5.13457">
        <ele>349.4</ele>
        <time>2013-03-07T13:24:51Z</time>
      </trkpt>
      <trkpt lat="43.9768" lon="5.13455">
        <ele>349.1</ele>
        <time>2013-03-07T13:24:52Z</time>
      </trkpt>
      <trkpt lat="43.97682" lon="5.13453">
        <ele>348.8</ele>
        <time>2013-03-07T13:24:53Z</time>
      </trkpt>
      <trkpt lat="43.97684" lon="5.13449">
        <ele>349</ele>
        <time>2013-03-07T13:24:54Z</time>
      </trkpt>
      <trkpt lat="43.97685" lon="5.13446">
        <ele>348.6</ele>
        <time>2013-03-07T13:24:55Z</time>
      </trkpt>
      <trkpt lat="43.97686" lon="5.13443">
        <ele>349.2</ele>
        <time>2013-03-07T13:24:56Z</time>
      </trkpt>
      <trkpt lat="43.97688" lon="5.1344">
        <ele>349.2</ele>
        <time>2013-03-07T13:24:57Z</time>
      </trkpt>
      <trkpt lat="43.97689" lon="5.13437">
        <ele>349.1</ele>
        <time>2013-03-07T13:24:58Z</time>
      </trkpt>
      <trkpt lat="43.97691" lon="5.13434">
        <ele>350.1</ele>
        <time>2013-03-07T13:24:59Z</time>
      </trkpt>
      <trkpt lat="43.97694" lon="5.13431">
        <ele>351.6</ele>
        <time>2013-03-07T13:25:00Z</time>
      </trkpt>
      <trkpt lat="43.97695" lon="5.13426">
        <ele>352.2</ele>
        <time>2013-03-07T13:25:01Z</time>
      </trkpt>
      <trkpt lat="43.97697" lon="5.13423">
        <ele>352.5</ele>
        <time>2013-03-07T13:25:02Z</time>
      </trkpt>
      <trkpt lat="43.97699" lon="5.13419">
        <ele>353.1</ele>
        <time>2013-03-07T13:25:03Z</time>
      </trkpt>
      <trkpt lat="43.97701" lon="5.13416">
        <ele>353.1</ele>
        <time>2013-03-07T13:25:04Z</time>
      </trkpt>
      <trkpt lat="43.97704" lon="5.13412">
        <ele>352.9</ele>
        <time>2013-03-07T13:25:05Z</time>
      </trkpt>
      <trkpt lat="43.97706" lon="5.13408">
        <ele>352.2</ele>
        <time>2013-03-07T13:25:06Z</time>
      </trkpt>
      <trkpt lat="43.97709" lon="5.13404">
        <ele>351.9</ele>
        <time>2013-03-07T13:25:07Z</time>
      </trkpt>
      <trkpt lat="43.97711" lon="5.134">
        <ele>351.5</ele>
        <time>2013-03-07T13:25:08Z</time>
      </trkpt>
      <trkpt lat="43.97714" lon="5.13396">
        <ele>350.8</ele>
        <time>2013-03-07T13:25:09Z</time>
      </trkpt>
      <trkpt lat="43.97716" lon="5.13393">
        <ele>350.7</ele>
        <time>2013-03-07T13:25:10Z</time>
      </trkpt>
      <trkpt lat="43.97719" lon="5.1339">
        <ele>350.7</ele>
        <time>2013-03-07T13:25:11Z</time>
      </trkpt>
      <trkpt lat="43.97722" lon="5.13387">
        <ele>350.1</ele>
        <time>2013-03-07T13:25:12Z</time>
      </trkpt>
      <trkpt lat="43.97725" lon="5.13384">
        <ele>350.1</ele>
        <time>2013-03-07T13:25:13Z</time>
      </trkpt>
      <trkpt lat="43.97728" lon="5.13381">
        <ele>350.2</ele>
        <time>2013-03-07T13:25:14Z</time>
      </trkpt>
      <trkpt lat="43.97731" lon="5.13378">
        <ele>350</ele>
        <time>2013-03-07T13:25:15Z</time>
      </trkpt>
      <trkpt lat="43.97734" lon="5.13375">
        <ele>349.8</ele>
        <time>2013-03-07T13:25:16Z</time>
      </trkpt>
      <trkpt lat="43.97737" lon="5.13372">
        <ele>349.7</ele>
        <time>2013-03-07T13:25:17Z</time>
      </trkpt>
      <trkpt lat="43.9774" lon="5.1337">
        <ele>349.2</ele>
        <time>2013-03-07T13:25:18Z</time>
      </trkpt>
      <trkpt lat="43.97744" lon="5.13368">
        <ele>348.9</ele>
        <time>2013-03-07T13:25:19Z</time>
      </trkpt>
      <trkpt lat="43.97747" lon="5.13366">
        <ele>348.9</ele>
        <time>2013-03-07T13:25:20Z</time>
      </trkpt>
      <trkpt lat="43.97751" lon="5.13364">
        <ele>348.5</ele>
        <time>2013-03-07T13:25:21Z</time>
      </trkpt>
      <trkpt lat="43.97755" lon="5.13363">
        <ele>348.3</ele>
        <time>2013-03-07T13:25:22Z</time>
      </trkpt>
      <trkpt lat="43.97758" lon="5.13362">
        <ele>348.2</ele>
        <time>2013-03-07T13:25:23Z</time>
      </trkpt>
      <trkpt lat="43.97761" lon="5.13361">
        <ele>348.2</ele>
        <time>2013-03-07T13:25:24Z</time>
      </trkpt>
      <trkpt lat="43.97765" lon="5.13361">
        <ele>348.4</ele>
        <time>2013-03-07T13:25:25Z</time>
      </trkpt>
      <trkpt lat="43.97768" lon="5.1336">
        <ele>348.4</ele>
        <time>2013-03-07T13:25:26Z</time>
      </trkpt>
      <trkpt lat="43.97771" lon="5.1336">
        <ele>348.6</ele>
        <time>2013-03-07T13:25:27Z</time>
      </trkpt>
      <trkpt lat="43.97775" lon="5.13358">
        <ele>348.4</ele>
        <time>2013-03-07T13:25:28Z</time>
      </trkpt>
      <trkpt lat="43.97778" lon="5.13357">
        <ele>348.2</ele>
        <time>2013-03-07T13:25:29Z</time>
      </trkpt>
      <trkpt lat="43.97782" lon="5.13356">
        <ele>348.4</ele>
        <time>2013-03-07T13:25:30Z</time>
      </trkpt>
      <trkpt lat="43.97785" lon="5.13355">
        <ele>348.4</ele>
        <time>2013-03-07T13:25:31Z</time>
      </trkpt>
      <trkpt lat="43.97789" lon="5.13354">
        <ele>348.5</ele>
        <time>2013-03-07T13:25:32Z</time>
      </trkpt>
      <trkpt lat="43.97792" lon="5.13353">
        <ele>348.7</ele>
        <time>2013-03-07T13:25:33Z</time>
      </trkpt>
      <trkpt lat="43.97795" lon="5.13351">
        <ele>348.6</ele>
        <time>2013-03-07T13:25:34Z</time>
      </trkpt>
      <trkpt lat="43.97799" lon="5.1335">
        <ele>348.7</ele>
        <time>2013-03-07T13:25:35Z</time>
      </trkpt>
      <trkpt lat="43.97803" lon="5.13349">
        <ele>348.5</ele>
        <time>2013-03-07T13:25:36Z</time>
      </trkpt>
      <trkpt lat="43.97806" lon="5.13348">
        <ele>348.4</ele>
        <time>2013-03-07T13:25:37Z</time>
      </trkpt>
      <trkpt lat="43.97809" lon="5.13346">
        <ele>348.1</ele>
        <time>2013-03-07T13:25:38Z</time>
      </trkpt>
      <trkpt lat="43.97812" lon="5.13345">
        <ele>347.5</ele>
        <time>2013-03-07T13:25:39Z</time>
      </trkpt>
      <trkpt lat="43.97816" lon="5.13344">
        <ele>347.4</ele>
        <time>2013-03-07T13:25:40Z</time>
      </trkpt>
      <trkpt lat="43.97819" lon="5.13343">
        <ele>347.2</ele>
        <time>2013-03-07T13:25:41Z</time>
      </trkpt>
      <trkpt lat="43.97821" lon="5.13341">
        <ele>348</ele>
        <time>2013-03-07T13:25:42Z</time>
      </trkpt>
      <trkpt lat="43.97825" lon="5.1334">
        <ele>347.7</ele>
        <time>2013-03-07T13:25:43Z</time>
      </trkpt>
      <trkpt lat="43.97828" lon="5.13339">
        <ele>348</ele>
        <time>2013-03-07T13:25:44Z</time>
      </trkpt>
      <trkpt lat="43.97831" lon="5.13338">
        <ele>348</ele>
        <time>2013-03-07T13:25:45Z</time>
      </trkpt>
      <trkpt lat="43.97834" lon="5.13337">
        <ele>348</ele>
        <time>2013-03-07T13:25:46Z</time>
      </trkpt>
      <trkpt lat="43.97837" lon="5.13336">
        <ele>348.1</ele>
        <time>2013-03-07T13:25:47Z</time>
      </trkpt>
      <trkpt lat="43.9784" lon="5.13335">
        <ele>347.9</ele>
        <time>2013-03-07T13:25:48Z</time>
      </trkpt>
      <trkpt lat="43.97844" lon="5.13334">
        <ele>347.9</ele>
        <time>2013-03-07T13:25:49Z</time>
      </trkpt>
      <trkpt lat="43.97847" lon="5.13334">
        <ele>347.9</ele>
        <time>2013-03-07T13:25:50Z</time>
      </trkpt>
      <trkpt lat="43.9785" lon="5.13333">
        <ele>347.6</ele>
        <time>2013-03-07T13:25:51Z</time>
      </trkpt>
      <trkpt lat="43.97854" lon="5.13332">
        <ele>347.5</ele>
        <time>2013-03-07T13:25:52Z</time>
      </trkpt>
      <trkpt lat="43.97856" lon="5.13331">
        <ele>348.5</ele>
        <time>2013-03-07T13:25:53Z</time>
      </trkpt>
      <trkpt lat="43.97858" lon="5.1333">
        <ele>348.5</ele>
        <time>2013-03-07T13:25:54Z</time>
      </trkpt>
      <trkpt lat="43.97862" lon="5.13329">
        <ele>348.8</ele>
        <time>2013-03-07T13:25:55Z</time>
      </trkpt>
      <trkpt lat="43.97865" lon="5.13328">
        <ele>348.7</ele>
        <time>2013-03-07T13:25:56Z</time>
      </trkpt>
      <trkpt lat="43.97869" lon="5.13327">
        <ele>348.7</ele>
        <time>2013-03-07T13:25:57Z</time>
      </trkpt>
      <trkpt lat="43.97872" lon="5.13327">
        <ele>348.7</ele>
        <time>2013-03-07T13:25:58Z</time>
      </trkpt>
      <trkpt lat="43.97876" lon="5.13326">
        <ele>348.3</ele>
        <time>2013-03-07T13:25:59Z</time>
      </trkpt>
      <trkpt lat="43.9788" lon="5.13325">
        <ele>348.4</ele>
        <time>2013-03-07T13:26:00Z</time>
      </trkpt>
      <trkpt lat="43.97883" lon="5.13325">
        <ele>348.7</ele>
        <time>2013-03-07T13:26:01Z</time>
      </trkpt>
      <trkpt lat="43.97886" lon="5.13324">
        <ele>349.4</ele>
        <time>2013-03-07T13:26:02Z</time>
      </trkpt>
      <trkpt lat="43.97889" lon="5.13323">
        <ele>349.8</ele>
        <time>2013-03-07T13:26:03Z</time>
      </trkpt>
      <trkpt lat="43.97892" lon="5.13323">
        <ele>349.8</ele>
        <time>2013-03-07T13:26:04Z</time>
      </trkpt>
      <trkpt lat="43.97895" lon="5.13322">
        <ele>349.4</ele>
        <time>2013-03-07T13:26:05Z</time>
      </trkpt>
      <trkpt lat="43.97898" lon="5.13321">
        <ele>349.6</ele>
        <time>2013-03-07T13:26:06Z</time>
      </trkpt>
      <trkpt lat="43.97901" lon="5.13321">
        <ele>349.7</ele>
        <time>2013-03-07T13:26:07Z</time>
      </trkpt>
      <trkpt lat="43.97903" lon="5.1332">
        <ele>350.3</ele>
        <time>2013-03-07T13:26:08Z</time>
      </trkpt>
      <trkpt lat="43.97905" lon="5.1332">
        <ele>351</ele>
        <time>2013-03-07T13:26:09Z</time>
      </trkpt>
      <trkpt lat="43.97908" lon="5.13318">
        <ele>350.9</ele>
        <time>2013-03-07T13:26:10Z</time>
      </trkpt>
      <trkpt lat="43.97912" lon="5.13319">
        <ele>350.7</ele>
        <time>2013-03-07T13:26:12Z</time>
      </trkpt>
      <trkpt lat="43.97913" lon="5.13319">
        <ele>350.1</ele>
        <time>2013-03-07T13:26:13Z</time>
      </trkpt>
      <trkpt lat="43.97917" lon="5.13318">
        <ele>350.1</ele>
        <time>2013-03-07T13:26:15Z</time>
      </trkpt>
      <trkpt lat="43.97919" lon="5.13318">
        <ele>350.2</ele>
        <time>2013-03-07T13:26:16Z</time>
      </trkpt>
      <trkpt lat="43.97922" lon="5.13319">
        <ele>350.4</ele>
        <time>2013-03-07T13:26:18Z</time>
      </trkpt>
      <trkpt lat="43.97924" lon="5.13321">
        <ele>349.4</ele>
        <time>2013-03-07T13:26:19Z</time>
      </trkpt>
      <trkpt lat="43.97924" lon="5.13326">
        <ele>349.4</ele>
        <time>2013-03-07T13:26:21Z</time>
      </trkpt>
      <trkpt lat="43.97924" lon="5.13329">
        <ele>349.4</ele>
        <time>2013-03-07T13:26:22Z</time>
      </trkpt>
      <trkpt lat="43.97924" lon="5.13332">
        <ele>349.1</ele>
        <time>2013-03-07T13:26:23Z</time>
      </trkpt>
      <trkpt lat="43.97925" lon="5.13335">
        <ele>349.1</ele>
        <time>2013-03-07T13:26:24Z</time>
      </trkpt>
      <trkpt lat="43.9793" lon="5.13336">
        <ele>349.5</ele>
        <time>2013-03-07T13:26:26Z</time>
      </trkpt>
      <trkpt lat="43.97931" lon="5.13337">
        <ele>349.3</ele>
        <time>2013-03-07T13:26:27Z</time>
      </trkpt>
      <trkpt lat="43.97935" lon="5.13337">
        <ele>348.9</ele>
        <time>2013-03-07T13:26:29Z</time>
      </trkpt>
      <trkpt lat="43.97937" lon="5.13336">
        <ele>348.4</ele>
        <time>2013-03-07T13:26:30Z</time>
      </trkpt>
      <trkpt lat="43.9794" lon="5.13336">
        <ele>348.1</ele>
        <time>2013-03-07T13:26:32Z</time>
      </trkpt>
      <trkpt lat="43.97942" lon="5.13337">
        <ele>348.1</ele>
        <time>2013-03-07T13:26:33Z</time>
      </trkpt>
      <trkpt lat="43.97946" lon="5.13337">
        <ele>348.4</ele>
        <time>2013-03-07T13:26:43Z</time>
      </trkpt>
      <trkpt lat="43.97946" lon="5.13336">
        <ele>348.3</ele>
        <time>2013-03-07T13:26:44Z</time>
      </trkpt>
      <trkpt lat="43.9795" lon="5.13336">
        <ele>347.7</ele>
        <time>2013-03-07T13:26:49Z</time>
      </trkpt>
      <trkpt lat="43.97951" lon="5.13336">
        <ele>347.8</ele>
        <time>2013-03-07T13:26:50Z</time>
      </trkpt>
      <trkpt lat="43.97955" lon="5.13338">
        <ele>344.1</ele>
        <time>2013-03-07T13:27:57Z</time>
      </trkpt>
      <trkpt lat="43.97958" lon="5.13338">
        <ele>343.5</ele>
        <time>2013-03-07T13:27:58Z</time>
      </trkpt>
      <trkpt lat="43.97962" lon="5.13337">
        <ele>345.4</ele>
        <time>2013-03-07T13:28:00Z</time>
      </trkpt>
      <trkpt lat="43.97962" lon="5.13337">
        <ele>344.9</ele>
        <time>2013-03-07T13:28:01Z</time>
      </trkpt>
      <trkpt lat="43.97966" lon="5.13337">
        <ele>343.5</ele>
        <time>2013-03-07T13:28:07Z</time>
      </trkpt>
      <trkpt lat="43.97967" lon="5.13337">
        <ele>343.2</ele>
        <time>2013-03-07T13:28:08Z</time>
      </trkpt>
      <trkpt lat="43.97971" lon="5.13337">
        <ele>340.9</ele>
        <time>2013-03-07T13:28:14Z</time>
      </trkpt>
      <trkpt lat="43.97972" lon="5.13337">
        <ele>340.8</ele>
        <time>2013-03-07T13:28:15Z</time>
      </trkpt>
      <trkpt lat="43.97976" lon="5.13337">
        <ele>340.5</ele>
        <time>2013-03-07T13:28:18Z</time>
      </trkpt>
      <trkpt lat="43.97977" lon="5.13337">
        <ele>340.1</ele>
        <time>2013-03-07T13:28:19Z</time>
      </trkpt>
      <trkpt lat="43.97981" lon="5.13337">
        <ele>339.7</ele>
        <time>2013-03-07T13:28:24Z</time>
      </trkpt>
      <trkpt lat="43.97983" lon="5.13335">
        <ele>340.4</ele>
        <time>2013-03-07T13:28:25Z</time>
      </trkpt>
      <trkpt lat="43.97986" lon="5.13334">
        <ele>339.4</ele>
        <time>2013-03-07T13:28:30Z</time>
      </trkpt>
      <trkpt lat="43.97987" lon="5.13333">
        <ele>338.9</ele>
        <time>2013-03-07T13:28:31Z</time>
      </trkpt>
      <trkpt lat="43.97991" lon="5.1333">
        <ele>337.7</ele>
        <time>2013-03-07T13:28:43Z</time>
      </trkpt>
      <trkpt lat="43.97991" lon="5.1333">
        <ele>338.3</ele>
        <time>2013-03-07T13:28:44Z</time>
      </trkpt>
      <trkpt lat="43.97995" lon="5.13328">
        <ele>336.8</ele>
        <time>2013-03-07T13:28:48Z</time>
      </trkpt>
      <trkpt lat="43.97996" lon="5.13327">
        <ele>337</ele>
        <time>2013-03-07T13:28:49Z</time>
      </trkpt>
      <trkpt lat="43.97996" lon="5.13326">
        <ele>337.1</ele>
        <time>2013-03-07T13:28:50Z</time>
      </trkpt>
      <trkpt lat="43.97999" lon="5.13323">
        <ele>336.4</ele>
        <time>2013-03-07T13:28:51Z</time>
      </trkpt>
      <trkpt lat="43.98003" lon="5.1332">
        <ele>335.9</ele>
        <time>2013-03-07T13:28:53Z</time>
      </trkpt>
      <trkpt lat="43.98004" lon="5.13319">
        <ele>335.2</ele>
        <time>2013-03-07T13:28:54Z</time>
      </trkpt>
      <trkpt lat="43.98008" lon="5.13317">
        <ele>335.3</ele>
        <time>2013-03-07T13:28:56Z</time>
      </trkpt>
      <trkpt lat="43.9801" lon="5.13316">
        <ele>334.6</ele>
        <time>2013-03-07T13:28:57Z</time>
      </trkpt>
      <trkpt lat="43.98013" lon="5.13314">
        <ele>333</ele>
        <time>2013-03-07T13:29:01Z</time>
      </trkpt>
      <trkpt lat="43.98015" lon="5.13312">
        <ele>332.9</ele>
        <time>2013-03-07T13:29:02Z</time>
      </trkpt>
      <trkpt lat="43.98017" lon="5.13309">
        <ele>331.8</ele>
        <time>2013-03-07T13:29:05Z</time>
      </trkpt>
      <trkpt lat="43.98018" lon="5.13306">
        <ele>332.7</ele>
        <time>2013-03-07T13:29:06Z</time>
      </trkpt>
      <trkpt lat="43.98021" lon="5.13305">
        <ele>333.7</ele>
        <time>2013-03-07T13:29:07Z</time>
      </trkpt>
      <trkpt lat="43.98023" lon="5.13304">
        <ele>334.1</ele>
        <time>2013-03-07T13:29:08Z</time>
      </trkpt>
      <trkpt lat="43.98026" lon="5.13302">
        <ele>333.2</ele>
        <time>2013-03-07T13:29:10Z</time>
      </trkpt>
      <trkpt lat="43.98029" lon="5.133">
        <ele>332.1</ele>
        <time>2013-03-07T13:29:11Z</time>
      </trkpt>
      <trkpt lat="43.98032" lon="5.133">
        <ele>331.7</ele>
        <time>2013-03-07T13:29:13Z</time>
      </trkpt>
      <trkpt lat="43.98034" lon="5.133">
        <ele>331.6</ele>
        <time>2013-03-07T13:29:14Z</time>
      </trkpt>
      <trkpt lat="43.98037" lon="5.13296">
        <ele>330.3</ele>
        <time>2013-03-07T13:29:16Z</time>
      </trkpt>
      <trkpt lat="43.98038" lon="5.13293">
        <ele>329.1</ele>
        <time>2013-03-07T13:29:17Z</time>
      </trkpt>
      <trkpt lat="43.98039" lon="5.1329">
        <ele>328.5</ele>
        <time>2013-03-07T13:29:18Z</time>
      </trkpt>
      <trkpt lat="43.98041" lon="5.13288">
        <ele>328.4</ele>
        <time>2013-03-07T13:29:19Z</time>
      </trkpt>
      <trkpt lat="43.98042" lon="5.13286">
        <ele>328.3</ele>
        <time>2013-03-07T13:29:22Z</time>
      </trkpt>
      <trkpt lat="43.98043" lon="5.13293">
        <ele>327.3</ele>
        <time>2013-03-07T13:29:23Z</time>
      </trkpt>
      <trkpt lat="43.98045" lon="5.13296">
        <ele>326.5</ele>
        <time>2013-03-07T13:29:24Z</time>
      </trkpt>
      <trkpt lat="43.98047" lon="5.13296">
        <ele>328</ele>
        <time>2013-03-07T13:29:25Z</time>
      </trkpt>
      <trkpt lat="43.9805" lon="5.13298">
        <ele>327.7</ele>
        <time>2013-03-07T13:29:26Z</time>
      </trkpt>
      <trkpt lat="43.98052" lon="5.133">
        <ele>327.5</ele>
        <time>2013-03-07T13:29:27Z</time>
      </trkpt>
      <trkpt lat="43.98055" lon="5.133">
        <ele>327.1</ele>
        <time>2013-03-07T13:29:28Z</time>
      </trkpt>
      <trkpt lat="43.98057" lon="5.133">
        <ele>325.5</ele>
        <time>2013-03-07T13:29:29Z</time>
      </trkpt>
      <trkpt lat="43.9806" lon="5.133">
        <ele>324.5</ele>
        <time>2013-03-07T13:29:30Z</time>
      </trkpt>
      <trkpt lat="43.98062" lon="5.13298">
        <ele>325.6</ele>
        <time>2013-03-07T13:29:31Z</time>
      </trkpt>
      <trkpt lat="43.98065" lon="5.13297">
        <ele>326.4</ele>
        <time>2013-03-07T13:29:32Z</time>
      </trkpt>
      <trkpt lat="43.98068" lon="5.13296">
        <ele>327.3</ele>
        <time>2013-03-07T13:29:33Z</time>
      </trkpt>
      <trkpt lat="43.9807" lon="5.13295">
        <ele>328.2</ele>
        <time>2013-03-07T13:29:34Z</time>
      </trkpt>
      <trkpt lat="43.98073" lon="5.13294">
        <ele>328.9</ele>
        <time>2013-03-07T13:29:35Z</time>
      </trkpt>
      <trkpt lat="43.98076" lon="5.13294">
        <ele>329.9</ele>
        <time>2013-03-07T13:29:38Z</time>
      </trkpt>
      <trkpt lat="43.98078" lon="5.13293">
        <ele>330.3</ele>
        <time>2013-03-07T13:29:39Z</time>
      </trkpt>
      <trkpt lat="43.98082" lon="5.1329">
        <ele>329.5</ele>
        <time>2013-03-07T13:29:42Z</time>
      </trkpt>
      <trkpt lat="43.98084" lon="5.1329">
        <ele>329.4</ele>
        <time>2013-03-07T13:29:43Z</time>
      </trkpt>
      <trkpt lat="43.98087" lon="5.13288">
        <ele>329.1</ele>
        <time>2013-03-07T13:29:46Z</time>
      </trkpt>
      <trkpt lat="43.98088" lon="5.13287">
        <ele>328.9</ele>
        <time>2013-03-07T13:29:47Z</time>
      </trkpt>
      <trkpt lat="43.98091" lon="5.13284">
        <ele>329.4</ele>
        <time>2013-03-07T13:29:50Z</time>
      </trkpt>
      <trkpt lat="43.98091" lon="5.13283">
        <ele>329.5</ele>
        <time>2013-03-07T13:29:51Z</time>
      </trkpt>
      <trkpt lat="43.98095" lon="5.13279">
        <ele>329.3</ele>
        <time>2013-03-07T13:29:58Z</time>
      </trkpt>
      <trkpt lat="43.98095" lon="5.13277">
        <ele>330.1</ele>
        <time>2013-03-07T13:29:59Z</time>
      </trkpt>
      <trkpt lat="43.98098" lon="5.13274">
        <ele>330.5</ele>
        <time>2013-03-07T13:30:04Z</time>
      </trkpt>
      <trkpt lat="43.98099" lon="5.13273">
        <ele>330.4</ele>
        <time>2013-03-07T13:30:05Z</time>
      </trkpt>
      <trkpt lat="43.98103" lon="5.1327">
        <ele>330.9</ele>
        <time>2013-03-07T13:30:10Z</time>
      </trkpt>
      <trkpt lat="43.98103" lon="5.1327">
        <ele>331.5</ele>
        <time>2013-03-07T13:30:11Z</time>
      </trkpt>
      <trkpt lat="43.98107" lon="5.13269">
        <ele>331.7</ele>
        <time>2013-03-07T13:30:17Z</time>
      </trkpt>
      <trkpt lat="43.98109" lon="5.13269">
        <ele>332.1</ele>
        <time>2013-03-07T13:30:18Z</time>
      </trkpt>
      <trkpt lat="43.98112" lon="5.13268">
        <ele>333.1</ele>
        <time>2013-03-07T13:30:20Z</time>
      </trkpt>
      <trkpt lat="43.98114" lon="5.13269">
        <ele>332.2</ele>
        <time>2013-03-07T13:30:21Z</time>
      </trkpt>
      <trkpt lat="43.98117" lon="5.13272">
        <ele>332.4</ele>
        <time>2013-03-07T13:30:23Z</time>
      </trkpt>
      <trkpt lat="43.98118" lon="5.13273">
        <ele>332.9</ele>
        <time>2013-03-07T13:30:24Z</time>
      </trkpt>
      <trkpt lat="43.98122" lon="5.13274">
        <ele>333.2</ele>
        <time>2013-03-07T13:30:27Z</time>
      </trkpt>
      <trkpt lat="43.98124" lon="5.13274">
        <ele>333.5</ele>
        <time>2013-03-07T13:30:28Z</time>
      </trkpt>
      <trkpt lat="43.98128" lon="5.13272">
        <ele>333.9</ele>
        <time>2013-03-07T13:30:31Z</time>
      </trkpt>
      <trkpt lat="43.98129" lon="5.13272">
        <ele>334</ele>
        <time>2013-03-07T13:30:32Z</time>
      </trkpt>
      <trkpt lat="43.98132" lon="5.13271">
        <ele>334.2</ele>
        <time>2013-03-07T13:30:34Z</time>
      </trkpt>
      <trkpt lat="43.98134" lon="5.13271">
        <ele>334.1</ele>
        <time>2013-03-07T13:30:35Z</time>
      </trkpt>
      <trkpt lat="43.98137" lon="5.1327">
        <ele>334.5</ele>
        <time>2013-03-07T13:30:37Z</time>
      </trkpt>
      <trkpt lat="43.98138" lon="5.13268">
        <ele>335.1</ele>
        <time>2013-03-07T13:30:38Z</time>
      </trkpt>
      <trkpt lat="43.98141" lon="5.13268">
        <ele>335</ele>
        <time>2013-03-07T13:30:40Z</time>
      </trkpt>
      <trkpt lat="43.98143" lon="5.13267">
        <ele>335</ele>
        <time>2013-03-07T13:30:41Z</time>
      </trkpt>
      <trkpt lat="43.98146" lon="5.13266">
        <ele>335.4</ele>
        <time>2013-03-07T13:30:43Z</time>
      </trkpt>
      <trkpt lat="43.98148" lon="5.13266">
        <ele>335.3</ele>
        <time>2013-03-07T13:30:44Z</time>
      </trkpt>
      <trkpt lat="43.98151" lon="5.13265">
        <ele>335.7</ele>
        <time>2013-03-07T13:30:46Z</time>
      </trkpt>
      <trkpt lat="43.98152" lon="5.13265">
        <ele>335.8</ele>
        <time>2013-03-07T13:30:47Z</time>
      </trkpt>
      <trkpt lat="43.98155" lon="5.13263">
        <ele>336.1</ele>
        <time>2013-03-07T13:30:49Z</time>
      </trkpt>
      <trkpt lat="43.98157" lon="5.13262">
        <ele>337</ele>
        <time>2013-03-07T13:30:50Z</time>
      </trkpt>
      <trkpt lat="43.9816" lon="5.13261">
        <ele>336.9</ele>
        <time>2013-03-07T13:30:52Z</time>
      </trkpt>
      <trkpt lat="43.98162" lon="5.1326">
        <ele>337.1</ele>
        <time>2013-03-07T13:30:53Z</time>
      </trkpt>
      <trkpt lat="43.98165" lon="5.13259">
        <ele>337.2</ele>
        <time>2013-03-07T13:30:55Z</time>
      </trkpt>
      <trkpt lat="43.98167" lon="5.1326">
        <ele>335.8</ele>
        <time>2013-03-07T13:30:56Z</time>
      </trkpt>
      <trkpt lat="43.98171" lon="5.13257">
        <ele>337.8</ele>
        <time>2013-03-07T13:30:59Z</time>
      </trkpt>
      <trkpt lat="43.98172" lon="5.13257">
        <ele>337.9</ele>
        <time>2013-03-07T13:31:00Z</time>
      </trkpt>
      <trkpt lat="43.98175" lon="5.13255">
        <ele>338.6</ele>
        <time>2013-03-07T13:31:03Z</time>
      </trkpt>
      <trkpt lat="43.98176" lon="5.13254">
        <ele>339.4</ele>
        <time>2013-03-07T13:31:04Z</time>
      </trkpt>
      <trkpt lat="43.9818" lon="5.13252">
        <ele>340.7</ele>
        <time>2013-03-07T13:31:06Z</time>
      </trkpt>
      <trkpt lat="43.98182" lon="5.13252">
        <ele>340.3</ele>
        <time>2013-03-07T13:31:07Z</time>
      </trkpt>
      <trkpt lat="43.98186" lon="5.13249">
        <ele>339.7</ele>
        <time>2013-03-07T13:31:10Z</time>
      </trkpt>
      <trkpt lat="43.98187" lon="5.13248">
        <ele>339.8</ele>
        <time>2013-03-07T13:31:11Z</time>
      </trkpt>
      <trkpt lat="43.98189" lon="5.13245">
        <ele>340</ele>
        <time>2013-03-07T13:31:13Z</time>
      </trkpt>
      <trkpt lat="43.9819" lon="5.13243">
        <ele>340.1</ele>
        <time>2013-03-07T13:31:14Z</time>
      </trkpt>
      <trkpt lat="43.98193" lon="5.1324">
        <ele>339.9</ele>
        <time>2013-03-07T13:31:17Z</time>
      </trkpt>
      <trkpt lat="43.98194" lon="5.13238">
        <ele>340.2</ele>
        <time>2013-03-07T13:31:18Z</time>
      </trkpt>
      <trkpt lat="43.98197" lon="5.13236">
        <ele>340.8</ele>
        <time>2013-03-07T13:31:20Z</time>
      </trkpt>
      <trkpt lat="43.98198" lon="5.13234">
        <ele>341.2</ele>
        <time>2013-03-07T13:31:21Z</time>
      </trkpt>
      <trkpt lat="43.98201" lon="5.13232">
        <ele>341.4</ele>
        <time>2013-03-07T13:31:23Z</time>
      </trkpt>
      <trkpt lat="43.98203" lon="5.13231">
        <ele>341.1</ele>
        <time>2013-03-07T13:31:24Z</time>
      </trkpt>
      <trkpt lat="43.98206" lon="5.13228">
        <ele>341.4</ele>
        <time>2013-03-07T13:31:26Z</time>
      </trkpt>
      <trkpt lat="43.98207" lon="5.13227">
        <ele>341.6</ele>
        <time>2013-03-07T13:31:27Z</time>
      </trkpt>
      <trkpt lat="43.98211" lon="5.13226">
        <ele>341.4</ele>
        <time>2013-03-07T13:31:29Z</time>
      </trkpt>
      <trkpt lat="43.98212" lon="5.13225">
        <ele>341.6</ele>
        <time>2013-03-07T13:31:30Z</time>
      </trkpt>
      <trkpt lat="43.98215" lon="5.13223">
        <ele>342</ele>
        <time>2013-03-07T13:31:32Z</time>
      </trkpt>
      <trkpt lat="43.98216" lon="5.13222">
        <ele>342.5</ele>
        <time>2013-03-07T13:31:33Z</time>
      </trkpt>
      <trkpt lat="43.9822" lon="5.13221">
        <ele>342.9</ele>
        <time>2013-03-07T13:31:35Z</time>
      </trkpt>
      <trkpt lat="43.98221" lon="5.13221">
        <ele>343</ele>
        <time>2013-03-07T13:31:36Z</time>
      </trkpt>
      <trkpt lat="43.98225" lon="5.13219">
        <ele>343.2</ele>
        <time>2013-03-07T13:31:38Z</time>
      </trkpt>
      <trkpt lat="43.98227" lon="5.13218">
        <ele>343.8</ele>
        <time>2013-03-07T13:31:39Z</time>
      </trkpt>
      <trkpt lat="43.9823" lon="5.13217">
        <ele>343.9</ele>
        <time>2013-03-07T13:31:41Z</time>
      </trkpt>
      <trkpt lat="43.98232" lon="5.13216">
        <ele>344</ele>
        <time>2013-03-07T13:31:42Z</time>
      </trkpt>
      <trkpt lat="43.98235" lon="5.13215">
        <ele>343.9</ele>
        <time>2013-03-07T13:31:44Z</time>
      </trkpt>
      <trkpt lat="43.98237" lon="5.13214">
        <ele>344</ele>
        <time>2013-03-07T13:31:45Z</time>
      </trkpt>
      <trkpt lat="43.9824" lon="5.13213">
        <ele>344.1</ele>
        <time>2013-03-07T13:31:47Z</time>
      </trkpt>
      <trkpt lat="43.98242" lon="5.13213">
        <ele>344.5</ele>
        <time>2013-03-07T13:31:48Z</time>
      </trkpt>
      <trkpt lat="43.98246" lon="5.13213">
        <ele>344.7</ele>
        <time>2013-03-07T13:31:50Z</time>
      </trkpt>
      <trkpt lat="43.98247" lon="5.13213">
        <ele>344.9</ele>
        <time>2013-03-07T13:31:51Z</time>
      </trkpt>
      <trkpt lat="43.98251" lon="5.13213">
        <ele>345.5</ele>
        <time>2013-03-07T13:31:53Z</time>
      </trkpt>
      <trkpt lat="43.98252" lon="5.13213">
        <ele>345.7</ele>
        <time>2013-03-07T13:31:54Z</time>
      </trkpt>
      <trkpt lat="43.98256" lon="5.13213">
        <ele>345.7</ele>
        <time>2013-03-07T13:31:56Z</time>
      </trkpt>
      <trkpt lat="43.98258" lon="5.13213">
        <ele>345.9</ele>
        <time>2013-03-07T13:31:57Z</time>
      </trkpt>
      <trkpt lat="43.98262" lon="5.13215">
        <ele>345.5</ele>
        <time>2013-03-07T13:31:59Z</time>
      </trkpt>
      <trkpt lat="43.98264" lon="5.13215">
        <ele>345.6</ele>
        <time>2013-03-07T13:32:00Z</time>
      </trkpt>
      <trkpt lat="43.98268" lon="5.13214">
        <ele>345.7</ele>
        <time>2013-03-07T13:32:02Z</time>
      </trkpt>
      <trkpt lat="43.98269" lon="5.13214">
        <ele>345.6</ele>
        <time>2013-03-07T13:32:03Z</time>
      </trkpt>
      <trkpt lat="43.98273" lon="5.13213">
        <ele>346.2</ele>
        <time>2013-03-07T13:32:05Z</time>
      </trkpt>
      <trkpt lat="43.98275" lon="5.13212">
        <ele>346.3</ele>
        <time>2013-03-07T13:32:06Z</time>
      </trkpt>
      <trkpt lat="43.98279" lon="5.13211">
        <ele>346.7</ele>
        <time>2013-03-07T13:32:08Z</time>
      </trkpt>
      <trkpt lat="43.9828" lon="5.1321">
        <ele>347</ele>
        <time>2013-03-07T13:32:09Z</time>
      </trkpt>
      <trkpt lat="43.98283" lon="5.13207">
        <ele>347.3</ele>
        <time>2013-03-07T13:32:11Z</time>
      </trkpt>
      <trkpt lat="43.98285" lon="5.13206">
        <ele>347.3</ele>
        <time>2013-03-07T13:32:12Z</time>
      </trkpt>
      <trkpt lat="43.98288" lon="5.13204">
        <ele>347.3</ele>
        <time>2013-03-07T13:32:14Z</time>
      </trkpt>
      <trkpt lat="43.9829" lon="5.13202">
        <ele>347.3</ele>
        <time>2013-03-07T13:32:15Z</time>
      </trkpt>
      <trkpt lat="43.98293" lon="5.13199">
        <ele>347.3</ele>
        <time>2013-03-07T13:32:17Z</time>
      </trkpt>
      <trkpt lat="43.98294" lon="5.13198">
        <ele>347.7</ele>
        <time>2013-03-07T13:32:18Z</time>
      </trkpt>
      <trkpt lat="43.98297" lon="5.13195">
        <ele>348</ele>
        <time>2013-03-07T13:32:20Z</time>
      </trkpt>
      <trkpt lat="43.98299" lon="5.13194">
        <ele>348.4</ele>
        <time>2013-03-07T13:32:21Z</time>
      </trkpt>
      <trkpt lat="43.98303" lon="5.13191">
        <ele>349.1</ele>
        <time>2013-03-07T13:32:23Z</time>
      </trkpt>
      <trkpt lat="43.98304" lon="5.1319">
        <ele>349.3</ele>
        <time>2013-03-07T13:32:24Z</time>
      </trkpt>
      <trkpt lat="43.98308" lon="5.13188">
        <ele>349.8</ele>
        <time>2013-03-07T13:32:26Z</time>
      </trkpt>
      <trkpt lat="43.9831" lon="5.13187">
        <ele>350</ele>
        <time>2013-03-07T13:32:27Z</time>
      </trkpt>
      <trkpt lat="43.98313" lon="5.13184">
        <ele>350.3</ele>
        <time>2013-03-07T13:32:29Z</time>
      </trkpt>
      <trkpt lat="43.98315" lon="5.13183">
        <ele>350.7</ele>
        <time>2013-03-07T13:32:30Z</time>
      </trkpt>
      <trkpt lat="43.98318" lon="5.13182">
        <ele>350.9</ele>
        <time>2013-03-07T13:32:32Z</time>
      </trkpt>
      <trkpt lat="43.9832" lon="5.13182">
        <ele>350.9</ele>
        <time>2013-03-07T13:32:33Z</time>
      </trkpt>
      <trkpt lat="43.98323" lon="5.1318">
        <ele>351.3</ele>
        <time>2013-03-07T13:32:35Z</time>
      </trkpt>
      <trkpt lat="43.98325" lon="5.1318">
        <ele>351.3</ele>
        <time>2013-03-07T13:32:36Z</time>
      </trkpt>
      <trkpt lat="43.98329" lon="5.13179">
        <ele>351.7</ele>
        <time>2013-03-07T13:32:38Z</time>
      </trkpt>
      <trkpt lat="43.98331" lon="5.13179">
        <ele>351.9</ele>
        <time>2013-03-07T13:32:39Z</time>
      </trkpt>
      <trkpt lat="43.98335" lon="5.13179">
        <ele>352.1</ele>
        <time>2013-03-07T13:32:41Z</time>
      </trkpt>
      <trkpt lat="43.98337" lon="5.13179">
        <ele>352.5</ele>
        <time>2013-03-07T13:32:42Z</time>
      </trkpt>
      <trkpt lat="43.98341" lon="5.13179">
        <ele>352.7</ele>
        <time>2013-03-07T13:32:44Z</time>
      </trkpt>
      <trkpt lat="43.98343" lon="5.13179">
        <ele>353.2</ele>
        <time>2013-03-07T13:32:45Z</time>
      </trkpt>
      <trkpt lat="43.98347" lon="5.13179">
        <ele>353.1</ele>
        <time>2013-03-07T13:32:47Z</time>
      </trkpt>
      <trkpt lat="43.9835" lon="5.13179">
        <ele>353.2</ele>
        <time>2013-03-07T13:32:48Z</time>
      </trkpt>
      <trkpt lat="43.98354" lon="5.1318">
        <ele>353.4</ele>
        <time>2013-03-07T13:32:50Z</time>
      </trkpt>
      <trkpt lat="43.98356" lon="5.13181">
        <ele>353.2</ele>
        <time>2013-03-07T13:32:51Z</time>
      </trkpt>
      <trkpt lat="43.98359" lon="5.13181">
        <ele>354.7</ele>
        <time>2013-03-07T13:32:53Z</time>
      </trkpt>
      <trkpt lat="43.98362" lon="5.13184">
        <ele>352.3</ele>
        <time>2013-03-07T13:32:54Z</time>
      </trkpt>
      <trkpt lat="43.98364" lon="5.13185">
        <ele>353</ele>
        <time>2013-03-07T13:32:55Z</time>
      </trkpt>
      <trkpt lat="43.98366" lon="5.13186">
        <ele>352.8</ele>
        <time>2013-03-07T13:32:56Z</time>
      </trkpt>
      <trkpt lat="43.9837" lon="5.1319">
        <ele>352.8</ele>
        <time>2013-03-07T13:32:58Z</time>
      </trkpt>
      <trkpt lat="43.98372" lon="5.13192">
        <ele>352.4</ele>
        <time>2013-03-07T13:32:59Z</time>
      </trkpt>
      <trkpt lat="43.98374" lon="5.13195">
        <ele>351.8</ele>
        <time>2013-03-07T13:33:00Z</time>
      </trkpt>
      <trkpt lat="43.98376" lon="5.13197">
        <ele>351.2</ele>
        <time>2013-03-07T13:33:01Z</time>
      </trkpt>
      <trkpt lat="43.98378" lon="5.13201">
        <ele>350.9</ele>
        <time>2013-03-07T13:33:02Z</time>
      </trkpt>
      <trkpt lat="43.9838" lon="5.13203">
        <ele>352.1</ele>
        <time>2013-03-07T13:33:03Z</time>
      </trkpt>
      <trkpt lat="43.98383" lon="5.13207">
        <ele>351.1</ele>
        <time>2013-03-07T13:33:04Z</time>
      </trkpt>
      <trkpt lat="43.98385" lon="5.13209">
        <ele>351.2</ele>
        <time>2013-03-07T13:33:05Z</time>
      </trkpt>
      <trkpt lat="43.98388" lon="5.13212">
        <ele>350.9</ele>
        <time>2013-03-07T13:33:06Z</time>
      </trkpt>
      <trkpt lat="43.9839" lon="5.13214">
        <ele>350.6</ele>
        <time>2013-03-07T13:33:07Z</time>
      </trkpt>
      <trkpt lat="43.98393" lon="5.13216">
        <ele>350.9</ele>
        <time>2013-03-07T13:33:08Z</time>
      </trkpt>
      <trkpt lat="43.98396" lon="5.13218">
        <ele>351</ele>
        <time>2013-03-07T13:33:09Z</time>
      </trkpt>
      <trkpt lat="43.98398" lon="5.1322">
        <ele>350.8</ele>
        <time>2013-03-07T13:33:10Z</time>
      </trkpt>
      <trkpt lat="43.98401" lon="5.13223">
        <ele>350.7</ele>
        <time>2013-03-07T13:33:11Z</time>
      </trkpt>
      <trkpt lat="43.98404" lon="5.13225">
        <ele>350.4</ele>
        <time>2013-03-07T13:33:12Z</time>
      </trkpt>
      <trkpt lat="43.98407" lon="5.13227">
        <ele>350.2</ele>
        <time>2013-03-07T13:33:13Z</time>
      </trkpt>
      <trkpt lat="43.9841" lon="5.1323">
        <ele>350.4</ele>
        <time>2013-03-07T13:33:14Z</time>
      </trkpt>
      <trkpt lat="43.98413" lon="5.13232">
        <ele>350.5</ele>
        <time>2013-03-07T13:33:15Z</time>
      </trkpt>
      <trkpt lat="43.98416" lon="5.13235">
        <ele>350.5</ele>
        <time>2013-03-07T13:33:16Z</time>
      </trkpt>
      <trkpt lat="43.98419" lon="5.13238">
        <ele>350.5</ele>
        <time>2013-03-07T13:33:17Z</time>
      </trkpt>
      <trkpt lat="43.98422" lon="5.1324">
        <ele>350.6</ele>
        <time>2013-03-07T13:33:18Z</time>
      </trkpt>
      <trkpt lat="43.98425" lon="5.13243">
        <ele>350.7</ele>
        <time>2013-03-07T13:33:19Z</time>
      </trkpt>
      <trkpt lat="43.98428" lon="5.13246">
        <ele>350.7</ele>
        <time>2013-03-07T13:33:20Z</time>
      </trkpt>
      <trkpt lat="43.9843" lon="5.13249">
        <ele>350.8</ele>
        <time>2013-03-07T13:33:21Z</time>
      </trkpt>
      <trkpt lat="43.98433" lon="5.13251">
        <ele>350.8</ele>
        <time>2013-03-07T13:33:22Z</time>
      </trkpt>
      <trkpt lat="43.98436" lon="5.13254">
        <ele>350.5</ele>
        <time>2013-03-07T13:33:23Z</time>
      </trkpt>
      <trkpt lat="43.98439" lon="5.13257">
        <ele>350.5</ele>
        <time>2013-03-07T13:33:24Z</time>
      </trkpt>
      <trkpt lat="43.98442" lon="5.1326">
        <ele>350.5</ele>
        <time>2013-03-07T13:33:25Z</time>
      </trkpt>
      <trkpt lat="43.98445" lon="5.13262">
        <ele>350.6</ele>
        <time>2013-03-07T13:33:26Z</time>
      </trkpt>
      <trkpt lat="43.98448" lon="5.13265">
        <ele>350.9</ele>
        <time>2013-03-07T13:33:27Z</time>
      </trkpt>
      <trkpt lat="43.98451" lon="5.13267">
        <ele>351.1</ele>
        <time>2013-03-07T13:33:28Z</time>
      </trkpt>
      <trkpt lat="43.98454" lon="5.1327">
        <ele>351.2</ele>
        <time>2013-03-07T13:33:29Z</time>
      </trkpt>
      <trkpt lat="43.98456" lon="5.13272">
        <ele>351.5</ele>
        <time>2013-03-07T13:33:30Z</time>
      </trkpt>
      <trkpt lat="43.98459" lon="5.13275">
        <ele>351.8</ele>
        <time>2013-03-07T13:33:31Z</time>
      </trkpt>
      <trkpt lat="43.98461" lon="5.13277">
        <ele>352</ele>
        <time>2013-03-07T13:33:32Z</time>
      </trkpt>
      <trkpt lat="43.98463" lon="5.13279">
        <ele>352.2</ele>
        <time>2013-03-07T13:33:33Z</time>
      </trkpt>
      <trkpt lat="43.98466" lon="5.13281">
        <ele>352.8</ele>
        <time>2013-03-07T13:33:35Z</time>
      </trkpt>
      <trkpt lat="43.98468" lon="5.13282">
        <ele>352.7</ele>
        <time>2013-03-07T13:33:36Z</time>
      </trkpt>
      <trkpt lat="43.9847" lon="5.13286">
        <ele>352.9</ele>
        <time>2013-03-07T13:33:38Z</time>
      </trkpt>
      <trkpt lat="43.98471" lon="5.13288">
        <ele>352.7</ele>
        <time>2013-03-07T13:33:39Z</time>
      </trkpt>
      <trkpt lat="43.98473" lon="5.1329">
        <ele>353.2</ele>
        <time>2013-03-07T13:33:40Z</time>
      </trkpt>
      <trkpt lat="43.98474" lon="5.13293">
        <ele>352.8</ele>
        <time>2013-03-07T13:33:41Z</time>
      </trkpt>
      <trkpt lat="43.98476" lon="5.13296">
        <ele>352.2</ele>
        <time>2013-03-07T13:33:42Z</time>
      </trkpt>
      <trkpt lat="43.98477" lon="5.13299">
        <ele>352.3</ele>
        <time>2013-03-07T13:33:43Z</time>
      </trkpt>
      <trkpt lat="43.98478" lon="5.13301">
        <ele>352.9</ele>
        <time>2013-03-07T13:33:44Z</time>
      </trkpt>
      <trkpt lat="43.9848" lon="5.13305">
        <ele>352.2</ele>
        <time>2013-03-07T13:33:45Z</time>
      </trkpt>
      <trkpt lat="43.98483" lon="5.13307">
        <ele>352.6</ele>
        <time>2013-03-07T13:33:46Z</time>
      </trkpt>
      <trkpt lat="43.98485" lon="5.13309">
        <ele>352.4</ele>
        <time>2013-03-07T13:33:47Z</time>
      </trkpt>
      <trkpt lat="43.98488" lon="5.1331">
        <ele>352</ele>
        <time>2013-03-07T13:33:48Z</time>
      </trkpt>
      <trkpt lat="43.98491" lon="5.13311">
        <ele>351.8</ele>
        <time>2013-03-07T13:33:49Z</time>
      </trkpt>
      <trkpt lat="43.98496" lon="5.13308">
        <ele>351.2</ele>
        <time>2013-03-07T13:33:50Z</time>
      </trkpt>
      <trkpt lat="43.98501" lon="5.13306">
        <ele>351</ele>
        <time>2013-03-07T13:33:51Z</time>
      </trkpt>
      <trkpt lat="43.98505" lon="5.13305">
        <ele>350.9</ele>
        <time>2013-03-07T13:33:52Z</time>
      </trkpt>
      <trkpt lat="43.9851" lon="5.13302">
        <ele>350.2</ele>
        <time>2013-03-07T13:33:53Z</time>
      </trkpt>
      <trkpt lat="43.98515" lon="5.133">
        <ele>350.3</ele>
        <time>2013-03-07T13:33:54Z</time>
      </trkpt>
      <trkpt lat="43.9852" lon="5.13298">
        <ele>348.9</ele>
        <time>2013-03-07T13:33:55Z</time>
      </trkpt>
      <trkpt lat="43.98524" lon="5.13295">
        <ele>349.4</ele>
        <time>2013-03-07T13:33:56Z</time>
      </trkpt>
      <trkpt lat="43.98527" lon="5.13293">
        <ele>349.1</ele>
        <time>2013-03-07T13:33:57Z</time>
      </trkpt>
      <trkpt lat="43.9853" lon="5.1329">
        <ele>349.4</ele>
        <time>2013-03-07T13:33:58Z</time>
      </trkpt>
      <trkpt lat="43.98533" lon="5.13288">
        <ele>349.8</ele>
        <time>2013-03-07T13:33:59Z</time>
      </trkpt>
      <trkpt lat="43.98535" lon="5.13286">
        <ele>350.1</ele>
        <time>2013-03-07T13:34:00Z</time>
      </trkpt>
      <trkpt lat="43.98537" lon="5.13284">
        <ele>349.6</ele>
        <time>2013-03-07T13:34:01Z</time>
      </trkpt>
      <trkpt lat="43.98541" lon="5.13285">
        <ele>350.7</ele>
        <time>2013-03-07T13:35:12Z</time>
      </trkpt>
      <trkpt lat="43.98543" lon="5.13286">
        <ele>349.8</ele>
        <time>2013-03-07T13:35:13Z</time>
      </trkpt>
      <trkpt lat="43.98547" lon="5.13283">
        <ele>348.9</ele>
        <time>2013-03-07T13:35:17Z</time>
      </trkpt>
      <trkpt lat="43.98548" lon="5.13283">
        <ele>348.3</ele>
        <time>2013-03-07T13:35:18Z</time>
      </trkpt>
      <trkpt lat="43.98551" lon="5.13282">
        <ele>348.3</ele>
        <time>2013-03-07T13:35:20Z</time>
      </trkpt>
      <trkpt lat="43.98553" lon="5.13282">
        <ele>348.6</ele>
        <time>2013-03-07T13:35:21Z</time>
      </trkpt>
      <trkpt lat="43.98556" lon="5.13281">
        <ele>348.6</ele>
        <time>2013-03-07T13:35:23Z</time>
      </trkpt>
      <trkpt lat="43.98558" lon="5.13277">
        <ele>348.6</ele>
        <time>2013-03-07T13:35:24Z</time>
      </trkpt>
      <trkpt lat="43.98561" lon="5.13273">
        <ele>348.8</ele>
        <time>2013-03-07T13:35:26Z</time>
      </trkpt>
      <trkpt lat="43.98565" lon="5.13272">
        <ele>347.7</ele>
        <time>2013-03-07T13:35:27Z</time>
      </trkpt>
      <trkpt lat="43.98568" lon="5.1327">
        <ele>347.9</ele>
        <time>2013-03-07T13:35:28Z</time>
      </trkpt>
      <trkpt lat="43.98571" lon="5.13268">
        <ele>348</ele>
        <time>2013-03-07T13:35:29Z</time>
      </trkpt>
      <trkpt lat="43.98573" lon="5.13265">
        <ele>347.6</ele>
        <time>2013-03-07T13:35:30Z</time>
      </trkpt>
      <trkpt lat="43.98576" lon="5.13263">
        <ele>347.8</ele>
        <time>2013-03-07T13:35:31Z</time>
      </trkpt>
      <trkpt lat="43.98579" lon="5.13258">
        <ele>348.5</ele>
        <time>2013-03-07T13:35:33Z</time>
      </trkpt>
      <trkpt lat="43.98579" lon="5.13257">
        <ele>348.8</ele>
        <time>2013-03-07T13:35:34Z</time>
      </trkpt>
      <trkpt lat="43.98579" lon="5.13251">
        <ele>349.5</ele>
        <time>2013-03-07T13:35:46Z</time>
      </trkpt>
      <trkpt lat="43.98579" lon="5.1325">
        <ele>349.1</ele>
        <time>2013-03-07T13:35:47Z</time>
      </trkpt>
      <trkpt lat="43.98583" lon="5.1325">
        <ele>349.1</ele>
        <time>2013-03-07T13:35:55Z</time>
      </trkpt>
      <trkpt lat="43.98584" lon="5.13251">
        <ele>349.1</ele>
        <time>2013-03-07T13:35:56Z</time>
      </trkpt>
      <trkpt lat="43.98587" lon="5.13248">
        <ele>346.4</ele>
        <time>2013-03-07T13:36:02Z</time>
      </trkpt>
      <trkpt lat="43.98589" lon="5.13246">
        <ele>347.2</ele>
        <time>2013-03-07T13:36:03Z</time>
      </trkpt>
      <trkpt lat="43.98591" lon="5.13245">
        <ele>347.7</ele>
        <time>2013-03-07T13:36:05Z</time>
      </trkpt>
      <trkpt lat="43.98593" lon="5.13244">
        <ele>347.5</ele>
        <time>2013-03-07T13:36:06Z</time>
      </trkpt>
      <trkpt lat="43.98597" lon="5.13241">
        <ele>347.6</ele>
        <time>2013-03-07T13:36:08Z</time>
      </trkpt>
      <trkpt lat="43.98598" lon="5.13238">
        <ele>347.3</ele>
        <time>2013-03-07T13:36:09Z</time>
      </trkpt>
      <trkpt lat="43.98601" lon="5.13234">
        <ele>346.6</ele>
        <time>2013-03-07T13:36:12Z</time>
      </trkpt>
      <trkpt lat="43.98602" lon="5.13233">
        <ele>346.8</ele>
        <time>2013-03-07T13:36:13Z</time>
      </trkpt>
      <trkpt lat="43.98603" lon="5.13227">
        <ele>349.2</ele>
        <time>2013-03-07T13:36:33Z</time>
      </trkpt>
      <trkpt lat="43.98603" lon="5.13226">
        <ele>349.4</ele>
        <time>2013-03-07T13:36:34Z</time>
      </trkpt>
      <trkpt lat="43.98602" lon="5.13221">
        <ele>349.6</ele>
        <time>2013-03-07T13:36:38Z</time>
      </trkpt>
      <trkpt lat="43.98602" lon="5.13219">
        <ele>349.3</ele>
        <time>2013-03-07T13:36:39Z</time>
      </trkpt>
      <trkpt lat="43.98603" lon="5.13215">
        <ele>349.4</ele>
        <time>2013-03-07T13:36:44Z</time>
      </trkpt>
      <trkpt lat="43.98603" lon="5.13213">
        <ele>349.3</ele>
        <time>2013-03-07T13:36:45Z</time>
      </trkpt>
      <trkpt lat="43.98605" lon="5.13209">
        <ele>349</ele>
        <time>2013-03-07T13:36:46Z</time>
      </trkpt>
      <trkpt lat="43.98606" lon="5.13207">
        <ele>348.9</ele>
        <time>2013-03-07T13:36:47Z</time>
      </trkpt>
      <trkpt lat="43.98608" lon="5.13205">
        <ele>349</ele>
        <time>2013-03-07T13:36:48Z</time>
      </trkpt>
      <trkpt lat="43.98611" lon="5.13203">
        <ele>348.8</ele>
        <time>2013-03-07T13:36:49Z</time>
      </trkpt>
      <trkpt lat="43.98614" lon="5.13202">
        <ele>348.4</ele>
        <time>2013-03-07T13:36:50Z</time>
      </trkpt>
      <trkpt lat="43.98617" lon="5.13201">
        <ele>348.4</ele>
        <time>2013-03-07T13:36:51Z</time>
      </trkpt>
      <trkpt lat="43.98621" lon="5.13199">
        <ele>348.1</ele>
        <time>2013-03-07T13:36:53Z</time>
      </trkpt>
      <trkpt lat="43.98622" lon="5.132">
        <ele>348.1</ele>
        <time>2013-03-07T13:36:54Z</time>
      </trkpt>
      <trkpt lat="43.98624" lon="5.132">
        <ele>348.1</ele>
        <time>2013-03-07T13:36:55Z</time>
      </trkpt>
      <trkpt lat="43.98627" lon="5.13199">
        <ele>347.9</ele>
        <time>2013-03-07T13:36:56Z</time>
      </trkpt>
      <trkpt lat="43.9863" lon="5.13197">
        <ele>347.6</ele>
        <time>2013-03-07T13:36:58Z</time>
      </trkpt>
      <trkpt lat="43.98632" lon="5.13196">
        <ele>347.5</ele>
        <time>2013-03-07T13:36:59Z</time>
      </trkpt>
      <trkpt lat="43.98634" lon="5.13194">
        <ele>347.5</ele>
        <time>2013-03-07T13:37:00Z</time>
      </trkpt>
      <trkpt lat="43.98636" lon="5.13192">
        <ele>347.4</ele>
        <time>2013-03-07T13:37:01Z</time>
      </trkpt>
      <trkpt lat="43.98639" lon="5.13189">
        <ele>347</ele>
        <time>2013-03-07T13:37:02Z</time>
      </trkpt>
      <trkpt lat="43.98642" lon="5.13186">
        <ele>347.1</ele>
        <time>2013-03-07T13:37:03Z</time>
      </trkpt>
      <trkpt lat="43.98645" lon="5.13183">
        <ele>347.1</ele>
        <time>2013-03-07T13:37:04Z</time>
      </trkpt>
      <trkpt lat="43.98647" lon="5.13181">
        <ele>346.4</ele>
        <time>2013-03-07T13:37:05Z</time>
      </trkpt>
      <trkpt lat="43.98651" lon="5.13178">
        <ele>346.4</ele>
        <time>2013-03-07T13:37:07Z</time>
      </trkpt>
      <trkpt lat="43.98652" lon="5.13177">
        <ele>346.6</ele>
        <time>2013-03-07T13:37:08Z</time>
      </trkpt>
      <trkpt lat="43.98656" lon="5.13174">
        <ele>346.5</ele>
        <time>2013-03-07T13:37:15Z</time>
      </trkpt>
      <trkpt lat="43.98656" lon="5.13174">
        <ele>346.6</ele>
        <time>2013-03-07T13:37:16Z</time>
      </trkpt>
      <trkpt lat="43.98659" lon="5.1317">
        <ele>346.7</ele>
        <time>2013-03-07T13:37:22Z</time>
      </trkpt>
      <trkpt lat="43.9866" lon="5.13168">
        <ele>346.5</ele>
        <time>2013-03-07T13:37:23Z</time>
      </trkpt>
      <trkpt lat="43.98662" lon="5.13163">
        <ele>346.4</ele>
        <time>2013-03-07T13:37:25Z</time>
      </trkpt>
      <trkpt lat="43.98664" lon="5.13159">
        <ele>346.4</ele>
        <time>2013-03-07T13:37:26Z</time>
      </trkpt>
      <trkpt lat="43.98665" lon="5.13156">
        <ele>346.4</ele>
        <time>2013-03-07T13:37:27Z</time>
      </trkpt>
      <trkpt lat="43.98667" lon="5.13153">
        <ele>345.7</ele>
        <time>2013-03-07T13:37:28Z</time>
      </trkpt>
      <trkpt lat="43.98669" lon="5.1315">
        <ele>345.4</ele>
        <time>2013-03-07T13:37:29Z</time>
      </trkpt>
      <trkpt lat="43.98671" lon="5.13148">
        <ele>345</ele>
        <time>2013-03-07T13:37:30Z</time>
      </trkpt>
      <trkpt lat="43.98675" lon="5.13146">
        <ele>345.7</ele>
        <time>2013-03-07T13:37:32Z</time>
      </trkpt>
      <trkpt lat="43.98677" lon="5.13146">
        <ele>345.5</ele>
        <time>2013-03-07T13:37:33Z</time>
      </trkpt>
      <trkpt lat="43.9868" lon="5.13146">
        <ele>345.2</ele>
        <time>2013-03-07T13:37:34Z</time>
      </trkpt>
      <trkpt lat="43.98683" lon="5.13146">
        <ele>344.6</ele>
        <time>2013-03-07T13:37:35Z</time>
      </trkpt>
      <trkpt lat="43.98687" lon="5.13145">
        <ele>344.6</ele>
        <time>2013-03-07T13:37:37Z</time>
      </trkpt>
      <trkpt lat="43.98688" lon="5.13143">
        <ele>344.1</ele>
        <time>2013-03-07T13:37:38Z</time>
      </trkpt>
      <trkpt lat="43.98692" lon="5.13141">
        <ele>346.3</ele>
        <time>2013-03-07T13:38:39Z</time>
      </trkpt>
      <trkpt lat="43.98692" lon="5.13139">
        <ele>347</ele>
        <time>2013-03-07T13:38:40Z</time>
      </trkpt>
      <trkpt lat="43.98693" lon="5.13136">
        <ele>348</ele>
        <time>2013-03-07T13:38:41Z</time>
      </trkpt>
      <trkpt lat="43.98694" lon="5.13132">
        <ele>349.2</ele>
        <time>2013-03-07T13:38:42Z</time>
      </trkpt>
      <trkpt lat="43.98698" lon="5.13131">
        <ele>350.2</ele>
        <time>2013-03-07T13:38:44Z</time>
      </trkpt>
      <trkpt lat="43.987" lon="5.13132">
        <ele>349.5</ele>
        <time>2013-03-07T13:38:45Z</time>
      </trkpt>
      <trkpt lat="43.98704" lon="5.13134">
        <ele>347.6</ele>
        <time>2013-03-07T13:38:48Z</time>
      </trkpt>
      <trkpt lat="43.98705" lon="5.13132">
        <ele>347.3</ele>
        <time>2013-03-07T13:38:49Z</time>
      </trkpt>
      <trkpt lat="43.98709" lon="5.13129">
        <ele>345.4</ele>
        <time>2013-03-07T13:38:58Z</time>
      </trkpt>
      <trkpt lat="43.98709" lon="5.13128">
        <ele>345.7</ele>
        <time>2013-03-07T13:38:59Z</time>
      </trkpt>
      <trkpt lat="43.98711" lon="5.13123">
        <ele>347</ele>
        <time>2013-03-07T13:39:10Z</time>
      </trkpt>
      <trkpt lat="43.98711" lon="5.13122">
        <ele>347.4</ele>
        <time>2013-03-07T13:39:11Z</time>
      </trkpt>
      <trkpt lat="43.98715" lon="5.13121">
        <ele>345.7</ele>
        <time>2013-03-07T13:39:15Z</time>
      </trkpt>
      <trkpt lat="43.98716" lon="5.1312">
        <ele>345.8</ele>
        <time>2013-03-07T13:39:16Z</time>
      </trkpt>
      <trkpt lat="43.98718" lon="5.13116">
        <ele>344.1</ele>
        <time>2013-03-07T13:39:21Z</time>
      </trkpt>
      <trkpt lat="43.98719" lon="5.13115">
        <ele>344.8</ele>
        <time>2013-03-07T13:39:22Z</time>
      </trkpt>
      <trkpt lat="43.9872" lon="5.13111">
        <ele>345.2</ele>
        <time>2013-03-07T13:39:24Z</time>
      </trkpt>
      <trkpt lat="43.98721" lon="5.13108">
        <ele>345.1</ele>
        <time>2013-03-07T13:39:25Z</time>
      </trkpt>
      <trkpt lat="43.98723" lon="5.13106">
        <ele>345.5</ele>
        <time>2013-03-07T13:39:27Z</time>
      </trkpt>
      <trkpt lat="43.98725" lon="5.13106">
        <ele>345.5</ele>
        <time>2013-03-07T13:39:28Z</time>
      </trkpt>
      <trkpt lat="43.98728" lon="5.13105">
        <ele>346.1</ele>
        <time>2013-03-07T13:39:30Z</time>
      </trkpt>
      <trkpt lat="43.9873" lon="5.13103">
        <ele>346.1</ele>
        <time>2013-03-07T13:39:31Z</time>
      </trkpt>
      <trkpt lat="43.98731" lon="5.13101">
        <ele>346.3</ele>
        <time>2013-03-07T13:39:32Z</time>
      </trkpt>
      <trkpt lat="43.98733" lon="5.13098">
        <ele>346.2</ele>
        <time>2013-03-07T13:39:33Z</time>
      </trkpt>
      <trkpt lat="43.98737" lon="5.13097">
        <ele>346.2</ele>
        <time>2013-03-07T13:39:36Z</time>
      </trkpt>
      <trkpt lat="43.98739" lon="5.13099">
        <ele>346.2</ele>
        <time>2013-03-07T13:39:37Z</time>
      </trkpt>
      <trkpt lat="43.98741" lon="5.13103">
        <ele>345.7</ele>
        <time>2013-03-07T13:39:39Z</time>
      </trkpt>
      <trkpt lat="43.98743" lon="5.13103">
        <ele>345.5</ele>
        <time>2013-03-07T13:39:40Z</time>
      </trkpt>
      <trkpt lat="43.98746" lon="5.131">
        <ele>345.7</ele>
        <time>2013-03-07T13:39:42Z</time>
      </trkpt>
      <trkpt lat="43.98748" lon="5.13098">
        <ele>345.5</ele>
        <time>2013-03-07T13:39:43Z</time>
      </trkpt>
      <trkpt lat="43.98751" lon="5.13096">
        <ele>345.1</ele>
        <time>2013-03-07T13:39:44Z</time>
      </trkpt>
      <trkpt lat="43.98754" lon="5.13095">
        <ele>344.7</ele>
        <time>2013-03-07T13:39:45Z</time>
      </trkpt>
      <trkpt lat="43.98756" lon="5.13092">
        <ele>344.5</ele>
        <time>2013-03-07T13:39:46Z</time>
      </trkpt>
      <trkpt lat="43.98758" lon="5.1309">
        <ele>344.3</ele>
        <time>2013-03-07T13:39:47Z</time>
      </trkpt>
      <trkpt lat="43.98761" lon="5.13088">
        <ele>344.3</ele>
        <time>2013-03-07T13:39:48Z</time>
      </trkpt>
      <trkpt lat="43.98764" lon="5.13088">
        <ele>344.1</ele>
        <time>2013-03-07T13:39:49Z</time>
      </trkpt>
      <trkpt lat="43.98766" lon="5.13087">
        <ele>344.2</ele>
        <time>2013-03-07T13:39:50Z</time>
      </trkpt>
      <trkpt lat="43.98768" lon="5.13086">
        <ele>344.2</ele>
        <time>2013-03-07T13:39:51Z</time>
      </trkpt>
      <trkpt lat="43.98771" lon="5.13085">
        <ele>343.9</ele>
        <time>2013-03-07T13:39:52Z</time>
      </trkpt>
      <trkpt lat="43.98774" lon="5.13085">
        <ele>343.9</ele>
        <time>2013-03-07T13:39:53Z</time>
      </trkpt>
      <trkpt lat="43.98777" lon="5.13085">
        <ele>344</ele>
        <time>2013-03-07T13:39:54Z</time>
      </trkpt>
      <trkpt lat="43.98779" lon="5.13077">
        <ele>343.4</ele>
        <time>2013-03-07T13:39:55Z</time>
      </trkpt>
      <trkpt lat="43.98785" lon="5.13072">
        <ele>342.7</ele>
        <time>2013-03-07T13:39:57Z</time>
      </trkpt>
      <trkpt lat="43.98788" lon="5.1307">
        <ele>342.6</ele>
        <time>2013-03-07T13:39:58Z</time>
      </trkpt>
      <trkpt lat="43.98791" lon="5.13068">
        <ele>342.5</ele>
        <time>2013-03-07T13:39:59Z</time>
      </trkpt>
      <trkpt lat="43.98795" lon="5.13067">
        <ele>342.7</ele>
        <time>2013-03-07T13:40:00Z</time>
      </trkpt>
      <trkpt lat="43.98798" lon="5.13065">
        <ele>342.9</ele>
        <time>2013-03-07T13:40:01Z</time>
      </trkpt>
      <trkpt lat="43.98802" lon="5.13065">
        <ele>343</ele>
        <time>2013-03-07T13:40:02Z</time>
      </trkpt>
      <trkpt lat="43.98804" lon="5.13064">
        <ele>342.7</ele>
        <time>2013-03-07T13:40:03Z</time>
      </trkpt>
      <trkpt lat="43.98806" lon="5.13061">
        <ele>342.5</ele>
        <time>2013-03-07T13:40:04Z</time>
      </trkpt>
      <trkpt lat="43.98809" lon="5.13059">
        <ele>342.2</ele>
        <time>2013-03-07T13:40:05Z</time>
      </trkpt>
      <trkpt lat="43.98813" lon="5.13058">
        <ele>342.2</ele>
        <time>2013-03-07T13:40:08Z</time>
      </trkpt>
      <trkpt lat="43.98814" lon="5.13059">
        <ele>342.2</ele>
        <time>2013-03-07T13:40:09Z</time>
      </trkpt>
      <trkpt lat="43.98817" lon="5.13059">
        <ele>342.1</ele>
        <time>2013-03-07T13:40:10Z</time>
      </trkpt>
      <trkpt lat="43.98819" lon="5.13058">
        <ele>342.2</ele>
        <time>2013-03-07T13:40:11Z</time>
      </trkpt>
      <trkpt lat="43.98821" lon="5.13057">
        <ele>342.4</ele>
        <time>2013-03-07T13:40:12Z</time>
      </trkpt>
      <trkpt lat="43.98824" lon="5.13055">
        <ele>342.3</ele>
        <time>2013-03-07T13:40:13Z</time>
      </trkpt>
      <trkpt lat="43.98827" lon="5.13054">
        <ele>342.4</ele>
        <time>2013-03-07T13:40:14Z</time>
      </trkpt>
      <trkpt lat="43.9883" lon="5.13052">
        <ele>342.4</ele>
        <time>2013-03-07T13:40:15Z</time>
      </trkpt>
      <trkpt lat="43.98832" lon="5.13051">
        <ele>342.2</ele>
        <time>2013-03-07T13:40:16Z</time>
      </trkpt>
      <trkpt lat="43.98836" lon="5.13051">
        <ele>342.3</ele>
        <time>2013-03-07T13:40:17Z</time>
      </trkpt>
      <trkpt lat="43.98839" lon="5.1305">
        <ele>342.2</ele>
        <time>2013-03-07T13:40:18Z</time>
      </trkpt>
      <trkpt lat="43.98843" lon="5.13049">
        <ele>342</ele>
        <time>2013-03-07T13:40:19Z</time>
      </trkpt>
      <trkpt lat="43.98846" lon="5.13048">
        <ele>342</ele>
        <time>2013-03-07T13:40:20Z</time>
      </trkpt>
      <trkpt lat="43.9885" lon="5.13046">
        <ele>342.1</ele>
        <time>2013-03-07T13:40:21Z</time>
      </trkpt>
      <trkpt lat="43.98853" lon="5.13046">
        <ele>341.7</ele>
        <time>2013-03-07T13:40:22Z</time>
      </trkpt>
      <trkpt lat="43.98857" lon="5.13045">
        <ele>341.6</ele>
        <time>2013-03-07T13:40:23Z</time>
      </trkpt>
      <trkpt lat="43.9886" lon="5.13044">
        <ele>341.6</ele>
        <time>2013-03-07T13:40:24Z</time>
      </trkpt>
      <trkpt lat="43.98863" lon="5.13043">
        <ele>341.7</ele>
        <time>2013-03-07T13:40:25Z</time>
      </trkpt>
      <trkpt lat="43.98867" lon="5.13041">
        <ele>341.3</ele>
        <time>2013-03-07T13:40:27Z</time>
      </trkpt>
      <trkpt lat="43.98869" lon="5.13041">
        <ele>341.1</ele>
        <time>2013-03-07T13:40:28Z</time>
      </trkpt>
      <trkpt lat="43.98868" lon="5.13041">
        <ele>345.6</ele>
        <time>2013-03-07T13:40:31Z</time>
      </trkpt>
      <trkpt lat="43.9886" lon="5.13044">
        <ele>350.5</ele>
        <time>2013-03-07T13:40:32Z</time>
      </trkpt>
      <trkpt lat="43.98859" lon="5.13037">
        <ele>352</ele>
        <time>2013-03-07T13:40:33Z</time>
      </trkpt>
      <trkpt lat="43.98867" lon="5.1304">
        <ele>346.1</ele>
        <time>2013-03-07T13:40:34Z</time>
      </trkpt>
      <trkpt lat="43.98867" lon="5.1304">
        <ele>346</ele>
        <time>2013-03-07T13:41:05Z</time>
      </trkpt>
      <trkpt lat="43.98872" lon="5.13042">
        <ele>346.5</ele>
        <time>2013-03-07T13:41:06Z</time>
      </trkpt>
      <trkpt lat="43.98873" lon="5.13046">
        <ele>346.6</ele>
        <time>2013-03-07T13:41:08Z</time>
      </trkpt>
      <trkpt lat="43.98875" lon="5.1305">
        <ele>345.2</ele>
        <time>2013-03-07T13:41:09Z</time>
      </trkpt>
      <trkpt lat="43.98876" lon="5.13056">
        <ele>343.6</ele>
        <time>2013-03-07T13:41:11Z</time>
      </trkpt>
      <trkpt lat="43.98877" lon="5.13057">
        <ele>343.3</ele>
        <time>2013-03-07T13:41:12Z</time>
      </trkpt>
      <trkpt lat="43.98878" lon="5.13063">
        <ele>341.5</ele>
        <time>2013-03-07T13:41:19Z</time>
      </trkpt>
      <trkpt lat="43.98878" lon="5.13066">
        <ele>341.3</ele>
        <time>2013-03-07T13:41:20Z</time>
      </trkpt>
      <trkpt lat="43.98877" lon="5.13068">
        <ele>341.3</ele>
        <time>2013-03-07T13:41:21Z</time>
      </trkpt>
      <trkpt lat="43.98875" lon="5.13072">
        <ele>340.8</ele>
        <time>2013-03-07T13:41:22Z</time>
      </trkpt>
      <trkpt lat="43.98873" lon="5.13075">
        <ele>340</ele>
        <time>2013-03-07T13:41:23Z</time>
      </trkpt>
      <trkpt lat="43.9887" lon="5.13077">
        <ele>340.2</ele>
        <time>2013-03-07T13:41:24Z</time>
      </trkpt>
      <trkpt lat="43.98869" lon="5.13082">
        <ele>339.5</ele>
        <time>2013-03-07T13:41:26Z</time>
      </trkpt>
      <trkpt lat="43.98869" lon="5.13084">
        <ele>340.1</ele>
        <time>2013-03-07T13:41:27Z</time>
      </trkpt>
      <trkpt lat="43.98871" lon="5.13085">
        <ele>339.6</ele>
        <time>2013-03-07T13:41:28Z</time>
      </trkpt>
      <trkpt lat="43.98874" lon="5.13085">
        <ele>339.3</ele>
        <time>2013-03-07T13:41:29Z</time>
      </trkpt>
      <trkpt lat="43.98877" lon="5.13084">
        <ele>339.3</ele>
        <time>2013-03-07T13:41:30Z</time>
      </trkpt>
      <trkpt lat="43.98879" lon="5.13082">
        <ele>339.1</ele>
        <time>2013-03-07T13:41:31Z</time>
      </trkpt>
      <trkpt lat="43.98883" lon="5.1308">
        <ele>338.5</ele>
        <time>2013-03-07T13:41:33Z</time>
      </trkpt>
      <trkpt lat="43.98885" lon="5.13079">
        <ele>338.5</ele>
        <time>2013-03-07T13:41:34Z</time>
      </trkpt>
      <trkpt lat="43.98888" lon="5.13079">
        <ele>338.2</ele>
        <time>2013-03-07T13:41:36Z</time>
      </trkpt>
      <trkpt lat="43.9889" lon="5.13078">
        <ele>338.1</ele>
        <time>2013-03-07T13:41:37Z</time>
      </trkpt>
      <trkpt lat="43.98893" lon="5.13079">
        <ele>337.5</ele>
        <time>2013-03-07T13:41:38Z</time>
      </trkpt>
      <trkpt lat="43.98896" lon="5.13079">
        <ele>336.8</ele>
        <time>2013-03-07T13:41:39Z</time>
      </trkpt>
      <trkpt lat="43.98899" lon="5.1308">
        <ele>335.9</ele>
        <time>2013-03-07T13:41:40Z</time>
      </trkpt>
      <trkpt lat="43.98902" lon="5.1308">
        <ele>335.1</ele>
        <time>2013-03-07T13:41:41Z</time>
      </trkpt>
      <trkpt lat="43.98907" lon="5.13081">
        <ele>334.4</ele>
        <time>2013-03-07T13:41:42Z</time>
      </trkpt>
      <trkpt lat="43.98911" lon="5.1308">
        <ele>333.9</ele>
        <time>2013-03-07T13:41:43Z</time>
      </trkpt>
      <trkpt lat="43.98915" lon="5.1308">
        <ele>333.6</ele>
        <time>2013-03-07T13:41:44Z</time>
      </trkpt>
      <trkpt lat="43.98918" lon="5.13079">
        <ele>332.9</ele>
        <time>2013-03-07T13:41:45Z</time>
      </trkpt>
      <trkpt lat="43.98922" lon="5.13079">
        <ele>333.2</ele>
        <time>2013-03-07T13:41:46Z</time>
      </trkpt>
      <trkpt lat="43.98925" lon="5.13079">
        <ele>333.2</ele>
        <time>2013-03-07T13:41:47Z</time>
      </trkpt>
      <trkpt lat="43.98929" lon="5.13079">
        <ele>332.2</ele>
        <time>2013-03-07T13:41:49Z</time>
      </trkpt>
      <trkpt lat="43.9893" lon="5.13079">
        <ele>331.4</ele>
        <time>2013-03-07T13:41:50Z</time>
      </trkpt>
      <trkpt lat="43.98933" lon="5.13079">
        <ele>331.4</ele>
        <time>2013-03-07T13:42:18Z</time>
      </trkpt>
      <trkpt lat="43.98934" lon="5.13082">
        <ele>331.2</ele>
        <time>2013-03-07T13:42:19Z</time>
      </trkpt>
      <trkpt lat="43.98931" lon="5.13083">
        <ele>329.8</ele>
        <time>2013-03-07T13:42:23Z</time>
      </trkpt>
      <trkpt lat="43.98929" lon="5.13083">
        <ele>329.2</ele>
        <time>2013-03-07T13:42:24Z</time>
      </trkpt>
      <trkpt lat="43.98932" lon="5.1308">
        <ele>326.9</ele>
        <time>2013-03-07T13:42:33Z</time>
      </trkpt>
      <trkpt lat="43.98933" lon="5.1308">
        <ele>327.1</ele>
        <time>2013-03-07T13:42:34Z</time>
      </trkpt>
      <trkpt lat="43.98935" lon="5.13079">
        <ele>327.7</ele>
        <time>2013-03-07T13:42:38Z</time>
      </trkpt>
      <trkpt lat="43.98938" lon="5.13078">
        <ele>328.3</ele>
        <time>2013-03-07T13:42:39Z</time>
      </trkpt>
      <trkpt lat="43.98934" lon="5.13077">
        <ele>328.6</ele>
        <time>2013-03-07T13:42:46Z</time>
      </trkpt>
      <trkpt lat="43.98933" lon="5.13077">
        <ele>328.6</ele>
        <time>2013-03-07T13:42:47Z</time>
      </trkpt>
      <trkpt lat="43.98937" lon="5.13075">
        <ele>329.2</ele>
        <time>2013-03-07T13:43:01Z</time>
      </trkpt>
      <trkpt lat="43.98938" lon="5.13074">
        <ele>328.2</ele>
        <time>2013-03-07T13:43:02Z</time>
      </trkpt>
      <trkpt lat="43.98942" lon="5.13074">
        <ele>330.8</ele>
        <time>2013-03-07T13:43:08Z</time>
      </trkpt>
      <trkpt lat="43.98943" lon="5.13076">
        <ele>330</ele>
        <time>2013-03-07T13:43:09Z</time>
      </trkpt>
      <trkpt lat="43.98941" lon="5.13078">
        <ele>330.3</ele>
        <time>2013-03-07T13:43:31Z</time>
      </trkpt>
      <trkpt lat="43.98937" lon="5.1308">
        <ele>331.2</ele>
        <time>2013-03-07T13:43:32Z</time>
      </trkpt>
      <trkpt lat="43.98934" lon="5.13081">
        <ele>330.7</ele>
        <time>2013-03-07T13:43:33Z</time>
      </trkpt>
      <trkpt lat="43.98931" lon="5.13081">
        <ele>331.3</ele>
        <time>2013-03-07T13:43:34Z</time>
      </trkpt>
      <trkpt lat="43.98929" lon="5.13083">
        <ele>332</ele>
        <time>2013-03-07T13:43:36Z</time>
      </trkpt>
      <trkpt lat="43.98924" lon="5.13084">
        <ele>332.2</ele>
        <time>2013-03-07T13:43:37Z</time>
      </trkpt>
      <trkpt lat="43.98921" lon="5.13084">
        <ele>332.7</ele>
        <time>2013-03-07T13:43:38Z</time>
      </trkpt>
      <trkpt lat="43.98919" lon="5.13083">
        <ele>332.4</ele>
        <time>2013-03-07T13:43:39Z</time>
      </trkpt>
      <trkpt lat="43.98916" lon="5.13085">
        <ele>334.2</ele>
        <time>2013-03-07T13:43:41Z</time>
      </trkpt>
      <trkpt lat="43.98913" lon="5.13084">
        <ele>334.8</ele>
        <time>2013-03-07T13:43:42Z</time>
      </trkpt>
      <trkpt lat="43.98911" lon="5.13081">
        <ele>334.8</ele>
        <time>2013-03-07T13:43:44Z</time>
      </trkpt>
      <trkpt lat="43.98908" lon="5.13086">
        <ele>334.9</ele>
        <time>2013-03-07T13:43:45Z</time>
      </trkpt>
      <trkpt lat="43.98898" lon="5.13088">
        <ele>334.9</ele>
        <time>2013-03-07T13:43:46Z</time>
      </trkpt>
      <trkpt lat="43.98897" lon="5.13084">
        <ele>334.7</ele>
        <time>2013-03-07T13:43:47Z</time>
      </trkpt>
      <trkpt lat="43.98883" lon="5.13079">
        <ele>332.1</ele>
        <time>2013-03-07T13:43:48Z</time>
      </trkpt>
      <trkpt lat="43.98885" lon="5.13074">
        <ele>332.7</ele>
        <time>2013-03-07T13:43:49Z</time>
      </trkpt>
      <trkpt lat="43.98883" lon="5.13069">
        <ele>335.6</ele>
        <time>2013-03-07T13:43:50Z</time>
      </trkpt>
      <trkpt lat="43.98886" lon="5.13065">
        <ele>336.5</ele>
        <time>2013-03-07T13:43:52Z</time>
      </trkpt>
      <trkpt lat="43.98886" lon="5.13064">
        <ele>337.5</ele>
        <time>2013-03-07T13:43:53Z</time>
      </trkpt>
      <trkpt lat="43.9889" lon="5.13062">
        <ele>337</ele>
        <time>2013-03-07T13:43:57Z</time>
      </trkpt>
      <trkpt lat="43.98892" lon="5.13062">
        <ele>335.3</ele>
        <time>2013-03-07T13:43:58Z</time>
      </trkpt>
      <trkpt lat="43.98895" lon="5.13061">
        <ele>336</ele>
        <time>2013-03-07T13:43:59Z</time>
      </trkpt>
      <trkpt lat="43.98897" lon="5.13061">
        <ele>335.9</ele>
        <time>2013-03-07T13:44:00Z</time>
      </trkpt>
      <trkpt lat="43.98901" lon="5.13063">
        <ele>335.6</ele>
        <time>2013-03-07T13:44:05Z</time>
      </trkpt>
      <trkpt lat="43.98906" lon="5.1307">
        <ele>333.9</ele>
        <time>2013-03-07T13:44:06Z</time>
      </trkpt>
      <trkpt lat="43.98909" lon="5.13074">
        <ele>334.5</ele>
        <time>2013-03-07T13:44:07Z</time>
      </trkpt>
      <trkpt lat="43.98911" lon="5.13083">
        <ele>336.3</ele>
        <time>2013-03-07T13:44:08Z</time>
      </trkpt>
      <trkpt lat="43.98906" lon="5.13085">
        <ele>338</ele>
        <time>2013-03-07T13:44:09Z</time>
      </trkpt>
      <trkpt lat="43.98903" lon="5.13084">
        <ele>338.2</ele>
        <time>2013-03-07T13:44:10Z</time>
      </trkpt>
      <trkpt lat="43.98901" lon="5.13088">
        <ele>338.6</ele>
        <time>2013-03-07T13:44:11Z</time>
      </trkpt>
      <trkpt lat="43.98898" lon="5.13088">
        <ele>339.6</ele>
        <time>2013-03-07T13:44:12Z</time>
      </trkpt>
      <trkpt lat="43.98896" lon="5.13074">
        <ele>344.5</ele>
        <time>2013-03-07T13:44:13Z</time>
      </trkpt>
      <trkpt lat="43.98896" lon="5.13068">
        <ele>343.1</ele>
        <time>2013-03-07T13:44:15Z</time>
      </trkpt>
      <trkpt lat="43.98897" lon="5.13067">
        <ele>342</ele>
        <time>2013-03-07T13:44:16Z</time>
      </trkpt>
      <trkpt lat="43.98899" lon="5.13065">
        <ele>341.6</ele>
        <time>2013-03-07T13:44:17Z</time>
      </trkpt>
      <trkpt lat="43.98901" lon="5.13063">
        <ele>341.6</ele>
        <time>2013-03-07T13:44:18Z</time>
      </trkpt>
      <trkpt lat="43.98904" lon="5.13059">
        <ele>341.1</ele>
        <time>2013-03-07T13:44:21Z</time>
      </trkpt>
      <trkpt lat="43.98906" lon="5.13058">
        <ele>341.5</ele>
        <time>2013-03-07T13:44:22Z</time>
      </trkpt>
      <trkpt lat="43.9891" lon="5.13056">
        <ele>343.2</ele>
        <time>2013-03-07T13:44:25Z</time>
      </trkpt>
      <trkpt lat="43.9891" lon="5.13055">
        <ele>343.6</ele>
        <time>2013-03-07T13:44:26Z</time>
      </trkpt>
      <trkpt lat="43.98914" lon="5.13058">
        <ele>339.6</ele>
        <time>2013-03-07T13:44:27Z</time>
      </trkpt>
      <trkpt lat="43.98915" lon="5.13057">
        <ele>338.7</ele>
        <time>2013-03-07T13:44:28Z</time>
      </trkpt>
      <trkpt lat="43.98919" lon="5.13055">
        <ele>337.3</ele>
        <time>2013-03-07T13:44:30Z</time>
      </trkpt>
      <trkpt lat="43.98921" lon="5.13055">
        <ele>336.1</ele>
        <time>2013-03-07T13:44:31Z</time>
      </trkpt>
      <trkpt lat="43.98922" lon="5.13049">
        <ele>340.2</ele>
        <time>2013-03-07T13:44:38Z</time>
      </trkpt>
      <trkpt lat="43.98922" lon="5.13046">
        <ele>340.1</ele>
        <time>2013-03-07T13:44:39Z</time>
      </trkpt>
      <trkpt lat="43.98923" lon="5.13051">
        <ele>338.7</ele>
        <time>2013-03-07T13:44:44Z</time>
      </trkpt>
      <trkpt lat="43.98923" lon="5.13052">
        <ele>338.6</ele>
        <time>2013-03-07T13:44:45Z</time>
      </trkpt>
      <trkpt lat="43.98926" lon="5.13053">
        <ele>337.9</ele>
        <time>2013-03-07T13:44:49Z</time>
      </trkpt>
      <trkpt lat="43.98927" lon="5.13052">
        <ele>338.1</ele>
        <time>2013-03-07T13:44:50Z</time>
      </trkpt>
      <trkpt lat="43.98931" lon="5.13053">
        <ele>338.3</ele>
        <time>2013-03-07T13:44:59Z</time>
      </trkpt>
      <trkpt lat="43.98932" lon="5.13051">
        <ele>338.4</ele>
        <time>2013-03-07T13:45:00Z</time>
      </trkpt>
      <trkpt lat="43.98935" lon="5.13053">
        <ele>340.4</ele>
        <time>2013-03-07T13:45:02Z</time>
      </trkpt>
      <trkpt lat="43.98938" lon="5.13044">
        <ele>339.8</ele>
        <time>2013-03-07T13:45:03Z</time>
      </trkpt>
      <trkpt lat="43.9894" lon="5.13035">
        <ele>340</ele>
        <time>2013-03-07T13:45:04Z</time>
      </trkpt>
      <trkpt lat="43.98939" lon="5.13038">
        <ele>340.6</ele>
        <time>2013-03-07T13:45:07Z</time>
      </trkpt>
      <trkpt lat="43.98932" lon="5.13046">
        <ele>345.5</ele>
        <time>2013-03-07T13:45:08Z</time>
      </trkpt>
      <trkpt lat="43.98934" lon="5.13052">
        <ele>344.7</ele>
        <time>2013-03-07T13:45:21Z</time>
      </trkpt>
      <trkpt lat="43.98934" lon="5.13052">
        <ele>344.6</ele>
        <time>2013-03-07T13:45:22Z</time>
      </trkpt>
      <trkpt lat="43.98938" lon="5.13052">
        <ele>343.5</ele>
        <time>2013-03-07T13:45:47Z</time>
      </trkpt>
      <trkpt lat="43.98939" lon="5.13052">
        <ele>342.8</ele>
        <time>2013-03-07T13:45:48Z</time>
      </trkpt>
      <trkpt lat="43.98944" lon="5.13053">
        <ele>341.2</ele>
        <time>2013-03-07T13:45:57Z</time>
      </trkpt>
      <trkpt lat="43.98945" lon="5.13053">
        <ele>340.8</ele>
        <time>2013-03-07T13:45:58Z</time>
      </trkpt>
      <trkpt lat="43.98948" lon="5.1305">
        <ele>339.7</ele>
        <time>2013-03-07T13:46:06Z</time>
      </trkpt>
      <trkpt lat="43.9895" lon="5.13049">
        <ele>338.9</ele>
        <time>2013-03-07T13:46:07Z</time>
      </trkpt>
      <trkpt lat="43.98954" lon="5.13047">
        <ele>337.5</ele>
        <time>2013-03-07T13:46:10Z</time>
      </trkpt>
      <trkpt lat="43.98955" lon="5.13047">
        <ele>337.6</ele>
        <time>2013-03-07T13:46:11Z</time>
      </trkpt>
      <trkpt lat="43.98959" lon="5.13045">
        <ele>337</ele>
        <time>2013-03-07T13:46:17Z</time>
      </trkpt>
      <trkpt lat="43.9896" lon="5.13045">
        <ele>337</ele>
        <time>2013-03-07T13:46:18Z</time>
      </trkpt>
      <trkpt lat="43.98959" lon="5.13045">
        <ele>337.7</ele>
        <time>2013-03-07T13:46:26Z</time>
      </trkpt>
      <trkpt lat="43.98954" lon="5.13053">
        <ele>337.9</ele>
        <time>2013-03-07T13:46:27Z</time>
      </trkpt>
      <trkpt lat="43.98951" lon="5.1306">
        <ele>338</ele>
        <time>2013-03-07T13:46:28Z</time>
      </trkpt>
      <trkpt lat="43.98946" lon="5.13063">
        <ele>338.4</ele>
        <time>2013-03-07T13:46:29Z</time>
      </trkpt>
      <trkpt lat="43.98941" lon="5.13071">
        <ele>339</ele>
        <time>2013-03-07T13:46:30Z</time>
      </trkpt>
      <trkpt lat="43.98941" lon="5.13068">
        <ele>335</ele>
        <time>2013-03-07T13:46:33Z</time>
      </trkpt>
      <trkpt lat="43.98943" lon="5.13065">
        <ele>334.7</ele>
        <time>2013-03-07T13:46:34Z</time>
      </trkpt>
      <trkpt lat="43.98945" lon="5.13061">
        <ele>333.8</ele>
        <time>2013-03-07T13:46:35Z</time>
      </trkpt>
      <trkpt lat="43.98947" lon="5.13056">
        <ele>333.2</ele>
        <time>2013-03-07T13:46:36Z</time>
      </trkpt>
      <trkpt lat="43.98949" lon="5.13053">
        <ele>333.8</ele>
        <time>2013-03-07T13:46:37Z</time>
      </trkpt>
      <trkpt lat="43.98949" lon="5.13049">
        <ele>333.3</ele>
        <time>2013-03-07T13:46:38Z</time>
      </trkpt>
      <trkpt lat="43.98952" lon="5.13045">
        <ele>335.2</ele>
        <time>2013-03-07T13:46:44Z</time>
      </trkpt>
      <trkpt lat="43.98952" lon="5.13044">
        <ele>335.2</ele>
        <time>2013-03-07T13:46:45Z</time>
      </trkpt>
      <trkpt lat="43.98953" lon="5.13041">
        <ele>335.2</ele>
        <time>2013-03-07T13:46:47Z</time>
      </trkpt>
      <trkpt lat="43.98954" lon="5.13037">
        <ele>337.4</ele>
        <time>2013-03-07T13:46:48Z</time>
      </trkpt>
      <trkpt lat="43.98956" lon="5.13032">
        <ele>337.8</ele>
        <time>2013-03-07T13:46:50Z</time>
      </trkpt>
      <trkpt lat="43.98957" lon="5.13031">
        <ele>338</ele>
        <time>2013-03-07T13:46:51Z</time>
      </trkpt>
      <trkpt lat="43.98956" lon="5.13026">
        <ele>338.7</ele>
        <time>2013-03-07T13:46:57Z</time>
      </trkpt>
      <trkpt lat="43.98956" lon="5.13024">
        <ele>338.4</ele>
        <time>2013-03-07T13:46:58Z</time>
      </trkpt>
      <trkpt lat="43.98958" lon="5.13019">
        <ele>338.5</ele>
        <time>2013-03-07T13:47:01Z</time>
      </trkpt>
      <trkpt lat="43.98958" lon="5.13017">
        <ele>338.1</ele>
        <time>2013-03-07T13:47:02Z</time>
      </trkpt>
      <trkpt lat="43.98958" lon="5.13011">
        <ele>341.5</ele>
        <time>2013-03-07T13:47:08Z</time>
      </trkpt>
      <trkpt lat="43.98958" lon="5.1301">
        <ele>341.7</ele>
        <time>2013-03-07T13:47:09Z</time>
      </trkpt>
      <trkpt lat="43.98955" lon="5.13011">
        <ele>342.4</ele>
        <time>2013-03-07T13:47:19Z</time>
      </trkpt>
      <trkpt lat="43.98953" lon="5.13014">
        <ele>343.2</ele>
        <time>2013-03-07T13:47:20Z</time>
      </trkpt>
      <trkpt lat="43.98948" lon="5.13015">
        <ele>343.9</ele>
        <time>2013-03-07T13:47:21Z</time>
      </trkpt>
      <trkpt lat="43.98951" lon="5.13017">
        <ele>345.4</ele>
        <time>2013-03-07T13:47:26Z</time>
      </trkpt>
      <trkpt lat="43.98952" lon="5.13017">
        <ele>345.5</ele>
        <time>2013-03-07T13:47:27Z</time>
      </trkpt>
      <trkpt lat="43.98956" lon="5.13014">
        <ele>345</ele>
        <time>2013-03-07T13:47:30Z</time>
      </trkpt>
      <trkpt lat="43.98958" lon="5.13013">
        <ele>344.2</ele>
        <time>2013-03-07T13:47:31Z</time>
      </trkpt>
      <trkpt lat="43.98961" lon="5.13011">
        <ele>343.8</ele>
        <time>2013-03-07T13:47:52Z</time>
      </trkpt>
      <trkpt lat="43.98961" lon="5.13008">
        <ele>343.3</ele>
        <time>2013-03-07T13:47:53Z</time>
      </trkpt>
      <trkpt lat="43.98961" lon="5.13004">
        <ele>343.4</ele>
        <time>2013-03-07T13:47:59Z</time>
      </trkpt>
      <trkpt lat="43.98959" lon="5.13001">
        <ele>343.2</ele>
        <time>2013-03-07T13:48:00Z</time>
      </trkpt>
      <trkpt lat="43.9896" lon="5.12997">
        <ele>342.4</ele>
        <time>2013-03-07T13:48:02Z</time>
      </trkpt>
      <trkpt lat="43.98959" lon="5.12995">
        <ele>342.7</ele>
        <time>2013-03-07T13:48:03Z</time>
      </trkpt>
      <trkpt lat="43.98958" lon="5.1299">
        <ele>343.3</ele>
        <time>2013-03-07T13:48:05Z</time>
      </trkpt>
      <trkpt lat="43.98958" lon="5.12985">
        <ele>343</ele>
        <time>2013-03-07T13:48:06Z</time>
      </trkpt>
      <trkpt lat="43.98957" lon="5.12981">
        <ele>343</ele>
        <time>2013-03-07T13:48:07Z</time>
      </trkpt>
      <trkpt lat="43.98956" lon="5.12978">
        <ele>342.3</ele>
        <time>2013-03-07T13:48:08Z</time>
      </trkpt>
      <trkpt lat="43.98955" lon="5.12976">
        <ele>342.2</ele>
        <time>2013-03-07T13:48:09Z</time>
      </trkpt>
      <trkpt lat="43.98953" lon="5.12973">
        <ele>342.7</ele>
        <time>2013-03-07T13:48:10Z</time>
      </trkpt>
      <trkpt lat="43.98952" lon="5.12971">
        <ele>343.1</ele>
        <time>2013-03-07T13:48:11Z</time>
      </trkpt>
      <trkpt lat="43.98951" lon="5.12967">
        <ele>343.1</ele>
        <time>2013-03-07T13:48:12Z</time>
      </trkpt>
      <trkpt lat="43.9895" lon="5.12964">
        <ele>343.4</ele>
        <time>2013-03-07T13:48:13Z</time>
      </trkpt>
      <trkpt lat="43.9895" lon="5.12961">
        <ele>343.5</ele>
        <time>2013-03-07T13:48:14Z</time>
      </trkpt>
      <trkpt lat="43.98948" lon="5.12959">
        <ele>343.2</ele>
        <time>2013-03-07T13:48:15Z</time>
      </trkpt>
      <trkpt lat="43.98948" lon="5.12954">
        <ele>343</ele>
        <time>2013-03-07T13:48:16Z</time>
      </trkpt>
      <trkpt lat="43.98947" lon="5.12952">
        <ele>343.3</ele>
        <time>2013-03-07T13:48:17Z</time>
      </trkpt>
      <trkpt lat="43.98946" lon="5.12948">
        <ele>343.4</ele>
        <time>2013-03-07T13:48:18Z</time>
      </trkpt>
      <trkpt lat="43.98947" lon="5.12946">
        <ele>342.6</ele>
        <time>2013-03-07T13:49:16Z</time>
      </trkpt>
      <trkpt lat="43.98949" lon="5.12942">
        <ele>341.5</ele>
        <time>2013-03-07T13:49:17Z</time>
      </trkpt>
      <trkpt lat="43.98951" lon="5.12945">
        <ele>341.2</ele>
        <time>2013-03-07T13:49:22Z</time>
      </trkpt>
      <trkpt lat="43.98952" lon="5.12947">
        <ele>340.4</ele>
        <time>2013-03-07T13:49:23Z</time>
      </trkpt>
      <trkpt lat="43.98953" lon="5.12951">
        <ele>340.1</ele>
        <time>2013-03-07T13:49:24Z</time>
      </trkpt>
      <trkpt lat="43.98953" lon="5.12955">
        <ele>339.2</ele>
        <time>2013-03-07T13:49:25Z</time>
      </trkpt>
      <trkpt lat="43.98954" lon="5.12961">
        <ele>339</ele>
        <time>2013-03-07T13:49:27Z</time>
      </trkpt>
      <trkpt lat="43.98954" lon="5.12963">
        <ele>339.3</ele>
        <time>2013-03-07T13:49:28Z</time>
      </trkpt>
      <trkpt lat="43.98955" lon="5.12968">
        <ele>339.7</ele>
        <time>2013-03-07T13:49:30Z</time>
      </trkpt>
      <trkpt lat="43.98955" lon="5.1297">
        <ele>339.3</ele>
        <time>2013-03-07T13:49:31Z</time>
      </trkpt>
      <trkpt lat="43.98957" lon="5.12972">
        <ele>339.7</ele>
        <time>2013-03-07T13:49:32Z</time>
      </trkpt>
      <trkpt lat="43.98958" lon="5.12976">
        <ele>339.3</ele>
        <time>2013-03-07T13:49:33Z</time>
      </trkpt>
      <trkpt lat="43.98958" lon="5.12979">
        <ele>339.3</ele>
        <time>2013-03-07T13:49:34Z</time>
      </trkpt>
      <trkpt lat="43.98959" lon="5.12983">
        <ele>339.6</ele>
        <time>2013-03-07T13:49:35Z</time>
      </trkpt>
      <trkpt lat="43.98959" lon="5.12987">
        <ele>339.7</ele>
        <time>2013-03-07T13:49:36Z</time>
      </trkpt>
      <trkpt lat="43.98959" lon="5.1299">
        <ele>339.4</ele>
        <time>2013-03-07T13:49:37Z</time>
      </trkpt>
      <trkpt lat="43.98959" lon="5.12993">
        <ele>339.2</ele>
        <time>2013-03-07T13:49:38Z</time>
      </trkpt>
      <trkpt lat="43.9896" lon="5.12997">
        <ele>338.3</ele>
        <time>2013-03-07T13:49:39Z</time>
      </trkpt>
      <trkpt lat="43.98961" lon="5.13001">
        <ele>338.3</ele>
        <time>2013-03-07T13:49:40Z</time>
      </trkpt>
      <trkpt lat="43.98962" lon="5.13004">
        <ele>338.4</ele>
        <time>2013-03-07T13:49:41Z</time>
      </trkpt>
      <trkpt lat="43.98963" lon="5.13006">
        <ele>338.4</ele>
        <time>2013-03-07T13:49:42Z</time>
      </trkpt>
      <trkpt lat="43.98964" lon="5.13009">
        <ele>337.7</ele>
        <time>2013-03-07T13:49:43Z</time>
      </trkpt>
      <trkpt lat="43.98966" lon="5.13012">
        <ele>337.8</ele>
        <time>2013-03-07T13:49:44Z</time>
      </trkpt>
      <trkpt lat="43.98964" lon="5.13016">
        <ele>337.3</ele>
        <time>2013-03-07T13:49:45Z</time>
      </trkpt>
      <trkpt lat="43.98965" lon="5.13019">
        <ele>337</ele>
        <time>2013-03-07T13:49:46Z</time>
      </trkpt>
      <trkpt lat="43.98967" lon="5.13021">
        <ele>337.5</ele>
        <time>2013-03-07T13:49:47Z</time>
      </trkpt>
      <trkpt lat="43.98969" lon="5.13026">
        <ele>337</ele>
        <time>2013-03-07T13:49:49Z</time>
      </trkpt>
      <trkpt lat="43.98967" lon="5.13028">
        <ele>337</ele>
        <time>2013-03-07T13:49:50Z</time>
      </trkpt>
      <trkpt lat="43.98965" lon="5.13031">
        <ele>336.4</ele>
        <time>2013-03-07T13:49:52Z</time>
      </trkpt>
      <trkpt lat="43.98965" lon="5.13033">
        <ele>336</ele>
        <time>2013-03-07T13:49:53Z</time>
      </trkpt>
      <trkpt lat="43.98965" lon="5.13039">
        <ele>335</ele>
        <time>2013-03-07T13:49:56Z</time>
      </trkpt>
      <trkpt lat="43.98969" lon="5.1304">
        <ele>334.4</ele>
        <time>2013-03-07T13:49:57Z</time>
      </trkpt>
      <trkpt lat="43.98972" lon="5.13041">
        <ele>333.2</ele>
        <time>2013-03-07T13:49:59Z</time>
      </trkpt>
      <trkpt lat="43.98974" lon="5.13042">
        <ele>333.2</ele>
        <time>2013-03-07T13:50:00Z</time>
      </trkpt>
      <trkpt lat="43.98978" lon="5.13043">
        <ele>332.2</ele>
        <time>2013-03-07T13:50:02Z</time>
      </trkpt>
      <trkpt lat="43.9898" lon="5.13044">
        <ele>332.8</ele>
        <time>2013-03-07T13:50:03Z</time>
      </trkpt>
      <trkpt lat="43.98983" lon="5.13044">
        <ele>332</ele>
        <time>2013-03-07T13:50:04Z</time>
      </trkpt>
      <trkpt lat="43.98985" lon="5.13044">
        <ele>331.6</ele>
        <time>2013-03-07T13:50:05Z</time>
      </trkpt>
      <trkpt lat="43.98988" lon="5.13045">
        <ele>331</ele>
        <time>2013-03-07T13:50:06Z</time>
      </trkpt>
      <trkpt lat="43.98991" lon="5.13046">
        <ele>330.2</ele>
        <time>2013-03-07T13:50:07Z</time>
      </trkpt>
      <trkpt lat="43.98993" lon="5.13046">
        <ele>329.9</ele>
        <time>2013-03-07T13:50:08Z</time>
      </trkpt>
      <trkpt lat="43.98996" lon="5.13046">
        <ele>329.3</ele>
        <time>2013-03-07T13:50:09Z</time>
      </trkpt>
      <trkpt lat="43.98998" lon="5.13046">
        <ele>329</ele>
        <time>2013-03-07T13:50:10Z</time>
      </trkpt>
      <trkpt lat="43.99001" lon="5.13047">
        <ele>328.8</ele>
        <time>2013-03-07T13:50:11Z</time>
      </trkpt>
      <trkpt lat="43.99003" lon="5.13048">
        <ele>328.9</ele>
        <time>2013-03-07T13:50:12Z</time>
      </trkpt>
      <trkpt lat="43.99005" lon="5.13052">
        <ele>328.3</ele>
        <time>2013-03-07T13:50:13Z</time>
      </trkpt>
      <trkpt lat="43.99007" lon="5.13054">
        <ele>327.5</ele>
        <time>2013-03-07T13:50:14Z</time>
      </trkpt>
      <trkpt lat="43.99009" lon="5.13058">
        <ele>326.7</ele>
        <time>2013-03-07T13:50:15Z</time>
      </trkpt>
      <trkpt lat="43.9901" lon="5.13061">
        <ele>325.9</ele>
        <time>2013-03-07T13:50:16Z</time>
      </trkpt>
      <trkpt lat="43.99012" lon="5.13063">
        <ele>325.4</ele>
        <time>2013-03-07T13:50:17Z</time>
      </trkpt>
      <trkpt lat="43.99013" lon="5.13066">
        <ele>324.9</ele>
        <time>2013-03-07T13:50:18Z</time>
      </trkpt>
      <trkpt lat="43.99015" lon="5.13068">
        <ele>325</ele>
        <time>2013-03-07T13:50:19Z</time>
      </trkpt>
      <trkpt lat="43.99018" lon="5.13069">
        <ele>325.1</ele>
        <time>2013-03-07T13:50:20Z</time>
      </trkpt>
      <trkpt lat="43.99022" lon="5.13069">
        <ele>325.1</ele>
        <time>2013-03-07T13:50:21Z</time>
      </trkpt>
      <trkpt lat="43.99026" lon="5.13069">
        <ele>324.5</ele>
        <time>2013-03-07T13:50:22Z</time>
      </trkpt>
      <trkpt lat="43.99029" lon="5.13069">
        <ele>323.9</ele>
        <time>2013-03-07T13:50:23Z</time>
      </trkpt>
      <trkpt lat="43.9903" lon="5.13073">
        <ele>323.5</ele>
        <time>2013-03-07T13:50:24Z</time>
      </trkpt>
      <trkpt lat="43.99033" lon="5.13076">
        <ele>323.3</ele>
        <time>2013-03-07T13:50:25Z</time>
      </trkpt>
      <trkpt lat="43.99035" lon="5.13079">
        <ele>323</ele>
        <time>2013-03-07T13:50:26Z</time>
      </trkpt>
      <trkpt lat="43.99039" lon="5.1308">
        <ele>322.5</ele>
        <time>2013-03-07T13:50:27Z</time>
      </trkpt>
      <trkpt lat="43.99042" lon="5.13082">
        <ele>322.5</ele>
        <time>2013-03-07T13:50:28Z</time>
      </trkpt>
      <trkpt lat="43.99045" lon="5.13083">
        <ele>322.4</ele>
        <time>2013-03-07T13:50:29Z</time>
      </trkpt>
      <trkpt lat="43.99048" lon="5.13085">
        <ele>322</ele>
        <time>2013-03-07T13:50:30Z</time>
      </trkpt>
      <trkpt lat="43.99051" lon="5.13086">
        <ele>321.6</ele>
        <time>2013-03-07T13:50:31Z</time>
      </trkpt>
      <trkpt lat="43.99055" lon="5.13088">
        <ele>320.7</ele>
        <time>2013-03-07T13:50:32Z</time>
      </trkpt>
      <trkpt lat="43.99059" lon="5.13089">
        <ele>320.8</ele>
        <time>2013-03-07T13:50:33Z</time>
      </trkpt>
      <trkpt lat="43.99064" lon="5.13089">
        <ele>319.5</ele>
        <time>2013-03-07T13:50:34Z</time>
      </trkpt>
      <trkpt lat="43.99068" lon="5.13089">
        <ele>320</ele>
        <time>2013-03-07T13:50:35Z</time>
      </trkpt>
      <trkpt lat="43.99072" lon="5.1309">
        <ele>318.8</ele>
        <time>2013-03-07T13:50:36Z</time>
      </trkpt>
      <trkpt lat="43.99077" lon="5.1309">
        <ele>318.2</ele>
        <time>2013-03-07T13:50:37Z</time>
      </trkpt>
      <trkpt lat="43.99082" lon="5.1309">
        <ele>317</ele>
        <time>2013-03-07T13:50:38Z</time>
      </trkpt>
      <trkpt lat="43.99088" lon="5.1309">
        <ele>316.4</ele>
        <time>2013-03-07T13:50:39Z</time>
      </trkpt>
      <trkpt lat="43.99093" lon="5.1309">
        <ele>316.2</ele>
        <time>2013-03-07T13:50:40Z</time>
      </trkpt>
      <trkpt lat="43.99098" lon="5.13091">
        <ele>315.3</ele>
        <time>2013-03-07T13:50:41Z</time>
      </trkpt>
      <trkpt lat="43.99102" lon="5.13093">
        <ele>314.9</ele>
        <time>2013-03-07T13:50:42Z</time>
      </trkpt>
      <trkpt lat="43.99105" lon="5.13094">
        <ele>315.1</ele>
        <time>2013-03-07T13:50:43Z</time>
      </trkpt>
      <trkpt lat="43.99109" lon="5.13095">
        <ele>314.7</ele>
        <time>2013-03-07T13:50:44Z</time>
      </trkpt>
      <trkpt lat="43.9911" lon="5.13099">
        <ele>314.2</ele>
        <time>2013-03-07T13:50:45Z</time>
      </trkpt>
      <trkpt lat="43.99112" lon="5.13102">
        <ele>314.5</ele>
        <time>2013-03-07T13:50:46Z</time>
      </trkpt>
      <trkpt lat="43.99115" lon="5.13104">
        <ele>314.7</ele>
        <time>2013-03-07T13:50:47Z</time>
      </trkpt>
      <trkpt lat="43.99118" lon="5.13105">
        <ele>314.5</ele>
        <time>2013-03-07T13:50:48Z</time>
      </trkpt>
      <trkpt lat="43.99121" lon="5.13106">
        <ele>314.9</ele>
        <time>2013-03-07T13:50:49Z</time>
      </trkpt>
      <trkpt lat="43.99125" lon="5.13106">
        <ele>314.6</ele>
        <time>2013-03-07T13:50:50Z</time>
      </trkpt>
      <trkpt lat="43.99129" lon="5.13105">
        <ele>314.6</ele>
        <time>2013-03-07T13:50:51Z</time>
      </trkpt>
      <trkpt lat="43.99131" lon="5.13106">
        <ele>315.2</ele>
        <time>2013-03-07T13:50:52Z</time>
      </trkpt>
      <trkpt lat="43.99135" lon="5.13106">
        <ele>316.3</ele>
        <time>2013-03-07T13:50:53Z</time>
      </trkpt>
      <trkpt lat="43.99138" lon="5.13108">
        <ele>311.9</ele>
        <time>2013-03-07T13:50:54Z</time>
      </trkpt>
      <trkpt lat="43.99141" lon="5.13108">
        <ele>311.2</ele>
        <time>2013-03-07T13:50:55Z</time>
      </trkpt>
      <trkpt lat="43.99144" lon="5.13109">
        <ele>310.1</ele>
        <time>2013-03-07T13:50:56Z</time>
      </trkpt>
      <trkpt lat="43.99148" lon="5.13111">
        <ele>309.2</ele>
        <time>2013-03-07T13:50:57Z</time>
      </trkpt>
      <trkpt lat="43.99142" lon="5.13108">
        <ele>311.3</ele>
        <time>2013-03-07T13:50:58Z</time>
      </trkpt>
      <trkpt lat="43.99143" lon="5.13108">
        <ele>310.8</ele>
        <time>2013-03-07T13:51:03Z</time>
      </trkpt>
    </trkseg>
  </trk>
</gpx>